<?xml version="1.0" encoding="UTF-8" standalone="no" ?>
<gpx xmlns="http://www.topografix.com/GPX/1/1" xmlns:xsi="http://www.w3.org/2001/XMLSchema-instance" xsi:schemaLocation="http://www.topografix.com/GPX/1/1 http://www.topografix.com/GPX/1/1/gpx.xsd" version="1.1" creator="VisuGPX - https://www.visugpx.com">
  <metadata>
    <name>Etang du Rousset</name>
    <desc><![CDATA[Trace AlpineQuest 02/08/2020 07:17:39]]></desc>
  </metadata>
  <trk>
    <name><![CDATA[Etang du Rousset_1]]></name>
    <trkseg>
      <trkpt lat="46.53784" lon="4.53364">
        <ele>250.6</ele>
        <time>2020-08-02T05:17:39Z</time>
      </trkpt>
      <trkpt lat="46.53777" lon="4.53361">
        <ele>250.6</ele>
        <time>2020-08-02T05:17:46Z</time>
      </trkpt>
      <trkpt lat="46.53775" lon="4.53351">
        <ele>248.6</ele>
        <time>2020-08-02T05:17:55Z</time>
      </trkpt>
      <trkpt lat="46.53772" lon="4.53341">
        <ele>248.6</ele>
        <time>2020-08-02T05:18:04Z</time>
      </trkpt>
      <trkpt lat="46.53767" lon="4.53334">
        <ele>251.6</ele>
        <time>2020-08-02T05:18:26Z</time>
      </trkpt>
      <trkpt lat="46.53761" lon="4.53333">
        <ele>245.6</ele>
        <time>2020-08-02T05:18:33Z</time>
      </trkpt>
      <trkpt lat="46.53754" lon="4.53333">
        <ele>243.6</ele>
        <time>2020-08-02T05:18:40Z</time>
      </trkpt>
      <trkpt lat="46.53746" lon="4.53338">
        <ele>242.6</ele>
        <time>2020-08-02T05:18:45Z</time>
      </trkpt>
      <trkpt lat="46.53739" lon="4.53335">
        <ele>238.6</ele>
        <time>2020-08-02T05:18:51Z</time>
      </trkpt>
      <trkpt lat="46.53731" lon="4.53335">
        <ele>238.6</ele>
        <time>2020-08-02T05:18:56Z</time>
      </trkpt>
      <trkpt lat="46.53724" lon="4.53336">
        <ele>237.6</ele>
        <time>2020-08-02T05:19:03Z</time>
      </trkpt>
      <trkpt lat="46.53718" lon="4.53327">
        <ele>238.6</ele>
        <time>2020-08-02T05:19:08Z</time>
      </trkpt>
      <trkpt lat="46.53711" lon="4.53334">
        <ele>238.6</ele>
        <time>2020-08-02T05:19:13Z</time>
      </trkpt>
      <trkpt lat="46.53704" lon="4.53339">
        <ele>237.6</ele>
        <time>2020-08-02T05:19:18Z</time>
      </trkpt>
      <trkpt lat="46.53697" lon="4.53333">
        <ele>234.6</ele>
        <time>2020-08-02T05:19:25Z</time>
      </trkpt>
      <trkpt lat="46.53688" lon="4.53333">
        <ele>234.6</ele>
        <time>2020-08-02T05:19:30Z</time>
      </trkpt>
      <trkpt lat="46.53679" lon="4.53333">
        <ele>235.6</ele>
        <time>2020-08-02T05:19:35Z</time>
      </trkpt>
      <trkpt lat="46.53673" lon="4.53329">
        <ele>234.6</ele>
        <time>2020-08-02T05:19:43Z</time>
      </trkpt>
      <trkpt lat="46.53665" lon="4.5333">
        <ele>232.6</ele>
        <time>2020-08-02T05:19:48Z</time>
      </trkpt>
      <trkpt lat="46.53658" lon="4.53322">
        <ele>232.6</ele>
        <time>2020-08-02T05:19:53Z</time>
      </trkpt>
      <trkpt lat="46.53651" lon="4.53322">
        <ele>229.6</ele>
        <time>2020-08-02T05:20:00Z</time>
      </trkpt>
      <trkpt lat="46.53644" lon="4.53313">
        <ele>230.6</ele>
        <time>2020-08-02T05:20:05Z</time>
      </trkpt>
      <trkpt lat="46.53635" lon="4.53307">
        <ele>231.6</ele>
        <time>2020-08-02T05:20:10Z</time>
      </trkpt>
      <trkpt lat="46.53629" lon="4.533">
        <ele>233.6</ele>
        <time>2020-08-02T05:20:15Z</time>
      </trkpt>
      <trkpt lat="46.53624" lon="4.53293">
        <ele>233.6</ele>
        <time>2020-08-02T05:20:20Z</time>
      </trkpt>
      <trkpt lat="46.53618" lon="4.53291">
        <ele>233.6</ele>
        <time>2020-08-02T05:20:25Z</time>
      </trkpt>
      <trkpt lat="46.53611" lon="4.53287">
        <ele>234.6</ele>
        <time>2020-08-02T05:20:30Z</time>
      </trkpt>
      <trkpt lat="46.53604" lon="4.53286">
        <ele>236.6</ele>
        <time>2020-08-02T05:20:36Z</time>
      </trkpt>
      <trkpt lat="46.53597" lon="4.53283">
        <ele>233.6</ele>
        <time>2020-08-02T05:20:41Z</time>
      </trkpt>
      <trkpt lat="46.5359" lon="4.53273">
        <ele>232.6</ele>
        <time>2020-08-02T05:20:46Z</time>
      </trkpt>
      <trkpt lat="46.53583" lon="4.53269">
        <ele>233.6</ele>
        <time>2020-08-02T05:20:53Z</time>
      </trkpt>
      <trkpt lat="46.53576" lon="4.53266">
        <ele>234.6</ele>
        <time>2020-08-02T05:20:58Z</time>
      </trkpt>
      <trkpt lat="46.53572" lon="4.53258">
        <ele>237.6</ele>
        <time>2020-08-02T05:21:03Z</time>
      </trkpt>
      <trkpt lat="46.53565" lon="4.53254">
        <ele>238.6</ele>
        <time>2020-08-02T05:21:09Z</time>
      </trkpt>
      <trkpt lat="46.53561" lon="4.53246">
        <ele>235.6</ele>
        <time>2020-08-02T05:21:14Z</time>
      </trkpt>
      <trkpt lat="46.53554" lon="4.53242">
        <ele>236.6</ele>
        <time>2020-08-02T05:21:20Z</time>
      </trkpt>
      <trkpt lat="46.53548" lon="4.53236">
        <ele>235.6</ele>
        <time>2020-08-02T05:21:26Z</time>
      </trkpt>
      <trkpt lat="46.53539" lon="4.53233">
        <ele>237.6</ele>
        <time>2020-08-02T05:21:31Z</time>
      </trkpt>
      <trkpt lat="46.53533" lon="4.53228">
        <ele>236.6</ele>
        <time>2020-08-02T05:21:36Z</time>
      </trkpt>
      <trkpt lat="46.53526" lon="4.5322">
        <ele>236.6</ele>
        <time>2020-08-02T05:21:41Z</time>
      </trkpt>
      <trkpt lat="46.53521" lon="4.53214">
        <ele>238.6</ele>
        <time>2020-08-02T05:21:47Z</time>
      </trkpt>
      <trkpt lat="46.53514" lon="4.53208">
        <ele>237.6</ele>
        <time>2020-08-02T05:21:53Z</time>
      </trkpt>
      <trkpt lat="46.53505" lon="4.53198">
        <ele>242.599</ele>
        <time>2020-08-02T05:21:58Z</time>
      </trkpt>
      <trkpt lat="46.53499" lon="4.53192">
        <ele>241.599</ele>
        <time>2020-08-02T05:22:07Z</time>
      </trkpt>
      <trkpt lat="46.53492" lon="4.53191">
        <ele>238.599</ele>
        <time>2020-08-02T05:22:12Z</time>
      </trkpt>
      <trkpt lat="46.53484" lon="4.53184">
        <ele>239.599</ele>
        <time>2020-08-02T05:22:17Z</time>
      </trkpt>
      <trkpt lat="46.53478" lon="4.53181">
        <ele>238.599</ele>
        <time>2020-08-02T05:22:22Z</time>
      </trkpt>
      <trkpt lat="46.53471" lon="4.53184">
        <ele>235.599</ele>
        <time>2020-08-02T05:22:29Z</time>
      </trkpt>
      <trkpt lat="46.53464" lon="4.53182">
        <ele>236.599</ele>
        <time>2020-08-02T05:22:35Z</time>
      </trkpt>
      <trkpt lat="46.53457" lon="4.53181">
        <ele>236.599</ele>
        <time>2020-08-02T05:22:40Z</time>
      </trkpt>
      <trkpt lat="46.5345" lon="4.53174">
        <ele>234.599</ele>
        <time>2020-08-02T05:22:45Z</time>
      </trkpt>
      <trkpt lat="46.53444" lon="4.53169">
        <ele>235.599</ele>
        <time>2020-08-02T05:22:50Z</time>
      </trkpt>
      <trkpt lat="46.53435" lon="4.53156">
        <ele>240.599</ele>
        <time>2020-08-02T05:22:55Z</time>
      </trkpt>
      <trkpt lat="46.53427" lon="4.53153">
        <ele>242.599</ele>
        <time>2020-08-02T05:23:00Z</time>
      </trkpt>
      <trkpt lat="46.53421" lon="4.53142">
        <ele>244.599</ele>
        <time>2020-08-02T05:23:05Z</time>
      </trkpt>
      <trkpt lat="46.53415" lon="4.53132">
        <ele>246.599</ele>
        <time>2020-08-02T05:23:10Z</time>
      </trkpt>
      <trkpt lat="46.5341" lon="4.53124">
        <ele>250.599</ele>
        <time>2020-08-02T05:23:16Z</time>
      </trkpt>
      <trkpt lat="46.53409" lon="4.53114">
        <ele>252.599</ele>
        <time>2020-08-02T05:23:21Z</time>
      </trkpt>
      <trkpt lat="46.5341" lon="4.53103">
        <ele>249.599</ele>
        <time>2020-08-02T05:23:28Z</time>
      </trkpt>
      <trkpt lat="46.5341" lon="4.53092">
        <ele>251.599</ele>
        <time>2020-08-02T05:23:33Z</time>
      </trkpt>
      <trkpt lat="46.53408" lon="4.53081">
        <ele>253.599</ele>
        <time>2020-08-02T05:23:40Z</time>
      </trkpt>
      <trkpt lat="46.53402" lon="4.53069">
        <ele>254.599</ele>
        <time>2020-08-02T05:23:45Z</time>
      </trkpt>
      <trkpt lat="46.53401" lon="4.53059">
        <ele>256.599</ele>
        <time>2020-08-02T05:23:50Z</time>
      </trkpt>
      <trkpt lat="46.53403" lon="4.53049">
        <ele>257.599</ele>
        <time>2020-08-02T05:23:55Z</time>
      </trkpt>
      <trkpt lat="46.53399" lon="4.5304">
        <ele>256.599</ele>
        <time>2020-08-02T05:24:00Z</time>
      </trkpt>
      <trkpt lat="46.53401" lon="4.53031">
        <ele>255.599</ele>
        <time>2020-08-02T05:24:05Z</time>
      </trkpt>
      <trkpt lat="46.53395" lon="4.53019">
        <ele>256.599</ele>
        <time>2020-08-02T05:24:10Z</time>
      </trkpt>
      <trkpt lat="46.53394" lon="4.5301">
        <ele>257.599</ele>
        <time>2020-08-02T05:24:15Z</time>
      </trkpt>
      <trkpt lat="46.53392" lon="4.53">
        <ele>257.599</ele>
        <time>2020-08-02T05:24:20Z</time>
      </trkpt>
      <trkpt lat="46.53393" lon="4.52991">
        <ele>259.599</ele>
        <time>2020-08-02T05:24:25Z</time>
      </trkpt>
      <trkpt lat="46.53388" lon="4.52984">
        <ele>257.599</ele>
        <time>2020-08-02T05:24:30Z</time>
      </trkpt>
      <trkpt lat="46.53387" lon="4.52973">
        <ele>258.599</ele>
        <time>2020-08-02T05:24:35Z</time>
      </trkpt>
      <trkpt lat="46.53384" lon="4.52964">
        <ele>259.599</ele>
        <time>2020-08-02T05:24:40Z</time>
      </trkpt>
      <trkpt lat="46.53381" lon="4.52955">
        <ele>257.599</ele>
        <time>2020-08-02T05:24:45Z</time>
      </trkpt>
      <trkpt lat="46.53378" lon="4.52945">
        <ele>258.599</ele>
        <time>2020-08-02T05:24:51Z</time>
      </trkpt>
      <trkpt lat="46.53375" lon="4.52935">
        <ele>257.599</ele>
        <time>2020-08-02T05:24:56Z</time>
      </trkpt>
      <trkpt lat="46.53372" lon="4.52926">
        <ele>258.599</ele>
        <time>2020-08-02T05:25:01Z</time>
      </trkpt>
      <trkpt lat="46.53371" lon="4.52916">
        <ele>258.599</ele>
        <time>2020-08-02T05:25:08Z</time>
      </trkpt>
      <trkpt lat="46.53364" lon="4.52906">
        <ele>260.599</ele>
        <time>2020-08-02T05:25:13Z</time>
      </trkpt>
      <trkpt lat="46.53363" lon="4.52896">
        <ele>259.599</ele>
        <time>2020-08-02T05:25:18Z</time>
      </trkpt>
      <trkpt lat="46.53358" lon="4.52887">
        <ele>254.599</ele>
        <time>2020-08-02T05:25:25Z</time>
      </trkpt>
      <trkpt lat="46.53355" lon="4.52878">
        <ele>253.599</ele>
        <time>2020-08-02T05:25:30Z</time>
      </trkpt>
      <trkpt lat="46.53353" lon="4.52868">
        <ele>255.599</ele>
        <time>2020-08-02T05:25:35Z</time>
      </trkpt>
      <trkpt lat="46.53351" lon="4.52858">
        <ele>251.599</ele>
        <time>2020-08-02T05:25:40Z</time>
      </trkpt>
      <trkpt lat="46.53344" lon="4.52852">
        <ele>252.599</ele>
        <time>2020-08-02T05:25:45Z</time>
      </trkpt>
      <trkpt lat="46.53339" lon="4.52845">
        <ele>252.599</ele>
        <time>2020-08-02T05:25:51Z</time>
      </trkpt>
      <trkpt lat="46.53333" lon="4.52838">
        <ele>249.599</ele>
        <time>2020-08-02T05:25:56Z</time>
      </trkpt>
      <trkpt lat="46.53325" lon="4.52836">
        <ele>247.599</ele>
        <time>2020-08-02T05:26:01Z</time>
      </trkpt>
      <trkpt lat="46.5332" lon="4.52831">
        <ele>249.599</ele>
        <time>2020-08-02T05:26:07Z</time>
      </trkpt>
      <trkpt lat="46.53312" lon="4.52829">
        <ele>249.599</ele>
        <time>2020-08-02T05:26:12Z</time>
      </trkpt>
      <trkpt lat="46.53305" lon="4.52825">
        <ele>249.599</ele>
        <time>2020-08-02T05:26:18Z</time>
      </trkpt>
      <trkpt lat="46.53299" lon="4.52818">
        <ele>249.599</ele>
        <time>2020-08-02T05:26:23Z</time>
      </trkpt>
      <trkpt lat="46.53293" lon="4.52803">
        <ele>252.599</ele>
        <time>2020-08-02T05:26:28Z</time>
      </trkpt>
      <trkpt lat="46.53285" lon="4.52803">
        <ele>252.599</ele>
        <time>2020-08-02T05:26:35Z</time>
      </trkpt>
      <trkpt lat="46.53279" lon="4.528">
        <ele>251.599</ele>
        <time>2020-08-02T05:26:40Z</time>
      </trkpt>
      <trkpt lat="46.53273" lon="4.52792">
        <ele>250.599</ele>
        <time>2020-08-02T05:26:45Z</time>
      </trkpt>
      <trkpt lat="46.53267" lon="4.52783">
        <ele>247.599</ele>
        <time>2020-08-02T05:26:52Z</time>
      </trkpt>
      <trkpt lat="46.5326" lon="4.52781">
        <ele>246.599</ele>
        <time>2020-08-02T05:26:57Z</time>
      </trkpt>
      <trkpt lat="46.53253" lon="4.52781">
        <ele>247.598</ele>
        <time>2020-08-02T05:27:02Z</time>
      </trkpt>
      <trkpt lat="46.53248" lon="4.5277">
        <ele>249.598</ele>
        <time>2020-08-02T05:27:07Z</time>
      </trkpt>
      <trkpt lat="46.53241" lon="4.52765">
        <ele>249.598</ele>
        <time>2020-08-02T05:27:12Z</time>
      </trkpt>
      <trkpt lat="46.53234" lon="4.5276">
        <ele>248.598</ele>
        <time>2020-08-02T05:27:18Z</time>
      </trkpt>
      <trkpt lat="46.5323" lon="4.52753">
        <ele>247.598</ele>
        <time>2020-08-02T05:27:24Z</time>
      </trkpt>
      <trkpt lat="46.53229" lon="4.52741">
        <ele>248.598</ele>
        <time>2020-08-02T05:27:29Z</time>
      </trkpt>
      <trkpt lat="46.53232" lon="4.52727">
        <ele>250.598</ele>
        <time>2020-08-02T05:27:34Z</time>
      </trkpt>
      <trkpt lat="46.53235" lon="4.52717">
        <ele>253.598</ele>
        <time>2020-08-02T05:27:41Z</time>
      </trkpt>
      <trkpt lat="46.53236" lon="4.52703">
        <ele>252.598</ele>
        <time>2020-08-02T05:27:46Z</time>
      </trkpt>
      <trkpt lat="46.53236" lon="4.52694">
        <ele>249.598</ele>
        <time>2020-08-02T05:27:52Z</time>
      </trkpt>
      <trkpt lat="46.53234" lon="4.52683">
        <ele>250.598</ele>
        <time>2020-08-02T05:27:57Z</time>
      </trkpt>
      <trkpt lat="46.53229" lon="4.52674">
        <ele>249.598</ele>
        <time>2020-08-02T05:28:02Z</time>
      </trkpt>
      <trkpt lat="46.53227" lon="4.52664">
        <ele>246.598</ele>
        <time>2020-08-02T05:28:08Z</time>
      </trkpt>
      <trkpt lat="46.5323" lon="4.52655">
        <ele>250.598</ele>
        <time>2020-08-02T05:28:13Z</time>
      </trkpt>
      <trkpt lat="46.53234" lon="4.52644">
        <ele>251.598</ele>
        <time>2020-08-02T05:28:18Z</time>
      </trkpt>
      <trkpt lat="46.53232" lon="4.52633">
        <ele>257.598</ele>
        <time>2020-08-02T05:28:24Z</time>
      </trkpt>
      <trkpt lat="46.53232" lon="4.52621">
        <ele>258.598</ele>
        <time>2020-08-02T05:28:29Z</time>
      </trkpt>
      <trkpt lat="46.53229" lon="4.5261">
        <ele>264.598</ele>
        <time>2020-08-02T05:28:34Z</time>
      </trkpt>
      <trkpt lat="46.53227" lon="4.52599">
        <ele>262.598</ele>
        <time>2020-08-02T05:28:40Z</time>
      </trkpt>
      <trkpt lat="46.53229" lon="4.52589">
        <ele>260.598</ele>
        <time>2020-08-02T05:28:45Z</time>
      </trkpt>
      <trkpt lat="46.53229" lon="4.52578">
        <ele>255.598</ele>
        <time>2020-08-02T05:28:50Z</time>
      </trkpt>
      <trkpt lat="46.53228" lon="4.52568">
        <ele>256.598</ele>
        <time>2020-08-02T05:28:56Z</time>
      </trkpt>
      <trkpt lat="46.53229" lon="4.52553">
        <ele>257.598</ele>
        <time>2020-08-02T05:29:01Z</time>
      </trkpt>
      <trkpt lat="46.53228" lon="4.52542">
        <ele>258.598</ele>
        <time>2020-08-02T05:29:06Z</time>
      </trkpt>
      <trkpt lat="46.53228" lon="4.52531">
        <ele>263.598</ele>
        <time>2020-08-02T05:29:13Z</time>
      </trkpt>
      <trkpt lat="46.53232" lon="4.52523">
        <ele>260.598</ele>
        <time>2020-08-02T05:29:20Z</time>
      </trkpt>
      <trkpt lat="46.53237" lon="4.52517">
        <ele>258.598</ele>
        <time>2020-08-02T05:29:26Z</time>
      </trkpt>
      <trkpt lat="46.53244" lon="4.52511">
        <ele>259.598</ele>
        <time>2020-08-02T05:29:32Z</time>
      </trkpt>
      <trkpt lat="46.53249" lon="4.52506">
        <ele>258.598</ele>
        <time>2020-08-02T05:29:38Z</time>
      </trkpt>
      <trkpt lat="46.53256" lon="4.52503">
        <ele>259.598</ele>
        <time>2020-08-02T05:29:43Z</time>
      </trkpt>
      <trkpt lat="46.53261" lon="4.52497">
        <ele>261.598</ele>
        <time>2020-08-02T05:29:49Z</time>
      </trkpt>
      <trkpt lat="46.5327" lon="4.52488">
        <ele>260.598</ele>
        <time>2020-08-02T05:29:54Z</time>
      </trkpt>
      <trkpt lat="46.53277" lon="4.52484">
        <ele>260.598</ele>
        <time>2020-08-02T05:29:59Z</time>
      </trkpt>
      <trkpt lat="46.53283" lon="4.5248">
        <ele>261.598</ele>
        <time>2020-08-02T05:30:04Z</time>
      </trkpt>
      <trkpt lat="46.53289" lon="4.52473">
        <ele>264.598</ele>
        <time>2020-08-02T05:30:09Z</time>
      </trkpt>
      <trkpt lat="46.53291" lon="4.52463">
        <ele>264.598</ele>
        <time>2020-08-02T05:30:15Z</time>
      </trkpt>
      <trkpt lat="46.5329" lon="4.52452">
        <ele>263.598</ele>
        <time>2020-08-02T05:30:20Z</time>
      </trkpt>
      <trkpt lat="46.53296" lon="4.52442">
        <ele>265.598</ele>
        <time>2020-08-02T05:30:25Z</time>
      </trkpt>
      <trkpt lat="46.53296" lon="4.52432">
        <ele>264.598</ele>
        <time>2020-08-02T05:30:30Z</time>
      </trkpt>
      <trkpt lat="46.533" lon="4.52424">
        <ele>264.598</ele>
        <time>2020-08-02T05:30:35Z</time>
      </trkpt>
      <trkpt lat="46.53301" lon="4.52414">
        <ele>264.598</ele>
        <time>2020-08-02T05:30:41Z</time>
      </trkpt>
      <trkpt lat="46.53302" lon="4.52402">
        <ele>264.598</ele>
        <time>2020-08-02T05:30:46Z</time>
      </trkpt>
      <trkpt lat="46.53301" lon="4.52392">
        <ele>260.598</ele>
        <time>2020-08-02T05:30:51Z</time>
      </trkpt>
      <trkpt lat="46.53305" lon="4.5238">
        <ele>260.598</ele>
        <time>2020-08-02T05:30:56Z</time>
      </trkpt>
      <trkpt lat="46.533" lon="4.52372">
        <ele>259.598</ele>
        <time>2020-08-02T05:31:01Z</time>
      </trkpt>
      <trkpt lat="46.53304" lon="4.52361">
        <ele>255.598</ele>
        <time>2020-08-02T05:31:08Z</time>
      </trkpt>
      <trkpt lat="46.53305" lon="4.52351">
        <ele>258.598</ele>
        <time>2020-08-02T05:31:14Z</time>
      </trkpt>
      <trkpt lat="46.53314" lon="4.5234">
        <ele>261.598</ele>
        <time>2020-08-02T05:31:19Z</time>
      </trkpt>
      <trkpt lat="46.5331" lon="4.5233">
        <ele>258.598</ele>
        <time>2020-08-02T05:31:24Z</time>
      </trkpt>
      <trkpt lat="46.53304" lon="4.52323">
        <ele>258.598</ele>
        <time>2020-08-02T05:31:29Z</time>
      </trkpt>
      <trkpt lat="46.53297" lon="4.5232">
        <ele>258.598</ele>
        <time>2020-08-02T05:31:34Z</time>
      </trkpt>
      <trkpt lat="46.53291" lon="4.52319">
        <ele>255.598</ele>
        <time>2020-08-02T05:31:46Z</time>
      </trkpt>
      <trkpt lat="46.53281" lon="4.52312">
        <ele>255.598</ele>
        <time>2020-08-02T05:31:51Z</time>
      </trkpt>
      <trkpt lat="46.53274" lon="4.52309">
        <ele>256.598</ele>
        <time>2020-08-02T05:31:56Z</time>
      </trkpt>
      <trkpt lat="46.53271" lon="4.523">
        <ele>258.598</ele>
        <time>2020-08-02T05:32:01Z</time>
      </trkpt>
      <trkpt lat="46.53264" lon="4.523">
        <ele>255.598</ele>
        <time>2020-08-02T05:32:06Z</time>
      </trkpt>
      <trkpt lat="46.53258" lon="4.52292">
        <ele>260.598</ele>
        <time>2020-08-02T05:32:12Z</time>
      </trkpt>
      <trkpt lat="46.53253" lon="4.52287">
        <ele>260.598</ele>
        <time>2020-08-02T05:32:17Z</time>
      </trkpt>
      <trkpt lat="46.53247" lon="4.52281">
        <ele>260.598</ele>
        <time>2020-08-02T05:32:25Z</time>
      </trkpt>
      <trkpt lat="46.53238" lon="4.52274">
        <ele>256.598</ele>
        <time>2020-08-02T05:32:30Z</time>
      </trkpt>
      <trkpt lat="46.53231" lon="4.52267">
        <ele>254.598</ele>
        <time>2020-08-02T05:32:35Z</time>
      </trkpt>
      <trkpt lat="46.53224" lon="4.52255">
        <ele>255.598</ele>
        <time>2020-08-02T05:32:40Z</time>
      </trkpt>
      <trkpt lat="46.53219" lon="4.52247">
        <ele>259.598</ele>
        <time>2020-08-02T05:32:45Z</time>
      </trkpt>
      <trkpt lat="46.53212" lon="4.52242">
        <ele>261.598</ele>
        <time>2020-08-02T05:32:51Z</time>
      </trkpt>
      <trkpt lat="46.53205" lon="4.52236">
        <ele>265.598</ele>
        <time>2020-08-02T05:32:57Z</time>
      </trkpt>
      <trkpt lat="46.532" lon="4.52227">
        <ele>266.598</ele>
        <time>2020-08-02T05:33:02Z</time>
      </trkpt>
      <trkpt lat="46.53193" lon="4.52225">
        <ele>265.598</ele>
        <time>2020-08-02T05:33:08Z</time>
      </trkpt>
      <trkpt lat="46.53187" lon="4.5222">
        <ele>266.598</ele>
        <time>2020-08-02T05:33:14Z</time>
      </trkpt>
      <trkpt lat="46.53182" lon="4.5221">
        <ele>267.598</ele>
        <time>2020-08-02T05:33:19Z</time>
      </trkpt>
      <trkpt lat="46.53176" lon="4.52205">
        <ele>265.598</ele>
        <time>2020-08-02T05:33:24Z</time>
      </trkpt>
      <trkpt lat="46.5317" lon="4.522">
        <ele>262.598</ele>
        <time>2020-08-02T05:33:30Z</time>
      </trkpt>
      <trkpt lat="46.53163" lon="4.52192">
        <ele>265.598</ele>
        <time>2020-08-02T05:33:35Z</time>
      </trkpt>
      <trkpt lat="46.53156" lon="4.52189">
        <ele>264.598</ele>
        <time>2020-08-02T05:33:40Z</time>
      </trkpt>
      <trkpt lat="46.53153" lon="4.52179">
        <ele>266.598</ele>
        <time>2020-08-02T05:33:46Z</time>
      </trkpt>
      <trkpt lat="46.53149" lon="4.52171">
        <ele>265.598</ele>
        <time>2020-08-02T05:33:51Z</time>
      </trkpt>
      <trkpt lat="46.53144" lon="4.52163">
        <ele>264.598</ele>
        <time>2020-08-02T05:33:56Z</time>
      </trkpt>
      <trkpt lat="46.53141" lon="4.52153">
        <ele>264.598</ele>
        <time>2020-08-02T05:34:01Z</time>
      </trkpt>
      <trkpt lat="46.53143" lon="4.52143">
        <ele>263.598</ele>
        <time>2020-08-02T05:34:08Z</time>
      </trkpt>
      <trkpt lat="46.53144" lon="4.52133">
        <ele>263.598</ele>
        <time>2020-08-02T05:34:13Z</time>
      </trkpt>
      <trkpt lat="46.53144" lon="4.52124">
        <ele>265.598</ele>
        <time>2020-08-02T05:34:19Z</time>
      </trkpt>
      <trkpt lat="46.53145" lon="4.52113">
        <ele>267.598</ele>
        <time>2020-08-02T05:34:24Z</time>
      </trkpt>
      <trkpt lat="46.53138" lon="4.52098">
        <ele>269.598</ele>
        <time>2020-08-02T05:34:29Z</time>
      </trkpt>
      <trkpt lat="46.53138" lon="4.52088">
        <ele>270.598</ele>
        <time>2020-08-02T05:34:36Z</time>
      </trkpt>
      <trkpt lat="46.53135" lon="4.52077">
        <ele>272.598</ele>
        <time>2020-08-02T05:34:41Z</time>
      </trkpt>
      <trkpt lat="46.53135" lon="4.52067">
        <ele>269.598</ele>
        <time>2020-08-02T05:34:46Z</time>
      </trkpt>
      <trkpt lat="46.53135" lon="4.52057">
        <ele>271.598</ele>
        <time>2020-08-02T05:34:52Z</time>
      </trkpt>
      <trkpt lat="46.53128" lon="4.52046">
        <ele>266.598</ele>
        <time>2020-08-02T05:34:57Z</time>
      </trkpt>
      <trkpt lat="46.53127" lon="4.52036">
        <ele>265.598</ele>
        <time>2020-08-02T05:35:03Z</time>
      </trkpt>
      <trkpt lat="46.53125" lon="4.52026">
        <ele>261.598</ele>
        <time>2020-08-02T05:35:08Z</time>
      </trkpt>
      <trkpt lat="46.53131" lon="4.52013">
        <ele>264.598</ele>
        <time>2020-08-02T05:35:13Z</time>
      </trkpt>
      <trkpt lat="46.53134" lon="4.52004">
        <ele>265.598</ele>
        <time>2020-08-02T05:35:18Z</time>
      </trkpt>
      <trkpt lat="46.53135" lon="4.51994">
        <ele>266.598</ele>
        <time>2020-08-02T05:35:23Z</time>
      </trkpt>
      <trkpt lat="46.53131" lon="4.51986">
        <ele>267.598</ele>
        <time>2020-08-02T05:35:29Z</time>
      </trkpt>
      <trkpt lat="46.53131" lon="4.51975">
        <ele>266.598</ele>
        <time>2020-08-02T05:35:35Z</time>
      </trkpt>
      <trkpt lat="46.5313" lon="4.51965">
        <ele>269.598</ele>
        <time>2020-08-02T05:35:40Z</time>
      </trkpt>
      <trkpt lat="46.53131" lon="4.51955">
        <ele>266.598</ele>
        <time>2020-08-02T05:35:45Z</time>
      </trkpt>
      <trkpt lat="46.53133" lon="4.51944">
        <ele>267.598</ele>
        <time>2020-08-02T05:35:50Z</time>
      </trkpt>
      <trkpt lat="46.53134" lon="4.51934">
        <ele>269.598</ele>
        <time>2020-08-02T05:35:56Z</time>
      </trkpt>
      <trkpt lat="46.53129" lon="4.51926">
        <ele>269.598</ele>
        <time>2020-08-02T05:36:01Z</time>
      </trkpt>
      <trkpt lat="46.53128" lon="4.51915">
        <ele>272.598</ele>
        <time>2020-08-02T05:36:06Z</time>
      </trkpt>
      <trkpt lat="46.53122" lon="4.5191">
        <ele>268.597</ele>
        <time>2020-08-02T05:36:11Z</time>
      </trkpt>
      <trkpt lat="46.53124" lon="4.51899">
        <ele>266.597</ele>
        <time>2020-08-02T05:36:16Z</time>
      </trkpt>
      <trkpt lat="46.53128" lon="4.51887">
        <ele>270.597</ele>
        <time>2020-08-02T05:36:21Z</time>
      </trkpt>
      <trkpt lat="46.53128" lon="4.51877">
        <ele>273.597</ele>
        <time>2020-08-02T05:36:26Z</time>
      </trkpt>
      <trkpt lat="46.53126" lon="4.51868">
        <ele>273.597</ele>
        <time>2020-08-02T05:36:31Z</time>
      </trkpt>
      <trkpt lat="46.53123" lon="4.51857">
        <ele>272.597</ele>
        <time>2020-08-02T05:36:36Z</time>
      </trkpt>
      <trkpt lat="46.53122" lon="4.51846">
        <ele>274.597</ele>
        <time>2020-08-02T05:36:41Z</time>
      </trkpt>
      <trkpt lat="46.53123" lon="4.51835">
        <ele>275.597</ele>
        <time>2020-08-02T05:36:47Z</time>
      </trkpt>
      <trkpt lat="46.53115" lon="4.51825">
        <ele>268.597</ele>
        <time>2020-08-02T05:36:52Z</time>
      </trkpt>
      <trkpt lat="46.53115" lon="4.51814">
        <ele>270.597</ele>
        <time>2020-08-02T05:36:57Z</time>
      </trkpt>
      <trkpt lat="46.53115" lon="4.51804">
        <ele>273.597</ele>
        <time>2020-08-02T05:37:04Z</time>
      </trkpt>
      <trkpt lat="46.53113" lon="4.51794">
        <ele>273.597</ele>
        <time>2020-08-02T05:37:09Z</time>
      </trkpt>
      <trkpt lat="46.53112" lon="4.51783">
        <ele>275.597</ele>
        <time>2020-08-02T05:37:14Z</time>
      </trkpt>
      <trkpt lat="46.53117" lon="4.51774">
        <ele>277.597</ele>
        <time>2020-08-02T05:37:19Z</time>
      </trkpt>
      <trkpt lat="46.53117" lon="4.51762">
        <ele>278.597</ele>
        <time>2020-08-02T05:37:25Z</time>
      </trkpt>
      <trkpt lat="46.53111" lon="4.51755">
        <ele>279.597</ele>
        <time>2020-08-02T05:37:30Z</time>
      </trkpt>
      <trkpt lat="46.53107" lon="4.51747">
        <ele>280.597</ele>
        <time>2020-08-02T05:37:35Z</time>
      </trkpt>
      <trkpt lat="46.53108" lon="4.51737">
        <ele>282.597</ele>
        <time>2020-08-02T05:37:41Z</time>
      </trkpt>
      <trkpt lat="46.53105" lon="4.51729">
        <ele>281.597</ele>
        <time>2020-08-02T05:37:46Z</time>
      </trkpt>
      <trkpt lat="46.53094" lon="4.51722">
        <ele>279.597</ele>
        <time>2020-08-02T05:37:51Z</time>
      </trkpt>
      <trkpt lat="46.53093" lon="4.51712">
        <ele>281.597</ele>
        <time>2020-08-02T05:37:58Z</time>
      </trkpt>
      <trkpt lat="46.53085" lon="4.51705">
        <ele>280.597</ele>
        <time>2020-08-02T05:38:03Z</time>
      </trkpt>
      <trkpt lat="46.5308" lon="4.51698">
        <ele>277.597</ele>
        <time>2020-08-02T05:38:08Z</time>
      </trkpt>
      <trkpt lat="46.53084" lon="4.51686">
        <ele>280.597</ele>
        <time>2020-08-02T05:38:15Z</time>
      </trkpt>
      <trkpt lat="46.53078" lon="4.5168">
        <ele>283.597</ele>
        <time>2020-08-02T05:38:20Z</time>
      </trkpt>
      <trkpt lat="46.53072" lon="4.51671">
        <ele>283.597</ele>
        <time>2020-08-02T05:38:25Z</time>
      </trkpt>
      <trkpt lat="46.53069" lon="4.51661">
        <ele>285.597</ele>
        <time>2020-08-02T05:38:33Z</time>
      </trkpt>
      <trkpt lat="46.53065" lon="4.51653">
        <ele>283.597</ele>
        <time>2020-08-02T05:38:38Z</time>
      </trkpt>
      <trkpt lat="46.53067" lon="4.51641">
        <ele>283.597</ele>
        <time>2020-08-02T05:38:43Z</time>
      </trkpt>
      <trkpt lat="46.53062" lon="4.51632">
        <ele>284.597</ele>
        <time>2020-08-02T05:38:49Z</time>
      </trkpt>
      <trkpt lat="46.53061" lon="4.51622">
        <ele>282.597</ele>
        <time>2020-08-02T05:38:55Z</time>
      </trkpt>
      <trkpt lat="46.53063" lon="4.51612">
        <ele>285.597</ele>
        <time>2020-08-02T05:39:00Z</time>
      </trkpt>
      <trkpt lat="46.53054" lon="4.51603">
        <ele>284.597</ele>
        <time>2020-08-02T05:39:05Z</time>
      </trkpt>
      <trkpt lat="46.53057" lon="4.51591">
        <ele>284.597</ele>
        <time>2020-08-02T05:39:12Z</time>
      </trkpt>
      <trkpt lat="46.53054" lon="4.51582">
        <ele>285.597</ele>
        <time>2020-08-02T05:39:18Z</time>
      </trkpt>
      <trkpt lat="46.53049" lon="4.51575">
        <ele>282.597</ele>
        <time>2020-08-02T05:39:23Z</time>
      </trkpt>
      <trkpt lat="46.53043" lon="4.51569">
        <ele>284.597</ele>
        <time>2020-08-02T05:39:28Z</time>
      </trkpt>
      <trkpt lat="46.53042" lon="4.51559">
        <ele>283.597</ele>
        <time>2020-08-02T05:39:33Z</time>
      </trkpt>
      <trkpt lat="46.53038" lon="4.5155">
        <ele>283.597</ele>
        <time>2020-08-02T05:39:38Z</time>
      </trkpt>
      <trkpt lat="46.5304" lon="4.51541">
        <ele>284.597</ele>
        <time>2020-08-02T05:39:44Z</time>
      </trkpt>
      <trkpt lat="46.53036" lon="4.51532">
        <ele>284.597</ele>
        <time>2020-08-02T05:39:49Z</time>
      </trkpt>
      <trkpt lat="46.53035" lon="4.5152">
        <ele>280.597</ele>
        <time>2020-08-02T05:39:54Z</time>
      </trkpt>
      <trkpt lat="46.53036" lon="4.51509">
        <ele>284.597</ele>
        <time>2020-08-02T05:40:00Z</time>
      </trkpt>
      <trkpt lat="46.53038" lon="4.51498">
        <ele>286.597</ele>
        <time>2020-08-02T05:40:06Z</time>
      </trkpt>
      <trkpt lat="46.53034" lon="4.51489">
        <ele>283.597</ele>
        <time>2020-08-02T05:40:11Z</time>
      </trkpt>
      <trkpt lat="46.53037" lon="4.51477">
        <ele>282.597</ele>
        <time>2020-08-02T05:40:18Z</time>
      </trkpt>
      <trkpt lat="46.53036" lon="4.51467">
        <ele>283.597</ele>
        <time>2020-08-02T05:40:24Z</time>
      </trkpt>
      <trkpt lat="46.53036" lon="4.51455">
        <ele>285.597</ele>
        <time>2020-08-02T05:40:29Z</time>
      </trkpt>
      <trkpt lat="46.53036" lon="4.51446">
        <ele>286.597</ele>
        <time>2020-08-02T05:40:34Z</time>
      </trkpt>
      <trkpt lat="46.53032" lon="4.51434">
        <ele>287.597</ele>
        <time>2020-08-02T05:40:39Z</time>
      </trkpt>
      <trkpt lat="46.53034" lon="4.51424">
        <ele>286.597</ele>
        <time>2020-08-02T05:40:44Z</time>
      </trkpt>
      <trkpt lat="46.53033" lon="4.51413">
        <ele>286.597</ele>
        <time>2020-08-02T05:40:49Z</time>
      </trkpt>
      <trkpt lat="46.53032" lon="4.514">
        <ele>285.597</ele>
        <time>2020-08-02T05:40:54Z</time>
      </trkpt>
      <trkpt lat="46.53029" lon="4.51389">
        <ele>286.597</ele>
        <time>2020-08-02T05:41:00Z</time>
      </trkpt>
      <trkpt lat="46.53027" lon="4.51379">
        <ele>286.597</ele>
        <time>2020-08-02T05:41:06Z</time>
      </trkpt>
      <trkpt lat="46.53027" lon="4.51366">
        <ele>286.597</ele>
        <time>2020-08-02T05:41:11Z</time>
      </trkpt>
      <trkpt lat="46.53026" lon="4.51357">
        <ele>284.597</ele>
        <time>2020-08-02T05:41:19Z</time>
      </trkpt>
      <trkpt lat="46.53025" lon="4.51346">
        <ele>284.597</ele>
        <time>2020-08-02T05:41:25Z</time>
      </trkpt>
      <trkpt lat="46.53024" lon="4.51336">
        <ele>287.597</ele>
        <time>2020-08-02T05:41:33Z</time>
      </trkpt>
      <trkpt lat="46.53024" lon="4.51324">
        <ele>288.597</ele>
        <time>2020-08-02T05:41:38Z</time>
      </trkpt>
      <trkpt lat="46.53021" lon="4.51309">
        <ele>285.597</ele>
        <time>2020-08-02T05:41:43Z</time>
      </trkpt>
      <trkpt lat="46.53017" lon="4.51294">
        <ele>288.597</ele>
        <time>2020-08-02T05:41:48Z</time>
      </trkpt>
      <trkpt lat="46.53018" lon="4.51282">
        <ele>289.597</ele>
        <time>2020-08-02T05:41:53Z</time>
      </trkpt>
      <trkpt lat="46.53016" lon="4.51273">
        <ele>291.597</ele>
        <time>2020-08-02T05:42:02Z</time>
      </trkpt>
      <trkpt lat="46.53018" lon="4.51262">
        <ele>293.597</ele>
        <time>2020-08-02T05:42:07Z</time>
      </trkpt>
      <trkpt lat="46.53022" lon="4.51253">
        <ele>293.597</ele>
        <time>2020-08-02T05:42:12Z</time>
      </trkpt>
      <trkpt lat="46.5302" lon="4.51244">
        <ele>291.597</ele>
        <time>2020-08-02T05:42:17Z</time>
      </trkpt>
      <trkpt lat="46.53018" lon="4.51233">
        <ele>288.597</ele>
        <time>2020-08-02T05:42:22Z</time>
      </trkpt>
      <trkpt lat="46.53017" lon="4.51221">
        <ele>286.597</ele>
        <time>2020-08-02T05:42:28Z</time>
      </trkpt>
      <trkpt lat="46.53013" lon="4.51212">
        <ele>286.597</ele>
        <time>2020-08-02T05:42:34Z</time>
      </trkpt>
      <trkpt lat="46.53012" lon="4.51203">
        <ele>285.597</ele>
        <time>2020-08-02T05:42:39Z</time>
      </trkpt>
      <trkpt lat="46.53012" lon="4.51191">
        <ele>288.597</ele>
        <time>2020-08-02T05:42:44Z</time>
      </trkpt>
      <trkpt lat="46.5301" lon="4.51182">
        <ele>288.597</ele>
        <time>2020-08-02T05:42:49Z</time>
      </trkpt>
      <trkpt lat="46.53007" lon="4.51171">
        <ele>287.597</ele>
        <time>2020-08-02T05:42:55Z</time>
      </trkpt>
      <trkpt lat="46.53005" lon="4.51159">
        <ele>290.597</ele>
        <time>2020-08-02T05:43:00Z</time>
      </trkpt>
      <trkpt lat="46.53005" lon="4.51149">
        <ele>293.597</ele>
        <time>2020-08-02T05:43:05Z</time>
      </trkpt>
      <trkpt lat="46.53006" lon="4.51139">
        <ele>292.597</ele>
        <time>2020-08-02T05:43:10Z</time>
      </trkpt>
      <trkpt lat="46.53004" lon="4.51129">
        <ele>292.597</ele>
        <time>2020-08-02T05:43:16Z</time>
      </trkpt>
      <trkpt lat="46.53004" lon="4.51119">
        <ele>291.597</ele>
        <time>2020-08-02T05:43:22Z</time>
      </trkpt>
      <trkpt lat="46.53004" lon="4.51108">
        <ele>291.597</ele>
        <time>2020-08-02T05:43:27Z</time>
      </trkpt>
      <trkpt lat="46.53007" lon="4.51097">
        <ele>290.597</ele>
        <time>2020-08-02T05:43:34Z</time>
      </trkpt>
      <trkpt lat="46.53006" lon="4.51085">
        <ele>291.597</ele>
        <time>2020-08-02T05:43:39Z</time>
      </trkpt>
      <trkpt lat="46.53007" lon="4.51075">
        <ele>292.597</ele>
        <time>2020-08-02T05:43:46Z</time>
      </trkpt>
      <trkpt lat="46.53007" lon="4.51064">
        <ele>292.597</ele>
        <time>2020-08-02T05:43:51Z</time>
      </trkpt>
      <trkpt lat="46.53006" lon="4.51052">
        <ele>291.597</ele>
        <time>2020-08-02T05:43:56Z</time>
      </trkpt>
      <trkpt lat="46.53006" lon="4.51043">
        <ele>288.597</ele>
        <time>2020-08-02T05:44:02Z</time>
      </trkpt>
      <trkpt lat="46.53006" lon="4.51031">
        <ele>288.597</ele>
        <time>2020-08-02T05:44:09Z</time>
      </trkpt>
      <trkpt lat="46.53006" lon="4.51021">
        <ele>287.597</ele>
        <time>2020-08-02T05:44:14Z</time>
      </trkpt>
      <trkpt lat="46.53001" lon="4.51012">
        <ele>288.596</ele>
        <time>2020-08-02T05:44:19Z</time>
      </trkpt>
      <trkpt lat="46.52999" lon="4.51001">
        <ele>289.596</ele>
        <time>2020-08-02T05:44:25Z</time>
      </trkpt>
      <trkpt lat="46.52995" lon="4.50993">
        <ele>289.596</ele>
        <time>2020-08-02T05:44:30Z</time>
      </trkpt>
      <trkpt lat="46.5299" lon="4.50981">
        <ele>289.596</ele>
        <time>2020-08-02T05:44:35Z</time>
      </trkpt>
      <trkpt lat="46.5299" lon="4.5097">
        <ele>290.596</ele>
        <time>2020-08-02T05:44:40Z</time>
      </trkpt>
      <trkpt lat="46.52987" lon="4.5096">
        <ele>290.596</ele>
        <time>2020-08-02T05:44:48Z</time>
      </trkpt>
      <trkpt lat="46.52987" lon="4.50948">
        <ele>290.596</ele>
        <time>2020-08-02T05:44:53Z</time>
      </trkpt>
      <trkpt lat="46.52987" lon="4.50936">
        <ele>294.596</ele>
        <time>2020-08-02T05:45:02Z</time>
      </trkpt>
      <trkpt lat="46.52985" lon="4.50924">
        <ele>295.596</ele>
        <time>2020-08-02T05:45:08Z</time>
      </trkpt>
      <trkpt lat="46.52987" lon="4.50912">
        <ele>296.596</ele>
        <time>2020-08-02T05:45:13Z</time>
      </trkpt>
      <trkpt lat="46.52987" lon="4.50901">
        <ele>294.596</ele>
        <time>2020-08-02T05:45:19Z</time>
      </trkpt>
      <trkpt lat="46.52983" lon="4.50889">
        <ele>294.596</ele>
        <time>2020-08-02T05:45:24Z</time>
      </trkpt>
      <trkpt lat="46.52982" lon="4.50879">
        <ele>293.596</ele>
        <time>2020-08-02T05:45:30Z</time>
      </trkpt>
      <trkpt lat="46.52982" lon="4.50868">
        <ele>295.596</ele>
        <time>2020-08-02T05:45:35Z</time>
      </trkpt>
      <trkpt lat="46.5298" lon="4.50855">
        <ele>293.596</ele>
        <time>2020-08-02T05:45:40Z</time>
      </trkpt>
      <trkpt lat="46.52979" lon="4.50844">
        <ele>292.596</ele>
        <time>2020-08-02T05:45:47Z</time>
      </trkpt>
      <trkpt lat="46.52976" lon="4.50835">
        <ele>291.596</ele>
        <time>2020-08-02T05:45:52Z</time>
      </trkpt>
      <trkpt lat="46.52976" lon="4.50825">
        <ele>293.596</ele>
        <time>2020-08-02T05:45:57Z</time>
      </trkpt>
      <trkpt lat="46.52976" lon="4.50814">
        <ele>294.596</ele>
        <time>2020-08-02T05:46:02Z</time>
      </trkpt>
      <trkpt lat="46.52974" lon="4.50805">
        <ele>294.596</ele>
        <time>2020-08-02T05:46:09Z</time>
      </trkpt>
      <trkpt lat="46.52974" lon="4.50793">
        <ele>293.596</ele>
        <time>2020-08-02T05:46:16Z</time>
      </trkpt>
      <trkpt lat="46.52974" lon="4.50782">
        <ele>296.596</ele>
        <time>2020-08-02T05:46:23Z</time>
      </trkpt>
      <trkpt lat="46.52971" lon="4.50773">
        <ele>294.596</ele>
        <time>2020-08-02T05:46:28Z</time>
      </trkpt>
      <trkpt lat="46.52968" lon="4.50763">
        <ele>292.596</ele>
        <time>2020-08-02T05:46:34Z</time>
      </trkpt>
      <trkpt lat="46.52967" lon="4.50753">
        <ele>290.596</ele>
        <time>2020-08-02T05:46:39Z</time>
      </trkpt>
      <trkpt lat="46.52965" lon="4.50742">
        <ele>289.596</ele>
        <time>2020-08-02T05:46:44Z</time>
      </trkpt>
      <trkpt lat="46.52967" lon="4.50732">
        <ele>287.596</ele>
        <time>2020-08-02T05:46:49Z</time>
      </trkpt>
      <trkpt lat="46.52965" lon="4.50722">
        <ele>288.596</ele>
        <time>2020-08-02T05:46:54Z</time>
      </trkpt>
      <trkpt lat="46.52962" lon="4.50712">
        <ele>288.596</ele>
        <time>2020-08-02T05:46:59Z</time>
      </trkpt>
      <trkpt lat="46.52961" lon="4.50701">
        <ele>287.596</ele>
        <time>2020-08-02T05:47:04Z</time>
      </trkpt>
      <trkpt lat="46.5296" lon="4.5069">
        <ele>287.596</ele>
        <time>2020-08-02T05:47:09Z</time>
      </trkpt>
      <trkpt lat="46.52958" lon="4.5068">
        <ele>286.596</ele>
        <time>2020-08-02T05:47:14Z</time>
      </trkpt>
      <trkpt lat="46.52954" lon="4.50669">
        <ele>285.596</ele>
        <time>2020-08-02T05:47:19Z</time>
      </trkpt>
      <trkpt lat="46.52951" lon="4.50657">
        <ele>284.596</ele>
        <time>2020-08-02T05:47:24Z</time>
      </trkpt>
      <trkpt lat="46.52947" lon="4.50648">
        <ele>284.596</ele>
        <time>2020-08-02T05:47:29Z</time>
      </trkpt>
      <trkpt lat="46.52943" lon="4.50639">
        <ele>285.596</ele>
        <time>2020-08-02T05:47:34Z</time>
      </trkpt>
      <trkpt lat="46.5294" lon="4.50629">
        <ele>282.596</ele>
        <time>2020-08-02T05:47:39Z</time>
      </trkpt>
      <trkpt lat="46.52936" lon="4.50621">
        <ele>282.596</ele>
        <time>2020-08-02T05:47:44Z</time>
      </trkpt>
      <trkpt lat="46.52934" lon="4.50611">
        <ele>287.596</ele>
        <time>2020-08-02T05:47:50Z</time>
      </trkpt>
      <trkpt lat="46.5293" lon="4.50603">
        <ele>287.596</ele>
        <time>2020-08-02T05:47:55Z</time>
      </trkpt>
      <trkpt lat="46.52926" lon="4.50594">
        <ele>288.596</ele>
        <time>2020-08-02T05:48:00Z</time>
      </trkpt>
      <trkpt lat="46.52923" lon="4.50586">
        <ele>287.596</ele>
        <time>2020-08-02T05:48:05Z</time>
      </trkpt>
      <trkpt lat="46.52916" lon="4.50581">
        <ele>288.596</ele>
        <time>2020-08-02T05:48:12Z</time>
      </trkpt>
      <trkpt lat="46.5291" lon="4.50572">
        <ele>290.596</ele>
        <time>2020-08-02T05:48:17Z</time>
      </trkpt>
      <trkpt lat="46.52908" lon="4.50562">
        <ele>286.596</ele>
        <time>2020-08-02T05:48:24Z</time>
      </trkpt>
      <trkpt lat="46.52901" lon="4.5055">
        <ele>285.596</ele>
        <time>2020-08-02T05:48:29Z</time>
      </trkpt>
      <trkpt lat="46.529" lon="4.50541">
        <ele>286.596</ele>
        <time>2020-08-02T05:48:34Z</time>
      </trkpt>
      <trkpt lat="46.52899" lon="4.50534">
        <ele>291.596</ele>
        <time>2020-08-02T05:48:38Z</time>
      </trkpt>
      <trkpt lat="46.52898" lon="4.50525">
        <ele>288.596</ele>
        <time>2020-08-02T05:48:43Z</time>
      </trkpt>
      <trkpt lat="46.52891" lon="4.50514">
        <ele>290.596</ele>
        <time>2020-08-02T05:48:48Z</time>
      </trkpt>
      <trkpt lat="46.52885" lon="4.50508">
        <ele>290.596</ele>
        <time>2020-08-02T05:48:54Z</time>
      </trkpt>
      <trkpt lat="46.52881" lon="4.50498">
        <ele>286.596</ele>
        <time>2020-08-02T05:49:01Z</time>
      </trkpt>
      <trkpt lat="46.52879" lon="4.50485">
        <ele>287.596</ele>
        <time>2020-08-02T05:49:06Z</time>
      </trkpt>
      <trkpt lat="46.52878" lon="4.50475">
        <ele>286.596</ele>
        <time>2020-08-02T05:49:12Z</time>
      </trkpt>
      <trkpt lat="46.52875" lon="4.50465">
        <ele>284.596</ele>
        <time>2020-08-02T05:49:17Z</time>
      </trkpt>
      <trkpt lat="46.52871" lon="4.50456">
        <ele>284.596</ele>
        <time>2020-08-02T05:49:22Z</time>
      </trkpt>
      <trkpt lat="46.52867" lon="4.50446">
        <ele>285.596</ele>
        <time>2020-08-02T05:49:27Z</time>
      </trkpt>
      <trkpt lat="46.52868" lon="4.50434">
        <ele>285.596</ele>
        <time>2020-08-02T05:49:32Z</time>
      </trkpt>
      <trkpt lat="46.52863" lon="4.50425">
        <ele>284.596</ele>
        <time>2020-08-02T05:49:38Z</time>
      </trkpt>
      <trkpt lat="46.52861" lon="4.50415">
        <ele>284.596</ele>
        <time>2020-08-02T05:49:43Z</time>
      </trkpt>
      <trkpt lat="46.52857" lon="4.50408">
        <ele>285.596</ele>
        <time>2020-08-02T05:49:48Z</time>
      </trkpt>
      <trkpt lat="46.52854" lon="4.50399">
        <ele>286.596</ele>
        <time>2020-08-02T05:49:54Z</time>
      </trkpt>
      <trkpt lat="46.52851" lon="4.5039">
        <ele>284.596</ele>
        <time>2020-08-02T05:50:00Z</time>
      </trkpt>
      <trkpt lat="46.52847" lon="4.50382">
        <ele>288.596</ele>
        <time>2020-08-02T05:50:05Z</time>
      </trkpt>
      <trkpt lat="46.52846" lon="4.50372">
        <ele>289.596</ele>
        <time>2020-08-02T05:50:11Z</time>
      </trkpt>
      <trkpt lat="46.52843" lon="4.50363">
        <ele>289.596</ele>
        <time>2020-08-02T05:50:17Z</time>
      </trkpt>
      <trkpt lat="46.52841" lon="4.50353">
        <ele>286.596</ele>
        <time>2020-08-02T05:50:23Z</time>
      </trkpt>
      <trkpt lat="46.5284" lon="4.50341">
        <ele>284.596</ele>
        <time>2020-08-02T05:50:28Z</time>
      </trkpt>
      <trkpt lat="46.52841" lon="4.5033">
        <ele>285.596</ele>
        <time>2020-08-02T05:50:34Z</time>
      </trkpt>
      <trkpt lat="46.52842" lon="4.5032">
        <ele>282.596</ele>
        <time>2020-08-02T05:50:41Z</time>
      </trkpt>
      <trkpt lat="46.5284" lon="4.50308">
        <ele>284.596</ele>
        <time>2020-08-02T05:50:46Z</time>
      </trkpt>
      <trkpt lat="46.52834" lon="4.50295">
        <ele>285.596</ele>
        <time>2020-08-02T05:50:51Z</time>
      </trkpt>
      <trkpt lat="46.5283" lon="4.50287">
        <ele>284.595</ele>
        <time>2020-08-02T05:50:57Z</time>
      </trkpt>
      <trkpt lat="46.52829" lon="4.50274">
        <ele>288.595</ele>
        <time>2020-08-02T05:51:02Z</time>
      </trkpt>
      <trkpt lat="46.52829" lon="4.50263">
        <ele>289.595</ele>
        <time>2020-08-02T05:51:07Z</time>
      </trkpt>
      <trkpt lat="46.5283" lon="4.50251">
        <ele>288.595</ele>
        <time>2020-08-02T05:51:12Z</time>
      </trkpt>
      <trkpt lat="46.52828" lon="4.50241">
        <ele>288.595</ele>
        <time>2020-08-02T05:51:17Z</time>
      </trkpt>
      <trkpt lat="46.52823" lon="4.50231">
        <ele>286.595</ele>
        <time>2020-08-02T05:51:22Z</time>
      </trkpt>
      <trkpt lat="46.52821" lon="4.5022">
        <ele>287.595</ele>
        <time>2020-08-02T05:51:30Z</time>
      </trkpt>
      <trkpt lat="46.52819" lon="4.5021">
        <ele>287.595</ele>
        <time>2020-08-02T05:51:35Z</time>
      </trkpt>
      <trkpt lat="46.52816" lon="4.502">
        <ele>286.595</ele>
        <time>2020-08-02T05:51:40Z</time>
      </trkpt>
      <trkpt lat="46.52815" lon="4.50189">
        <ele>287.595</ele>
        <time>2020-08-02T05:51:46Z</time>
      </trkpt>
      <trkpt lat="46.52813" lon="4.50179">
        <ele>288.595</ele>
        <time>2020-08-02T05:51:51Z</time>
      </trkpt>
      <trkpt lat="46.52811" lon="4.50169">
        <ele>287.595</ele>
        <time>2020-08-02T05:52:01Z</time>
      </trkpt>
      <trkpt lat="46.52805" lon="4.50167">
        <ele>283.595</ele>
        <time>2020-08-02T05:52:12Z</time>
      </trkpt>
      <trkpt lat="46.52807" lon="4.50158">
        <ele>284.595</ele>
        <time>2020-08-02T05:53:26Z</time>
      </trkpt>
      <trkpt lat="46.52805" lon="4.50148">
        <ele>285.595</ele>
        <time>2020-08-02T05:54:05Z</time>
      </trkpt>
      <trkpt lat="46.52803" lon="4.50138">
        <ele>282.595</ele>
        <time>2020-08-02T05:54:25Z</time>
      </trkpt>
      <trkpt lat="46.52803" lon="4.50127">
        <ele>283.595</ele>
        <time>2020-08-02T05:54:31Z</time>
      </trkpt>
      <trkpt lat="46.52801" lon="4.50117">
        <ele>286.595</ele>
        <time>2020-08-02T05:54:36Z</time>
      </trkpt>
      <trkpt lat="46.52797" lon="4.50105">
        <ele>286.595</ele>
        <time>2020-08-02T05:54:41Z</time>
      </trkpt>
      <trkpt lat="46.52793" lon="4.50095">
        <ele>287.595</ele>
        <time>2020-08-02T05:54:47Z</time>
      </trkpt>
      <trkpt lat="46.52794" lon="4.50085">
        <ele>287.595</ele>
        <time>2020-08-02T05:54:54Z</time>
      </trkpt>
      <trkpt lat="46.52789" lon="4.50076">
        <ele>284.595</ele>
        <time>2020-08-02T05:54:59Z</time>
      </trkpt>
      <trkpt lat="46.52786" lon="4.50066">
        <ele>287.595</ele>
        <time>2020-08-02T05:55:05Z</time>
      </trkpt>
      <trkpt lat="46.52784" lon="4.50056">
        <ele>291.595</ele>
        <time>2020-08-02T05:55:12Z</time>
      </trkpt>
      <trkpt lat="46.52787" lon="4.50044">
        <ele>290.595</ele>
        <time>2020-08-02T05:55:17Z</time>
      </trkpt>
      <trkpt lat="46.52783" lon="4.50036">
        <ele>289.595</ele>
        <time>2020-08-02T05:55:22Z</time>
      </trkpt>
      <trkpt lat="46.52782" lon="4.50026">
        <ele>290.595</ele>
        <time>2020-08-02T05:55:27Z</time>
      </trkpt>
      <trkpt lat="46.52784" lon="4.50016">
        <ele>291.595</ele>
        <time>2020-08-02T05:55:32Z</time>
      </trkpt>
      <trkpt lat="46.52784" lon="4.50006">
        <ele>292.595</ele>
        <time>2020-08-02T05:55:38Z</time>
      </trkpt>
      <trkpt lat="46.52781" lon="4.49996">
        <ele>291.595</ele>
        <time>2020-08-02T05:55:43Z</time>
      </trkpt>
      <trkpt lat="46.52781" lon="4.49986">
        <ele>292.595</ele>
        <time>2020-08-02T05:55:48Z</time>
      </trkpt>
      <trkpt lat="46.52782" lon="4.49975">
        <ele>294.595</ele>
        <time>2020-08-02T05:55:55Z</time>
      </trkpt>
      <trkpt lat="46.52781" lon="4.49965">
        <ele>293.595</ele>
        <time>2020-08-02T05:56:01Z</time>
      </trkpt>
      <trkpt lat="46.52782" lon="4.49955">
        <ele>295.595</ele>
        <time>2020-08-02T05:56:06Z</time>
      </trkpt>
      <trkpt lat="46.52781" lon="4.49945">
        <ele>295.595</ele>
        <time>2020-08-02T05:56:11Z</time>
      </trkpt>
      <trkpt lat="46.52779" lon="4.49933">
        <ele>293.595</ele>
        <time>2020-08-02T05:56:17Z</time>
      </trkpt>
      <trkpt lat="46.52777" lon="4.49923">
        <ele>292.595</ele>
        <time>2020-08-02T05:56:23Z</time>
      </trkpt>
      <trkpt lat="46.52775" lon="4.49911">
        <ele>292.595</ele>
        <time>2020-08-02T05:56:30Z</time>
      </trkpt>
      <trkpt lat="46.52777" lon="4.49901">
        <ele>293.595</ele>
        <time>2020-08-02T05:56:36Z</time>
      </trkpt>
      <trkpt lat="46.52775" lon="4.49889">
        <ele>289.595</ele>
        <time>2020-08-02T05:56:41Z</time>
      </trkpt>
      <trkpt lat="46.52774" lon="4.49877">
        <ele>293.595</ele>
        <time>2020-08-02T05:56:48Z</time>
      </trkpt>
      <trkpt lat="46.5277" lon="4.49867">
        <ele>293.595</ele>
        <time>2020-08-02T05:56:53Z</time>
      </trkpt>
      <trkpt lat="46.52768" lon="4.49857">
        <ele>291.595</ele>
        <time>2020-08-02T05:56:58Z</time>
      </trkpt>
      <trkpt lat="46.52766" lon="4.49848">
        <ele>295.595</ele>
        <time>2020-08-02T05:57:04Z</time>
      </trkpt>
      <trkpt lat="46.52765" lon="4.49836">
        <ele>295.595</ele>
        <time>2020-08-02T05:57:12Z</time>
      </trkpt>
      <trkpt lat="46.52762" lon="4.49826">
        <ele>296.595</ele>
        <time>2020-08-02T05:57:18Z</time>
      </trkpt>
      <trkpt lat="46.52759" lon="4.49819">
        <ele>302.595</ele>
        <time>2020-08-02T05:57:24Z</time>
      </trkpt>
      <trkpt lat="46.52755" lon="4.49809">
        <ele>304.595</ele>
        <time>2020-08-02T05:57:32Z</time>
      </trkpt>
      <trkpt lat="46.52751" lon="4.498">
        <ele>304.595</ele>
        <time>2020-08-02T05:57:37Z</time>
      </trkpt>
      <trkpt lat="46.52746" lon="4.49792">
        <ele>305.595</ele>
        <time>2020-08-02T05:57:44Z</time>
      </trkpt>
      <trkpt lat="46.52741" lon="4.49785">
        <ele>302.595</ele>
        <time>2020-08-02T05:57:51Z</time>
      </trkpt>
      <trkpt lat="46.52739" lon="4.49775">
        <ele>299.595</ele>
        <time>2020-08-02T05:57:56Z</time>
      </trkpt>
      <trkpt lat="46.52734" lon="4.49769">
        <ele>298.595</ele>
        <time>2020-08-02T05:58:01Z</time>
      </trkpt>
      <trkpt lat="46.5273" lon="4.49759">
        <ele>299.595</ele>
        <time>2020-08-02T05:58:06Z</time>
      </trkpt>
      <trkpt lat="46.52727" lon="4.4975">
        <ele>302.595</ele>
        <time>2020-08-02T05:58:11Z</time>
      </trkpt>
      <trkpt lat="46.52723" lon="4.4974">
        <ele>303.595</ele>
        <time>2020-08-02T05:58:16Z</time>
      </trkpt>
      <trkpt lat="46.52721" lon="4.49731">
        <ele>304.595</ele>
        <time>2020-08-02T05:58:21Z</time>
      </trkpt>
      <trkpt lat="46.5272" lon="4.4972">
        <ele>303.595</ele>
        <time>2020-08-02T05:58:26Z</time>
      </trkpt>
      <trkpt lat="46.52717" lon="4.49711">
        <ele>301.595</ele>
        <time>2020-08-02T05:58:31Z</time>
      </trkpt>
      <trkpt lat="46.52718" lon="4.49701">
        <ele>304.595</ele>
        <time>2020-08-02T05:58:36Z</time>
      </trkpt>
      <trkpt lat="46.52718" lon="4.49691">
        <ele>306.595</ele>
        <time>2020-08-02T05:58:42Z</time>
      </trkpt>
      <trkpt lat="46.52715" lon="4.49682">
        <ele>303.595</ele>
        <time>2020-08-02T05:58:47Z</time>
      </trkpt>
      <trkpt lat="46.52714" lon="4.49673">
        <ele>305.595</ele>
        <time>2020-08-02T05:58:53Z</time>
      </trkpt>
      <trkpt lat="46.52712" lon="4.49663">
        <ele>305.595</ele>
        <time>2020-08-02T05:58:58Z</time>
      </trkpt>
      <trkpt lat="46.52711" lon="4.49654">
        <ele>307.595</ele>
        <time>2020-08-02T05:59:04Z</time>
      </trkpt>
      <trkpt lat="46.52708" lon="4.49643">
        <ele>309.595</ele>
        <time>2020-08-02T05:59:09Z</time>
      </trkpt>
      <trkpt lat="46.52706" lon="4.49634">
        <ele>311.595</ele>
        <time>2020-08-02T05:59:14Z</time>
      </trkpt>
      <trkpt lat="46.52708" lon="4.49624">
        <ele>310.595</ele>
        <time>2020-08-02T05:59:19Z</time>
      </trkpt>
      <trkpt lat="46.52702" lon="4.49619">
        <ele>308.595</ele>
        <time>2020-08-02T05:59:24Z</time>
      </trkpt>
      <trkpt lat="46.52705" lon="4.49609">
        <ele>306.595</ele>
        <time>2020-08-02T05:59:29Z</time>
      </trkpt>
      <trkpt lat="46.52704" lon="4.49599">
        <ele>306.595</ele>
        <time>2020-08-02T05:59:34Z</time>
      </trkpt>
      <trkpt lat="46.52706" lon="4.49588">
        <ele>306.595</ele>
        <time>2020-08-02T05:59:40Z</time>
      </trkpt>
      <trkpt lat="46.5271" lon="4.4958">
        <ele>310.595</ele>
        <time>2020-08-02T05:59:46Z</time>
      </trkpt>
      <trkpt lat="46.52712" lon="4.49569">
        <ele>312.595</ele>
        <time>2020-08-02T05:59:52Z</time>
      </trkpt>
      <trkpt lat="46.52714" lon="4.49559">
        <ele>312.595</ele>
        <time>2020-08-02T05:59:59Z</time>
      </trkpt>
      <trkpt lat="46.52718" lon="4.49547">
        <ele>310.595</ele>
        <time>2020-08-02T06:00:04Z</time>
      </trkpt>
      <trkpt lat="46.5272" lon="4.49538">
        <ele>311.595</ele>
        <time>2020-08-02T06:00:11Z</time>
      </trkpt>
      <trkpt lat="46.52721" lon="4.49528">
        <ele>309.595</ele>
        <time>2020-08-02T06:00:16Z</time>
      </trkpt>
      <trkpt lat="46.52721" lon="4.49518">
        <ele>307.595</ele>
        <time>2020-08-02T06:00:22Z</time>
      </trkpt>
      <trkpt lat="46.52724" lon="4.49509">
        <ele>307.595</ele>
        <time>2020-08-02T06:00:27Z</time>
      </trkpt>
      <trkpt lat="46.52727" lon="4.495">
        <ele>306.595</ele>
        <time>2020-08-02T06:00:33Z</time>
      </trkpt>
      <trkpt lat="46.52731" lon="4.4949">
        <ele>308.595</ele>
        <time>2020-08-02T06:00:38Z</time>
      </trkpt>
      <trkpt lat="46.52734" lon="4.49481">
        <ele>313.595</ele>
        <time>2020-08-02T06:00:44Z</time>
      </trkpt>
      <trkpt lat="46.52738" lon="4.49473">
        <ele>314.595</ele>
        <time>2020-08-02T06:00:50Z</time>
      </trkpt>
      <trkpt lat="46.52743" lon="4.49466">
        <ele>314.595</ele>
        <time>2020-08-02T06:00:55Z</time>
      </trkpt>
      <trkpt lat="46.52747" lon="4.49458">
        <ele>315.595</ele>
        <time>2020-08-02T06:01:01Z</time>
      </trkpt>
      <trkpt lat="46.5275" lon="4.49449">
        <ele>313.595</ele>
        <time>2020-08-02T06:01:06Z</time>
      </trkpt>
      <trkpt lat="46.52751" lon="4.49439">
        <ele>312.595</ele>
        <time>2020-08-02T06:01:12Z</time>
      </trkpt>
      <trkpt lat="46.52754" lon="4.49428">
        <ele>314.595</ele>
        <time>2020-08-02T06:01:19Z</time>
      </trkpt>
      <trkpt lat="46.52758" lon="4.4942">
        <ele>315.595</ele>
        <time>2020-08-02T06:01:25Z</time>
      </trkpt>
      <trkpt lat="46.52761" lon="4.4941">
        <ele>317.595</ele>
        <time>2020-08-02T06:01:30Z</time>
      </trkpt>
      <trkpt lat="46.52766" lon="4.49404">
        <ele>319.595</ele>
        <time>2020-08-02T06:01:36Z</time>
      </trkpt>
      <trkpt lat="46.52773" lon="4.49398">
        <ele>324.595</ele>
        <time>2020-08-02T06:01:41Z</time>
      </trkpt>
      <trkpt lat="46.52773" lon="4.49389">
        <ele>324.595</ele>
        <time>2020-08-02T06:01:46Z</time>
      </trkpt>
      <trkpt lat="46.52774" lon="4.49379">
        <ele>323.595</ele>
        <time>2020-08-02T06:01:52Z</time>
      </trkpt>
      <trkpt lat="46.52779" lon="4.4937">
        <ele>323.595</ele>
        <time>2020-08-02T06:01:57Z</time>
      </trkpt>
      <trkpt lat="46.52781" lon="4.49361">
        <ele>322.595</ele>
        <time>2020-08-02T06:02:02Z</time>
      </trkpt>
      <trkpt lat="46.52784" lon="4.49351">
        <ele>324.595</ele>
        <time>2020-08-02T06:02:09Z</time>
      </trkpt>
      <trkpt lat="46.52787" lon="4.49342">
        <ele>322.595</ele>
        <time>2020-08-02T06:02:14Z</time>
      </trkpt>
      <trkpt lat="46.5279" lon="4.49332">
        <ele>321.595</ele>
        <time>2020-08-02T06:02:20Z</time>
      </trkpt>
      <trkpt lat="46.52792" lon="4.49324">
        <ele>322.595</ele>
        <time>2020-08-02T06:02:25Z</time>
      </trkpt>
      <trkpt lat="46.52795" lon="4.49314">
        <ele>322.595</ele>
        <time>2020-08-02T06:02:32Z</time>
      </trkpt>
      <trkpt lat="46.52799" lon="4.49305">
        <ele>326.595</ele>
        <time>2020-08-02T06:02:38Z</time>
      </trkpt>
      <trkpt lat="46.52801" lon="4.49296">
        <ele>327.595</ele>
        <time>2020-08-02T06:02:44Z</time>
      </trkpt>
      <trkpt lat="46.52803" lon="4.49287">
        <ele>327.595</ele>
        <time>2020-08-02T06:02:49Z</time>
      </trkpt>
      <trkpt lat="46.52804" lon="4.49277">
        <ele>327.595</ele>
        <time>2020-08-02T06:02:54Z</time>
      </trkpt>
      <trkpt lat="46.52806" lon="4.49266">
        <ele>330.595</ele>
        <time>2020-08-02T06:02:59Z</time>
      </trkpt>
      <trkpt lat="46.52802" lon="4.49257">
        <ele>328.595</ele>
        <time>2020-08-02T06:03:04Z</time>
      </trkpt>
      <trkpt lat="46.52803" lon="4.49247">
        <ele>328.595</ele>
        <time>2020-08-02T06:03:09Z</time>
      </trkpt>
      <trkpt lat="46.52801" lon="4.49237">
        <ele>327.595</ele>
        <time>2020-08-02T06:03:14Z</time>
      </trkpt>
      <trkpt lat="46.52802" lon="4.49226">
        <ele>328.595</ele>
        <time>2020-08-02T06:03:21Z</time>
      </trkpt>
      <trkpt lat="46.52802" lon="4.49216">
        <ele>328.595</ele>
        <time>2020-08-02T06:03:28Z</time>
      </trkpt>
      <trkpt lat="46.52803" lon="4.49205">
        <ele>327.595</ele>
        <time>2020-08-02T06:03:33Z</time>
      </trkpt>
      <trkpt lat="46.52806" lon="4.49196">
        <ele>330.595</ele>
        <time>2020-08-02T06:03:38Z</time>
      </trkpt>
      <trkpt lat="46.52806" lon="4.49185">
        <ele>332.595</ele>
        <time>2020-08-02T06:03:45Z</time>
      </trkpt>
      <trkpt lat="46.52807" lon="4.49174">
        <ele>329.595</ele>
        <time>2020-08-02T06:03:52Z</time>
      </trkpt>
      <trkpt lat="46.52809" lon="4.49161">
        <ele>329.595</ele>
        <time>2020-08-02T06:03:57Z</time>
      </trkpt>
      <trkpt lat="46.52813" lon="4.49151">
        <ele>331.595</ele>
        <time>2020-08-02T06:04:02Z</time>
      </trkpt>
      <trkpt lat="46.52813" lon="4.49141">
        <ele>331.595</ele>
        <time>2020-08-02T06:04:08Z</time>
      </trkpt>
      <trkpt lat="46.52816" lon="4.49132">
        <ele>335.595</ele>
        <time>2020-08-02T06:04:13Z</time>
      </trkpt>
      <trkpt lat="46.52817" lon="4.4912">
        <ele>336.595</ele>
        <time>2020-08-02T06:04:19Z</time>
      </trkpt>
      <trkpt lat="46.52819" lon="4.49106">
        <ele>334.595</ele>
        <time>2020-08-02T06:04:24Z</time>
      </trkpt>
      <trkpt lat="46.5282" lon="4.49097">
        <ele>334.595</ele>
        <time>2020-08-02T06:04:30Z</time>
      </trkpt>
      <trkpt lat="46.52824" lon="4.49088">
        <ele>335.595</ele>
        <time>2020-08-02T06:04:35Z</time>
      </trkpt>
      <trkpt lat="46.52827" lon="4.49079">
        <ele>335.595</ele>
        <time>2020-08-02T06:04:41Z</time>
      </trkpt>
      <trkpt lat="46.52825" lon="4.49069">
        <ele>332.595</ele>
        <time>2020-08-02T06:04:46Z</time>
      </trkpt>
      <trkpt lat="46.52827" lon="4.49058">
        <ele>328.595</ele>
        <time>2020-08-02T06:04:51Z</time>
      </trkpt>
      <trkpt lat="46.5283" lon="4.49048">
        <ele>327.595</ele>
        <time>2020-08-02T06:04:57Z</time>
      </trkpt>
      <trkpt lat="46.52833" lon="4.49039">
        <ele>330.595</ele>
        <time>2020-08-02T06:05:02Z</time>
      </trkpt>
      <trkpt lat="46.52835" lon="4.49028">
        <ele>330.595</ele>
        <time>2020-08-02T06:05:09Z</time>
      </trkpt>
      <trkpt lat="46.5284" lon="4.49017">
        <ele>330.595</ele>
        <time>2020-08-02T06:05:14Z</time>
      </trkpt>
      <trkpt lat="46.52842" lon="4.49007">
        <ele>329.595</ele>
        <time>2020-08-02T06:05:20Z</time>
      </trkpt>
      <trkpt lat="46.52844" lon="4.48997">
        <ele>329.595</ele>
        <time>2020-08-02T06:05:25Z</time>
      </trkpt>
      <trkpt lat="46.52848" lon="4.48988">
        <ele>331.595</ele>
        <time>2020-08-02T06:05:30Z</time>
      </trkpt>
      <trkpt lat="46.52847" lon="4.48977">
        <ele>331.595</ele>
        <time>2020-08-02T06:05:37Z</time>
      </trkpt>
      <trkpt lat="46.52848" lon="4.48963">
        <ele>327.595</ele>
        <time>2020-08-02T06:05:42Z</time>
      </trkpt>
      <trkpt lat="46.52847" lon="4.4895">
        <ele>327.595</ele>
        <time>2020-08-02T06:05:50Z</time>
      </trkpt>
      <trkpt lat="46.52848" lon="4.4894">
        <ele>328.595</ele>
        <time>2020-08-02T06:05:55Z</time>
      </trkpt>
      <trkpt lat="46.52848" lon="4.48929">
        <ele>331.595</ele>
        <time>2020-08-02T06:06:03Z</time>
      </trkpt>
      <trkpt lat="46.52852" lon="4.48919">
        <ele>335.595</ele>
        <time>2020-08-02T06:06:08Z</time>
      </trkpt>
      <trkpt lat="46.52852" lon="4.48909">
        <ele>335.595</ele>
        <time>2020-08-02T06:06:14Z</time>
      </trkpt>
      <trkpt lat="46.52852" lon="4.48894">
        <ele>333.595</ele>
        <time>2020-08-02T06:06:19Z</time>
      </trkpt>
      <trkpt lat="46.52854" lon="4.48884">
        <ele>335.595</ele>
        <time>2020-08-02T06:06:26Z</time>
      </trkpt>
      <trkpt lat="46.52855" lon="4.48874">
        <ele>335.595</ele>
        <time>2020-08-02T06:06:31Z</time>
      </trkpt>
      <trkpt lat="46.5286" lon="4.48867">
        <ele>338.595</ele>
        <time>2020-08-02T06:06:38Z</time>
      </trkpt>
      <trkpt lat="46.52861" lon="4.48857">
        <ele>337.595</ele>
        <time>2020-08-02T06:06:43Z</time>
      </trkpt>
      <trkpt lat="46.52865" lon="4.48847">
        <ele>341.595</ele>
        <time>2020-08-02T06:06:48Z</time>
      </trkpt>
      <trkpt lat="46.52867" lon="4.48837">
        <ele>343.595</ele>
        <time>2020-08-02T06:06:53Z</time>
      </trkpt>
      <trkpt lat="46.5287" lon="4.48826">
        <ele>347.595</ele>
        <time>2020-08-02T06:06:58Z</time>
      </trkpt>
      <trkpt lat="46.52871" lon="4.48815">
        <ele>344.595</ele>
        <time>2020-08-02T06:07:04Z</time>
      </trkpt>
      <trkpt lat="46.52873" lon="4.48803">
        <ele>344.595</ele>
        <time>2020-08-02T06:07:09Z</time>
      </trkpt>
      <trkpt lat="46.52867" lon="4.48795">
        <ele>343.594</ele>
        <time>2020-08-02T06:07:14Z</time>
      </trkpt>
      <trkpt lat="46.52868" lon="4.48786">
        <ele>343.594</ele>
        <time>2020-08-02T06:07:19Z</time>
      </trkpt>
      <trkpt lat="46.52868" lon="4.48776">
        <ele>343.594</ele>
        <time>2020-08-02T06:07:24Z</time>
      </trkpt>
      <trkpt lat="46.52869" lon="4.48766">
        <ele>342.594</ele>
        <time>2020-08-02T06:07:29Z</time>
      </trkpt>
      <trkpt lat="46.52873" lon="4.48757">
        <ele>344.594</ele>
        <time>2020-08-02T06:07:34Z</time>
      </trkpt>
      <trkpt lat="46.52873" lon="4.48747">
        <ele>345.594</ele>
        <time>2020-08-02T06:07:40Z</time>
      </trkpt>
      <trkpt lat="46.52875" lon="4.48738">
        <ele>345.594</ele>
        <time>2020-08-02T06:07:45Z</time>
      </trkpt>
      <trkpt lat="46.52877" lon="4.48728">
        <ele>345.594</ele>
        <time>2020-08-02T06:07:51Z</time>
      </trkpt>
      <trkpt lat="46.52875" lon="4.48716">
        <ele>344.594</ele>
        <time>2020-08-02T06:07:56Z</time>
      </trkpt>
      <trkpt lat="46.52877" lon="4.48706">
        <ele>341.594</ele>
        <time>2020-08-02T06:08:02Z</time>
      </trkpt>
      <trkpt lat="46.52879" lon="4.48697">
        <ele>342.594</ele>
        <time>2020-08-02T06:08:07Z</time>
      </trkpt>
      <trkpt lat="46.52881" lon="4.48686">
        <ele>342.594</ele>
        <time>2020-08-02T06:08:16Z</time>
      </trkpt>
      <trkpt lat="46.52883" lon="4.48676">
        <ele>347.594</ele>
        <time>2020-08-02T06:08:21Z</time>
      </trkpt>
      <trkpt lat="46.52883" lon="4.48666">
        <ele>346.594</ele>
        <time>2020-08-02T06:08:27Z</time>
      </trkpt>
      <trkpt lat="46.52882" lon="4.48657">
        <ele>347.594</ele>
        <time>2020-08-02T06:08:33Z</time>
      </trkpt>
      <trkpt lat="46.52885" lon="4.48647">
        <ele>350.594</ele>
        <time>2020-08-02T06:10:01Z</time>
      </trkpt>
      <trkpt lat="46.52882" lon="4.48634">
        <ele>350.594</ele>
        <time>2020-08-02T06:10:06Z</time>
      </trkpt>
      <trkpt lat="46.52878" lon="4.48625">
        <ele>349.594</ele>
        <time>2020-08-02T06:10:11Z</time>
      </trkpt>
      <trkpt lat="46.52876" lon="4.48616">
        <ele>354.594</ele>
        <time>2020-08-02T06:10:17Z</time>
      </trkpt>
      <trkpt lat="46.52875" lon="4.48606">
        <ele>356.594</ele>
        <time>2020-08-02T06:10:23Z</time>
      </trkpt>
      <trkpt lat="46.52869" lon="4.48597">
        <ele>353.594</ele>
        <time>2020-08-02T06:10:28Z</time>
      </trkpt>
      <trkpt lat="46.52865" lon="4.48588">
        <ele>353.594</ele>
        <time>2020-08-02T06:10:33Z</time>
      </trkpt>
      <trkpt lat="46.52866" lon="4.48577">
        <ele>357.594</ele>
        <time>2020-08-02T06:10:44Z</time>
      </trkpt>
      <trkpt lat="46.52864" lon="4.48566">
        <ele>357.594</ele>
        <time>2020-08-02T06:10:51Z</time>
      </trkpt>
      <trkpt lat="46.5286" lon="4.48558">
        <ele>355.594</ele>
        <time>2020-08-02T06:10:58Z</time>
      </trkpt>
      <trkpt lat="46.52855" lon="4.48551">
        <ele>357.594</ele>
        <time>2020-08-02T06:11:08Z</time>
      </trkpt>
      <trkpt lat="46.52851" lon="4.48542">
        <ele>359.594</ele>
        <time>2020-08-02T06:11:14Z</time>
      </trkpt>
      <trkpt lat="46.5285" lon="4.48532">
        <ele>358.594</ele>
        <time>2020-08-02T06:11:19Z</time>
      </trkpt>
      <trkpt lat="46.52848" lon="4.4852">
        <ele>358.594</ele>
        <time>2020-08-02T06:11:24Z</time>
      </trkpt>
      <trkpt lat="46.52843" lon="4.4851">
        <ele>361.594</ele>
        <time>2020-08-02T06:11:30Z</time>
      </trkpt>
      <trkpt lat="46.52837" lon="4.48501">
        <ele>359.594</ele>
        <time>2020-08-02T06:11:35Z</time>
      </trkpt>
      <trkpt lat="46.5283" lon="4.48496">
        <ele>358.594</ele>
        <time>2020-08-02T06:11:41Z</time>
      </trkpt>
      <trkpt lat="46.52825" lon="4.48488">
        <ele>359.594</ele>
        <time>2020-08-02T06:11:47Z</time>
      </trkpt>
      <trkpt lat="46.52822" lon="4.48478">
        <ele>360.594</ele>
        <time>2020-08-02T06:11:53Z</time>
      </trkpt>
      <trkpt lat="46.52816" lon="4.48473">
        <ele>361.594</ele>
        <time>2020-08-02T06:11:59Z</time>
      </trkpt>
      <trkpt lat="46.52814" lon="4.48464">
        <ele>361.594</ele>
        <time>2020-08-02T06:12:04Z</time>
      </trkpt>
      <trkpt lat="46.52807" lon="4.48457">
        <ele>361.594</ele>
        <time>2020-08-02T06:12:09Z</time>
      </trkpt>
      <trkpt lat="46.52802" lon="4.4845">
        <ele>359.594</ele>
        <time>2020-08-02T06:12:14Z</time>
      </trkpt>
      <trkpt lat="46.52797" lon="4.48442">
        <ele>363.594</ele>
        <time>2020-08-02T06:12:21Z</time>
      </trkpt>
      <trkpt lat="46.52791" lon="4.48434">
        <ele>360.594</ele>
        <time>2020-08-02T06:12:26Z</time>
      </trkpt>
      <trkpt lat="46.52785" lon="4.48434">
        <ele>361.594</ele>
        <time>2020-08-02T06:12:36Z</time>
      </trkpt>
      <trkpt lat="46.52778" lon="4.48427">
        <ele>361.594</ele>
        <time>2020-08-02T06:12:43Z</time>
      </trkpt>
      <trkpt lat="46.52773" lon="4.48413">
        <ele>362.594</ele>
        <time>2020-08-02T06:12:48Z</time>
      </trkpt>
      <trkpt lat="46.52769" lon="4.48405">
        <ele>366.594</ele>
        <time>2020-08-02T06:12:53Z</time>
      </trkpt>
      <trkpt lat="46.52765" lon="4.48397">
        <ele>366.594</ele>
        <time>2020-08-02T06:12:59Z</time>
      </trkpt>
      <trkpt lat="46.5276" lon="4.48388">
        <ele>366.594</ele>
        <time>2020-08-02T06:13:04Z</time>
      </trkpt>
      <trkpt lat="46.52755" lon="4.48376">
        <ele>368.594</ele>
        <time>2020-08-02T06:13:10Z</time>
      </trkpt>
      <trkpt lat="46.52751" lon="4.48369">
        <ele>371.594</ele>
        <time>2020-08-02T06:13:18Z</time>
      </trkpt>
      <trkpt lat="46.52745" lon="4.4836">
        <ele>369.594</ele>
        <time>2020-08-02T06:13:24Z</time>
      </trkpt>
      <trkpt lat="46.5274" lon="4.48354">
        <ele>369.594</ele>
        <time>2020-08-02T06:13:29Z</time>
      </trkpt>
      <trkpt lat="46.52735" lon="4.48346">
        <ele>366.594</ele>
        <time>2020-08-02T06:13:34Z</time>
      </trkpt>
      <trkpt lat="46.52729" lon="4.48338">
        <ele>369.594</ele>
        <time>2020-08-02T06:13:41Z</time>
      </trkpt>
      <trkpt lat="46.52724" lon="4.4833">
        <ele>366.594</ele>
        <time>2020-08-02T06:13:46Z</time>
      </trkpt>
      <trkpt lat="46.52718" lon="4.48321">
        <ele>364.594</ele>
        <time>2020-08-02T06:13:53Z</time>
      </trkpt>
      <trkpt lat="46.52716" lon="4.48311">
        <ele>367.594</ele>
        <time>2020-08-02T06:13:58Z</time>
      </trkpt>
      <trkpt lat="46.52713" lon="4.48303">
        <ele>370.594</ele>
        <time>2020-08-02T06:14:03Z</time>
      </trkpt>
      <trkpt lat="46.52709" lon="4.48295">
        <ele>370.594</ele>
        <time>2020-08-02T06:14:08Z</time>
      </trkpt>
      <trkpt lat="46.52708" lon="4.48282">
        <ele>372.594</ele>
        <time>2020-08-02T06:14:15Z</time>
      </trkpt>
      <trkpt lat="46.52701" lon="4.48276">
        <ele>370.594</ele>
        <time>2020-08-02T06:14:20Z</time>
      </trkpt>
      <trkpt lat="46.52696" lon="4.4827">
        <ele>371.594</ele>
        <time>2020-08-02T06:14:25Z</time>
      </trkpt>
      <trkpt lat="46.52694" lon="4.48262">
        <ele>373.594</ele>
        <time>2020-08-02T06:14:30Z</time>
      </trkpt>
      <trkpt lat="46.52689" lon="4.48253">
        <ele>375.594</ele>
        <time>2020-08-02T06:14:36Z</time>
      </trkpt>
      <trkpt lat="46.52684" lon="4.48245">
        <ele>374.594</ele>
        <time>2020-08-02T06:14:42Z</time>
      </trkpt>
      <trkpt lat="46.52681" lon="4.48237">
        <ele>375.594</ele>
        <time>2020-08-02T06:14:47Z</time>
      </trkpt>
      <trkpt lat="46.52676" lon="4.4823">
        <ele>376.594</ele>
        <time>2020-08-02T06:14:54Z</time>
      </trkpt>
      <trkpt lat="46.52671" lon="4.48224">
        <ele>375.594</ele>
        <time>2020-08-02T06:15:00Z</time>
      </trkpt>
      <trkpt lat="46.52668" lon="4.48216">
        <ele>378.594</ele>
        <time>2020-08-02T06:15:05Z</time>
      </trkpt>
      <trkpt lat="46.52663" lon="4.48207">
        <ele>379.594</ele>
        <time>2020-08-02T06:15:11Z</time>
      </trkpt>
      <trkpt lat="46.52659" lon="4.48198">
        <ele>380.593</ele>
        <time>2020-08-02T06:15:19Z</time>
      </trkpt>
      <trkpt lat="46.52656" lon="4.48189">
        <ele>382.593</ele>
        <time>2020-08-02T06:15:26Z</time>
      </trkpt>
      <trkpt lat="46.52652" lon="4.48181">
        <ele>381.593</ele>
        <time>2020-08-02T06:15:32Z</time>
      </trkpt>
      <trkpt lat="46.52646" lon="4.48175">
        <ele>382.593</ele>
        <time>2020-08-02T06:15:39Z</time>
      </trkpt>
      <trkpt lat="46.52639" lon="4.48171">
        <ele>384.593</ele>
        <time>2020-08-02T06:15:47Z</time>
      </trkpt>
      <trkpt lat="46.52634" lon="4.48164">
        <ele>383.593</ele>
        <time>2020-08-02T06:15:54Z</time>
      </trkpt>
      <trkpt lat="46.52628" lon="4.4816">
        <ele>380.593</ele>
        <time>2020-08-02T06:16:01Z</time>
      </trkpt>
      <trkpt lat="46.52622" lon="4.48155">
        <ele>377.593</ele>
        <time>2020-08-02T06:16:08Z</time>
      </trkpt>
      <trkpt lat="46.52618" lon="4.48148">
        <ele>382.593</ele>
        <time>2020-08-02T06:16:19Z</time>
      </trkpt>
      <trkpt lat="46.52614" lon="4.4814">
        <ele>384.593</ele>
        <time>2020-08-02T06:16:27Z</time>
      </trkpt>
      <trkpt lat="46.5261" lon="4.48132">
        <ele>387.593</ele>
        <time>2020-08-02T06:16:36Z</time>
      </trkpt>
      <trkpt lat="46.52607" lon="4.48122">
        <ele>390.593</ele>
        <time>2020-08-02T06:16:46Z</time>
      </trkpt>
      <trkpt lat="46.52604" lon="4.48112">
        <ele>393.593</ele>
        <time>2020-08-02T06:16:52Z</time>
      </trkpt>
      <trkpt lat="46.526" lon="4.48102">
        <ele>390.593</ele>
        <time>2020-08-02T06:17:00Z</time>
      </trkpt>
      <trkpt lat="46.52595" lon="4.48093">
        <ele>388.593</ele>
        <time>2020-08-02T06:17:05Z</time>
      </trkpt>
      <trkpt lat="46.52594" lon="4.48082">
        <ele>392.593</ele>
        <time>2020-08-02T06:17:12Z</time>
      </trkpt>
      <trkpt lat="46.52591" lon="4.48073">
        <ele>394.593</ele>
        <time>2020-08-02T06:17:18Z</time>
      </trkpt>
      <trkpt lat="46.52587" lon="4.48064">
        <ele>393.593</ele>
        <time>2020-08-02T06:17:23Z</time>
      </trkpt>
      <trkpt lat="46.52585" lon="4.48055">
        <ele>393.593</ele>
        <time>2020-08-02T06:17:28Z</time>
      </trkpt>
      <trkpt lat="46.52584" lon="4.48044">
        <ele>394.593</ele>
        <time>2020-08-02T06:17:36Z</time>
      </trkpt>
      <trkpt lat="46.5258" lon="4.48036">
        <ele>393.593</ele>
        <time>2020-08-02T06:17:43Z</time>
      </trkpt>
      <trkpt lat="46.52577" lon="4.48026">
        <ele>395.593</ele>
        <time>2020-08-02T06:17:52Z</time>
      </trkpt>
      <trkpt lat="46.52577" lon="4.48016">
        <ele>400.593</ele>
        <time>2020-08-02T06:18:00Z</time>
      </trkpt>
      <trkpt lat="46.52573" lon="4.48007">
        <ele>400.593</ele>
        <time>2020-08-02T06:18:07Z</time>
      </trkpt>
      <trkpt lat="46.52572" lon="4.47996">
        <ele>399.593</ele>
        <time>2020-08-02T06:18:15Z</time>
      </trkpt>
      <trkpt lat="46.52569" lon="4.47987">
        <ele>400.593</ele>
        <time>2020-08-02T06:18:22Z</time>
      </trkpt>
      <trkpt lat="46.52566" lon="4.47976">
        <ele>399.593</ele>
        <time>2020-08-02T06:18:27Z</time>
      </trkpt>
      <trkpt lat="46.52562" lon="4.47968">
        <ele>401.593</ele>
        <time>2020-08-02T06:18:33Z</time>
      </trkpt>
      <trkpt lat="46.52559" lon="4.47958">
        <ele>401.593</ele>
        <time>2020-08-02T06:18:39Z</time>
      </trkpt>
      <trkpt lat="46.52557" lon="4.47947">
        <ele>398.593</ele>
        <time>2020-08-02T06:18:44Z</time>
      </trkpt>
      <trkpt lat="46.52552" lon="4.47938">
        <ele>401.593</ele>
        <time>2020-08-02T06:18:51Z</time>
      </trkpt>
      <trkpt lat="46.52551" lon="4.47927">
        <ele>402.593</ele>
        <time>2020-08-02T06:18:57Z</time>
      </trkpt>
      <trkpt lat="46.52548" lon="4.47917">
        <ele>403.593</ele>
        <time>2020-08-02T06:19:07Z</time>
      </trkpt>
      <trkpt lat="46.52544" lon="4.47907">
        <ele>402.593</ele>
        <time>2020-08-02T06:19:13Z</time>
      </trkpt>
      <trkpt lat="46.5254" lon="4.47899">
        <ele>403.593</ele>
        <time>2020-08-02T06:19:19Z</time>
      </trkpt>
      <trkpt lat="46.52537" lon="4.47889">
        <ele>405.593</ele>
        <time>2020-08-02T06:19:25Z</time>
      </trkpt>
      <trkpt lat="46.52534" lon="4.4788">
        <ele>406.593</ele>
        <time>2020-08-02T06:19:30Z</time>
      </trkpt>
      <trkpt lat="46.52532" lon="4.47872">
        <ele>409.593</ele>
        <time>2020-08-02T06:19:38Z</time>
      </trkpt>
      <trkpt lat="46.52527" lon="4.47862">
        <ele>408.593</ele>
        <time>2020-08-02T06:20:15Z</time>
      </trkpt>
      <trkpt lat="46.52525" lon="4.47853">
        <ele>410.593</ele>
        <time>2020-08-02T06:20:20Z</time>
      </trkpt>
      <trkpt lat="46.52521" lon="4.47846">
        <ele>409.593</ele>
        <time>2020-08-02T06:20:25Z</time>
      </trkpt>
      <trkpt lat="46.52519" lon="4.47835">
        <ele>418.593</ele>
        <time>2020-08-02T06:20:35Z</time>
      </trkpt>
      <trkpt lat="46.52512" lon="4.47828">
        <ele>416.593</ele>
        <time>2020-08-02T06:20:49Z</time>
      </trkpt>
      <trkpt lat="46.5251" lon="4.47818">
        <ele>415.593</ele>
        <time>2020-08-02T06:20:54Z</time>
      </trkpt>
      <trkpt lat="46.52507" lon="4.47809">
        <ele>416.593</ele>
        <time>2020-08-02T06:21:01Z</time>
      </trkpt>
      <trkpt lat="46.52503" lon="4.47797">
        <ele>414.593</ele>
        <time>2020-08-02T06:21:06Z</time>
      </trkpt>
      <trkpt lat="46.52498" lon="4.47787">
        <ele>417.593</ele>
        <time>2020-08-02T06:21:11Z</time>
      </trkpt>
      <trkpt lat="46.52494" lon="4.47777">
        <ele>415.593</ele>
        <time>2020-08-02T06:21:22Z</time>
      </trkpt>
      <trkpt lat="46.52491" lon="4.47768">
        <ele>417.593</ele>
        <time>2020-08-02T06:21:30Z</time>
      </trkpt>
      <trkpt lat="46.52489" lon="4.47757">
        <ele>414.593</ele>
        <time>2020-08-02T06:21:41Z</time>
      </trkpt>
      <trkpt lat="46.52486" lon="4.47748">
        <ele>410.593</ele>
        <time>2020-08-02T06:21:46Z</time>
      </trkpt>
      <trkpt lat="46.52486" lon="4.47739">
        <ele>411.593</ele>
        <time>2020-08-02T06:21:52Z</time>
      </trkpt>
      <trkpt lat="46.52487" lon="4.47729">
        <ele>412.593</ele>
        <time>2020-08-02T06:21:58Z</time>
      </trkpt>
      <trkpt lat="46.52493" lon="4.47724">
        <ele>414.593</ele>
        <time>2020-08-02T06:22:06Z</time>
      </trkpt>
      <trkpt lat="46.525" lon="4.47719">
        <ele>410.593</ele>
        <time>2020-08-02T06:22:13Z</time>
      </trkpt>
      <trkpt lat="46.52503" lon="4.47709">
        <ele>410.593</ele>
        <time>2020-08-02T06:22:22Z</time>
      </trkpt>
      <trkpt lat="46.52505" lon="4.477">
        <ele>409.593</ele>
        <time>2020-08-02T06:22:28Z</time>
      </trkpt>
      <trkpt lat="46.52509" lon="4.47692">
        <ele>408.593</ele>
        <time>2020-08-02T06:22:33Z</time>
      </trkpt>
      <trkpt lat="46.52515" lon="4.47687">
        <ele>409.593</ele>
        <time>2020-08-02T06:22:38Z</time>
      </trkpt>
      <trkpt lat="46.5252" lon="4.47675">
        <ele>412.593</ele>
        <time>2020-08-02T06:22:43Z</time>
      </trkpt>
      <trkpt lat="46.52523" lon="4.47667">
        <ele>411.593</ele>
        <time>2020-08-02T06:22:49Z</time>
      </trkpt>
      <trkpt lat="46.52526" lon="4.47658">
        <ele>410.593</ele>
        <time>2020-08-02T06:22:54Z</time>
      </trkpt>
      <trkpt lat="46.52531" lon="4.47651">
        <ele>410.593</ele>
        <time>2020-08-02T06:22:59Z</time>
      </trkpt>
      <trkpt lat="46.5253" lon="4.47639">
        <ele>405.593</ele>
        <time>2020-08-02T06:23:04Z</time>
      </trkpt>
      <trkpt lat="46.52534" lon="4.47629">
        <ele>403.593</ele>
        <time>2020-08-02T06:23:10Z</time>
      </trkpt>
      <trkpt lat="46.52537" lon="4.47618">
        <ele>402.593</ele>
        <time>2020-08-02T06:23:15Z</time>
      </trkpt>
      <trkpt lat="46.52542" lon="4.47611">
        <ele>401.593</ele>
        <time>2020-08-02T06:23:21Z</time>
      </trkpt>
      <trkpt lat="46.52543" lon="4.47602">
        <ele>402.593</ele>
        <time>2020-08-02T06:23:27Z</time>
      </trkpt>
      <trkpt lat="46.52546" lon="4.47592">
        <ele>403.593</ele>
        <time>2020-08-02T06:23:32Z</time>
      </trkpt>
      <trkpt lat="46.5255" lon="4.47583">
        <ele>401.593</ele>
        <time>2020-08-02T06:23:39Z</time>
      </trkpt>
      <trkpt lat="46.52556" lon="4.47577">
        <ele>404.593</ele>
        <time>2020-08-02T06:23:44Z</time>
      </trkpt>
      <trkpt lat="46.52559" lon="4.47568">
        <ele>402.593</ele>
        <time>2020-08-02T06:23:50Z</time>
      </trkpt>
      <trkpt lat="46.52559" lon="4.47559">
        <ele>400.593</ele>
        <time>2020-08-02T06:23:57Z</time>
      </trkpt>
      <trkpt lat="46.52563" lon="4.4755">
        <ele>399.593</ele>
        <time>2020-08-02T06:24:02Z</time>
      </trkpt>
      <trkpt lat="46.52561" lon="4.4754">
        <ele>399.593</ele>
        <time>2020-08-02T06:24:07Z</time>
      </trkpt>
      <trkpt lat="46.52564" lon="4.4753">
        <ele>400.593</ele>
        <time>2020-08-02T06:24:12Z</time>
      </trkpt>
      <trkpt lat="46.52565" lon="4.4752">
        <ele>399.593</ele>
        <time>2020-08-02T06:24:17Z</time>
      </trkpt>
      <trkpt lat="46.5257" lon="4.47512">
        <ele>398.593</ele>
        <time>2020-08-02T06:24:22Z</time>
      </trkpt>
      <trkpt lat="46.52573" lon="4.47502">
        <ele>402.593</ele>
        <time>2020-08-02T06:24:27Z</time>
      </trkpt>
      <trkpt lat="46.52574" lon="4.47491">
        <ele>400.593</ele>
        <time>2020-08-02T06:24:33Z</time>
      </trkpt>
      <trkpt lat="46.52579" lon="4.4748">
        <ele>400.593</ele>
        <time>2020-08-02T06:24:38Z</time>
      </trkpt>
      <trkpt lat="46.52578" lon="4.4747">
        <ele>400.593</ele>
        <time>2020-08-02T06:24:45Z</time>
      </trkpt>
      <trkpt lat="46.52581" lon="4.47458">
        <ele>402.593</ele>
        <time>2020-08-02T06:24:50Z</time>
      </trkpt>
      <trkpt lat="46.52583" lon="4.47448">
        <ele>399.593</ele>
        <time>2020-08-02T06:24:56Z</time>
      </trkpt>
      <trkpt lat="46.52581" lon="4.47437">
        <ele>398.593</ele>
        <time>2020-08-02T06:25:01Z</time>
      </trkpt>
      <trkpt lat="46.52585" lon="4.47427">
        <ele>396.593</ele>
        <time>2020-08-02T06:25:07Z</time>
      </trkpt>
      <trkpt lat="46.52588" lon="4.47415">
        <ele>395.593</ele>
        <time>2020-08-02T06:25:12Z</time>
      </trkpt>
      <trkpt lat="46.52589" lon="4.47404">
        <ele>396.593</ele>
        <time>2020-08-02T06:25:18Z</time>
      </trkpt>
      <trkpt lat="46.52587" lon="4.47392">
        <ele>398.593</ele>
        <time>2020-08-02T06:25:23Z</time>
      </trkpt>
      <trkpt lat="46.52589" lon="4.47383">
        <ele>399.593</ele>
        <time>2020-08-02T06:25:28Z</time>
      </trkpt>
      <trkpt lat="46.52587" lon="4.47374">
        <ele>400.593</ele>
        <time>2020-08-02T06:25:35Z</time>
      </trkpt>
      <trkpt lat="46.52583" lon="4.47364">
        <ele>401.593</ele>
        <time>2020-08-02T06:25:41Z</time>
      </trkpt>
      <trkpt lat="46.52577" lon="4.47355">
        <ele>399.593</ele>
        <time>2020-08-02T06:25:46Z</time>
      </trkpt>
      <trkpt lat="46.52579" lon="4.47345">
        <ele>398.593</ele>
        <time>2020-08-02T06:25:51Z</time>
      </trkpt>
      <trkpt lat="46.52576" lon="4.47333">
        <ele>397.593</ele>
        <time>2020-08-02T06:25:56Z</time>
      </trkpt>
      <trkpt lat="46.52576" lon="4.47323">
        <ele>400.593</ele>
        <time>2020-08-02T06:26:02Z</time>
      </trkpt>
      <trkpt lat="46.52577" lon="4.47314">
        <ele>402.593</ele>
        <time>2020-08-02T06:26:07Z</time>
      </trkpt>
      <trkpt lat="46.52577" lon="4.47303">
        <ele>401.593</ele>
        <time>2020-08-02T06:26:13Z</time>
      </trkpt>
      <trkpt lat="46.52581" lon="4.47293">
        <ele>402.593</ele>
        <time>2020-08-02T06:26:18Z</time>
      </trkpt>
      <trkpt lat="46.52579" lon="4.47284">
        <ele>399.593</ele>
        <time>2020-08-02T06:26:26Z</time>
      </trkpt>
      <trkpt lat="46.52588" lon="4.47273">
        <ele>402.593</ele>
        <time>2020-08-02T06:26:31Z</time>
      </trkpt>
      <trkpt lat="46.52595" lon="4.47265">
        <ele>403.593</ele>
        <time>2020-08-02T06:26:36Z</time>
      </trkpt>
      <trkpt lat="46.526" lon="4.47256">
        <ele>402.593</ele>
        <time>2020-08-02T06:26:41Z</time>
      </trkpt>
      <trkpt lat="46.52602" lon="4.47247">
        <ele>400.593</ele>
        <time>2020-08-02T06:26:47Z</time>
      </trkpt>
      <trkpt lat="46.52605" lon="4.47238">
        <ele>400.593</ele>
        <time>2020-08-02T06:26:52Z</time>
      </trkpt>
      <trkpt lat="46.52609" lon="4.4723">
        <ele>399.593</ele>
        <time>2020-08-02T06:27:01Z</time>
      </trkpt>
      <trkpt lat="46.52612" lon="4.4722">
        <ele>397.593</ele>
        <time>2020-08-02T06:27:07Z</time>
      </trkpt>
      <trkpt lat="46.52616" lon="4.47211">
        <ele>397.593</ele>
        <time>2020-08-02T06:27:13Z</time>
      </trkpt>
      <trkpt lat="46.52621" lon="4.47203">
        <ele>396.593</ele>
        <time>2020-08-02T06:27:19Z</time>
      </trkpt>
      <trkpt lat="46.52626" lon="4.47196">
        <ele>397.593</ele>
        <time>2020-08-02T06:27:24Z</time>
      </trkpt>
      <trkpt lat="46.52631" lon="4.47188">
        <ele>398.593</ele>
        <time>2020-08-02T06:27:30Z</time>
      </trkpt>
      <trkpt lat="46.52636" lon="4.4718">
        <ele>398.593</ele>
        <time>2020-08-02T06:27:38Z</time>
      </trkpt>
      <trkpt lat="46.52643" lon="4.47173">
        <ele>399.593</ele>
        <time>2020-08-02T06:27:43Z</time>
      </trkpt>
      <trkpt lat="46.52651" lon="4.47164">
        <ele>398.593</ele>
        <time>2020-08-02T06:27:49Z</time>
      </trkpt>
      <trkpt lat="46.52651" lon="4.47154">
        <ele>397.593</ele>
        <time>2020-08-02T06:28:08Z</time>
      </trkpt>
      <trkpt lat="46.52659" lon="4.47153">
        <ele>398.593</ele>
        <time>2020-08-02T06:28:15Z</time>
      </trkpt>
      <trkpt lat="46.52667" lon="4.47149">
        <ele>399.593</ele>
        <time>2020-08-02T06:28:20Z</time>
      </trkpt>
      <trkpt lat="46.52673" lon="4.47143">
        <ele>399.593</ele>
        <time>2020-08-02T06:28:25Z</time>
      </trkpt>
      <trkpt lat="46.52679" lon="4.47134">
        <ele>399.593</ele>
        <time>2020-08-02T06:28:30Z</time>
      </trkpt>
      <trkpt lat="46.52685" lon="4.47126">
        <ele>400.593</ele>
        <time>2020-08-02T06:28:35Z</time>
      </trkpt>
      <trkpt lat="46.52691" lon="4.47119">
        <ele>400.593</ele>
        <time>2020-08-02T06:28:40Z</time>
      </trkpt>
      <trkpt lat="46.52696" lon="4.47111">
        <ele>399.593</ele>
        <time>2020-08-02T06:28:45Z</time>
      </trkpt>
      <trkpt lat="46.52701" lon="4.47104">
        <ele>397.593</ele>
        <time>2020-08-02T06:28:52Z</time>
      </trkpt>
      <trkpt lat="46.52709" lon="4.47095">
        <ele>396.593</ele>
        <time>2020-08-02T06:28:57Z</time>
      </trkpt>
      <trkpt lat="46.52716" lon="4.47085">
        <ele>392.593</ele>
        <time>2020-08-02T06:29:02Z</time>
      </trkpt>
      <trkpt lat="46.52721" lon="4.47076">
        <ele>392.593</ele>
        <time>2020-08-02T06:29:08Z</time>
      </trkpt>
      <trkpt lat="46.52727" lon="4.47069">
        <ele>395.593</ele>
        <time>2020-08-02T06:29:13Z</time>
      </trkpt>
      <trkpt lat="46.52732" lon="4.47056">
        <ele>394.593</ele>
        <time>2020-08-02T06:29:18Z</time>
      </trkpt>
      <trkpt lat="46.52741" lon="4.47046">
        <ele>393.593</ele>
        <time>2020-08-02T06:29:23Z</time>
      </trkpt>
      <trkpt lat="46.52745" lon="4.47037">
        <ele>391.593</ele>
        <time>2020-08-02T06:29:28Z</time>
      </trkpt>
      <trkpt lat="46.52749" lon="4.47029">
        <ele>390.593</ele>
        <time>2020-08-02T06:29:37Z</time>
      </trkpt>
      <trkpt lat="46.52754" lon="4.47021">
        <ele>389.593</ele>
        <time>2020-08-02T06:29:45Z</time>
      </trkpt>
      <trkpt lat="46.5276" lon="4.47015">
        <ele>389.593</ele>
        <time>2020-08-02T06:29:50Z</time>
      </trkpt>
      <trkpt lat="46.52768" lon="4.47006">
        <ele>390.593</ele>
        <time>2020-08-02T06:29:55Z</time>
      </trkpt>
      <trkpt lat="46.52772" lon="4.46996">
        <ele>390.593</ele>
        <time>2020-08-02T06:30:00Z</time>
      </trkpt>
      <trkpt lat="46.52777" lon="4.4699">
        <ele>390.593</ele>
        <time>2020-08-02T06:30:05Z</time>
      </trkpt>
      <trkpt lat="46.52783" lon="4.46981">
        <ele>391.593</ele>
        <time>2020-08-02T06:30:10Z</time>
      </trkpt>
      <trkpt lat="46.52789" lon="4.46972">
        <ele>396.593</ele>
        <time>2020-08-02T06:30:15Z</time>
      </trkpt>
      <trkpt lat="46.52796" lon="4.46962">
        <ele>399.593</ele>
        <time>2020-08-02T06:30:20Z</time>
      </trkpt>
      <trkpt lat="46.52803" lon="4.46956">
        <ele>402.593</ele>
        <time>2020-08-02T06:30:25Z</time>
      </trkpt>
      <trkpt lat="46.52809" lon="4.46947">
        <ele>399.593</ele>
        <time>2020-08-02T06:30:30Z</time>
      </trkpt>
      <trkpt lat="46.52815" lon="4.4694">
        <ele>397.593</ele>
        <time>2020-08-02T06:30:35Z</time>
      </trkpt>
      <trkpt lat="46.52821" lon="4.46933">
        <ele>393.593</ele>
        <time>2020-08-02T06:30:42Z</time>
      </trkpt>
      <trkpt lat="46.52826" lon="4.46925">
        <ele>393.593</ele>
        <time>2020-08-02T06:30:48Z</time>
      </trkpt>
      <trkpt lat="46.52829" lon="4.46917">
        <ele>392.593</ele>
        <time>2020-08-02T06:30:54Z</time>
      </trkpt>
      <trkpt lat="46.52837" lon="4.4691">
        <ele>392.593</ele>
        <time>2020-08-02T06:30:59Z</time>
      </trkpt>
      <trkpt lat="46.52843" lon="4.46902">
        <ele>393.593</ele>
        <time>2020-08-02T06:31:04Z</time>
      </trkpt>
      <trkpt lat="46.52851" lon="4.46894">
        <ele>394.593</ele>
        <time>2020-08-02T06:31:09Z</time>
      </trkpt>
      <trkpt lat="46.52859" lon="4.46885">
        <ele>392.593</ele>
        <time>2020-08-02T06:31:14Z</time>
      </trkpt>
      <trkpt lat="46.52864" lon="4.46878">
        <ele>392.593</ele>
        <time>2020-08-02T06:31:19Z</time>
      </trkpt>
      <trkpt lat="46.5287" lon="4.46873">
        <ele>392.593</ele>
        <time>2020-08-02T06:31:24Z</time>
      </trkpt>
      <trkpt lat="46.52874" lon="4.46865">
        <ele>396.593</ele>
        <time>2020-08-02T06:31:31Z</time>
      </trkpt>
      <trkpt lat="46.52881" lon="4.46859">
        <ele>395.593</ele>
        <time>2020-08-02T06:31:36Z</time>
      </trkpt>
      <trkpt lat="46.52887" lon="4.46855">
        <ele>394.593</ele>
        <time>2020-08-02T06:31:42Z</time>
      </trkpt>
      <trkpt lat="46.52895" lon="4.46845">
        <ele>398.593</ele>
        <time>2020-08-02T06:31:47Z</time>
      </trkpt>
      <trkpt lat="46.529" lon="4.46835">
        <ele>401.593</ele>
        <time>2020-08-02T06:31:52Z</time>
      </trkpt>
      <trkpt lat="46.52904" lon="4.46826">
        <ele>399.593</ele>
        <time>2020-08-02T06:31:57Z</time>
      </trkpt>
      <trkpt lat="46.52911" lon="4.4682">
        <ele>398.593</ele>
        <time>2020-08-02T06:32:02Z</time>
      </trkpt>
      <trkpt lat="46.5292" lon="4.46817">
        <ele>395.593</ele>
        <time>2020-08-02T06:32:07Z</time>
      </trkpt>
      <trkpt lat="46.52927" lon="4.46811">
        <ele>391.593</ele>
        <time>2020-08-02T06:32:15Z</time>
      </trkpt>
      <trkpt lat="46.52932" lon="4.46803">
        <ele>390.593</ele>
        <time>2020-08-02T06:32:20Z</time>
      </trkpt>
      <trkpt lat="46.52938" lon="4.46796">
        <ele>392.593</ele>
        <time>2020-08-02T06:32:25Z</time>
      </trkpt>
      <trkpt lat="46.52943" lon="4.46788">
        <ele>394.593</ele>
        <time>2020-08-02T06:32:31Z</time>
      </trkpt>
      <trkpt lat="46.52945" lon="4.46779">
        <ele>393.593</ele>
        <time>2020-08-02T06:32:36Z</time>
      </trkpt>
      <trkpt lat="46.52948" lon="4.46769">
        <ele>394.593</ele>
        <time>2020-08-02T06:32:41Z</time>
      </trkpt>
      <trkpt lat="46.52953" lon="4.46759">
        <ele>395.593</ele>
        <time>2020-08-02T06:32:46Z</time>
      </trkpt>
      <trkpt lat="46.52952" lon="4.46748">
        <ele>393.593</ele>
        <time>2020-08-02T06:32:53Z</time>
      </trkpt>
      <trkpt lat="46.52953" lon="4.46737">
        <ele>395.593</ele>
        <time>2020-08-02T06:32:59Z</time>
      </trkpt>
      <trkpt lat="46.5295" lon="4.46723">
        <ele>395.593</ele>
        <time>2020-08-02T06:33:12Z</time>
      </trkpt>
      <trkpt lat="46.52946" lon="4.46709">
        <ele>398.593</ele>
        <time>2020-08-02T06:33:17Z</time>
      </trkpt>
      <trkpt lat="46.52942" lon="4.467">
        <ele>399.593</ele>
        <time>2020-08-02T06:33:22Z</time>
      </trkpt>
      <trkpt lat="46.52935" lon="4.46689">
        <ele>398.593</ele>
        <time>2020-08-02T06:33:27Z</time>
      </trkpt>
      <trkpt lat="46.52931" lon="4.46682">
        <ele>397.593</ele>
        <time>2020-08-02T06:33:34Z</time>
      </trkpt>
      <trkpt lat="46.52925" lon="4.4667">
        <ele>398.593</ele>
        <time>2020-08-02T06:33:39Z</time>
      </trkpt>
      <trkpt lat="46.52921" lon="4.46662">
        <ele>400.593</ele>
        <time>2020-08-02T06:33:44Z</time>
      </trkpt>
      <trkpt lat="46.52918" lon="4.46649">
        <ele>398.593</ele>
        <time>2020-08-02T06:33:49Z</time>
      </trkpt>
      <trkpt lat="46.52916" lon="4.46638">
        <ele>397.593</ele>
        <time>2020-08-02T06:33:54Z</time>
      </trkpt>
      <trkpt lat="46.52916" lon="4.46627">
        <ele>397.593</ele>
        <time>2020-08-02T06:33:59Z</time>
      </trkpt>
      <trkpt lat="46.52913" lon="4.46616">
        <ele>397.593</ele>
        <time>2020-08-02T06:34:04Z</time>
      </trkpt>
      <trkpt lat="46.52909" lon="4.46607">
        <ele>394.593</ele>
        <time>2020-08-02T06:34:10Z</time>
      </trkpt>
      <trkpt lat="46.52908" lon="4.46595">
        <ele>395.593</ele>
        <time>2020-08-02T06:34:16Z</time>
      </trkpt>
      <trkpt lat="46.52905" lon="4.46585">
        <ele>394.593</ele>
        <time>2020-08-02T06:34:21Z</time>
      </trkpt>
      <trkpt lat="46.52902" lon="4.46576">
        <ele>393.593</ele>
        <time>2020-08-02T06:34:27Z</time>
      </trkpt>
      <trkpt lat="46.529" lon="4.46567">
        <ele>395.593</ele>
        <time>2020-08-02T06:34:32Z</time>
      </trkpt>
      <trkpt lat="46.52895" lon="4.46558">
        <ele>391.593</ele>
        <time>2020-08-02T06:34:37Z</time>
      </trkpt>
      <trkpt lat="46.52893" lon="4.46549">
        <ele>392.593</ele>
        <time>2020-08-02T06:34:42Z</time>
      </trkpt>
      <trkpt lat="46.52893" lon="4.46538">
        <ele>392.593</ele>
        <time>2020-08-02T06:34:47Z</time>
      </trkpt>
      <trkpt lat="46.52892" lon="4.46527">
        <ele>392.593</ele>
        <time>2020-08-02T06:34:52Z</time>
      </trkpt>
      <trkpt lat="46.52889" lon="4.46515">
        <ele>395.593</ele>
        <time>2020-08-02T06:34:57Z</time>
      </trkpt>
      <trkpt lat="46.5289" lon="4.46505">
        <ele>395.593</ele>
        <time>2020-08-02T06:35:03Z</time>
      </trkpt>
      <trkpt lat="46.52889" lon="4.46494">
        <ele>392.593</ele>
        <time>2020-08-02T06:35:08Z</time>
      </trkpt>
      <trkpt lat="46.52889" lon="4.46484">
        <ele>394.593</ele>
        <time>2020-08-02T06:35:13Z</time>
      </trkpt>
      <trkpt lat="46.52889" lon="4.46472">
        <ele>395.593</ele>
        <time>2020-08-02T06:35:18Z</time>
      </trkpt>
      <trkpt lat="46.52887" lon="4.46462">
        <ele>391.593</ele>
        <time>2020-08-02T06:35:24Z</time>
      </trkpt>
      <trkpt lat="46.52889" lon="4.4645">
        <ele>389.593</ele>
        <time>2020-08-02T06:35:29Z</time>
      </trkpt>
      <trkpt lat="46.52888" lon="4.46437">
        <ele>387.593</ele>
        <time>2020-08-02T06:35:34Z</time>
      </trkpt>
      <trkpt lat="46.5289" lon="4.46425">
        <ele>391.593</ele>
        <time>2020-08-02T06:35:39Z</time>
      </trkpt>
      <trkpt lat="46.5289" lon="4.46415">
        <ele>393.593</ele>
        <time>2020-08-02T06:35:47Z</time>
      </trkpt>
      <trkpt lat="46.5289" lon="4.46401">
        <ele>394.593</ele>
        <time>2020-08-02T06:35:52Z</time>
      </trkpt>
      <trkpt lat="46.52889" lon="4.4639">
        <ele>394.593</ele>
        <time>2020-08-02T06:35:57Z</time>
      </trkpt>
      <trkpt lat="46.52888" lon="4.4638">
        <ele>394.593</ele>
        <time>2020-08-02T06:36:03Z</time>
      </trkpt>
      <trkpt lat="46.52886" lon="4.46369">
        <ele>393.593</ele>
        <time>2020-08-02T06:36:08Z</time>
      </trkpt>
      <trkpt lat="46.52888" lon="4.46359">
        <ele>387.593</ele>
        <time>2020-08-02T06:36:13Z</time>
      </trkpt>
      <trkpt lat="46.5289" lon="4.4635">
        <ele>383.593</ele>
        <time>2020-08-02T06:36:19Z</time>
      </trkpt>
      <trkpt lat="46.52892" lon="4.46339">
        <ele>386.593</ele>
        <time>2020-08-02T06:36:24Z</time>
      </trkpt>
      <trkpt lat="46.52896" lon="4.46331">
        <ele>392.593</ele>
        <time>2020-08-02T06:36:29Z</time>
      </trkpt>
      <trkpt lat="46.52896" lon="4.46321">
        <ele>393.593</ele>
        <time>2020-08-02T06:36:39Z</time>
      </trkpt>
      <trkpt lat="46.52898" lon="4.46312">
        <ele>398.593</ele>
        <time>2020-08-02T06:36:44Z</time>
      </trkpt>
      <trkpt lat="46.52895" lon="4.46299">
        <ele>396.593</ele>
        <time>2020-08-02T06:36:49Z</time>
      </trkpt>
      <trkpt lat="46.529" lon="4.46291">
        <ele>397.593</ele>
        <time>2020-08-02T06:36:54Z</time>
      </trkpt>
      <trkpt lat="46.52902" lon="4.46279">
        <ele>397.593</ele>
        <time>2020-08-02T06:36:59Z</time>
      </trkpt>
      <trkpt lat="46.52902" lon="4.4627">
        <ele>395.593</ele>
        <time>2020-08-02T06:37:05Z</time>
      </trkpt>
      <trkpt lat="46.52906" lon="4.46262">
        <ele>395.593</ele>
        <time>2020-08-02T06:37:10Z</time>
      </trkpt>
      <trkpt lat="46.52908" lon="4.46253">
        <ele>394.593</ele>
        <time>2020-08-02T06:37:16Z</time>
      </trkpt>
      <trkpt lat="46.52911" lon="4.46243">
        <ele>394.593</ele>
        <time>2020-08-02T06:37:21Z</time>
      </trkpt>
      <trkpt lat="46.52908" lon="4.4623">
        <ele>392.593</ele>
        <time>2020-08-02T06:37:26Z</time>
      </trkpt>
      <trkpt lat="46.52914" lon="4.46222">
        <ele>394.593</ele>
        <time>2020-08-02T06:37:31Z</time>
      </trkpt>
      <trkpt lat="46.52917" lon="4.46213">
        <ele>394.593</ele>
        <time>2020-08-02T06:37:36Z</time>
      </trkpt>
      <trkpt lat="46.52921" lon="4.46204">
        <ele>394.593</ele>
        <time>2020-08-02T06:37:41Z</time>
      </trkpt>
      <trkpt lat="46.52929" lon="4.46196">
        <ele>397.593</ele>
        <time>2020-08-02T06:37:46Z</time>
      </trkpt>
      <trkpt lat="46.52934" lon="4.46187">
        <ele>400.593</ele>
        <time>2020-08-02T06:37:52Z</time>
      </trkpt>
      <trkpt lat="46.52934" lon="4.46178">
        <ele>400.593</ele>
        <time>2020-08-02T06:37:57Z</time>
      </trkpt>
      <trkpt lat="46.52938" lon="4.46165">
        <ele>402.593</ele>
        <time>2020-08-02T06:38:02Z</time>
      </trkpt>
      <trkpt lat="46.52941" lon="4.46155">
        <ele>398.593</ele>
        <time>2020-08-02T06:38:08Z</time>
      </trkpt>
      <trkpt lat="46.52943" lon="4.46145">
        <ele>398.593</ele>
        <time>2020-08-02T06:38:13Z</time>
      </trkpt>
      <trkpt lat="46.52946" lon="4.46136">
        <ele>399.593</ele>
        <time>2020-08-02T06:38:18Z</time>
      </trkpt>
      <trkpt lat="46.52948" lon="4.46127">
        <ele>398.593</ele>
        <time>2020-08-02T06:38:24Z</time>
      </trkpt>
      <trkpt lat="46.5295" lon="4.46117">
        <ele>396.593</ele>
        <time>2020-08-02T06:38:29Z</time>
      </trkpt>
      <trkpt lat="46.52951" lon="4.46106">
        <ele>396.593</ele>
        <time>2020-08-02T06:38:36Z</time>
      </trkpt>
      <trkpt lat="46.52955" lon="4.46094">
        <ele>398.593</ele>
        <time>2020-08-02T06:38:42Z</time>
      </trkpt>
      <trkpt lat="46.52958" lon="4.46086">
        <ele>398.593</ele>
        <time>2020-08-02T06:38:47Z</time>
      </trkpt>
      <trkpt lat="46.52961" lon="4.46077">
        <ele>395.593</ele>
        <time>2020-08-02T06:38:52Z</time>
      </trkpt>
      <trkpt lat="46.52967" lon="4.46064">
        <ele>399.593</ele>
        <time>2020-08-02T06:38:57Z</time>
      </trkpt>
      <trkpt lat="46.52968" lon="4.46054">
        <ele>398.593</ele>
        <time>2020-08-02T06:39:02Z</time>
      </trkpt>
      <trkpt lat="46.52971" lon="4.46043">
        <ele>397.593</ele>
        <time>2020-08-02T06:39:09Z</time>
      </trkpt>
      <trkpt lat="46.52978" lon="4.46032">
        <ele>396.593</ele>
        <time>2020-08-02T06:39:14Z</time>
      </trkpt>
      <trkpt lat="46.52981" lon="4.46022">
        <ele>396.593</ele>
        <time>2020-08-02T06:39:19Z</time>
      </trkpt>
      <trkpt lat="46.52982" lon="4.46012">
        <ele>396.593</ele>
        <time>2020-08-02T06:39:24Z</time>
      </trkpt>
      <trkpt lat="46.52985" lon="4.46002">
        <ele>395.593</ele>
        <time>2020-08-02T06:39:30Z</time>
      </trkpt>
      <trkpt lat="46.52988" lon="4.45992">
        <ele>394.593</ele>
        <time>2020-08-02T06:39:36Z</time>
      </trkpt>
      <trkpt lat="46.5299" lon="4.45983">
        <ele>393.593</ele>
        <time>2020-08-02T06:39:41Z</time>
      </trkpt>
      <trkpt lat="46.52993" lon="4.45973">
        <ele>394.593</ele>
        <time>2020-08-02T06:39:46Z</time>
      </trkpt>
      <trkpt lat="46.52997" lon="4.45965">
        <ele>394.593</ele>
        <time>2020-08-02T06:39:51Z</time>
      </trkpt>
      <trkpt lat="46.53001" lon="4.45955">
        <ele>395.593</ele>
        <time>2020-08-02T06:39:56Z</time>
      </trkpt>
      <trkpt lat="46.53004" lon="4.45946">
        <ele>395.593</ele>
        <time>2020-08-02T06:40:01Z</time>
      </trkpt>
      <trkpt lat="46.53006" lon="4.45935">
        <ele>397.593</ele>
        <time>2020-08-02T06:40:08Z</time>
      </trkpt>
      <trkpt lat="46.53011" lon="4.45926">
        <ele>398.593</ele>
        <time>2020-08-02T06:40:16Z</time>
      </trkpt>
      <trkpt lat="46.53014" lon="4.45915">
        <ele>397.593</ele>
        <time>2020-08-02T06:40:21Z</time>
      </trkpt>
      <trkpt lat="46.53012" lon="4.45903">
        <ele>392.593</ele>
        <time>2020-08-02T06:40:27Z</time>
      </trkpt>
      <trkpt lat="46.53015" lon="4.45895">
        <ele>390.593</ele>
        <time>2020-08-02T06:40:32Z</time>
      </trkpt>
      <trkpt lat="46.5302" lon="4.45883">
        <ele>393.593</ele>
        <time>2020-08-02T06:40:37Z</time>
      </trkpt>
      <trkpt lat="46.53026" lon="4.45877">
        <ele>396.593</ele>
        <time>2020-08-02T06:40:43Z</time>
      </trkpt>
      <trkpt lat="46.53026" lon="4.45867">
        <ele>397.593</ele>
        <time>2020-08-02T06:40:48Z</time>
      </trkpt>
      <trkpt lat="46.53026" lon="4.45857">
        <ele>396.593</ele>
        <time>2020-08-02T06:40:54Z</time>
      </trkpt>
      <trkpt lat="46.53032" lon="4.4585">
        <ele>398.593</ele>
        <time>2020-08-02T06:41:01Z</time>
      </trkpt>
      <trkpt lat="46.53032" lon="4.4584">
        <ele>398.593</ele>
        <time>2020-08-02T06:41:08Z</time>
      </trkpt>
      <trkpt lat="46.53033" lon="4.45829">
        <ele>400.593</ele>
        <time>2020-08-02T06:41:14Z</time>
      </trkpt>
      <trkpt lat="46.53035" lon="4.45819">
        <ele>397.593</ele>
        <time>2020-08-02T06:41:23Z</time>
      </trkpt>
      <trkpt lat="46.53036" lon="4.45809">
        <ele>397.593</ele>
        <time>2020-08-02T06:41:30Z</time>
      </trkpt>
      <trkpt lat="46.53038" lon="4.45799">
        <ele>398.593</ele>
        <time>2020-08-02T06:41:35Z</time>
      </trkpt>
      <trkpt lat="46.53037" lon="4.4579">
        <ele>399.593</ele>
        <time>2020-08-02T06:41:40Z</time>
      </trkpt>
      <trkpt lat="46.53038" lon="4.45779">
        <ele>398.593</ele>
        <time>2020-08-02T06:41:47Z</time>
      </trkpt>
      <trkpt lat="46.53039" lon="4.45769">
        <ele>399.593</ele>
        <time>2020-08-02T06:41:55Z</time>
      </trkpt>
      <trkpt lat="46.53038" lon="4.45758">
        <ele>397.593</ele>
        <time>2020-08-02T06:42:01Z</time>
      </trkpt>
      <trkpt lat="46.53035" lon="4.45747">
        <ele>392.593</ele>
        <time>2020-08-02T06:42:08Z</time>
      </trkpt>
      <trkpt lat="46.53039" lon="4.4574">
        <ele>399.593</ele>
        <time>2020-08-02T06:42:14Z</time>
      </trkpt>
      <trkpt lat="46.53039" lon="4.45729">
        <ele>397.593</ele>
        <time>2020-08-02T06:42:19Z</time>
      </trkpt>
      <trkpt lat="46.53038" lon="4.45719">
        <ele>395.593</ele>
        <time>2020-08-02T06:42:25Z</time>
      </trkpt>
      <trkpt lat="46.53042" lon="4.45708">
        <ele>396.593</ele>
        <time>2020-08-02T06:42:30Z</time>
      </trkpt>
      <trkpt lat="46.53043" lon="4.45696">
        <ele>398.593</ele>
        <time>2020-08-02T06:42:37Z</time>
      </trkpt>
      <trkpt lat="46.53043" lon="4.45686">
        <ele>398.593</ele>
        <time>2020-08-02T06:42:44Z</time>
      </trkpt>
      <trkpt lat="46.53049" lon="4.45676">
        <ele>397.593</ele>
        <time>2020-08-02T06:42:49Z</time>
      </trkpt>
      <trkpt lat="46.5305" lon="4.45667">
        <ele>396.593</ele>
        <time>2020-08-02T06:42:55Z</time>
      </trkpt>
      <trkpt lat="46.53051" lon="4.45655">
        <ele>395.593</ele>
        <time>2020-08-02T06:43:00Z</time>
      </trkpt>
      <trkpt lat="46.53053" lon="4.45645">
        <ele>403.593</ele>
        <time>2020-08-02T06:43:09Z</time>
      </trkpt>
      <trkpt lat="46.53053" lon="4.45635">
        <ele>404.593</ele>
        <time>2020-08-02T06:43:14Z</time>
      </trkpt>
      <trkpt lat="46.53056" lon="4.45625">
        <ele>405.593</ele>
        <time>2020-08-02T06:43:22Z</time>
      </trkpt>
      <trkpt lat="46.53056" lon="4.45613">
        <ele>404.593</ele>
        <time>2020-08-02T06:43:27Z</time>
      </trkpt>
      <trkpt lat="46.53057" lon="4.45603">
        <ele>404.593</ele>
        <time>2020-08-02T06:43:32Z</time>
      </trkpt>
      <trkpt lat="46.53061" lon="4.45592">
        <ele>405.593</ele>
        <time>2020-08-02T06:43:37Z</time>
      </trkpt>
      <trkpt lat="46.53061" lon="4.45578">
        <ele>404.593</ele>
        <time>2020-08-02T06:43:42Z</time>
      </trkpt>
      <trkpt lat="46.53064" lon="4.45567">
        <ele>403.593</ele>
        <time>2020-08-02T06:43:48Z</time>
      </trkpt>
      <trkpt lat="46.53066" lon="4.45557">
        <ele>406.593</ele>
        <time>2020-08-02T06:43:53Z</time>
      </trkpt>
      <trkpt lat="46.53072" lon="4.45549">
        <ele>407.593</ele>
        <time>2020-08-02T06:43:58Z</time>
      </trkpt>
      <trkpt lat="46.53073" lon="4.45538">
        <ele>408.593</ele>
        <time>2020-08-02T06:44:03Z</time>
      </trkpt>
      <trkpt lat="46.53078" lon="4.45529">
        <ele>409.593</ele>
        <time>2020-08-02T06:44:08Z</time>
      </trkpt>
      <trkpt lat="46.53081" lon="4.4552">
        <ele>405.593</ele>
        <time>2020-08-02T06:44:14Z</time>
      </trkpt>
      <trkpt lat="46.53081" lon="4.45508">
        <ele>403.593</ele>
        <time>2020-08-02T06:44:19Z</time>
      </trkpt>
      <trkpt lat="46.53083" lon="4.45499">
        <ele>401.593</ele>
        <time>2020-08-02T06:44:24Z</time>
      </trkpt>
      <trkpt lat="46.53088" lon="4.45492">
        <ele>400.593</ele>
        <time>2020-08-02T06:44:29Z</time>
      </trkpt>
      <trkpt lat="46.53092" lon="4.45484">
        <ele>399.593</ele>
        <time>2020-08-02T06:44:35Z</time>
      </trkpt>
      <trkpt lat="46.53097" lon="4.45475">
        <ele>397.593</ele>
        <time>2020-08-02T06:44:40Z</time>
      </trkpt>
      <trkpt lat="46.53099" lon="4.45464">
        <ele>398.593</ele>
        <time>2020-08-02T06:44:45Z</time>
      </trkpt>
      <trkpt lat="46.53097" lon="4.45453">
        <ele>396.593</ele>
        <time>2020-08-02T06:44:52Z</time>
      </trkpt>
      <trkpt lat="46.531" lon="4.4544">
        <ele>394.593</ele>
        <time>2020-08-02T06:44:57Z</time>
      </trkpt>
      <trkpt lat="46.53102" lon="4.45431">
        <ele>394.593</ele>
        <time>2020-08-02T06:45:03Z</time>
      </trkpt>
      <trkpt lat="46.5311" lon="4.45423">
        <ele>397.593</ele>
        <time>2020-08-02T06:45:08Z</time>
      </trkpt>
      <trkpt lat="46.53113" lon="4.4541">
        <ele>400.593</ele>
        <time>2020-08-02T06:45:13Z</time>
      </trkpt>
      <trkpt lat="46.53117" lon="4.45402">
        <ele>398.593</ele>
        <time>2020-08-02T06:45:19Z</time>
      </trkpt>
      <trkpt lat="46.53122" lon="4.45391">
        <ele>395.593</ele>
        <time>2020-08-02T06:45:24Z</time>
      </trkpt>
      <trkpt lat="46.53129" lon="4.45382">
        <ele>395.593</ele>
        <time>2020-08-02T06:45:29Z</time>
      </trkpt>
      <trkpt lat="46.5313" lon="4.45372">
        <ele>395.593</ele>
        <time>2020-08-02T06:45:35Z</time>
      </trkpt>
      <trkpt lat="46.53135" lon="4.45364">
        <ele>396.593</ele>
        <time>2020-08-02T06:45:41Z</time>
      </trkpt>
      <trkpt lat="46.53137" lon="4.45353">
        <ele>391.593</ele>
        <time>2020-08-02T06:45:47Z</time>
      </trkpt>
      <trkpt lat="46.53147" lon="4.45349">
        <ele>394.593</ele>
        <time>2020-08-02T06:45:52Z</time>
      </trkpt>
      <trkpt lat="46.53151" lon="4.4534">
        <ele>393.593</ele>
        <time>2020-08-02T06:45:58Z</time>
      </trkpt>
      <trkpt lat="46.53155" lon="4.4533">
        <ele>393.593</ele>
        <time>2020-08-02T06:46:03Z</time>
      </trkpt>
      <trkpt lat="46.53157" lon="4.45321">
        <ele>391.593</ele>
        <time>2020-08-02T06:46:09Z</time>
      </trkpt>
      <trkpt lat="46.53155" lon="4.45311">
        <ele>388.593</ele>
        <time>2020-08-02T06:46:15Z</time>
      </trkpt>
      <trkpt lat="46.53161" lon="4.45303">
        <ele>385.593</ele>
        <time>2020-08-02T06:46:21Z</time>
      </trkpt>
      <trkpt lat="46.53157" lon="4.45292">
        <ele>383.593</ele>
        <time>2020-08-02T06:46:26Z</time>
      </trkpt>
      <trkpt lat="46.53162" lon="4.45284">
        <ele>383.593</ele>
        <time>2020-08-02T06:46:31Z</time>
      </trkpt>
      <trkpt lat="46.53168" lon="4.45276">
        <ele>384.593</ele>
        <time>2020-08-02T06:46:36Z</time>
      </trkpt>
      <trkpt lat="46.53175" lon="4.45268">
        <ele>387.593</ele>
        <time>2020-08-02T06:46:41Z</time>
      </trkpt>
      <trkpt lat="46.53179" lon="4.45261">
        <ele>385.593</ele>
        <time>2020-08-02T06:46:46Z</time>
      </trkpt>
      <trkpt lat="46.53182" lon="4.4525">
        <ele>385.593</ele>
        <time>2020-08-02T06:46:51Z</time>
      </trkpt>
      <trkpt lat="46.53187" lon="4.45242">
        <ele>385.593</ele>
        <time>2020-08-02T06:46:58Z</time>
      </trkpt>
      <trkpt lat="46.53188" lon="4.45231">
        <ele>384.593</ele>
        <time>2020-08-02T06:47:05Z</time>
      </trkpt>
      <trkpt lat="46.53192" lon="4.45222">
        <ele>384.593</ele>
        <time>2020-08-02T06:47:10Z</time>
      </trkpt>
      <trkpt lat="46.53195" lon="4.45212">
        <ele>381.593</ele>
        <time>2020-08-02T06:47:15Z</time>
      </trkpt>
      <trkpt lat="46.532" lon="4.452">
        <ele>383.593</ele>
        <time>2020-08-02T06:47:20Z</time>
      </trkpt>
      <trkpt lat="46.53204" lon="4.4519">
        <ele>383.593</ele>
        <time>2020-08-02T06:47:27Z</time>
      </trkpt>
      <trkpt lat="46.53207" lon="4.45178">
        <ele>379.593</ele>
        <time>2020-08-02T06:47:32Z</time>
      </trkpt>
      <trkpt lat="46.5321" lon="4.45168">
        <ele>379.593</ele>
        <time>2020-08-02T06:47:37Z</time>
      </trkpt>
      <trkpt lat="46.53212" lon="4.45158">
        <ele>380.593</ele>
        <time>2020-08-02T06:47:42Z</time>
      </trkpt>
      <trkpt lat="46.53219" lon="4.45146">
        <ele>382.593</ele>
        <time>2020-08-02T06:47:47Z</time>
      </trkpt>
      <trkpt lat="46.53221" lon="4.45137">
        <ele>381.593</ele>
        <time>2020-08-02T06:47:53Z</time>
      </trkpt>
      <trkpt lat="46.53227" lon="4.45126">
        <ele>383.593</ele>
        <time>2020-08-02T06:47:58Z</time>
      </trkpt>
      <trkpt lat="46.53228" lon="4.45116">
        <ele>384.593</ele>
        <time>2020-08-02T06:48:03Z</time>
      </trkpt>
      <trkpt lat="46.5323" lon="4.45107">
        <ele>383.593</ele>
        <time>2020-08-02T06:48:08Z</time>
      </trkpt>
      <trkpt lat="46.53228" lon="4.45097">
        <ele>379.593</ele>
        <time>2020-08-02T06:48:13Z</time>
      </trkpt>
      <trkpt lat="46.53231" lon="4.45087">
        <ele>379.593</ele>
        <time>2020-08-02T06:48:19Z</time>
      </trkpt>
      <trkpt lat="46.53237" lon="4.45082">
        <ele>379.593</ele>
        <time>2020-08-02T06:48:24Z</time>
      </trkpt>
      <trkpt lat="46.53244" lon="4.45071">
        <ele>382.593</ele>
        <time>2020-08-02T06:48:29Z</time>
      </trkpt>
      <trkpt lat="46.53247" lon="4.45062">
        <ele>380.593</ele>
        <time>2020-08-02T06:48:34Z</time>
      </trkpt>
      <trkpt lat="46.53249" lon="4.45051">
        <ele>379.593</ele>
        <time>2020-08-02T06:48:40Z</time>
      </trkpt>
      <trkpt lat="46.53251" lon="4.45036">
        <ele>375.593</ele>
        <time>2020-08-02T06:48:45Z</time>
      </trkpt>
      <trkpt lat="46.53256" lon="4.45027">
        <ele>377.593</ele>
        <time>2020-08-02T06:48:50Z</time>
      </trkpt>
      <trkpt lat="46.53256" lon="4.45015">
        <ele>379.593</ele>
        <time>2020-08-02T06:48:56Z</time>
      </trkpt>
      <trkpt lat="46.53257" lon="4.45004">
        <ele>380.593</ele>
        <time>2020-08-02T06:49:01Z</time>
      </trkpt>
      <trkpt lat="46.53261" lon="4.44995">
        <ele>382.593</ele>
        <time>2020-08-02T06:49:06Z</time>
      </trkpt>
      <trkpt lat="46.53261" lon="4.44986">
        <ele>382.593</ele>
        <time>2020-08-02T06:49:11Z</time>
      </trkpt>
      <trkpt lat="46.5326" lon="4.44974">
        <ele>382.593</ele>
        <time>2020-08-02T06:49:16Z</time>
      </trkpt>
      <trkpt lat="46.53261" lon="4.44965">
        <ele>385.593</ele>
        <time>2020-08-02T06:49:25Z</time>
      </trkpt>
      <trkpt lat="46.53257" lon="4.44954">
        <ele>383.593</ele>
        <time>2020-08-02T06:49:30Z</time>
      </trkpt>
      <trkpt lat="46.53253" lon="4.4494">
        <ele>382.593</ele>
        <time>2020-08-02T06:49:35Z</time>
      </trkpt>
      <trkpt lat="46.5325" lon="4.44931">
        <ele>381.593</ele>
        <time>2020-08-02T06:49:40Z</time>
      </trkpt>
      <trkpt lat="46.53245" lon="4.44941">
        <ele>379.593</ele>
        <time>2020-08-02T06:49:46Z</time>
      </trkpt>
      <trkpt lat="46.5324" lon="4.44921">
        <ele>381.593</ele>
        <time>2020-08-02T06:49:51Z</time>
      </trkpt>
      <trkpt lat="46.53239" lon="4.44908">
        <ele>381.593</ele>
        <time>2020-08-02T06:49:56Z</time>
      </trkpt>
      <trkpt lat="46.53236" lon="4.44899">
        <ele>380.593</ele>
        <time>2020-08-02T06:50:01Z</time>
      </trkpt>
      <trkpt lat="46.53231" lon="4.44892">
        <ele>383.593</ele>
        <time>2020-08-02T06:50:08Z</time>
      </trkpt>
      <trkpt lat="46.53227" lon="4.44884">
        <ele>382.593</ele>
        <time>2020-08-02T06:50:14Z</time>
      </trkpt>
      <trkpt lat="46.53222" lon="4.44876">
        <ele>382.593</ele>
        <time>2020-08-02T06:50:19Z</time>
      </trkpt>
      <trkpt lat="46.53216" lon="4.44869">
        <ele>382.593</ele>
        <time>2020-08-02T06:50:24Z</time>
      </trkpt>
      <trkpt lat="46.5321" lon="4.44861">
        <ele>384.593</ele>
        <time>2020-08-02T06:50:32Z</time>
      </trkpt>
      <trkpt lat="46.53203" lon="4.44849">
        <ele>381.593</ele>
        <time>2020-08-02T06:50:37Z</time>
      </trkpt>
      <trkpt lat="46.53199" lon="4.44841">
        <ele>379.593</ele>
        <time>2020-08-02T06:50:44Z</time>
      </trkpt>
      <trkpt lat="46.53194" lon="4.44831">
        <ele>380.592</ele>
        <time>2020-08-02T06:50:49Z</time>
      </trkpt>
      <trkpt lat="46.53189" lon="4.44821">
        <ele>377.592</ele>
        <time>2020-08-02T06:50:54Z</time>
      </trkpt>
      <trkpt lat="46.53181" lon="4.44807">
        <ele>377.592</ele>
        <time>2020-08-02T06:50:59Z</time>
      </trkpt>
      <trkpt lat="46.53176" lon="4.44801">
        <ele>375.592</ele>
        <time>2020-08-02T06:51:04Z</time>
      </trkpt>
      <trkpt lat="46.53172" lon="4.44792">
        <ele>375.592</ele>
        <time>2020-08-02T06:51:13Z</time>
      </trkpt>
      <trkpt lat="46.5317" lon="4.44783">
        <ele>376.592</ele>
        <time>2020-08-02T06:51:18Z</time>
      </trkpt>
      <trkpt lat="46.53165" lon="4.44775">
        <ele>377.592</ele>
        <time>2020-08-02T06:51:23Z</time>
      </trkpt>
      <trkpt lat="46.53158" lon="4.44766">
        <ele>378.592</ele>
        <time>2020-08-02T06:51:28Z</time>
      </trkpt>
      <trkpt lat="46.53155" lon="4.44757">
        <ele>380.592</ele>
        <time>2020-08-02T06:51:36Z</time>
      </trkpt>
      <trkpt lat="46.53149" lon="4.44748">
        <ele>381.592</ele>
        <time>2020-08-02T06:51:41Z</time>
      </trkpt>
      <trkpt lat="46.53143" lon="4.44739">
        <ele>381.592</ele>
        <time>2020-08-02T06:51:46Z</time>
      </trkpt>
      <trkpt lat="46.53138" lon="4.44729">
        <ele>380.592</ele>
        <time>2020-08-02T06:51:51Z</time>
      </trkpt>
      <trkpt lat="46.53133" lon="4.4472">
        <ele>379.592</ele>
        <time>2020-08-02T06:51:56Z</time>
      </trkpt>
      <trkpt lat="46.53128" lon="4.44709">
        <ele>379.592</ele>
        <time>2020-08-02T06:52:01Z</time>
      </trkpt>
      <trkpt lat="46.53122" lon="4.447">
        <ele>379.592</ele>
        <time>2020-08-02T06:52:06Z</time>
      </trkpt>
      <trkpt lat="46.53118" lon="4.44693">
        <ele>378.592</ele>
        <time>2020-08-02T06:52:11Z</time>
      </trkpt>
      <trkpt lat="46.53112" lon="4.44686">
        <ele>378.592</ele>
        <time>2020-08-02T06:52:16Z</time>
      </trkpt>
      <trkpt lat="46.53106" lon="4.44679">
        <ele>378.592</ele>
        <time>2020-08-02T06:52:21Z</time>
      </trkpt>
      <trkpt lat="46.531" lon="4.44672">
        <ele>377.592</ele>
        <time>2020-08-02T06:52:26Z</time>
      </trkpt>
      <trkpt lat="46.53094" lon="4.44665">
        <ele>375.592</ele>
        <time>2020-08-02T06:52:34Z</time>
      </trkpt>
      <trkpt lat="46.53087" lon="4.44658">
        <ele>374.592</ele>
        <time>2020-08-02T06:52:39Z</time>
      </trkpt>
      <trkpt lat="46.53082" lon="4.44653">
        <ele>373.592</ele>
        <time>2020-08-02T06:52:45Z</time>
      </trkpt>
      <trkpt lat="46.53076" lon="4.44644">
        <ele>373.592</ele>
        <time>2020-08-02T06:52:50Z</time>
      </trkpt>
      <trkpt lat="46.53069" lon="4.44636">
        <ele>371.592</ele>
        <time>2020-08-02T06:52:55Z</time>
      </trkpt>
      <trkpt lat="46.53063" lon="4.44629">
        <ele>372.592</ele>
        <time>2020-08-02T06:53:00Z</time>
      </trkpt>
      <trkpt lat="46.53057" lon="4.44622">
        <ele>372.592</ele>
        <time>2020-08-02T06:53:05Z</time>
      </trkpt>
      <trkpt lat="46.5305" lon="4.44613">
        <ele>374.592</ele>
        <time>2020-08-02T06:53:10Z</time>
      </trkpt>
      <trkpt lat="46.53045" lon="4.44607">
        <ele>371.592</ele>
        <time>2020-08-02T06:53:16Z</time>
      </trkpt>
      <trkpt lat="46.53041" lon="4.44597">
        <ele>372.592</ele>
        <time>2020-08-02T06:53:21Z</time>
      </trkpt>
      <trkpt lat="46.53035" lon="4.44589">
        <ele>372.592</ele>
        <time>2020-08-02T06:53:26Z</time>
      </trkpt>
      <trkpt lat="46.53034" lon="4.44579">
        <ele>374.592</ele>
        <time>2020-08-02T06:53:35Z</time>
      </trkpt>
      <trkpt lat="46.53034" lon="4.44569">
        <ele>374.592</ele>
        <time>2020-08-02T06:53:40Z</time>
      </trkpt>
      <trkpt lat="46.53033" lon="4.4456">
        <ele>374.592</ele>
        <time>2020-08-02T06:53:46Z</time>
      </trkpt>
      <trkpt lat="46.53033" lon="4.4455">
        <ele>375.592</ele>
        <time>2020-08-02T06:53:51Z</time>
      </trkpt>
      <trkpt lat="46.53033" lon="4.44538">
        <ele>378.592</ele>
        <time>2020-08-02T06:53:56Z</time>
      </trkpt>
      <trkpt lat="46.53036" lon="4.44526">
        <ele>376.592</ele>
        <time>2020-08-02T06:54:01Z</time>
      </trkpt>
      <trkpt lat="46.53033" lon="4.44514">
        <ele>376.592</ele>
        <time>2020-08-02T06:54:06Z</time>
      </trkpt>
      <trkpt lat="46.53032" lon="4.44504">
        <ele>373.592</ele>
        <time>2020-08-02T06:54:13Z</time>
      </trkpt>
      <trkpt lat="46.53033" lon="4.44492">
        <ele>375.592</ele>
        <time>2020-08-02T06:54:18Z</time>
      </trkpt>
      <trkpt lat="46.53033" lon="4.44481">
        <ele>374.592</ele>
        <time>2020-08-02T06:54:25Z</time>
      </trkpt>
      <trkpt lat="46.53031" lon="4.4447">
        <ele>372.592</ele>
        <time>2020-08-02T06:54:30Z</time>
      </trkpt>
      <trkpt lat="46.53029" lon="4.4446">
        <ele>373.592</ele>
        <time>2020-08-02T06:54:36Z</time>
      </trkpt>
      <trkpt lat="46.5303" lon="4.4445">
        <ele>372.592</ele>
        <time>2020-08-02T06:54:41Z</time>
      </trkpt>
      <trkpt lat="46.53031" lon="4.4444">
        <ele>374.592</ele>
        <time>2020-08-02T06:54:46Z</time>
      </trkpt>
      <trkpt lat="46.53035" lon="4.44429">
        <ele>372.592</ele>
        <time>2020-08-02T06:54:53Z</time>
      </trkpt>
      <trkpt lat="46.53038" lon="4.44421">
        <ele>375.592</ele>
        <time>2020-08-02T06:54:58Z</time>
      </trkpt>
      <trkpt lat="46.53035" lon="4.44411">
        <ele>373.592</ele>
        <time>2020-08-02T06:55:04Z</time>
      </trkpt>
      <trkpt lat="46.5304" lon="4.44398">
        <ele>371.592</ele>
        <time>2020-08-02T06:55:09Z</time>
      </trkpt>
      <trkpt lat="46.53035" lon="4.44389">
        <ele>371.592</ele>
        <time>2020-08-02T06:55:14Z</time>
      </trkpt>
      <trkpt lat="46.53037" lon="4.4438">
        <ele>372.592</ele>
        <time>2020-08-02T06:55:20Z</time>
      </trkpt>
      <trkpt lat="46.53036" lon="4.44365">
        <ele>370.592</ele>
        <time>2020-08-02T06:55:25Z</time>
      </trkpt>
      <trkpt lat="46.53037" lon="4.44355">
        <ele>369.592</ele>
        <time>2020-08-02T06:55:31Z</time>
      </trkpt>
      <trkpt lat="46.5304" lon="4.44345">
        <ele>365.592</ele>
        <time>2020-08-02T06:55:37Z</time>
      </trkpt>
      <trkpt lat="46.53041" lon="4.44333">
        <ele>366.592</ele>
        <time>2020-08-02T06:55:42Z</time>
      </trkpt>
      <trkpt lat="46.53042" lon="4.44322">
        <ele>364.592</ele>
        <time>2020-08-02T06:55:48Z</time>
      </trkpt>
      <trkpt lat="46.53044" lon="4.44312">
        <ele>365.592</ele>
        <time>2020-08-02T06:55:53Z</time>
      </trkpt>
      <trkpt lat="46.53045" lon="4.44301">
        <ele>363.592</ele>
        <time>2020-08-02T06:55:58Z</time>
      </trkpt>
      <trkpt lat="46.53048" lon="4.4429">
        <ele>362.592</ele>
        <time>2020-08-02T06:56:03Z</time>
      </trkpt>
      <trkpt lat="46.53052" lon="4.4428">
        <ele>360.592</ele>
        <time>2020-08-02T06:56:09Z</time>
      </trkpt>
      <trkpt lat="46.53057" lon="4.44274">
        <ele>360.592</ele>
        <time>2020-08-02T06:56:18Z</time>
      </trkpt>
      <trkpt lat="46.53065" lon="4.4427">
        <ele>365.592</ele>
        <time>2020-08-02T06:56:27Z</time>
      </trkpt>
      <trkpt lat="46.53073" lon="4.44272">
        <ele>364.592</ele>
        <time>2020-08-02T06:56:35Z</time>
      </trkpt>
      <trkpt lat="46.53079" lon="4.44277">
        <ele>365.592</ele>
        <time>2020-08-02T06:56:40Z</time>
      </trkpt>
      <trkpt lat="46.53085" lon="4.44277">
        <ele>364.592</ele>
        <time>2020-08-02T06:56:47Z</time>
      </trkpt>
      <trkpt lat="46.53091" lon="4.44279">
        <ele>364.592</ele>
        <time>2020-08-02T06:56:53Z</time>
      </trkpt>
      <trkpt lat="46.53098" lon="4.44282">
        <ele>365.592</ele>
        <time>2020-08-02T06:56:59Z</time>
      </trkpt>
      <trkpt lat="46.53104" lon="4.44288">
        <ele>367.592</ele>
        <time>2020-08-02T06:57:05Z</time>
      </trkpt>
      <trkpt lat="46.53109" lon="4.44295">
        <ele>370.592</ele>
        <time>2020-08-02T06:57:10Z</time>
      </trkpt>
      <trkpt lat="46.53115" lon="4.44299">
        <ele>371.592</ele>
        <time>2020-08-02T06:57:17Z</time>
      </trkpt>
      <trkpt lat="46.53122" lon="4.44303">
        <ele>369.592</ele>
        <time>2020-08-02T06:57:24Z</time>
      </trkpt>
      <trkpt lat="46.53128" lon="4.44303">
        <ele>367.592</ele>
        <time>2020-08-02T06:57:32Z</time>
      </trkpt>
      <trkpt lat="46.53135" lon="4.44309">
        <ele>369.592</ele>
        <time>2020-08-02T06:57:37Z</time>
      </trkpt>
      <trkpt lat="46.53141" lon="4.44312">
        <ele>368.592</ele>
        <time>2020-08-02T06:57:43Z</time>
      </trkpt>
      <trkpt lat="46.53147" lon="4.44317">
        <ele>371.592</ele>
        <time>2020-08-02T06:57:48Z</time>
      </trkpt>
      <trkpt lat="46.53154" lon="4.44317">
        <ele>372.592</ele>
        <time>2020-08-02T06:57:54Z</time>
      </trkpt>
      <trkpt lat="46.53161" lon="4.44318">
        <ele>372.592</ele>
        <time>2020-08-02T06:58:00Z</time>
      </trkpt>
      <trkpt lat="46.53168" lon="4.44319">
        <ele>373.592</ele>
        <time>2020-08-02T06:58:06Z</time>
      </trkpt>
      <trkpt lat="46.53175" lon="4.44322">
        <ele>375.592</ele>
        <time>2020-08-02T06:58:12Z</time>
      </trkpt>
      <trkpt lat="46.53182" lon="4.44324">
        <ele>376.592</ele>
        <time>2020-08-02T06:58:17Z</time>
      </trkpt>
      <trkpt lat="46.5319" lon="4.44326">
        <ele>375.592</ele>
        <time>2020-08-02T06:58:23Z</time>
      </trkpt>
      <trkpt lat="46.53196" lon="4.44328">
        <ele>377.592</ele>
        <time>2020-08-02T06:58:30Z</time>
      </trkpt>
      <trkpt lat="46.53205" lon="4.44327">
        <ele>380.592</ele>
        <time>2020-08-02T06:58:35Z</time>
      </trkpt>
      <trkpt lat="46.53213" lon="4.44329">
        <ele>378.592</ele>
        <time>2020-08-02T06:58:41Z</time>
      </trkpt>
      <trkpt lat="46.5322" lon="4.44326">
        <ele>378.592</ele>
        <time>2020-08-02T06:58:46Z</time>
      </trkpt>
      <trkpt lat="46.53226" lon="4.44319">
        <ele>380.592</ele>
        <time>2020-08-02T06:58:54Z</time>
      </trkpt>
      <trkpt lat="46.53229" lon="4.44311">
        <ele>382.592</ele>
        <time>2020-08-02T06:58:59Z</time>
      </trkpt>
      <trkpt lat="46.53233" lon="4.44302">
        <ele>384.592</ele>
        <time>2020-08-02T06:59:04Z</time>
      </trkpt>
      <trkpt lat="46.53234" lon="4.44291">
        <ele>385.592</ele>
        <time>2020-08-02T06:59:10Z</time>
      </trkpt>
      <trkpt lat="46.53238" lon="4.44281">
        <ele>384.592</ele>
        <time>2020-08-02T06:59:16Z</time>
      </trkpt>
      <trkpt lat="46.53244" lon="4.44275">
        <ele>381.592</ele>
        <time>2020-08-02T06:59:21Z</time>
      </trkpt>
      <trkpt lat="46.53251" lon="4.44272">
        <ele>381.592</ele>
        <time>2020-08-02T06:59:29Z</time>
      </trkpt>
      <trkpt lat="46.53258" lon="4.44272">
        <ele>379.592</ele>
        <time>2020-08-02T06:59:35Z</time>
      </trkpt>
      <trkpt lat="46.53265" lon="4.4427">
        <ele>378.592</ele>
        <time>2020-08-02T06:59:41Z</time>
      </trkpt>
      <trkpt lat="46.53272" lon="4.44272">
        <ele>379.592</ele>
        <time>2020-08-02T06:59:46Z</time>
      </trkpt>
      <trkpt lat="46.53279" lon="4.44271">
        <ele>376.592</ele>
        <time>2020-08-02T06:59:53Z</time>
      </trkpt>
      <trkpt lat="46.53288" lon="4.4427">
        <ele>376.592</ele>
        <time>2020-08-02T06:59:58Z</time>
      </trkpt>
      <trkpt lat="46.53296" lon="4.44271">
        <ele>378.592</ele>
        <time>2020-08-02T07:00:05Z</time>
      </trkpt>
      <trkpt lat="46.53303" lon="4.44272">
        <ele>377.592</ele>
        <time>2020-08-02T07:00:11Z</time>
      </trkpt>
      <trkpt lat="46.5331" lon="4.44269">
        <ele>378.592</ele>
        <time>2020-08-02T07:00:16Z</time>
      </trkpt>
      <trkpt lat="46.53318" lon="4.4427">
        <ele>377.592</ele>
        <time>2020-08-02T07:00:21Z</time>
      </trkpt>
      <trkpt lat="46.53325" lon="4.4427">
        <ele>374.592</ele>
        <time>2020-08-02T07:00:27Z</time>
      </trkpt>
      <trkpt lat="46.53332" lon="4.4427">
        <ele>376.592</ele>
        <time>2020-08-02T07:00:33Z</time>
      </trkpt>
      <trkpt lat="46.5334" lon="4.44268">
        <ele>375.592</ele>
        <time>2020-08-02T07:00:39Z</time>
      </trkpt>
      <trkpt lat="46.53347" lon="4.44266">
        <ele>374.593</ele>
        <time>2020-08-02T07:00:44Z</time>
      </trkpt>
      <trkpt lat="46.53354" lon="4.44268">
        <ele>375.593</ele>
        <time>2020-08-02T07:00:52Z</time>
      </trkpt>
      <trkpt lat="46.53364" lon="4.44267">
        <ele>374.593</ele>
        <time>2020-08-02T07:00:57Z</time>
      </trkpt>
      <trkpt lat="46.53371" lon="4.44268">
        <ele>373.593</ele>
        <time>2020-08-02T07:01:03Z</time>
      </trkpt>
      <trkpt lat="46.53378" lon="4.44268">
        <ele>377.593</ele>
        <time>2020-08-02T07:01:08Z</time>
      </trkpt>
      <trkpt lat="46.53385" lon="4.44265">
        <ele>379.593</ele>
        <time>2020-08-02T07:04:01Z</time>
      </trkpt>
      <trkpt lat="46.53392" lon="4.4426">
        <ele>377.593</ele>
        <time>2020-08-02T07:04:09Z</time>
      </trkpt>
      <trkpt lat="46.53398" lon="4.44252">
        <ele>378.593</ele>
        <time>2020-08-02T07:04:16Z</time>
      </trkpt>
      <trkpt lat="46.534" lon="4.44241">
        <ele>379.593</ele>
        <time>2020-08-02T07:04:23Z</time>
      </trkpt>
      <trkpt lat="46.53404" lon="4.44233">
        <ele>378.593</ele>
        <time>2020-08-02T07:04:31Z</time>
      </trkpt>
      <trkpt lat="46.53406" lon="4.44221">
        <ele>377.593</ele>
        <time>2020-08-02T07:04:37Z</time>
      </trkpt>
      <trkpt lat="46.5341" lon="4.44213">
        <ele>376.593</ele>
        <time>2020-08-02T07:04:42Z</time>
      </trkpt>
      <trkpt lat="46.53413" lon="4.44204">
        <ele>370.593</ele>
        <time>2020-08-02T07:04:47Z</time>
      </trkpt>
      <trkpt lat="46.53417" lon="4.44195">
        <ele>375.593</ele>
        <time>2020-08-02T07:05:10Z</time>
      </trkpt>
      <trkpt lat="46.53419" lon="4.44182">
        <ele>371.593</ele>
        <time>2020-08-02T07:05:15Z</time>
      </trkpt>
      <trkpt lat="46.53429" lon="4.44176">
        <ele>372.593</ele>
        <time>2020-08-02T07:05:20Z</time>
      </trkpt>
      <trkpt lat="46.53435" lon="4.44173">
        <ele>371.593</ele>
        <time>2020-08-02T07:05:28Z</time>
      </trkpt>
      <trkpt lat="46.53427" lon="4.44167">
        <ele>369.593</ele>
        <time>2020-08-02T07:05:33Z</time>
      </trkpt>
      <trkpt lat="46.53425" lon="4.44158">
        <ele>372.593</ele>
        <time>2020-08-02T07:05:39Z</time>
      </trkpt>
      <trkpt lat="46.53426" lon="4.44148">
        <ele>377.593</ele>
        <time>2020-08-02T07:05:48Z</time>
      </trkpt>
      <trkpt lat="46.53435" lon="4.44143">
        <ele>380.593</ele>
        <time>2020-08-02T07:05:53Z</time>
      </trkpt>
      <trkpt lat="46.53438" lon="4.44133">
        <ele>380.593</ele>
        <time>2020-08-02T07:05:58Z</time>
      </trkpt>
      <trkpt lat="46.53441" lon="4.44125">
        <ele>379.593</ele>
        <time>2020-08-02T07:06:04Z</time>
      </trkpt>
      <trkpt lat="46.53446" lon="4.44117">
        <ele>376.593</ele>
        <time>2020-08-02T07:06:09Z</time>
      </trkpt>
      <trkpt lat="46.53453" lon="4.4411">
        <ele>378.593</ele>
        <time>2020-08-02T07:06:14Z</time>
      </trkpt>
      <trkpt lat="46.5345" lon="4.44101">
        <ele>374.593</ele>
        <time>2020-08-02T07:06:19Z</time>
      </trkpt>
      <trkpt lat="46.53456" lon="4.4409">
        <ele>373.593</ele>
        <time>2020-08-02T07:06:24Z</time>
      </trkpt>
      <trkpt lat="46.53458" lon="4.4408">
        <ele>372.593</ele>
        <time>2020-08-02T07:06:30Z</time>
      </trkpt>
      <trkpt lat="46.53458" lon="4.44069">
        <ele>370.593</ele>
        <time>2020-08-02T07:06:36Z</time>
      </trkpt>
      <trkpt lat="46.53468" lon="4.4406">
        <ele>370.593</ele>
        <time>2020-08-02T07:06:41Z</time>
      </trkpt>
      <trkpt lat="46.53468" lon="4.4405">
        <ele>365.593</ele>
        <time>2020-08-02T07:06:48Z</time>
      </trkpt>
      <trkpt lat="46.53471" lon="4.44039">
        <ele>366.593</ele>
        <time>2020-08-02T07:06:54Z</time>
      </trkpt>
      <trkpt lat="46.53472" lon="4.44027">
        <ele>365.593</ele>
        <time>2020-08-02T07:07:00Z</time>
      </trkpt>
      <trkpt lat="46.53476" lon="4.44017">
        <ele>364.593</ele>
        <time>2020-08-02T07:07:06Z</time>
      </trkpt>
      <trkpt lat="46.53478" lon="4.44006">
        <ele>362.593</ele>
        <time>2020-08-02T07:07:11Z</time>
      </trkpt>
      <trkpt lat="46.53479" lon="4.43996">
        <ele>362.593</ele>
        <time>2020-08-02T07:07:16Z</time>
      </trkpt>
      <trkpt lat="46.5348" lon="4.43985">
        <ele>361.593</ele>
        <time>2020-08-02T07:07:21Z</time>
      </trkpt>
      <trkpt lat="46.5348" lon="4.43972">
        <ele>361.593</ele>
        <time>2020-08-02T07:07:26Z</time>
      </trkpt>
      <trkpt lat="46.53486" lon="4.43965">
        <ele>364.593</ele>
        <time>2020-08-02T07:07:31Z</time>
      </trkpt>
      <trkpt lat="46.53486" lon="4.43954">
        <ele>364.593</ele>
        <time>2020-08-02T07:07:36Z</time>
      </trkpt>
      <trkpt lat="46.53483" lon="4.43944">
        <ele>362.593</ele>
        <time>2020-08-02T07:07:41Z</time>
      </trkpt>
      <trkpt lat="46.53481" lon="4.43932">
        <ele>361.593</ele>
        <time>2020-08-02T07:07:47Z</time>
      </trkpt>
      <trkpt lat="46.53478" lon="4.43924">
        <ele>357.593</ele>
        <time>2020-08-02T07:07:52Z</time>
      </trkpt>
      <trkpt lat="46.53473" lon="4.43915">
        <ele>354.593</ele>
        <time>2020-08-02T07:07:57Z</time>
      </trkpt>
      <trkpt lat="46.53474" lon="4.43905">
        <ele>352.593</ele>
        <time>2020-08-02T07:08:02Z</time>
      </trkpt>
      <trkpt lat="46.53478" lon="4.43897">
        <ele>352.593</ele>
        <time>2020-08-02T07:08:07Z</time>
      </trkpt>
      <trkpt lat="46.53484" lon="4.43889">
        <ele>353.593</ele>
        <time>2020-08-02T07:08:12Z</time>
      </trkpt>
      <trkpt lat="46.53489" lon="4.43879">
        <ele>351.593</ele>
        <time>2020-08-02T07:08:18Z</time>
      </trkpt>
      <trkpt lat="46.53493" lon="4.4387">
        <ele>350.593</ele>
        <time>2020-08-02T07:08:24Z</time>
      </trkpt>
      <trkpt lat="46.53496" lon="4.43861">
        <ele>349.593</ele>
        <time>2020-08-02T07:08:30Z</time>
      </trkpt>
      <trkpt lat="46.53499" lon="4.43852">
        <ele>346.593</ele>
        <time>2020-08-02T07:08:36Z</time>
      </trkpt>
      <trkpt lat="46.53506" lon="4.43844">
        <ele>347.593</ele>
        <time>2020-08-02T07:08:41Z</time>
      </trkpt>
      <trkpt lat="46.53509" lon="4.43835">
        <ele>349.593</ele>
        <time>2020-08-02T07:08:47Z</time>
      </trkpt>
      <trkpt lat="46.53513" lon="4.43826">
        <ele>351.593</ele>
        <time>2020-08-02T07:08:54Z</time>
      </trkpt>
      <trkpt lat="46.53518" lon="4.43816">
        <ele>352.593</ele>
        <time>2020-08-02T07:08:59Z</time>
      </trkpt>
      <trkpt lat="46.53521" lon="4.43808">
        <ele>355.593</ele>
        <time>2020-08-02T07:09:07Z</time>
      </trkpt>
      <trkpt lat="46.53525" lon="4.43799">
        <ele>354.593</ele>
        <time>2020-08-02T07:09:13Z</time>
      </trkpt>
      <trkpt lat="46.53524" lon="4.43788">
        <ele>354.593</ele>
        <time>2020-08-02T07:09:22Z</time>
      </trkpt>
      <trkpt lat="46.53524" lon="4.43773">
        <ele>356.593</ele>
        <time>2020-08-02T07:09:27Z</time>
      </trkpt>
      <trkpt lat="46.53522" lon="4.43763">
        <ele>355.593</ele>
        <time>2020-08-02T07:09:33Z</time>
      </trkpt>
      <trkpt lat="46.53519" lon="4.43755">
        <ele>356.593</ele>
        <time>2020-08-02T07:09:39Z</time>
      </trkpt>
      <trkpt lat="46.53517" lon="4.43744">
        <ele>359.593</ele>
        <time>2020-08-02T07:09:44Z</time>
      </trkpt>
      <trkpt lat="46.53513" lon="4.43736">
        <ele>357.593</ele>
        <time>2020-08-02T07:09:50Z</time>
      </trkpt>
      <trkpt lat="46.53511" lon="4.43725">
        <ele>357.593</ele>
        <time>2020-08-02T07:09:55Z</time>
      </trkpt>
      <trkpt lat="46.53507" lon="4.43715">
        <ele>360.593</ele>
        <time>2020-08-02T07:10:00Z</time>
      </trkpt>
      <trkpt lat="46.53504" lon="4.43706">
        <ele>359.593</ele>
        <time>2020-08-02T07:10:05Z</time>
      </trkpt>
      <trkpt lat="46.53498" lon="4.43701">
        <ele>360.593</ele>
        <time>2020-08-02T07:10:15Z</time>
      </trkpt>
      <trkpt lat="46.53498" lon="4.4369">
        <ele>361.593</ele>
        <time>2020-08-02T07:10:21Z</time>
      </trkpt>
      <trkpt lat="46.53499" lon="4.43681">
        <ele>358.592</ele>
        <time>2020-08-02T07:10:26Z</time>
      </trkpt>
      <trkpt lat="46.53498" lon="4.4367">
        <ele>362.592</ele>
        <time>2020-08-02T07:10:46Z</time>
      </trkpt>
      <trkpt lat="46.53498" lon="4.4366">
        <ele>367.592</ele>
        <time>2020-08-02T07:10:52Z</time>
      </trkpt>
      <trkpt lat="46.53496" lon="4.4365">
        <ele>369.592</ele>
        <time>2020-08-02T07:10:57Z</time>
      </trkpt>
      <trkpt lat="46.53496" lon="4.43636">
        <ele>367.592</ele>
        <time>2020-08-02T07:11:02Z</time>
      </trkpt>
      <trkpt lat="46.53495" lon="4.43624">
        <ele>365.592</ele>
        <time>2020-08-02T07:11:07Z</time>
      </trkpt>
      <trkpt lat="46.53492" lon="4.4361">
        <ele>368.592</ele>
        <time>2020-08-02T07:11:12Z</time>
      </trkpt>
      <trkpt lat="46.5349" lon="4.43598">
        <ele>368.592</ele>
        <time>2020-08-02T07:11:17Z</time>
      </trkpt>
      <trkpt lat="46.53492" lon="4.43585">
        <ele>366.592</ele>
        <time>2020-08-02T07:11:22Z</time>
      </trkpt>
      <trkpt lat="46.53491" lon="4.43573">
        <ele>371.592</ele>
        <time>2020-08-02T07:11:27Z</time>
      </trkpt>
      <trkpt lat="46.53491" lon="4.43563">
        <ele>375.592</ele>
        <time>2020-08-02T07:11:33Z</time>
      </trkpt>
      <trkpt lat="46.53489" lon="4.43554">
        <ele>373.592</ele>
        <time>2020-08-02T07:11:38Z</time>
      </trkpt>
      <trkpt lat="46.5349" lon="4.43541">
        <ele>372.592</ele>
        <time>2020-08-02T07:11:43Z</time>
      </trkpt>
      <trkpt lat="46.53483" lon="4.43529">
        <ele>371.592</ele>
        <time>2020-08-02T07:11:48Z</time>
      </trkpt>
      <trkpt lat="46.53483" lon="4.43519">
        <ele>371.592</ele>
        <time>2020-08-02T07:11:53Z</time>
      </trkpt>
      <trkpt lat="46.53481" lon="4.43509">
        <ele>371.592</ele>
        <time>2020-08-02T07:11:59Z</time>
      </trkpt>
      <trkpt lat="46.53482" lon="4.43498">
        <ele>370.592</ele>
        <time>2020-08-02T07:12:06Z</time>
      </trkpt>
      <trkpt lat="46.53486" lon="4.4349">
        <ele>372.592</ele>
        <time>2020-08-02T07:12:12Z</time>
      </trkpt>
      <trkpt lat="46.53489" lon="4.43478">
        <ele>373.592</ele>
        <time>2020-08-02T07:12:17Z</time>
      </trkpt>
      <trkpt lat="46.5349" lon="4.43465">
        <ele>375.592</ele>
        <time>2020-08-02T07:12:22Z</time>
      </trkpt>
      <trkpt lat="46.53496" lon="4.43451">
        <ele>374.592</ele>
        <time>2020-08-02T07:12:27Z</time>
      </trkpt>
      <trkpt lat="46.53493" lon="4.43439">
        <ele>372.592</ele>
        <time>2020-08-02T07:12:33Z</time>
      </trkpt>
      <trkpt lat="46.5349" lon="4.43427">
        <ele>369.592</ele>
        <time>2020-08-02T07:12:38Z</time>
      </trkpt>
      <trkpt lat="46.53488" lon="4.43417">
        <ele>369.592</ele>
        <time>2020-08-02T07:12:43Z</time>
      </trkpt>
      <trkpt lat="46.53484" lon="4.43408">
        <ele>370.592</ele>
        <time>2020-08-02T07:12:50Z</time>
      </trkpt>
      <trkpt lat="46.53485" lon="4.43394">
        <ele>367.592</ele>
        <time>2020-08-02T07:12:55Z</time>
      </trkpt>
      <trkpt lat="46.53479" lon="4.43387">
        <ele>368.592</ele>
        <time>2020-08-02T07:13:00Z</time>
      </trkpt>
      <trkpt lat="46.53479" lon="4.43377">
        <ele>364.592</ele>
        <time>2020-08-02T07:13:07Z</time>
      </trkpt>
      <trkpt lat="46.53474" lon="4.43383">
        <ele>366.592</ele>
        <time>2020-08-02T07:13:19Z</time>
      </trkpt>
      <trkpt lat="46.53477" lon="4.43374">
        <ele>366.592</ele>
        <time>2020-08-02T07:13:25Z</time>
      </trkpt>
      <trkpt lat="46.53476" lon="4.43364">
        <ele>364.592</ele>
        <time>2020-08-02T07:13:33Z</time>
      </trkpt>
      <trkpt lat="46.53477" lon="4.43354">
        <ele>360.592</ele>
        <time>2020-08-02T07:13:38Z</time>
      </trkpt>
      <trkpt lat="46.53472" lon="4.43347">
        <ele>358.592</ele>
        <time>2020-08-02T07:13:44Z</time>
      </trkpt>
      <trkpt lat="46.53471" lon="4.43337">
        <ele>352.592</ele>
        <time>2020-08-02T07:13:59Z</time>
      </trkpt>
      <trkpt lat="46.53469" lon="4.43326">
        <ele>355.592</ele>
        <time>2020-08-02T07:14:05Z</time>
      </trkpt>
      <trkpt lat="46.53473" lon="4.43334">
        <ele>349.592</ele>
        <time>2020-08-02T07:14:12Z</time>
      </trkpt>
      <trkpt lat="46.53482" lon="4.43335">
        <ele>345.592</ele>
        <time>2020-08-02T07:14:18Z</time>
      </trkpt>
      <trkpt lat="46.53488" lon="4.43346">
        <ele>346.592</ele>
        <time>2020-08-02T07:14:23Z</time>
      </trkpt>
      <trkpt lat="46.5349" lon="4.43335">
        <ele>344.592</ele>
        <time>2020-08-02T07:14:28Z</time>
      </trkpt>
      <trkpt lat="46.53496" lon="4.43327">
        <ele>357.592</ele>
        <time>2020-08-02T07:14:35Z</time>
      </trkpt>
      <trkpt lat="46.53503" lon="4.43327">
        <ele>357.592</ele>
        <time>2020-08-02T07:14:40Z</time>
      </trkpt>
      <trkpt lat="46.5351" lon="4.43329">
        <ele>359.592</ele>
        <time>2020-08-02T07:14:45Z</time>
      </trkpt>
      <trkpt lat="46.53519" lon="4.43326">
        <ele>360.592</ele>
        <time>2020-08-02T07:14:54Z</time>
      </trkpt>
      <trkpt lat="46.53525" lon="4.43324">
        <ele>358.592</ele>
        <time>2020-08-02T07:14:59Z</time>
      </trkpt>
      <trkpt lat="46.53531" lon="4.43319">
        <ele>362.592</ele>
        <time>2020-08-02T07:15:05Z</time>
      </trkpt>
      <trkpt lat="46.53538" lon="4.43315">
        <ele>361.592</ele>
        <time>2020-08-02T07:15:10Z</time>
      </trkpt>
      <trkpt lat="46.53545" lon="4.43311">
        <ele>359.592</ele>
        <time>2020-08-02T07:15:16Z</time>
      </trkpt>
      <trkpt lat="46.53552" lon="4.43307">
        <ele>360.592</ele>
        <time>2020-08-02T07:15:26Z</time>
      </trkpt>
      <trkpt lat="46.53562" lon="4.43303">
        <ele>362.592</ele>
        <time>2020-08-02T07:15:31Z</time>
      </trkpt>
      <trkpt lat="46.5357" lon="4.43301">
        <ele>360.592</ele>
        <time>2020-08-02T07:15:36Z</time>
      </trkpt>
      <trkpt lat="46.53577" lon="4.43303">
        <ele>360.592</ele>
        <time>2020-08-02T07:15:42Z</time>
      </trkpt>
      <trkpt lat="46.53585" lon="4.43299">
        <ele>364.592</ele>
        <time>2020-08-02T07:15:50Z</time>
      </trkpt>
      <trkpt lat="46.53592" lon="4.43303">
        <ele>368.592</ele>
        <time>2020-08-02T07:15:56Z</time>
      </trkpt>
      <trkpt lat="46.53598" lon="4.43299">
        <ele>368.592</ele>
        <time>2020-08-02T07:16:01Z</time>
      </trkpt>
      <trkpt lat="46.53605" lon="4.43294">
        <ele>371.593</ele>
        <time>2020-08-02T07:16:08Z</time>
      </trkpt>
      <trkpt lat="46.53614" lon="4.4329">
        <ele>374.593</ele>
        <time>2020-08-02T07:16:13Z</time>
      </trkpt>
      <trkpt lat="46.53622" lon="4.43285">
        <ele>380.593</ele>
        <time>2020-08-02T07:16:22Z</time>
      </trkpt>
      <trkpt lat="46.53629" lon="4.43286">
        <ele>380.593</ele>
        <time>2020-08-02T07:16:27Z</time>
      </trkpt>
      <trkpt lat="46.53638" lon="4.43283">
        <ele>386.593</ele>
        <time>2020-08-02T07:16:32Z</time>
      </trkpt>
      <trkpt lat="46.53646" lon="4.43282">
        <ele>385.593</ele>
        <time>2020-08-02T07:16:40Z</time>
      </trkpt>
      <trkpt lat="46.53654" lon="4.43277">
        <ele>381.593</ele>
        <time>2020-08-02T07:16:47Z</time>
      </trkpt>
      <trkpt lat="46.53661" lon="4.43276">
        <ele>377.593</ele>
        <time>2020-08-02T07:16:52Z</time>
      </trkpt>
      <trkpt lat="46.53667" lon="4.43274">
        <ele>375.593</ele>
        <time>2020-08-02T07:16:57Z</time>
      </trkpt>
      <trkpt lat="46.53674" lon="4.43271">
        <ele>376.593</ele>
        <time>2020-08-02T07:17:03Z</time>
      </trkpt>
      <trkpt lat="46.53684" lon="4.43269">
        <ele>378.593</ele>
        <time>2020-08-02T07:17:08Z</time>
      </trkpt>
      <trkpt lat="46.53691" lon="4.43268">
        <ele>380.593</ele>
        <time>2020-08-02T07:17:14Z</time>
      </trkpt>
      <trkpt lat="46.53699" lon="4.43269">
        <ele>385.593</ele>
        <time>2020-08-02T07:17:21Z</time>
      </trkpt>
      <trkpt lat="46.53705" lon="4.4327">
        <ele>387.593</ele>
        <time>2020-08-02T07:17:26Z</time>
      </trkpt>
      <trkpt lat="46.53712" lon="4.43271">
        <ele>387.593</ele>
        <time>2020-08-02T07:17:32Z</time>
      </trkpt>
      <trkpt lat="46.53717" lon="4.43264">
        <ele>385.593</ele>
        <time>2020-08-02T07:17:37Z</time>
      </trkpt>
      <trkpt lat="46.53725" lon="4.43264">
        <ele>387.593</ele>
        <time>2020-08-02T07:17:42Z</time>
      </trkpt>
      <trkpt lat="46.53733" lon="4.43261">
        <ele>385.593</ele>
        <time>2020-08-02T07:17:48Z</time>
      </trkpt>
      <trkpt lat="46.53741" lon="4.43257">
        <ele>384.593</ele>
        <time>2020-08-02T07:17:53Z</time>
      </trkpt>
      <trkpt lat="46.53748" lon="4.43258">
        <ele>385.593</ele>
        <time>2020-08-02T07:17:58Z</time>
      </trkpt>
      <trkpt lat="46.53757" lon="4.43256">
        <ele>383.593</ele>
        <time>2020-08-02T07:18:03Z</time>
      </trkpt>
      <trkpt lat="46.53765" lon="4.43252">
        <ele>382.593</ele>
        <time>2020-08-02T07:18:11Z</time>
      </trkpt>
      <trkpt lat="46.53772" lon="4.43251">
        <ele>386.593</ele>
        <time>2020-08-02T07:18:16Z</time>
      </trkpt>
      <trkpt lat="46.53779" lon="4.4325">
        <ele>383.593</ele>
        <time>2020-08-02T07:18:22Z</time>
      </trkpt>
      <trkpt lat="46.53787" lon="4.43247">
        <ele>381.593</ele>
        <time>2020-08-02T07:18:27Z</time>
      </trkpt>
      <trkpt lat="46.53797" lon="4.43244">
        <ele>382.593</ele>
        <time>2020-08-02T07:18:32Z</time>
      </trkpt>
      <trkpt lat="46.53803" lon="4.43238">
        <ele>383.593</ele>
        <time>2020-08-02T07:18:37Z</time>
      </trkpt>
      <trkpt lat="46.5381" lon="4.4324">
        <ele>385.593</ele>
        <time>2020-08-02T07:18:42Z</time>
      </trkpt>
      <trkpt lat="46.53819" lon="4.43239">
        <ele>386.593</ele>
        <time>2020-08-02T07:18:47Z</time>
      </trkpt>
      <trkpt lat="46.53827" lon="4.43239">
        <ele>389.593</ele>
        <time>2020-08-02T07:18:54Z</time>
      </trkpt>
      <trkpt lat="46.53835" lon="4.43235">
        <ele>388.593</ele>
        <time>2020-08-02T07:18:59Z</time>
      </trkpt>
      <trkpt lat="46.53842" lon="4.43232">
        <ele>389.593</ele>
        <time>2020-08-02T07:19:04Z</time>
      </trkpt>
      <trkpt lat="46.5385" lon="4.43228">
        <ele>389.593</ele>
        <time>2020-08-02T07:19:09Z</time>
      </trkpt>
      <trkpt lat="46.53857" lon="4.43224">
        <ele>387.593</ele>
        <time>2020-08-02T07:19:15Z</time>
      </trkpt>
      <trkpt lat="46.53865" lon="4.43221">
        <ele>386.593</ele>
        <time>2020-08-02T07:19:20Z</time>
      </trkpt>
      <trkpt lat="46.53872" lon="4.43218">
        <ele>387.593</ele>
        <time>2020-08-02T07:19:25Z</time>
      </trkpt>
      <trkpt lat="46.5388" lon="4.43217">
        <ele>383.593</ele>
        <time>2020-08-02T07:20:01Z</time>
      </trkpt>
      <trkpt lat="46.53896" lon="4.43211">
        <ele>383.593</ele>
        <time>2020-08-02T07:20:06Z</time>
      </trkpt>
      <trkpt lat="46.53904" lon="4.43212">
        <ele>385.593</ele>
        <time>2020-08-02T07:20:11Z</time>
      </trkpt>
      <trkpt lat="46.5391" lon="4.4321">
        <ele>386.593</ele>
        <time>2020-08-02T07:20:18Z</time>
      </trkpt>
      <trkpt lat="46.53919" lon="4.43206">
        <ele>386.593</ele>
        <time>2020-08-02T07:20:23Z</time>
      </trkpt>
      <trkpt lat="46.5393" lon="4.43203">
        <ele>386.593</ele>
        <time>2020-08-02T07:20:28Z</time>
      </trkpt>
      <trkpt lat="46.53939" lon="4.43195">
        <ele>384.593</ele>
        <time>2020-08-02T07:20:33Z</time>
      </trkpt>
      <trkpt lat="46.53946" lon="4.43194">
        <ele>382.593</ele>
        <time>2020-08-02T07:20:38Z</time>
      </trkpt>
      <trkpt lat="46.53954" lon="4.43191">
        <ele>384.593</ele>
        <time>2020-08-02T07:20:44Z</time>
      </trkpt>
      <trkpt lat="46.53961" lon="4.43188">
        <ele>386.593</ele>
        <time>2020-08-02T07:20:49Z</time>
      </trkpt>
      <trkpt lat="46.53968" lon="4.43188">
        <ele>383.593</ele>
        <time>2020-08-02T07:20:56Z</time>
      </trkpt>
      <trkpt lat="46.53972" lon="4.4318">
        <ele>383.593</ele>
        <time>2020-08-02T07:21:11Z</time>
      </trkpt>
      <trkpt lat="46.5398" lon="4.43178">
        <ele>384.593</ele>
        <time>2020-08-02T07:21:22Z</time>
      </trkpt>
      <trkpt lat="46.53987" lon="4.43174">
        <ele>386.593</ele>
        <time>2020-08-02T07:21:27Z</time>
      </trkpt>
      <trkpt lat="46.53999" lon="4.43168">
        <ele>385.594</ele>
        <time>2020-08-02T07:21:32Z</time>
      </trkpt>
      <trkpt lat="46.54011" lon="4.43161">
        <ele>387.594</ele>
        <time>2020-08-02T07:21:37Z</time>
      </trkpt>
      <trkpt lat="46.54017" lon="4.43159">
        <ele>389.594</ele>
        <time>2020-08-02T07:21:47Z</time>
      </trkpt>
      <trkpt lat="46.54025" lon="4.43158">
        <ele>392.594</ele>
        <time>2020-08-02T07:21:54Z</time>
      </trkpt>
      <trkpt lat="46.54031" lon="4.43149">
        <ele>390.594</ele>
        <time>2020-08-02T07:21:59Z</time>
      </trkpt>
      <trkpt lat="46.5404" lon="4.43147">
        <ele>389.594</ele>
        <time>2020-08-02T07:22:06Z</time>
      </trkpt>
      <trkpt lat="46.54046" lon="4.43143">
        <ele>389.594</ele>
        <time>2020-08-02T07:22:18Z</time>
      </trkpt>
      <trkpt lat="46.54052" lon="4.43138">
        <ele>390.594</ele>
        <time>2020-08-02T07:22:23Z</time>
      </trkpt>
      <trkpt lat="46.54059" lon="4.43134">
        <ele>393.594</ele>
        <time>2020-08-02T07:22:29Z</time>
      </trkpt>
      <trkpt lat="46.54066" lon="4.43135">
        <ele>398.594</ele>
        <time>2020-08-02T07:22:36Z</time>
      </trkpt>
      <trkpt lat="46.54072" lon="4.43132">
        <ele>395.594</ele>
        <time>2020-08-02T07:22:41Z</time>
      </trkpt>
      <trkpt lat="46.54079" lon="4.43128">
        <ele>395.594</ele>
        <time>2020-08-02T07:22:46Z</time>
      </trkpt>
      <trkpt lat="46.54085" lon="4.43124">
        <ele>396.594</ele>
        <time>2020-08-02T07:22:52Z</time>
      </trkpt>
      <trkpt lat="46.54092" lon="4.43124">
        <ele>399.594</ele>
        <time>2020-08-02T07:22:57Z</time>
      </trkpt>
      <trkpt lat="46.54104" lon="4.43119">
        <ele>397.594</ele>
        <time>2020-08-02T07:23:02Z</time>
      </trkpt>
      <trkpt lat="46.54111" lon="4.43117">
        <ele>402.594</ele>
        <time>2020-08-02T07:23:10Z</time>
      </trkpt>
      <trkpt lat="46.5412" lon="4.43107">
        <ele>398.594</ele>
        <time>2020-08-02T07:23:15Z</time>
      </trkpt>
      <trkpt lat="46.54126" lon="4.43103">
        <ele>399.594</ele>
        <time>2020-08-02T07:23:20Z</time>
      </trkpt>
      <trkpt lat="46.54134" lon="4.43104">
        <ele>398.594</ele>
        <time>2020-08-02T07:23:28Z</time>
      </trkpt>
      <trkpt lat="46.54143" lon="4.43101">
        <ele>402.594</ele>
        <time>2020-08-02T07:23:34Z</time>
      </trkpt>
      <trkpt lat="46.54148" lon="4.43095">
        <ele>403.594</ele>
        <time>2020-08-02T07:23:43Z</time>
      </trkpt>
      <trkpt lat="46.54158" lon="4.43094">
        <ele>403.594</ele>
        <time>2020-08-02T07:23:49Z</time>
      </trkpt>
      <trkpt lat="46.54165" lon="4.4309">
        <ele>405.594</ele>
        <time>2020-08-02T07:23:54Z</time>
      </trkpt>
      <trkpt lat="46.54172" lon="4.43085">
        <ele>401.594</ele>
        <time>2020-08-02T07:24:00Z</time>
      </trkpt>
      <trkpt lat="46.54178" lon="4.43081">
        <ele>406.594</ele>
        <time>2020-08-02T07:24:10Z</time>
      </trkpt>
      <trkpt lat="46.54186" lon="4.43077">
        <ele>407.594</ele>
        <time>2020-08-02T07:24:18Z</time>
      </trkpt>
      <trkpt lat="46.54194" lon="4.4307">
        <ele>408.594</ele>
        <time>2020-08-02T07:24:23Z</time>
      </trkpt>
      <trkpt lat="46.54201" lon="4.43067">
        <ele>409.594</ele>
        <time>2020-08-02T07:24:33Z</time>
      </trkpt>
      <trkpt lat="46.54207" lon="4.43067">
        <ele>410.594</ele>
        <time>2020-08-02T07:24:44Z</time>
      </trkpt>
      <trkpt lat="46.54214" lon="4.43064">
        <ele>408.594</ele>
        <time>2020-08-02T07:24:54Z</time>
      </trkpt>
      <trkpt lat="46.54223" lon="4.4306">
        <ele>412.594</ele>
        <time>2020-08-02T07:24:59Z</time>
      </trkpt>
      <trkpt lat="46.54234" lon="4.43054">
        <ele>408.594</ele>
        <time>2020-08-02T07:25:04Z</time>
      </trkpt>
      <trkpt lat="46.54246" lon="4.43049">
        <ele>406.594</ele>
        <time>2020-08-02T07:25:09Z</time>
      </trkpt>
      <trkpt lat="46.54253" lon="4.43046">
        <ele>405.594</ele>
        <time>2020-08-02T07:25:14Z</time>
      </trkpt>
      <trkpt lat="46.54264" lon="4.43042">
        <ele>405.594</ele>
        <time>2020-08-02T07:25:21Z</time>
      </trkpt>
      <trkpt lat="46.54271" lon="4.43041">
        <ele>406.594</ele>
        <time>2020-08-02T07:25:28Z</time>
      </trkpt>
      <trkpt lat="46.5428" lon="4.43038">
        <ele>410.594</ele>
        <time>2020-08-02T07:25:33Z</time>
      </trkpt>
      <trkpt lat="46.54287" lon="4.43034">
        <ele>409.594</ele>
        <time>2020-08-02T07:25:38Z</time>
      </trkpt>
      <trkpt lat="46.54296" lon="4.43031">
        <ele>414.594</ele>
        <time>2020-08-02T07:25:43Z</time>
      </trkpt>
      <trkpt lat="46.54302" lon="4.43026">
        <ele>419.594</ele>
        <time>2020-08-02T07:25:49Z</time>
      </trkpt>
      <trkpt lat="46.54309" lon="4.43022">
        <ele>420.594</ele>
        <time>2020-08-02T07:25:55Z</time>
      </trkpt>
      <trkpt lat="46.54316" lon="4.43019">
        <ele>420.594</ele>
        <time>2020-08-02T07:26:01Z</time>
      </trkpt>
      <trkpt lat="46.54322" lon="4.43014">
        <ele>418.594</ele>
        <time>2020-08-02T07:26:07Z</time>
      </trkpt>
      <trkpt lat="46.54328" lon="4.43009">
        <ele>420.594</ele>
        <time>2020-08-02T07:26:13Z</time>
      </trkpt>
      <trkpt lat="46.54336" lon="4.43004">
        <ele>420.594</ele>
        <time>2020-08-02T07:26:18Z</time>
      </trkpt>
      <trkpt lat="46.54345" lon="4.43001">
        <ele>422.594</ele>
        <time>2020-08-02T07:26:23Z</time>
      </trkpt>
      <trkpt lat="46.54351" lon="4.42996">
        <ele>422.594</ele>
        <time>2020-08-02T07:26:31Z</time>
      </trkpt>
      <trkpt lat="46.54357" lon="4.42994">
        <ele>421.594</ele>
        <time>2020-08-02T07:26:36Z</time>
      </trkpt>
      <trkpt lat="46.54362" lon="4.42987">
        <ele>419.594</ele>
        <time>2020-08-02T07:26:41Z</time>
      </trkpt>
      <trkpt lat="46.54368" lon="4.42981">
        <ele>416.594</ele>
        <time>2020-08-02T07:26:48Z</time>
      </trkpt>
      <trkpt lat="46.54375" lon="4.42982">
        <ele>411.594</ele>
        <time>2020-08-02T07:26:57Z</time>
      </trkpt>
      <trkpt lat="46.54386" lon="4.42979">
        <ele>414.594</ele>
        <time>2020-08-02T07:27:02Z</time>
      </trkpt>
      <trkpt lat="46.54394" lon="4.42977">
        <ele>415.594</ele>
        <time>2020-08-02T07:27:09Z</time>
      </trkpt>
      <trkpt lat="46.54402" lon="4.42975">
        <ele>414.594</ele>
        <time>2020-08-02T07:27:14Z</time>
      </trkpt>
      <trkpt lat="46.5441" lon="4.4297">
        <ele>417.595</ele>
        <time>2020-08-02T07:27:19Z</time>
      </trkpt>
      <trkpt lat="46.54416" lon="4.42965">
        <ele>416.595</ele>
        <time>2020-08-02T07:27:24Z</time>
      </trkpt>
      <trkpt lat="46.54429" lon="4.42964">
        <ele>419.595</ele>
        <time>2020-08-02T07:27:29Z</time>
      </trkpt>
      <trkpt lat="46.54436" lon="4.42963">
        <ele>419.595</ele>
        <time>2020-08-02T07:27:37Z</time>
      </trkpt>
      <trkpt lat="46.54445" lon="4.4296">
        <ele>419.595</ele>
        <time>2020-08-02T07:27:42Z</time>
      </trkpt>
      <trkpt lat="46.54453" lon="4.42955">
        <ele>420.595</ele>
        <time>2020-08-02T07:27:48Z</time>
      </trkpt>
      <trkpt lat="46.5446" lon="4.42956">
        <ele>423.595</ele>
        <time>2020-08-02T07:27:53Z</time>
      </trkpt>
      <trkpt lat="46.54469" lon="4.42951">
        <ele>423.595</ele>
        <time>2020-08-02T07:28:00Z</time>
      </trkpt>
      <trkpt lat="46.54474" lon="4.42945">
        <ele>424.595</ele>
        <time>2020-08-02T07:28:05Z</time>
      </trkpt>
      <trkpt lat="46.54483" lon="4.42939">
        <ele>425.595</ele>
        <time>2020-08-02T07:28:10Z</time>
      </trkpt>
      <trkpt lat="46.54491" lon="4.42939">
        <ele>422.595</ele>
        <time>2020-08-02T07:28:15Z</time>
      </trkpt>
      <trkpt lat="46.54498" lon="4.42936">
        <ele>421.595</ele>
        <time>2020-08-02T07:28:20Z</time>
      </trkpt>
      <trkpt lat="46.54506" lon="4.42929">
        <ele>416.595</ele>
        <time>2020-08-02T07:28:29Z</time>
      </trkpt>
      <trkpt lat="46.54515" lon="4.42922">
        <ele>417.595</ele>
        <time>2020-08-02T07:28:34Z</time>
      </trkpt>
      <trkpt lat="46.54522" lon="4.42922">
        <ele>420.595</ele>
        <time>2020-08-02T07:28:42Z</time>
      </trkpt>
      <trkpt lat="46.5453" lon="4.42916">
        <ele>420.595</ele>
        <time>2020-08-02T07:28:47Z</time>
      </trkpt>
      <trkpt lat="46.5454" lon="4.42913">
        <ele>419.595</ele>
        <time>2020-08-02T07:28:52Z</time>
      </trkpt>
      <trkpt lat="46.5455" lon="4.42909">
        <ele>419.595</ele>
        <time>2020-08-02T07:28:57Z</time>
      </trkpt>
      <trkpt lat="46.54561" lon="4.42906">
        <ele>421.595</ele>
        <time>2020-08-02T07:29:02Z</time>
      </trkpt>
      <trkpt lat="46.54565" lon="4.42894">
        <ele>420.595</ele>
        <time>2020-08-02T07:29:08Z</time>
      </trkpt>
      <trkpt lat="46.54572" lon="4.4289">
        <ele>421.595</ele>
        <time>2020-08-02T07:29:13Z</time>
      </trkpt>
      <trkpt lat="46.54579" lon="4.42891">
        <ele>417.595</ele>
        <time>2020-08-02T07:29:21Z</time>
      </trkpt>
      <trkpt lat="46.54587" lon="4.42892">
        <ele>414.595</ele>
        <time>2020-08-02T07:29:27Z</time>
      </trkpt>
      <trkpt lat="46.54593" lon="4.42888">
        <ele>413.595</ele>
        <time>2020-08-02T07:29:32Z</time>
      </trkpt>
      <trkpt lat="46.546" lon="4.42881">
        <ele>409.595</ele>
        <time>2020-08-02T07:29:37Z</time>
      </trkpt>
      <trkpt lat="46.54607" lon="4.42874">
        <ele>408.595</ele>
        <time>2020-08-02T07:29:42Z</time>
      </trkpt>
      <trkpt lat="46.54615" lon="4.42873">
        <ele>407.595</ele>
        <time>2020-08-02T07:29:47Z</time>
      </trkpt>
      <trkpt lat="46.54623" lon="4.42869">
        <ele>408.595</ele>
        <time>2020-08-02T07:29:52Z</time>
      </trkpt>
      <trkpt lat="46.54631" lon="4.42866">
        <ele>411.595</ele>
        <time>2020-08-02T07:29:58Z</time>
      </trkpt>
      <trkpt lat="46.54638" lon="4.42865">
        <ele>409.595</ele>
        <time>2020-08-02T07:30:03Z</time>
      </trkpt>
      <trkpt lat="46.54647" lon="4.42861">
        <ele>411.595</ele>
        <time>2020-08-02T07:30:08Z</time>
      </trkpt>
      <trkpt lat="46.54654" lon="4.42859">
        <ele>407.595</ele>
        <time>2020-08-02T07:30:17Z</time>
      </trkpt>
      <trkpt lat="46.54662" lon="4.42855">
        <ele>406.595</ele>
        <time>2020-08-02T07:30:22Z</time>
      </trkpt>
      <trkpt lat="46.54671" lon="4.42853">
        <ele>408.595</ele>
        <time>2020-08-02T07:30:27Z</time>
      </trkpt>
      <trkpt lat="46.54678" lon="4.42846">
        <ele>407.595</ele>
        <time>2020-08-02T07:30:32Z</time>
      </trkpt>
      <trkpt lat="46.54686" lon="4.42841">
        <ele>406.595</ele>
        <time>2020-08-02T07:30:37Z</time>
      </trkpt>
      <trkpt lat="46.54692" lon="4.4284">
        <ele>409.595</ele>
        <time>2020-08-02T07:30:45Z</time>
      </trkpt>
      <trkpt lat="46.54705" lon="4.42834">
        <ele>409.595</ele>
        <time>2020-08-02T07:30:50Z</time>
      </trkpt>
      <trkpt lat="46.54715" lon="4.42828">
        <ele>408.595</ele>
        <time>2020-08-02T07:30:55Z</time>
      </trkpt>
      <trkpt lat="46.5472" lon="4.42821">
        <ele>410.595</ele>
        <time>2020-08-02T07:31:05Z</time>
      </trkpt>
      <trkpt lat="46.54726" lon="4.42823">
        <ele>409.595</ele>
        <time>2020-08-02T07:31:10Z</time>
      </trkpt>
      <trkpt lat="46.54733" lon="4.42819">
        <ele>408.595</ele>
        <time>2020-08-02T07:31:15Z</time>
      </trkpt>
      <trkpt lat="46.54741" lon="4.42816">
        <ele>408.595</ele>
        <time>2020-08-02T07:31:20Z</time>
      </trkpt>
      <trkpt lat="46.54751" lon="4.42813">
        <ele>409.595</ele>
        <time>2020-08-02T07:31:25Z</time>
      </trkpt>
      <trkpt lat="46.54759" lon="4.42813">
        <ele>409.595</ele>
        <time>2020-08-02T07:31:35Z</time>
      </trkpt>
      <trkpt lat="46.54765" lon="4.42815">
        <ele>409.595</ele>
        <time>2020-08-02T07:31:40Z</time>
      </trkpt>
      <trkpt lat="46.54774" lon="4.42809">
        <ele>411.595</ele>
        <time>2020-08-02T07:31:45Z</time>
      </trkpt>
      <trkpt lat="46.54782" lon="4.42811">
        <ele>409.595</ele>
        <time>2020-08-02T07:31:50Z</time>
      </trkpt>
      <trkpt lat="46.5479" lon="4.42807">
        <ele>407.595</ele>
        <time>2020-08-02T07:31:55Z</time>
      </trkpt>
      <trkpt lat="46.548" lon="4.42807">
        <ele>407.595</ele>
        <time>2020-08-02T07:32:00Z</time>
      </trkpt>
      <trkpt lat="46.54807" lon="4.4281">
        <ele>397.596</ele>
        <time>2020-08-02T07:32:08Z</time>
      </trkpt>
      <trkpt lat="46.54816" lon="4.42809">
        <ele>396.596</ele>
        <time>2020-08-02T07:32:13Z</time>
      </trkpt>
      <trkpt lat="46.54825" lon="4.42812">
        <ele>397.596</ele>
        <time>2020-08-02T07:32:18Z</time>
      </trkpt>
      <trkpt lat="46.54834" lon="4.42815">
        <ele>403.596</ele>
        <time>2020-08-02T07:32:23Z</time>
      </trkpt>
      <trkpt lat="46.54841" lon="4.42814">
        <ele>402.596</ele>
        <time>2020-08-02T07:32:30Z</time>
      </trkpt>
      <trkpt lat="46.54847" lon="4.42809">
        <ele>399.596</ele>
        <time>2020-08-02T07:32:35Z</time>
      </trkpt>
      <trkpt lat="46.54855" lon="4.42812">
        <ele>402.596</ele>
        <time>2020-08-02T07:32:43Z</time>
      </trkpt>
      <trkpt lat="46.54866" lon="4.42809">
        <ele>401.596</ele>
        <time>2020-08-02T07:32:48Z</time>
      </trkpt>
      <trkpt lat="46.54874" lon="4.4281">
        <ele>401.596</ele>
        <time>2020-08-02T07:32:53Z</time>
      </trkpt>
      <trkpt lat="46.54881" lon="4.42815">
        <ele>405.596</ele>
        <time>2020-08-02T07:32:59Z</time>
      </trkpt>
      <trkpt lat="46.54892" lon="4.42811">
        <ele>407.596</ele>
        <time>2020-08-02T07:33:04Z</time>
      </trkpt>
      <trkpt lat="46.54901" lon="4.42811">
        <ele>406.596</ele>
        <time>2020-08-02T07:33:09Z</time>
      </trkpt>
      <trkpt lat="46.54908" lon="4.4281">
        <ele>406.596</ele>
        <time>2020-08-02T07:33:15Z</time>
      </trkpt>
      <trkpt lat="46.54914" lon="4.42808">
        <ele>406.596</ele>
        <time>2020-08-02T07:33:21Z</time>
      </trkpt>
      <trkpt lat="46.54924" lon="4.42808">
        <ele>406.596</ele>
        <time>2020-08-02T07:33:26Z</time>
      </trkpt>
      <trkpt lat="46.54931" lon="4.42808">
        <ele>400.596</ele>
        <time>2020-08-02T07:33:31Z</time>
      </trkpt>
      <trkpt lat="46.54939" lon="4.42807">
        <ele>399.596</ele>
        <time>2020-08-02T07:33:36Z</time>
      </trkpt>
      <trkpt lat="46.54946" lon="4.42808">
        <ele>401.596</ele>
        <time>2020-08-02T07:33:43Z</time>
      </trkpt>
      <trkpt lat="46.54952" lon="4.42804">
        <ele>400.596</ele>
        <time>2020-08-02T07:33:48Z</time>
      </trkpt>
      <trkpt lat="46.54959" lon="4.42806">
        <ele>397.596</ele>
        <time>2020-08-02T07:33:53Z</time>
      </trkpt>
      <trkpt lat="46.54966" lon="4.42806">
        <ele>398.596</ele>
        <time>2020-08-02T07:33:59Z</time>
      </trkpt>
      <trkpt lat="46.54972" lon="4.42809">
        <ele>395.596</ele>
        <time>2020-08-02T07:34:06Z</time>
      </trkpt>
      <trkpt lat="46.5498" lon="4.42814">
        <ele>396.596</ele>
        <time>2020-08-02T07:34:11Z</time>
      </trkpt>
      <trkpt lat="46.54988" lon="4.42814">
        <ele>395.596</ele>
        <time>2020-08-02T07:34:16Z</time>
      </trkpt>
      <trkpt lat="46.54995" lon="4.42813">
        <ele>396.596</ele>
        <time>2020-08-02T07:34:22Z</time>
      </trkpt>
      <trkpt lat="46.55003" lon="4.42814">
        <ele>396.596</ele>
        <time>2020-08-02T07:34:27Z</time>
      </trkpt>
      <trkpt lat="46.5501" lon="4.42819">
        <ele>398.596</ele>
        <time>2020-08-02T07:34:32Z</time>
      </trkpt>
      <trkpt lat="46.55019" lon="4.42814">
        <ele>400.596</ele>
        <time>2020-08-02T07:34:37Z</time>
      </trkpt>
      <trkpt lat="46.55028" lon="4.42813">
        <ele>402.596</ele>
        <time>2020-08-02T07:34:42Z</time>
      </trkpt>
      <trkpt lat="46.55035" lon="4.42814">
        <ele>403.596</ele>
        <time>2020-08-02T07:34:49Z</time>
      </trkpt>
      <trkpt lat="46.55042" lon="4.42812">
        <ele>402.596</ele>
        <time>2020-08-02T07:34:54Z</time>
      </trkpt>
      <trkpt lat="46.55048" lon="4.42816">
        <ele>403.596</ele>
        <time>2020-08-02T07:34:59Z</time>
      </trkpt>
      <trkpt lat="46.55058" lon="4.42813">
        <ele>403.596</ele>
        <time>2020-08-02T07:35:04Z</time>
      </trkpt>
      <trkpt lat="46.55065" lon="4.42818">
        <ele>402.596</ele>
        <time>2020-08-02T07:35:11Z</time>
      </trkpt>
      <trkpt lat="46.55076" lon="4.42818">
        <ele>405.596</ele>
        <time>2020-08-02T07:35:16Z</time>
      </trkpt>
      <trkpt lat="46.55086" lon="4.4282">
        <ele>406.596</ele>
        <time>2020-08-02T07:35:21Z</time>
      </trkpt>
      <trkpt lat="46.55094" lon="4.42816">
        <ele>405.596</ele>
        <time>2020-08-02T07:35:27Z</time>
      </trkpt>
      <trkpt lat="46.55101" lon="4.42812">
        <ele>405.596</ele>
        <time>2020-08-02T07:35:32Z</time>
      </trkpt>
      <trkpt lat="46.55108" lon="4.42814">
        <ele>403.596</ele>
        <time>2020-08-02T07:35:39Z</time>
      </trkpt>
      <trkpt lat="46.55115" lon="4.42816">
        <ele>400.596</ele>
        <time>2020-08-02T07:35:45Z</time>
      </trkpt>
      <trkpt lat="46.55124" lon="4.42819">
        <ele>405.596</ele>
        <time>2020-08-02T07:35:50Z</time>
      </trkpt>
      <trkpt lat="46.55133" lon="4.42818">
        <ele>405.596</ele>
        <time>2020-08-02T07:35:55Z</time>
      </trkpt>
      <trkpt lat="46.55142" lon="4.42812">
        <ele>406.596</ele>
        <time>2020-08-02T07:36:01Z</time>
      </trkpt>
      <trkpt lat="46.5515" lon="4.4281">
        <ele>406.596</ele>
        <time>2020-08-02T07:36:07Z</time>
      </trkpt>
      <trkpt lat="46.55156" lon="4.42806">
        <ele>403.596</ele>
        <time>2020-08-02T07:36:12Z</time>
      </trkpt>
      <trkpt lat="46.55164" lon="4.42799">
        <ele>401.596</ele>
        <time>2020-08-02T07:36:17Z</time>
      </trkpt>
      <trkpt lat="46.55173" lon="4.42797">
        <ele>401.597</ele>
        <time>2020-08-02T07:36:22Z</time>
      </trkpt>
      <trkpt lat="46.5518" lon="4.42798">
        <ele>399.597</ele>
        <time>2020-08-02T07:36:29Z</time>
      </trkpt>
      <trkpt lat="46.55183" lon="4.42787">
        <ele>398.597</ele>
        <time>2020-08-02T07:36:47Z</time>
      </trkpt>
      <trkpt lat="46.55181" lon="4.42777">
        <ele>395.597</ele>
        <time>2020-08-02T07:36:53Z</time>
      </trkpt>
      <trkpt lat="46.55182" lon="4.42765">
        <ele>396.597</ele>
        <time>2020-08-02T07:36:58Z</time>
      </trkpt>
      <trkpt lat="46.55183" lon="4.42756">
        <ele>397.597</ele>
        <time>2020-08-02T07:37:03Z</time>
      </trkpt>
      <trkpt lat="46.55186" lon="4.42744">
        <ele>395.597</ele>
        <time>2020-08-02T07:37:09Z</time>
      </trkpt>
      <trkpt lat="46.5519" lon="4.42734">
        <ele>395.597</ele>
        <time>2020-08-02T07:37:14Z</time>
      </trkpt>
      <trkpt lat="46.5519" lon="4.42724">
        <ele>393.597</ele>
        <time>2020-08-02T07:37:20Z</time>
      </trkpt>
      <trkpt lat="46.55189" lon="4.42714">
        <ele>394.596</ele>
        <time>2020-08-02T07:37:25Z</time>
      </trkpt>
      <trkpt lat="46.55198" lon="4.42702">
        <ele>394.597</ele>
        <time>2020-08-02T07:37:30Z</time>
      </trkpt>
      <trkpt lat="46.55202" lon="4.42694">
        <ele>393.597</ele>
        <time>2020-08-02T07:37:37Z</time>
      </trkpt>
      <trkpt lat="46.55206" lon="4.4268">
        <ele>392.597</ele>
        <time>2020-08-02T07:37:42Z</time>
      </trkpt>
      <trkpt lat="46.55208" lon="4.42671">
        <ele>395.597</ele>
        <time>2020-08-02T07:37:49Z</time>
      </trkpt>
      <trkpt lat="46.55211" lon="4.4266">
        <ele>393.597</ele>
        <time>2020-08-02T07:37:54Z</time>
      </trkpt>
      <trkpt lat="46.55215" lon="4.42653">
        <ele>394.597</ele>
        <time>2020-08-02T07:37:59Z</time>
      </trkpt>
      <trkpt lat="46.55222" lon="4.42639">
        <ele>394.597</ele>
        <time>2020-08-02T07:38:04Z</time>
      </trkpt>
      <trkpt lat="46.55225" lon="4.4263">
        <ele>393.597</ele>
        <time>2020-08-02T07:38:09Z</time>
      </trkpt>
      <trkpt lat="46.55231" lon="4.42622">
        <ele>393.597</ele>
        <time>2020-08-02T07:38:14Z</time>
      </trkpt>
      <trkpt lat="46.55235" lon="4.42614">
        <ele>394.597</ele>
        <time>2020-08-02T07:38:19Z</time>
      </trkpt>
      <trkpt lat="46.55239" lon="4.42605">
        <ele>388.597</ele>
        <time>2020-08-02T07:38:27Z</time>
      </trkpt>
      <trkpt lat="46.55247" lon="4.426">
        <ele>388.597</ele>
        <time>2020-08-02T07:38:34Z</time>
      </trkpt>
      <trkpt lat="46.55252" lon="4.42591">
        <ele>387.597</ele>
        <time>2020-08-02T07:38:39Z</time>
      </trkpt>
      <trkpt lat="46.55258" lon="4.42585">
        <ele>389.597</ele>
        <time>2020-08-02T07:38:44Z</time>
      </trkpt>
      <trkpt lat="46.55263" lon="4.42577">
        <ele>390.597</ele>
        <time>2020-08-02T07:38:50Z</time>
      </trkpt>
      <trkpt lat="46.55267" lon="4.42568">
        <ele>388.597</ele>
        <time>2020-08-02T07:38:55Z</time>
      </trkpt>
      <trkpt lat="46.55271" lon="4.4256">
        <ele>389.597</ele>
        <time>2020-08-02T07:39:00Z</time>
      </trkpt>
      <trkpt lat="46.55278" lon="4.42553">
        <ele>391.597</ele>
        <time>2020-08-02T07:39:05Z</time>
      </trkpt>
      <trkpt lat="46.55286" lon="4.42548">
        <ele>388.597</ele>
        <time>2020-08-02T07:39:10Z</time>
      </trkpt>
      <trkpt lat="46.55294" lon="4.42541">
        <ele>386.597</ele>
        <time>2020-08-02T07:39:15Z</time>
      </trkpt>
      <trkpt lat="46.55301" lon="4.42532">
        <ele>387.597</ele>
        <time>2020-08-02T07:39:20Z</time>
      </trkpt>
      <trkpt lat="46.55304" lon="4.42523">
        <ele>385.597</ele>
        <time>2020-08-02T07:39:25Z</time>
      </trkpt>
      <trkpt lat="46.55308" lon="4.42512">
        <ele>383.597</ele>
        <time>2020-08-02T07:39:30Z</time>
      </trkpt>
      <trkpt lat="46.55308" lon="4.42502">
        <ele>381.597</ele>
        <time>2020-08-02T07:39:35Z</time>
      </trkpt>
      <trkpt lat="46.55309" lon="4.42491">
        <ele>384.597</ele>
        <time>2020-08-02T07:39:42Z</time>
      </trkpt>
      <trkpt lat="46.55311" lon="4.42479">
        <ele>385.597</ele>
        <time>2020-08-02T07:39:48Z</time>
      </trkpt>
      <trkpt lat="46.55314" lon="4.4247">
        <ele>384.597</ele>
        <time>2020-08-02T07:39:53Z</time>
      </trkpt>
      <trkpt lat="46.55318" lon="4.42461">
        <ele>383.597</ele>
        <time>2020-08-02T07:39:58Z</time>
      </trkpt>
      <trkpt lat="46.55318" lon="4.42451">
        <ele>385.597</ele>
        <time>2020-08-02T07:40:05Z</time>
      </trkpt>
      <trkpt lat="46.55322" lon="4.42442">
        <ele>387.597</ele>
        <time>2020-08-02T07:40:10Z</time>
      </trkpt>
      <trkpt lat="46.55325" lon="4.42432">
        <ele>388.597</ele>
        <time>2020-08-02T07:40:15Z</time>
      </trkpt>
      <trkpt lat="46.55327" lon="4.42422">
        <ele>385.597</ele>
        <time>2020-08-02T07:40:21Z</time>
      </trkpt>
      <trkpt lat="46.55331" lon="4.42413">
        <ele>386.597</ele>
        <time>2020-08-02T07:40:26Z</time>
      </trkpt>
      <trkpt lat="46.55334" lon="4.42404">
        <ele>384.597</ele>
        <time>2020-08-02T07:40:32Z</time>
      </trkpt>
      <trkpt lat="46.55337" lon="4.4239">
        <ele>387.597</ele>
        <time>2020-08-02T07:41:06Z</time>
      </trkpt>
      <trkpt lat="46.55332" lon="4.42388">
        <ele>386.597</ele>
        <time>2020-08-02T07:41:08Z</time>
      </trkpt>
      <trkpt lat="46.55334" lon="4.42378">
        <ele>386.597</ele>
        <time>2020-08-02T07:41:24Z</time>
      </trkpt>
      <trkpt lat="46.55338" lon="4.42369">
        <ele>385.597</ele>
        <time>2020-08-02T07:41:30Z</time>
      </trkpt>
      <trkpt lat="46.55343" lon="4.42361">
        <ele>388.597</ele>
        <time>2020-08-02T07:41:35Z</time>
      </trkpt>
      <trkpt lat="46.55346" lon="4.42352">
        <ele>385.597</ele>
        <time>2020-08-02T07:41:41Z</time>
      </trkpt>
      <trkpt lat="46.55347" lon="4.42341">
        <ele>385.597</ele>
        <time>2020-08-02T07:41:47Z</time>
      </trkpt>
      <trkpt lat="46.5535" lon="4.42332">
        <ele>386.597</ele>
        <time>2020-08-02T07:41:52Z</time>
      </trkpt>
      <trkpt lat="46.55353" lon="4.42323">
        <ele>388.597</ele>
        <time>2020-08-02T07:41:58Z</time>
      </trkpt>
      <trkpt lat="46.55352" lon="4.42314">
        <ele>385.597</ele>
        <time>2020-08-02T07:42:03Z</time>
      </trkpt>
      <trkpt lat="46.55356" lon="4.42306">
        <ele>387.597</ele>
        <time>2020-08-02T07:42:10Z</time>
      </trkpt>
      <trkpt lat="46.55359" lon="4.42297">
        <ele>387.597</ele>
        <time>2020-08-02T07:42:16Z</time>
      </trkpt>
      <trkpt lat="46.55362" lon="4.42286">
        <ele>387.597</ele>
        <time>2020-08-02T07:42:22Z</time>
      </trkpt>
      <trkpt lat="46.55366" lon="4.42278">
        <ele>392.597</ele>
        <time>2020-08-02T07:42:28Z</time>
      </trkpt>
      <trkpt lat="46.5537" lon="4.4227">
        <ele>396.597</ele>
        <time>2020-08-02T07:42:34Z</time>
      </trkpt>
      <trkpt lat="46.55373" lon="4.42261">
        <ele>397.597</ele>
        <time>2020-08-02T07:42:47Z</time>
      </trkpt>
      <trkpt lat="46.55377" lon="4.42252">
        <ele>399.597</ele>
        <time>2020-08-02T07:42:53Z</time>
      </trkpt>
      <trkpt lat="46.55382" lon="4.42242">
        <ele>400.597</ele>
        <time>2020-08-02T07:42:58Z</time>
      </trkpt>
      <trkpt lat="46.55383" lon="4.42232">
        <ele>399.597</ele>
        <time>2020-08-02T07:43:03Z</time>
      </trkpt>
      <trkpt lat="46.55386" lon="4.42222">
        <ele>397.597</ele>
        <time>2020-08-02T07:43:09Z</time>
      </trkpt>
      <trkpt lat="46.55388" lon="4.4221">
        <ele>398.597</ele>
        <time>2020-08-02T07:43:14Z</time>
      </trkpt>
      <trkpt lat="46.55388" lon="4.42199">
        <ele>390.597</ele>
        <time>2020-08-02T07:43:21Z</time>
      </trkpt>
      <trkpt lat="46.55391" lon="4.42186">
        <ele>391.597</ele>
        <time>2020-08-02T07:43:26Z</time>
      </trkpt>
      <trkpt lat="46.55393" lon="4.42177">
        <ele>394.597</ele>
        <time>2020-08-02T07:43:33Z</time>
      </trkpt>
      <trkpt lat="46.55395" lon="4.42166">
        <ele>392.597</ele>
        <time>2020-08-02T07:43:38Z</time>
      </trkpt>
      <trkpt lat="46.55391" lon="4.42158">
        <ele>383.597</ele>
        <time>2020-08-02T07:46:07Z</time>
      </trkpt>
      <trkpt lat="46.55387" lon="4.42165">
        <ele>382.597</ele>
        <time>2020-08-02T07:46:14Z</time>
      </trkpt>
      <trkpt lat="46.55386" lon="4.42156">
        <ele>380.597</ele>
        <time>2020-08-02T07:46:45Z</time>
      </trkpt>
      <trkpt lat="46.55386" lon="4.42146">
        <ele>382.597</ele>
        <time>2020-08-02T07:46:54Z</time>
      </trkpt>
      <trkpt lat="46.5539" lon="4.42137">
        <ele>384.597</ele>
        <time>2020-08-02T07:47:04Z</time>
      </trkpt>
      <trkpt lat="46.55395" lon="4.42127">
        <ele>386.597</ele>
        <time>2020-08-02T07:47:10Z</time>
      </trkpt>
      <trkpt lat="46.55398" lon="4.42118">
        <ele>388.597</ele>
        <time>2020-08-02T07:47:16Z</time>
      </trkpt>
      <trkpt lat="46.55402" lon="4.42111">
        <ele>388.597</ele>
        <time>2020-08-02T07:47:21Z</time>
      </trkpt>
      <trkpt lat="46.55404" lon="4.42101">
        <ele>389.597</ele>
        <time>2020-08-02T07:47:28Z</time>
      </trkpt>
      <trkpt lat="46.55402" lon="4.42088">
        <ele>386.597</ele>
        <time>2020-08-02T07:47:33Z</time>
      </trkpt>
      <trkpt lat="46.55411" lon="4.42076">
        <ele>384.597</ele>
        <time>2020-08-02T07:47:38Z</time>
      </trkpt>
      <trkpt lat="46.55415" lon="4.42066">
        <ele>386.597</ele>
        <time>2020-08-02T07:47:45Z</time>
      </trkpt>
      <trkpt lat="46.55417" lon="4.42057">
        <ele>386.597</ele>
        <time>2020-08-02T07:47:50Z</time>
      </trkpt>
      <trkpt lat="46.5542" lon="4.42048">
        <ele>389.597</ele>
        <time>2020-08-02T07:48:01Z</time>
      </trkpt>
      <trkpt lat="46.55427" lon="4.42049">
        <ele>391.597</ele>
        <time>2020-08-02T07:48:07Z</time>
      </trkpt>
      <trkpt lat="46.55435" lon="4.42048">
        <ele>392.597</ele>
        <time>2020-08-02T07:48:25Z</time>
      </trkpt>
      <trkpt lat="46.55442" lon="4.42047">
        <ele>391.597</ele>
        <time>2020-08-02T07:48:31Z</time>
      </trkpt>
      <trkpt lat="46.55452" lon="4.42048">
        <ele>390.597</ele>
        <time>2020-08-02T07:48:36Z</time>
      </trkpt>
      <trkpt lat="46.55458" lon="4.42046">
        <ele>386.597</ele>
        <time>2020-08-02T07:48:44Z</time>
      </trkpt>
      <trkpt lat="46.55467" lon="4.42051">
        <ele>389.597</ele>
        <time>2020-08-02T07:48:49Z</time>
      </trkpt>
      <trkpt lat="46.55475" lon="4.42052">
        <ele>391.597</ele>
        <time>2020-08-02T07:48:54Z</time>
      </trkpt>
      <trkpt lat="46.55482" lon="4.42054">
        <ele>390.597</ele>
        <time>2020-08-02T07:48:59Z</time>
      </trkpt>
      <trkpt lat="46.55489" lon="4.42056">
        <ele>388.597</ele>
        <time>2020-08-02T07:49:05Z</time>
      </trkpt>
      <trkpt lat="46.55496" lon="4.42057">
        <ele>388.597</ele>
        <time>2020-08-02T07:49:10Z</time>
      </trkpt>
      <trkpt lat="46.55502" lon="4.42059">
        <ele>388.597</ele>
        <time>2020-08-02T07:49:15Z</time>
      </trkpt>
      <trkpt lat="46.55511" lon="4.42063">
        <ele>389.597</ele>
        <time>2020-08-02T07:49:21Z</time>
      </trkpt>
      <trkpt lat="46.55518" lon="4.42066">
        <ele>390.597</ele>
        <time>2020-08-02T07:49:27Z</time>
      </trkpt>
      <trkpt lat="46.55525" lon="4.42067">
        <ele>389.597</ele>
        <time>2020-08-02T07:49:32Z</time>
      </trkpt>
      <trkpt lat="46.55531" lon="4.42071">
        <ele>393.597</ele>
        <time>2020-08-02T07:49:38Z</time>
      </trkpt>
      <trkpt lat="46.55542" lon="4.42071">
        <ele>393.597</ele>
        <time>2020-08-02T07:49:43Z</time>
      </trkpt>
      <trkpt lat="46.55549" lon="4.42076">
        <ele>393.597</ele>
        <time>2020-08-02T07:49:49Z</time>
      </trkpt>
      <trkpt lat="46.55556" lon="4.4208">
        <ele>392.597</ele>
        <time>2020-08-02T07:49:54Z</time>
      </trkpt>
      <trkpt lat="46.55563" lon="4.42083">
        <ele>392.597</ele>
        <time>2020-08-02T07:49:59Z</time>
      </trkpt>
      <trkpt lat="46.55569" lon="4.42088">
        <ele>393.597</ele>
        <time>2020-08-02T07:50:05Z</time>
      </trkpt>
      <trkpt lat="46.55576" lon="4.4209">
        <ele>390.597</ele>
        <time>2020-08-02T07:50:10Z</time>
      </trkpt>
      <trkpt lat="46.55582" lon="4.42095">
        <ele>391.597</ele>
        <time>2020-08-02T07:50:16Z</time>
      </trkpt>
      <trkpt lat="46.5559" lon="4.42096">
        <ele>388.597</ele>
        <time>2020-08-02T07:50:21Z</time>
      </trkpt>
      <trkpt lat="46.55598" lon="4.42098">
        <ele>385.597</ele>
        <time>2020-08-02T07:50:27Z</time>
      </trkpt>
      <trkpt lat="46.55604" lon="4.42101">
        <ele>387.597</ele>
        <time>2020-08-02T07:50:33Z</time>
      </trkpt>
      <trkpt lat="46.55611" lon="4.42104">
        <ele>389.597</ele>
        <time>2020-08-02T07:50:38Z</time>
      </trkpt>
      <trkpt lat="46.55618" lon="4.42106">
        <ele>388.597</ele>
        <time>2020-08-02T07:50:44Z</time>
      </trkpt>
      <trkpt lat="46.55624" lon="4.42111">
        <ele>388.597</ele>
        <time>2020-08-02T07:50:50Z</time>
      </trkpt>
      <trkpt lat="46.55633" lon="4.42112">
        <ele>390.597</ele>
        <time>2020-08-02T07:50:55Z</time>
      </trkpt>
      <trkpt lat="46.55639" lon="4.42117">
        <ele>390.597</ele>
        <time>2020-08-02T07:51:01Z</time>
      </trkpt>
      <trkpt lat="46.55646" lon="4.4212">
        <ele>391.597</ele>
        <time>2020-08-02T07:51:06Z</time>
      </trkpt>
      <trkpt lat="46.55653" lon="4.42121">
        <ele>392.597</ele>
        <time>2020-08-02T07:51:13Z</time>
      </trkpt>
      <trkpt lat="46.5566" lon="4.42125">
        <ele>389.597</ele>
        <time>2020-08-02T07:51:18Z</time>
      </trkpt>
      <trkpt lat="46.55669" lon="4.42124">
        <ele>390.597</ele>
        <time>2020-08-02T07:51:23Z</time>
      </trkpt>
      <trkpt lat="46.55675" lon="4.42129">
        <ele>387.597</ele>
        <time>2020-08-02T07:51:28Z</time>
      </trkpt>
      <trkpt lat="46.55682" lon="4.42133">
        <ele>391.597</ele>
        <time>2020-08-02T07:51:34Z</time>
      </trkpt>
      <trkpt lat="46.55689" lon="4.42136">
        <ele>389.597</ele>
        <time>2020-08-02T07:51:41Z</time>
      </trkpt>
      <trkpt lat="46.55698" lon="4.42139">
        <ele>388.597</ele>
        <time>2020-08-02T07:51:46Z</time>
      </trkpt>
      <trkpt lat="46.55707" lon="4.42141">
        <ele>390.598</ele>
        <time>2020-08-02T07:51:51Z</time>
      </trkpt>
      <trkpt lat="46.55715" lon="4.42142">
        <ele>391.598</ele>
        <time>2020-08-02T07:51:56Z</time>
      </trkpt>
      <trkpt lat="46.55721" lon="4.42148">
        <ele>391.598</ele>
        <time>2020-08-02T07:52:01Z</time>
      </trkpt>
      <trkpt lat="46.55727" lon="4.42153">
        <ele>393.598</ele>
        <time>2020-08-02T07:52:08Z</time>
      </trkpt>
      <trkpt lat="46.55734" lon="4.42156">
        <ele>394.598</ele>
        <time>2020-08-02T07:52:15Z</time>
      </trkpt>
      <trkpt lat="46.55741" lon="4.42154">
        <ele>390.598</ele>
        <time>2020-08-02T07:52:21Z</time>
      </trkpt>
      <trkpt lat="46.5575" lon="4.42158">
        <ele>390.598</ele>
        <time>2020-08-02T07:52:27Z</time>
      </trkpt>
      <trkpt lat="46.55758" lon="4.4216">
        <ele>388.598</ele>
        <time>2020-08-02T07:52:32Z</time>
      </trkpt>
      <trkpt lat="46.55763" lon="4.42167">
        <ele>390.598</ele>
        <time>2020-08-02T07:52:37Z</time>
      </trkpt>
      <trkpt lat="46.55769" lon="4.42174">
        <ele>392.598</ele>
        <time>2020-08-02T07:52:42Z</time>
      </trkpt>
      <trkpt lat="46.55778" lon="4.42174">
        <ele>392.598</ele>
        <time>2020-08-02T07:52:47Z</time>
      </trkpt>
      <trkpt lat="46.55787" lon="4.42174">
        <ele>392.598</ele>
        <time>2020-08-02T07:52:52Z</time>
      </trkpt>
      <trkpt lat="46.55793" lon="4.42176">
        <ele>386.598</ele>
        <time>2020-08-02T07:54:05Z</time>
      </trkpt>
      <trkpt lat="46.55801" lon="4.4218">
        <ele>379.598</ele>
        <time>2020-08-02T07:54:10Z</time>
      </trkpt>
      <trkpt lat="46.55807" lon="4.42185">
        <ele>382.598</ele>
        <time>2020-08-02T07:54:15Z</time>
      </trkpt>
      <trkpt lat="46.55815" lon="4.42191">
        <ele>382.598</ele>
        <time>2020-08-02T07:54:20Z</time>
      </trkpt>
      <trkpt lat="46.55826" lon="4.42194">
        <ele>384.598</ele>
        <time>2020-08-02T07:54:25Z</time>
      </trkpt>
      <trkpt lat="46.55834" lon="4.42197">
        <ele>384.598</ele>
        <time>2020-08-02T07:54:30Z</time>
      </trkpt>
      <trkpt lat="46.55841" lon="4.42202">
        <ele>388.598</ele>
        <time>2020-08-02T07:54:35Z</time>
      </trkpt>
      <trkpt lat="46.55848" lon="4.42206">
        <ele>389.598</ele>
        <time>2020-08-02T07:54:40Z</time>
      </trkpt>
      <trkpt lat="46.55857" lon="4.42206">
        <ele>389.598</ele>
        <time>2020-08-02T07:54:45Z</time>
      </trkpt>
      <trkpt lat="46.55867" lon="4.42208">
        <ele>389.598</ele>
        <time>2020-08-02T07:54:50Z</time>
      </trkpt>
      <trkpt lat="46.55875" lon="4.42209">
        <ele>389.598</ele>
        <time>2020-08-02T07:54:55Z</time>
      </trkpt>
      <trkpt lat="46.55882" lon="4.42212">
        <ele>386.598</ele>
        <time>2020-08-02T07:55:00Z</time>
      </trkpt>
      <trkpt lat="46.55888" lon="4.42215">
        <ele>384.598</ele>
        <time>2020-08-02T07:55:05Z</time>
      </trkpt>
      <trkpt lat="46.55895" lon="4.42219">
        <ele>384.598</ele>
        <time>2020-08-02T07:55:11Z</time>
      </trkpt>
      <trkpt lat="46.55902" lon="4.42224">
        <ele>386.598</ele>
        <time>2020-08-02T07:55:19Z</time>
      </trkpt>
      <trkpt lat="46.55911" lon="4.42226">
        <ele>389.598</ele>
        <time>2020-08-02T07:55:24Z</time>
      </trkpt>
      <trkpt lat="46.55922" lon="4.42229">
        <ele>389.598</ele>
        <time>2020-08-02T07:55:29Z</time>
      </trkpt>
      <trkpt lat="46.55929" lon="4.42232">
        <ele>388.598</ele>
        <time>2020-08-02T07:55:34Z</time>
      </trkpt>
      <trkpt lat="46.55936" lon="4.42231">
        <ele>386.598</ele>
        <time>2020-08-02T07:55:39Z</time>
      </trkpt>
      <trkpt lat="46.55944" lon="4.42234">
        <ele>387.598</ele>
        <time>2020-08-02T07:55:44Z</time>
      </trkpt>
      <trkpt lat="46.55951" lon="4.42238">
        <ele>385.598</ele>
        <time>2020-08-02T07:55:50Z</time>
      </trkpt>
      <trkpt lat="46.55958" lon="4.42242">
        <ele>387.598</ele>
        <time>2020-08-02T07:55:55Z</time>
      </trkpt>
      <trkpt lat="46.55964" lon="4.42246">
        <ele>386.598</ele>
        <time>2020-08-02T07:56:02Z</time>
      </trkpt>
      <trkpt lat="46.55971" lon="4.42249">
        <ele>385.598</ele>
        <time>2020-08-02T07:56:07Z</time>
      </trkpt>
      <trkpt lat="46.55977" lon="4.4225">
        <ele>385.598</ele>
        <time>2020-08-02T07:56:12Z</time>
      </trkpt>
      <trkpt lat="46.55985" lon="4.42251">
        <ele>385.598</ele>
        <time>2020-08-02T07:56:17Z</time>
      </trkpt>
      <trkpt lat="46.55992" lon="4.42252">
        <ele>384.598</ele>
        <time>2020-08-02T07:56:23Z</time>
      </trkpt>
      <trkpt lat="46.55998" lon="4.42257">
        <ele>384.598</ele>
        <time>2020-08-02T07:56:28Z</time>
      </trkpt>
      <trkpt lat="46.56006" lon="4.4226">
        <ele>386.598</ele>
        <time>2020-08-02T07:56:33Z</time>
      </trkpt>
      <trkpt lat="46.56015" lon="4.42258">
        <ele>389.598</ele>
        <time>2020-08-02T07:56:38Z</time>
      </trkpt>
      <trkpt lat="46.56021" lon="4.42261">
        <ele>385.598</ele>
        <time>2020-08-02T07:56:46Z</time>
      </trkpt>
      <trkpt lat="46.56027" lon="4.42266">
        <ele>388.599</ele>
        <time>2020-08-02T07:56:52Z</time>
      </trkpt>
      <trkpt lat="46.56033" lon="4.42271">
        <ele>387.599</ele>
        <time>2020-08-02T07:56:58Z</time>
      </trkpt>
      <trkpt lat="46.56043" lon="4.42277">
        <ele>388.599</ele>
        <time>2020-08-02T07:57:03Z</time>
      </trkpt>
      <trkpt lat="46.56054" lon="4.42285">
        <ele>388.599</ele>
        <time>2020-08-02T07:57:08Z</time>
      </trkpt>
      <trkpt lat="46.56059" lon="4.42291">
        <ele>389.599</ele>
        <time>2020-08-02T07:57:13Z</time>
      </trkpt>
      <trkpt lat="46.56068" lon="4.42295">
        <ele>390.599</ele>
        <time>2020-08-02T07:57:18Z</time>
      </trkpt>
      <trkpt lat="46.56078" lon="4.42297">
        <ele>389.599</ele>
        <time>2020-08-02T07:57:23Z</time>
      </trkpt>
      <trkpt lat="46.56084" lon="4.423">
        <ele>391.599</ele>
        <time>2020-08-02T07:57:28Z</time>
      </trkpt>
      <trkpt lat="46.56094" lon="4.42302">
        <ele>393.599</ele>
        <time>2020-08-02T07:57:33Z</time>
      </trkpt>
      <trkpt lat="46.56101" lon="4.42305">
        <ele>393.599</ele>
        <time>2020-08-02T07:57:39Z</time>
      </trkpt>
      <trkpt lat="46.56108" lon="4.42308">
        <ele>393.599</ele>
        <time>2020-08-02T07:57:45Z</time>
      </trkpt>
      <trkpt lat="46.56114" lon="4.42313">
        <ele>392.599</ele>
        <time>2020-08-02T07:57:50Z</time>
      </trkpt>
      <trkpt lat="46.56122" lon="4.42317">
        <ele>392.599</ele>
        <time>2020-08-02T07:57:56Z</time>
      </trkpt>
      <trkpt lat="46.56129" lon="4.42321">
        <ele>390.599</ele>
        <time>2020-08-02T07:58:02Z</time>
      </trkpt>
      <trkpt lat="46.56136" lon="4.42325">
        <ele>389.599</ele>
        <time>2020-08-02T07:58:07Z</time>
      </trkpt>
      <trkpt lat="46.56143" lon="4.42323">
        <ele>387.599</ele>
        <time>2020-08-02T07:58:14Z</time>
      </trkpt>
      <trkpt lat="46.56152" lon="4.42321">
        <ele>388.599</ele>
        <time>2020-08-02T07:58:21Z</time>
      </trkpt>
      <trkpt lat="46.56158" lon="4.42325">
        <ele>389.599</ele>
        <time>2020-08-02T07:58:26Z</time>
      </trkpt>
      <trkpt lat="46.56163" lon="4.4233">
        <ele>389.599</ele>
        <time>2020-08-02T07:58:31Z</time>
      </trkpt>
      <trkpt lat="46.5617" lon="4.42337">
        <ele>386.599</ele>
        <time>2020-08-02T07:58:41Z</time>
      </trkpt>
      <trkpt lat="46.56177" lon="4.4234">
        <ele>385.599</ele>
        <time>2020-08-02T07:58:53Z</time>
      </trkpt>
      <trkpt lat="46.56183" lon="4.42348">
        <ele>385.599</ele>
        <time>2020-08-02T07:58:59Z</time>
      </trkpt>
      <trkpt lat="46.56191" lon="4.42344">
        <ele>384.599</ele>
        <time>2020-08-02T07:59:11Z</time>
      </trkpt>
      <trkpt lat="46.56198" lon="4.4235">
        <ele>389.599</ele>
        <time>2020-08-02T07:59:27Z</time>
      </trkpt>
      <trkpt lat="46.56205" lon="4.42345">
        <ele>389.599</ele>
        <time>2020-08-02T07:59:33Z</time>
      </trkpt>
      <trkpt lat="46.56212" lon="4.42349">
        <ele>391.599</ele>
        <time>2020-08-02T07:59:39Z</time>
      </trkpt>
      <trkpt lat="46.56221" lon="4.42353">
        <ele>388.599</ele>
        <time>2020-08-02T07:59:44Z</time>
      </trkpt>
      <trkpt lat="46.56228" lon="4.42356">
        <ele>384.599</ele>
        <time>2020-08-02T07:59:49Z</time>
      </trkpt>
      <trkpt lat="46.56237" lon="4.42356">
        <ele>384.599</ele>
        <time>2020-08-02T07:59:54Z</time>
      </trkpt>
      <trkpt lat="46.56244" lon="4.4236">
        <ele>391.599</ele>
        <time>2020-08-02T08:00:03Z</time>
      </trkpt>
      <trkpt lat="46.5625" lon="4.42367">
        <ele>392.599</ele>
        <time>2020-08-02T08:00:09Z</time>
      </trkpt>
      <trkpt lat="46.56256" lon="4.42369">
        <ele>392.599</ele>
        <time>2020-08-02T08:00:14Z</time>
      </trkpt>
      <trkpt lat="46.56263" lon="4.42372">
        <ele>391.599</ele>
        <time>2020-08-02T08:00:19Z</time>
      </trkpt>
      <trkpt lat="46.56269" lon="4.42375">
        <ele>393.599</ele>
        <time>2020-08-02T08:00:25Z</time>
      </trkpt>
      <trkpt lat="46.56277" lon="4.42377">
        <ele>395.599</ele>
        <time>2020-08-02T08:00:31Z</time>
      </trkpt>
      <trkpt lat="46.56284" lon="4.42378">
        <ele>394.599</ele>
        <time>2020-08-02T08:00:37Z</time>
      </trkpt>
      <trkpt lat="46.56289" lon="4.42384">
        <ele>394.599</ele>
        <time>2020-08-02T08:00:43Z</time>
      </trkpt>
      <trkpt lat="46.56296" lon="4.42389">
        <ele>396.599</ele>
        <time>2020-08-02T08:00:48Z</time>
      </trkpt>
      <trkpt lat="46.56306" lon="4.42393">
        <ele>394.599</ele>
        <time>2020-08-02T08:00:53Z</time>
      </trkpt>
      <trkpt lat="46.56314" lon="4.42395">
        <ele>394.599</ele>
        <time>2020-08-02T08:00:58Z</time>
      </trkpt>
      <trkpt lat="46.56319" lon="4.42401">
        <ele>395.599</ele>
        <time>2020-08-02T08:01:03Z</time>
      </trkpt>
      <trkpt lat="46.56326" lon="4.42405">
        <ele>397.599</ele>
        <time>2020-08-02T08:01:08Z</time>
      </trkpt>
      <trkpt lat="46.56333" lon="4.42407">
        <ele>400.599</ele>
        <time>2020-08-02T08:01:15Z</time>
      </trkpt>
      <trkpt lat="46.56339" lon="4.42414">
        <ele>402.599</ele>
        <time>2020-08-02T08:01:20Z</time>
      </trkpt>
      <trkpt lat="46.56346" lon="4.42416">
        <ele>403.6</ele>
        <time>2020-08-02T08:01:27Z</time>
      </trkpt>
      <trkpt lat="46.56352" lon="4.42425">
        <ele>401.6</ele>
        <time>2020-08-02T08:01:32Z</time>
      </trkpt>
      <trkpt lat="46.56361" lon="4.42429">
        <ele>404.6</ele>
        <time>2020-08-02T08:01:37Z</time>
      </trkpt>
      <trkpt lat="46.56368" lon="4.42431">
        <ele>404.6</ele>
        <time>2020-08-02T08:01:43Z</time>
      </trkpt>
      <trkpt lat="46.56377" lon="4.42433">
        <ele>404.6</ele>
        <time>2020-08-02T08:01:48Z</time>
      </trkpt>
      <trkpt lat="46.56384" lon="4.42432">
        <ele>403.6</ele>
        <time>2020-08-02T08:01:53Z</time>
      </trkpt>
      <trkpt lat="46.56392" lon="4.42434">
        <ele>403.6</ele>
        <time>2020-08-02T08:01:59Z</time>
      </trkpt>
      <trkpt lat="46.56398" lon="4.42436">
        <ele>401.6</ele>
        <time>2020-08-02T08:02:04Z</time>
      </trkpt>
      <trkpt lat="46.56406" lon="4.42437">
        <ele>399.6</ele>
        <time>2020-08-02T08:02:11Z</time>
      </trkpt>
      <trkpt lat="46.56414" lon="4.42442">
        <ele>401.6</ele>
        <time>2020-08-02T08:02:17Z</time>
      </trkpt>
      <trkpt lat="46.56421" lon="4.42444">
        <ele>401.6</ele>
        <time>2020-08-02T08:02:22Z</time>
      </trkpt>
      <trkpt lat="46.5643" lon="4.42449">
        <ele>402.6</ele>
        <time>2020-08-02T08:02:27Z</time>
      </trkpt>
      <trkpt lat="46.5644" lon="4.42451">
        <ele>400.6</ele>
        <time>2020-08-02T08:02:32Z</time>
      </trkpt>
      <trkpt lat="46.56447" lon="4.42456">
        <ele>399.6</ele>
        <time>2020-08-02T08:02:38Z</time>
      </trkpt>
      <trkpt lat="46.56453" lon="4.4246">
        <ele>399.6</ele>
        <time>2020-08-02T08:02:43Z</time>
      </trkpt>
      <trkpt lat="46.56462" lon="4.42459">
        <ele>400.6</ele>
        <time>2020-08-02T08:02:48Z</time>
      </trkpt>
      <trkpt lat="46.5647" lon="4.42462">
        <ele>399.6</ele>
        <time>2020-08-02T08:02:53Z</time>
      </trkpt>
      <trkpt lat="46.56478" lon="4.42465">
        <ele>396.6</ele>
        <time>2020-08-02T08:02:59Z</time>
      </trkpt>
      <trkpt lat="46.56484" lon="4.42469">
        <ele>396.6</ele>
        <time>2020-08-02T08:03:04Z</time>
      </trkpt>
      <trkpt lat="46.56492" lon="4.42473">
        <ele>395.6</ele>
        <time>2020-08-02T08:03:09Z</time>
      </trkpt>
      <trkpt lat="46.56498" lon="4.42477">
        <ele>396.6</ele>
        <time>2020-08-02T08:03:16Z</time>
      </trkpt>
      <trkpt lat="46.56505" lon="4.4248">
        <ele>397.6</ele>
        <time>2020-08-02T08:03:22Z</time>
      </trkpt>
      <trkpt lat="46.56512" lon="4.42483">
        <ele>398.6</ele>
        <time>2020-08-02T08:03:27Z</time>
      </trkpt>
      <trkpt lat="46.56519" lon="4.42485">
        <ele>397.6</ele>
        <time>2020-08-02T08:03:32Z</time>
      </trkpt>
      <trkpt lat="46.56527" lon="4.42487">
        <ele>395.6</ele>
        <time>2020-08-02T08:03:37Z</time>
      </trkpt>
      <trkpt lat="46.56534" lon="4.42492">
        <ele>393.6</ele>
        <time>2020-08-02T08:03:46Z</time>
      </trkpt>
      <trkpt lat="46.56542" lon="4.42491">
        <ele>394.6</ele>
        <time>2020-08-02T08:04:01Z</time>
      </trkpt>
      <trkpt lat="46.5655" lon="4.42495">
        <ele>394.6</ele>
        <time>2020-08-02T08:04:06Z</time>
      </trkpt>
      <trkpt lat="46.56558" lon="4.42496">
        <ele>394.6</ele>
        <time>2020-08-02T08:04:11Z</time>
      </trkpt>
      <trkpt lat="46.56569" lon="4.42496">
        <ele>394.6</ele>
        <time>2020-08-02T08:04:16Z</time>
      </trkpt>
      <trkpt lat="46.56579" lon="4.42501">
        <ele>391.6</ele>
        <time>2020-08-02T08:04:21Z</time>
      </trkpt>
      <trkpt lat="46.56586" lon="4.42502">
        <ele>389.6</ele>
        <time>2020-08-02T08:04:26Z</time>
      </trkpt>
      <trkpt lat="46.56594" lon="4.42513">
        <ele>394.6</ele>
        <time>2020-08-02T08:04:31Z</time>
      </trkpt>
      <trkpt lat="46.56601" lon="4.42524">
        <ele>394.6</ele>
        <time>2020-08-02T08:04:36Z</time>
      </trkpt>
      <trkpt lat="46.56609" lon="4.42527">
        <ele>395.6</ele>
        <time>2020-08-02T08:04:41Z</time>
      </trkpt>
      <trkpt lat="46.56615" lon="4.42532">
        <ele>398.6</ele>
        <time>2020-08-02T08:04:46Z</time>
      </trkpt>
      <trkpt lat="46.56622" lon="4.42531">
        <ele>398.6</ele>
        <time>2020-08-02T08:04:52Z</time>
      </trkpt>
      <trkpt lat="46.56628" lon="4.42536">
        <ele>395.6</ele>
        <time>2020-08-02T08:04:58Z</time>
      </trkpt>
      <trkpt lat="46.56636" lon="4.42538">
        <ele>396.6</ele>
        <time>2020-08-02T08:05:03Z</time>
      </trkpt>
      <trkpt lat="46.56643" lon="4.42543">
        <ele>396.6</ele>
        <time>2020-08-02T08:05:08Z</time>
      </trkpt>
      <trkpt lat="46.5665" lon="4.42548">
        <ele>393.6</ele>
        <time>2020-08-02T08:05:14Z</time>
      </trkpt>
      <trkpt lat="46.5666" lon="4.42543">
        <ele>394.6</ele>
        <time>2020-08-02T08:05:19Z</time>
      </trkpt>
      <trkpt lat="46.56666" lon="4.42541">
        <ele>393.6</ele>
        <time>2020-08-02T08:05:24Z</time>
      </trkpt>
      <trkpt lat="46.56674" lon="4.4254">
        <ele>394.601</ele>
        <time>2020-08-02T08:05:29Z</time>
      </trkpt>
      <trkpt lat="46.56681" lon="4.42539">
        <ele>395.601</ele>
        <time>2020-08-02T08:05:34Z</time>
      </trkpt>
      <trkpt lat="46.56688" lon="4.42541">
        <ele>393.601</ele>
        <time>2020-08-02T08:05:40Z</time>
      </trkpt>
      <trkpt lat="46.56695" lon="4.42541">
        <ele>390.601</ele>
        <time>2020-08-02T08:05:47Z</time>
      </trkpt>
      <trkpt lat="46.56702" lon="4.42538">
        <ele>390.601</ele>
        <time>2020-08-02T08:05:52Z</time>
      </trkpt>
      <trkpt lat="46.5671" lon="4.42537">
        <ele>390.601</ele>
        <time>2020-08-02T08:05:57Z</time>
      </trkpt>
      <trkpt lat="46.56716" lon="4.42535">
        <ele>388.601</ele>
        <time>2020-08-02T08:06:03Z</time>
      </trkpt>
      <trkpt lat="46.56726" lon="4.42535">
        <ele>389.601</ele>
        <time>2020-08-02T08:06:08Z</time>
      </trkpt>
      <trkpt lat="46.56734" lon="4.42533">
        <ele>389.601</ele>
        <time>2020-08-02T08:06:13Z</time>
      </trkpt>
      <trkpt lat="46.56742" lon="4.42529">
        <ele>388.601</ele>
        <time>2020-08-02T08:06:18Z</time>
      </trkpt>
      <trkpt lat="46.5675" lon="4.42528">
        <ele>390.601</ele>
        <time>2020-08-02T08:06:23Z</time>
      </trkpt>
      <trkpt lat="46.56757" lon="4.42527">
        <ele>391.601</ele>
        <time>2020-08-02T08:06:28Z</time>
      </trkpt>
      <trkpt lat="46.56765" lon="4.42524">
        <ele>392.601</ele>
        <time>2020-08-02T08:06:33Z</time>
      </trkpt>
      <trkpt lat="46.56773" lon="4.42525">
        <ele>391.601</ele>
        <time>2020-08-02T08:06:38Z</time>
      </trkpt>
      <trkpt lat="46.5678" lon="4.42524">
        <ele>392.601</ele>
        <time>2020-08-02T08:06:43Z</time>
      </trkpt>
      <trkpt lat="46.56787" lon="4.42522">
        <ele>392.601</ele>
        <time>2020-08-02T08:06:49Z</time>
      </trkpt>
      <trkpt lat="46.56793" lon="4.42518">
        <ele>389.601</ele>
        <time>2020-08-02T08:06:57Z</time>
      </trkpt>
      <trkpt lat="46.56801" lon="4.42517">
        <ele>389.601</ele>
        <time>2020-08-02T08:07:02Z</time>
      </trkpt>
      <trkpt lat="46.56806" lon="4.4251">
        <ele>387.601</ele>
        <time>2020-08-02T08:07:14Z</time>
      </trkpt>
      <trkpt lat="46.56807" lon="4.4252">
        <ele>383.601</ele>
        <time>2020-08-02T08:07:37Z</time>
      </trkpt>
      <trkpt lat="46.56808" lon="4.4253">
        <ele>379.601</ele>
        <time>2020-08-02T08:07:44Z</time>
      </trkpt>
      <trkpt lat="46.56812" lon="4.42538">
        <ele>379.601</ele>
        <time>2020-08-02T08:07:50Z</time>
      </trkpt>
      <trkpt lat="46.56819" lon="4.42541">
        <ele>380.601</ele>
        <time>2020-08-02T08:07:58Z</time>
      </trkpt>
      <trkpt lat="46.56826" lon="4.42547">
        <ele>380.601</ele>
        <time>2020-08-02T08:08:05Z</time>
      </trkpt>
      <trkpt lat="46.56834" lon="4.42548">
        <ele>383.601</ele>
        <time>2020-08-02T08:08:11Z</time>
      </trkpt>
      <trkpt lat="46.56841" lon="4.42551">
        <ele>382.601</ele>
        <time>2020-08-02T08:08:17Z</time>
      </trkpt>
      <trkpt lat="46.56845" lon="4.42559">
        <ele>374.601</ele>
        <time>2020-08-02T08:08:29Z</time>
      </trkpt>
      <trkpt lat="46.56851" lon="4.42566">
        <ele>379.601</ele>
        <time>2020-08-02T08:08:35Z</time>
      </trkpt>
      <trkpt lat="46.56858" lon="4.42566">
        <ele>375.601</ele>
        <time>2020-08-02T08:08:40Z</time>
      </trkpt>
      <trkpt lat="46.56864" lon="4.4257">
        <ele>373.601</ele>
        <time>2020-08-02T08:08:46Z</time>
      </trkpt>
      <trkpt lat="46.56869" lon="4.42578">
        <ele>370.601</ele>
        <time>2020-08-02T08:08:57Z</time>
      </trkpt>
      <trkpt lat="46.56867" lon="4.42589">
        <ele>368.601</ele>
        <time>2020-08-02T08:09:07Z</time>
      </trkpt>
      <trkpt lat="46.56865" lon="4.426">
        <ele>365.601</ele>
        <time>2020-08-02T08:09:14Z</time>
      </trkpt>
      <trkpt lat="46.56862" lon="4.42611">
        <ele>366.601</ele>
        <time>2020-08-02T08:09:20Z</time>
      </trkpt>
      <trkpt lat="46.56859" lon="4.42625">
        <ele>360.601</ele>
        <time>2020-08-02T08:09:30Z</time>
      </trkpt>
      <trkpt lat="46.56857" lon="4.42635">
        <ele>358.601</ele>
        <time>2020-08-02T08:09:37Z</time>
      </trkpt>
      <trkpt lat="46.56852" lon="4.42644">
        <ele>356.601</ele>
        <time>2020-08-02T08:09:45Z</time>
      </trkpt>
      <trkpt lat="46.56848" lon="4.42658">
        <ele>354.601</ele>
        <time>2020-08-02T08:09:50Z</time>
      </trkpt>
      <trkpt lat="46.56847" lon="4.42667">
        <ele>355.601</ele>
        <time>2020-08-02T08:09:57Z</time>
      </trkpt>
      <trkpt lat="46.56851" lon="4.42677">
        <ele>356.601</ele>
        <time>2020-08-02T08:10:07Z</time>
      </trkpt>
      <trkpt lat="46.5685" lon="4.42693">
        <ele>361.601</ele>
        <time>2020-08-02T08:10:12Z</time>
      </trkpt>
      <trkpt lat="46.56854" lon="4.42701">
        <ele>365.601</ele>
        <time>2020-08-02T08:10:19Z</time>
      </trkpt>
      <trkpt lat="46.56856" lon="4.42712">
        <ele>365.601</ele>
        <time>2020-08-02T08:10:24Z</time>
      </trkpt>
      <trkpt lat="46.56862" lon="4.42719">
        <ele>364.601</ele>
        <time>2020-08-02T08:10:29Z</time>
      </trkpt>
      <trkpt lat="46.56867" lon="4.42727">
        <ele>363.601</ele>
        <time>2020-08-02T08:10:35Z</time>
      </trkpt>
      <trkpt lat="46.56869" lon="4.42739">
        <ele>363.601</ele>
        <time>2020-08-02T08:10:40Z</time>
      </trkpt>
      <trkpt lat="46.56873" lon="4.42749">
        <ele>363.601</ele>
        <time>2020-08-02T08:10:46Z</time>
      </trkpt>
      <trkpt lat="46.56878" lon="4.42756">
        <ele>367.601</ele>
        <time>2020-08-02T08:10:51Z</time>
      </trkpt>
      <trkpt lat="46.56884" lon="4.42759">
        <ele>363.601</ele>
        <time>2020-08-02T08:10:56Z</time>
      </trkpt>
      <trkpt lat="46.56889" lon="4.42769">
        <ele>363.601</ele>
        <time>2020-08-02T08:11:02Z</time>
      </trkpt>
      <trkpt lat="46.56895" lon="4.42775">
        <ele>361.601</ele>
        <time>2020-08-02T08:11:08Z</time>
      </trkpt>
      <trkpt lat="46.56899" lon="4.42784">
        <ele>361.601</ele>
        <time>2020-08-02T08:11:14Z</time>
      </trkpt>
      <trkpt lat="46.56903" lon="4.42793">
        <ele>362.601</ele>
        <time>2020-08-02T08:11:19Z</time>
      </trkpt>
      <trkpt lat="46.56905" lon="4.42803">
        <ele>363.601</ele>
        <time>2020-08-02T08:11:26Z</time>
      </trkpt>
      <trkpt lat="46.56901" lon="4.4281">
        <ele>360.601</ele>
        <time>2020-08-02T08:11:59Z</time>
      </trkpt>
      <trkpt lat="46.569" lon="4.4282">
        <ele>360.601</ele>
        <time>2020-08-02T08:12:07Z</time>
      </trkpt>
      <trkpt lat="46.56895" lon="4.42827">
        <ele>359.601</ele>
        <time>2020-08-02T08:12:16Z</time>
      </trkpt>
      <trkpt lat="46.5689" lon="4.42835">
        <ele>361.601</ele>
        <time>2020-08-02T08:12:27Z</time>
      </trkpt>
      <trkpt lat="46.56886" lon="4.42843">
        <ele>359.601</ele>
        <time>2020-08-02T08:12:35Z</time>
      </trkpt>
      <trkpt lat="46.56881" lon="4.42851">
        <ele>362.601</ele>
        <time>2020-08-02T08:12:41Z</time>
      </trkpt>
      <trkpt lat="46.56875" lon="4.42857">
        <ele>363.601</ele>
        <time>2020-08-02T08:12:46Z</time>
      </trkpt>
      <trkpt lat="46.56872" lon="4.42867">
        <ele>363.601</ele>
        <time>2020-08-02T08:12:52Z</time>
      </trkpt>
      <trkpt lat="46.56867" lon="4.42876">
        <ele>365.601</ele>
        <time>2020-08-02T08:12:58Z</time>
      </trkpt>
      <trkpt lat="46.56864" lon="4.42889">
        <ele>366.601</ele>
        <time>2020-08-02T08:13:08Z</time>
      </trkpt>
      <trkpt lat="46.56865" lon="4.42899">
        <ele>358.601</ele>
        <time>2020-08-02T08:13:13Z</time>
      </trkpt>
      <trkpt lat="46.56867" lon="4.42909">
        <ele>357.601</ele>
        <time>2020-08-02T08:13:18Z</time>
      </trkpt>
      <trkpt lat="46.56867" lon="4.4292">
        <ele>360.601</ele>
        <time>2020-08-02T08:13:25Z</time>
      </trkpt>
      <trkpt lat="46.56868" lon="4.42931">
        <ele>365.601</ele>
        <time>2020-08-02T08:13:33Z</time>
      </trkpt>
      <trkpt lat="46.56874" lon="4.42939">
        <ele>370.601</ele>
        <time>2020-08-02T08:13:40Z</time>
      </trkpt>
      <trkpt lat="46.56876" lon="4.42948">
        <ele>370.601</ele>
        <time>2020-08-02T08:13:48Z</time>
      </trkpt>
      <trkpt lat="46.56874" lon="4.42962">
        <ele>373.601</ele>
        <time>2020-08-02T08:13:53Z</time>
      </trkpt>
      <trkpt lat="46.56877" lon="4.42972">
        <ele>372.601</ele>
        <time>2020-08-02T08:13:59Z</time>
      </trkpt>
      <trkpt lat="46.56872" lon="4.42982">
        <ele>375.601</ele>
        <time>2020-08-02T08:14:06Z</time>
      </trkpt>
      <trkpt lat="46.56868" lon="4.42992">
        <ele>377.601</ele>
        <time>2020-08-02T08:14:11Z</time>
      </trkpt>
      <trkpt lat="46.56865" lon="4.43001">
        <ele>377.601</ele>
        <time>2020-08-02T08:14:17Z</time>
      </trkpt>
      <trkpt lat="46.56862" lon="4.43013">
        <ele>377.601</ele>
        <time>2020-08-02T08:14:23Z</time>
      </trkpt>
      <trkpt lat="46.56862" lon="4.43024">
        <ele>373.601</ele>
        <time>2020-08-02T08:14:28Z</time>
      </trkpt>
      <trkpt lat="46.56864" lon="4.43034">
        <ele>373.601</ele>
        <time>2020-08-02T08:14:34Z</time>
      </trkpt>
      <trkpt lat="46.56861" lon="4.43043">
        <ele>375.601</ele>
        <time>2020-08-02T08:14:39Z</time>
      </trkpt>
      <trkpt lat="46.56865" lon="4.43049">
        <ele>378.601</ele>
        <time>2020-08-02T08:14:46Z</time>
      </trkpt>
      <trkpt lat="46.56871" lon="4.4306">
        <ele>372.601</ele>
        <time>2020-08-02T08:14:51Z</time>
      </trkpt>
      <trkpt lat="46.56876" lon="4.43067">
        <ele>368.601</ele>
        <time>2020-08-02T08:14:56Z</time>
      </trkpt>
      <trkpt lat="46.56877" lon="4.43077">
        <ele>368.601</ele>
        <time>2020-08-02T08:15:02Z</time>
      </trkpt>
      <trkpt lat="46.56886" lon="4.43087">
        <ele>366.601</ele>
        <time>2020-08-02T08:15:11Z</time>
      </trkpt>
      <trkpt lat="46.5689" lon="4.43095">
        <ele>364.602</ele>
        <time>2020-08-02T08:15:18Z</time>
      </trkpt>
      <trkpt lat="46.56895" lon="4.43105">
        <ele>366.602</ele>
        <time>2020-08-02T08:15:23Z</time>
      </trkpt>
      <trkpt lat="46.56897" lon="4.43115">
        <ele>369.602</ele>
        <time>2020-08-02T08:15:28Z</time>
      </trkpt>
      <trkpt lat="46.569" lon="4.43124">
        <ele>374.602</ele>
        <time>2020-08-02T08:15:33Z</time>
      </trkpt>
      <trkpt lat="46.56902" lon="4.43137">
        <ele>379.602</ele>
        <time>2020-08-02T08:15:38Z</time>
      </trkpt>
      <trkpt lat="46.56907" lon="4.43149">
        <ele>384.602</ele>
        <time>2020-08-02T08:15:43Z</time>
      </trkpt>
      <trkpt lat="46.56914" lon="4.4316">
        <ele>383.602</ele>
        <time>2020-08-02T08:15:48Z</time>
      </trkpt>
      <trkpt lat="46.56919" lon="4.43167">
        <ele>385.602</ele>
        <time>2020-08-02T08:15:53Z</time>
      </trkpt>
      <trkpt lat="46.56928" lon="4.43172">
        <ele>385.602</ele>
        <time>2020-08-02T08:15:58Z</time>
      </trkpt>
      <trkpt lat="46.56937" lon="4.43175">
        <ele>383.602</ele>
        <time>2020-08-02T08:16:03Z</time>
      </trkpt>
      <trkpt lat="46.56943" lon="4.43178">
        <ele>385.602</ele>
        <time>2020-08-02T08:16:10Z</time>
      </trkpt>
      <trkpt lat="46.56952" lon="4.4318">
        <ele>383.602</ele>
        <time>2020-08-02T08:16:15Z</time>
      </trkpt>
      <trkpt lat="46.5696" lon="4.43184">
        <ele>383.602</ele>
        <time>2020-08-02T08:16:20Z</time>
      </trkpt>
      <trkpt lat="46.56967" lon="4.43192">
        <ele>383.602</ele>
        <time>2020-08-02T08:16:25Z</time>
      </trkpt>
      <trkpt lat="46.56972" lon="4.432">
        <ele>385.602</ele>
        <time>2020-08-02T08:16:31Z</time>
      </trkpt>
      <trkpt lat="46.56979" lon="4.43202">
        <ele>385.602</ele>
        <time>2020-08-02T08:16:38Z</time>
      </trkpt>
      <trkpt lat="46.56985" lon="4.43206">
        <ele>385.602</ele>
        <time>2020-08-02T08:16:44Z</time>
      </trkpt>
      <trkpt lat="46.5699" lon="4.43213">
        <ele>386.602</ele>
        <time>2020-08-02T08:16:51Z</time>
      </trkpt>
      <trkpt lat="46.56996" lon="4.43221">
        <ele>387.602</ele>
        <time>2020-08-02T08:16:56Z</time>
      </trkpt>
      <trkpt lat="46.56999" lon="4.4323">
        <ele>387.602</ele>
        <time>2020-08-02T08:17:01Z</time>
      </trkpt>
      <trkpt lat="46.57003" lon="4.43239">
        <ele>384.602</ele>
        <time>2020-08-02T08:17:06Z</time>
      </trkpt>
      <trkpt lat="46.57009" lon="4.43245">
        <ele>384.602</ele>
        <time>2020-08-02T08:17:11Z</time>
      </trkpt>
      <trkpt lat="46.57011" lon="4.43255">
        <ele>385.602</ele>
        <time>2020-08-02T08:17:17Z</time>
      </trkpt>
      <trkpt lat="46.57015" lon="4.43264">
        <ele>386.602</ele>
        <time>2020-08-02T08:17:23Z</time>
      </trkpt>
      <trkpt lat="46.57017" lon="4.43273">
        <ele>388.602</ele>
        <time>2020-08-02T08:17:29Z</time>
      </trkpt>
      <trkpt lat="46.57018" lon="4.43283">
        <ele>391.602</ele>
        <time>2020-08-02T08:17:35Z</time>
      </trkpt>
      <trkpt lat="46.57024" lon="4.43291">
        <ele>390.602</ele>
        <time>2020-08-02T08:17:40Z</time>
      </trkpt>
      <trkpt lat="46.57024" lon="4.43301">
        <ele>383.602</ele>
        <time>2020-08-02T08:20:09Z</time>
      </trkpt>
      <trkpt lat="46.5703" lon="4.4331">
        <ele>384.602</ele>
        <time>2020-08-02T08:20:15Z</time>
      </trkpt>
      <trkpt lat="46.57033" lon="4.43319">
        <ele>386.602</ele>
        <time>2020-08-02T08:20:21Z</time>
      </trkpt>
      <trkpt lat="46.57039" lon="4.43323">
        <ele>383.602</ele>
        <time>2020-08-02T08:20:28Z</time>
      </trkpt>
      <trkpt lat="46.57038" lon="4.43335">
        <ele>383.602</ele>
        <time>2020-08-02T08:20:35Z</time>
      </trkpt>
      <trkpt lat="46.57041" lon="4.43344">
        <ele>383.602</ele>
        <time>2020-08-02T08:20:41Z</time>
      </trkpt>
      <trkpt lat="46.5704" lon="4.43354">
        <ele>381.602</ele>
        <time>2020-08-02T08:20:48Z</time>
      </trkpt>
      <trkpt lat="46.57039" lon="4.43365">
        <ele>385.602</ele>
        <time>2020-08-02T08:20:53Z</time>
      </trkpt>
      <trkpt lat="46.57043" lon="4.43373">
        <ele>383.602</ele>
        <time>2020-08-02T08:21:04Z</time>
      </trkpt>
      <trkpt lat="46.57038" lon="4.43382">
        <ele>385.602</ele>
        <time>2020-08-02T08:21:09Z</time>
      </trkpt>
      <trkpt lat="46.5704" lon="4.43391">
        <ele>388.602</ele>
        <time>2020-08-02T08:21:14Z</time>
      </trkpt>
      <trkpt lat="46.57037" lon="4.43402">
        <ele>391.602</ele>
        <time>2020-08-02T08:21:20Z</time>
      </trkpt>
      <trkpt lat="46.57032" lon="4.43412">
        <ele>393.602</ele>
        <time>2020-08-02T08:21:25Z</time>
      </trkpt>
      <trkpt lat="46.57032" lon="4.43421">
        <ele>389.602</ele>
        <time>2020-08-02T08:21:30Z</time>
      </trkpt>
      <trkpt lat="46.57033" lon="4.43431">
        <ele>391.602</ele>
        <time>2020-08-02T08:21:36Z</time>
      </trkpt>
      <trkpt lat="46.5703" lon="4.4344">
        <ele>391.602</ele>
        <time>2020-08-02T08:21:41Z</time>
      </trkpt>
      <trkpt lat="46.57027" lon="4.4345">
        <ele>391.602</ele>
        <time>2020-08-02T08:21:46Z</time>
      </trkpt>
      <trkpt lat="46.57025" lon="4.43459">
        <ele>395.602</ele>
        <time>2020-08-02T08:21:51Z</time>
      </trkpt>
      <trkpt lat="46.57019" lon="4.43466">
        <ele>394.602</ele>
        <time>2020-08-02T08:21:56Z</time>
      </trkpt>
      <trkpt lat="46.57016" lon="4.43476">
        <ele>394.602</ele>
        <time>2020-08-02T08:22:01Z</time>
      </trkpt>
      <trkpt lat="46.57015" lon="4.43488">
        <ele>394.602</ele>
        <time>2020-08-02T08:22:06Z</time>
      </trkpt>
      <trkpt lat="46.57017" lon="4.43498">
        <ele>393.602</ele>
        <time>2020-08-02T08:22:13Z</time>
      </trkpt>
      <trkpt lat="46.57016" lon="4.43508">
        <ele>393.602</ele>
        <time>2020-08-02T08:22:18Z</time>
      </trkpt>
      <trkpt lat="46.57011" lon="4.43516">
        <ele>393.602</ele>
        <time>2020-08-02T08:22:23Z</time>
      </trkpt>
      <trkpt lat="46.57012" lon="4.43532">
        <ele>392.602</ele>
        <time>2020-08-02T08:22:28Z</time>
      </trkpt>
      <trkpt lat="46.57015" lon="4.43542">
        <ele>390.602</ele>
        <time>2020-08-02T08:22:34Z</time>
      </trkpt>
      <trkpt lat="46.57017" lon="4.43551">
        <ele>390.602</ele>
        <time>2020-08-02T08:22:40Z</time>
      </trkpt>
      <trkpt lat="46.57015" lon="4.43561">
        <ele>394.602</ele>
        <time>2020-08-02T08:22:48Z</time>
      </trkpt>
      <trkpt lat="46.57022" lon="4.43567">
        <ele>394.602</ele>
        <time>2020-08-02T08:22:54Z</time>
      </trkpt>
      <trkpt lat="46.5702" lon="4.43579">
        <ele>392.602</ele>
        <time>2020-08-02T08:22:59Z</time>
      </trkpt>
      <trkpt lat="46.57024" lon="4.43589">
        <ele>388.602</ele>
        <time>2020-08-02T08:23:07Z</time>
      </trkpt>
      <trkpt lat="46.57027" lon="4.43598">
        <ele>392.602</ele>
        <time>2020-08-02T08:23:13Z</time>
      </trkpt>
      <trkpt lat="46.57034" lon="4.43609">
        <ele>386.602</ele>
        <time>2020-08-02T08:23:18Z</time>
      </trkpt>
      <trkpt lat="46.57035" lon="4.43622">
        <ele>388.602</ele>
        <time>2020-08-02T08:23:23Z</time>
      </trkpt>
      <trkpt lat="46.57038" lon="4.43631">
        <ele>391.602</ele>
        <time>2020-08-02T08:23:29Z</time>
      </trkpt>
      <trkpt lat="46.57033" lon="4.43638">
        <ele>390.602</ele>
        <time>2020-08-02T08:23:34Z</time>
      </trkpt>
      <trkpt lat="46.57027" lon="4.43642">
        <ele>389.602</ele>
        <time>2020-08-02T08:23:41Z</time>
      </trkpt>
      <trkpt lat="46.57022" lon="4.43648">
        <ele>393.602</ele>
        <time>2020-08-02T08:23:50Z</time>
      </trkpt>
      <trkpt lat="46.57018" lon="4.43661">
        <ele>396.602</ele>
        <time>2020-08-02T08:23:55Z</time>
      </trkpt>
      <trkpt lat="46.57009" lon="4.43677">
        <ele>403.602</ele>
        <time>2020-08-02T08:24:00Z</time>
      </trkpt>
      <trkpt lat="46.57008" lon="4.43687">
        <ele>410.602</ele>
        <time>2020-08-02T08:24:05Z</time>
      </trkpt>
      <trkpt lat="46.57009" lon="4.43696">
        <ele>413.602</ele>
        <time>2020-08-02T08:24:10Z</time>
      </trkpt>
      <trkpt lat="46.57008" lon="4.43706">
        <ele>416.602</ele>
        <time>2020-08-02T08:24:15Z</time>
      </trkpt>
      <trkpt lat="46.57007" lon="4.43718">
        <ele>414.602</ele>
        <time>2020-08-02T08:24:20Z</time>
      </trkpt>
      <trkpt lat="46.57007" lon="4.43728">
        <ele>414.602</ele>
        <time>2020-08-02T08:24:26Z</time>
      </trkpt>
      <trkpt lat="46.57009" lon="4.43738">
        <ele>413.602</ele>
        <time>2020-08-02T08:24:32Z</time>
      </trkpt>
      <trkpt lat="46.57006" lon="4.43748">
        <ele>412.602</ele>
        <time>2020-08-02T08:24:37Z</time>
      </trkpt>
      <trkpt lat="46.57007" lon="4.4376">
        <ele>409.602</ele>
        <time>2020-08-02T08:24:42Z</time>
      </trkpt>
      <trkpt lat="46.57014" lon="4.43771">
        <ele>405.602</ele>
        <time>2020-08-02T08:24:47Z</time>
      </trkpt>
      <trkpt lat="46.57011" lon="4.4378">
        <ele>409.602</ele>
        <time>2020-08-02T08:24:52Z</time>
      </trkpt>
      <trkpt lat="46.57012" lon="4.4379">
        <ele>407.602</ele>
        <time>2020-08-02T08:24:59Z</time>
      </trkpt>
      <trkpt lat="46.57015" lon="4.438">
        <ele>409.602</ele>
        <time>2020-08-02T08:25:04Z</time>
      </trkpt>
      <trkpt lat="46.57016" lon="4.43812">
        <ele>413.602</ele>
        <time>2020-08-02T08:25:09Z</time>
      </trkpt>
      <trkpt lat="46.57019" lon="4.43822">
        <ele>415.602</ele>
        <time>2020-08-02T08:25:15Z</time>
      </trkpt>
      <trkpt lat="46.57023" lon="4.43833">
        <ele>413.602</ele>
        <time>2020-08-02T08:25:20Z</time>
      </trkpt>
      <trkpt lat="46.57027" lon="4.43843">
        <ele>413.602</ele>
        <time>2020-08-02T08:25:25Z</time>
      </trkpt>
      <trkpt lat="46.57037" lon="4.43849">
        <ele>414.602</ele>
        <time>2020-08-02T08:25:30Z</time>
      </trkpt>
      <trkpt lat="46.57046" lon="4.43852">
        <ele>413.602</ele>
        <time>2020-08-02T08:25:35Z</time>
      </trkpt>
      <trkpt lat="46.57053" lon="4.43851">
        <ele>413.603</ele>
        <time>2020-08-02T08:25:40Z</time>
      </trkpt>
      <trkpt lat="46.57061" lon="4.43854">
        <ele>413.603</ele>
        <time>2020-08-02T08:25:46Z</time>
      </trkpt>
      <trkpt lat="46.57068" lon="4.43857">
        <ele>411.603</ele>
        <time>2020-08-02T08:25:54Z</time>
      </trkpt>
      <trkpt lat="46.57077" lon="4.4386">
        <ele>412.603</ele>
        <time>2020-08-02T08:25:59Z</time>
      </trkpt>
      <trkpt lat="46.57086" lon="4.43852">
        <ele>411.603</ele>
        <time>2020-08-02T08:26:04Z</time>
      </trkpt>
      <trkpt lat="46.57099" lon="4.43852">
        <ele>411.603</ele>
        <time>2020-08-02T08:26:09Z</time>
      </trkpt>
      <trkpt lat="46.57106" lon="4.43854">
        <ele>414.603</ele>
        <time>2020-08-02T08:26:18Z</time>
      </trkpt>
      <trkpt lat="46.5711" lon="4.43861">
        <ele>409.603</ele>
        <time>2020-08-02T08:26:32Z</time>
      </trkpt>
      <trkpt lat="46.5712" lon="4.4387">
        <ele>412.603</ele>
        <time>2020-08-02T08:26:37Z</time>
      </trkpt>
      <trkpt lat="46.57132" lon="4.43878">
        <ele>411.603</ele>
        <time>2020-08-02T08:26:42Z</time>
      </trkpt>
      <trkpt lat="46.57141" lon="4.43882">
        <ele>412.603</ele>
        <time>2020-08-02T08:26:47Z</time>
      </trkpt>
      <trkpt lat="46.57148" lon="4.43885">
        <ele>411.603</ele>
        <time>2020-08-02T08:26:52Z</time>
      </trkpt>
      <trkpt lat="46.57156" lon="4.43891">
        <ele>410.603</ele>
        <time>2020-08-02T08:26:57Z</time>
      </trkpt>
      <trkpt lat="46.57164" lon="4.43892">
        <ele>411.603</ele>
        <time>2020-08-02T08:27:02Z</time>
      </trkpt>
      <trkpt lat="46.57172" lon="4.43895">
        <ele>410.603</ele>
        <time>2020-08-02T08:27:07Z</time>
      </trkpt>
      <trkpt lat="46.57179" lon="4.43898">
        <ele>413.603</ele>
        <time>2020-08-02T08:27:14Z</time>
      </trkpt>
      <trkpt lat="46.57186" lon="4.43899">
        <ele>415.603</ele>
        <time>2020-08-02T08:27:19Z</time>
      </trkpt>
      <trkpt lat="46.57196" lon="4.43898">
        <ele>412.603</ele>
        <time>2020-08-02T08:27:24Z</time>
      </trkpt>
      <trkpt lat="46.57202" lon="4.43903">
        <ele>412.603</ele>
        <time>2020-08-02T08:27:29Z</time>
      </trkpt>
      <trkpt lat="46.57209" lon="4.43904">
        <ele>413.603</ele>
        <time>2020-08-02T08:27:35Z</time>
      </trkpt>
      <trkpt lat="46.57217" lon="4.43904">
        <ele>416.603</ele>
        <time>2020-08-02T08:27:41Z</time>
      </trkpt>
      <trkpt lat="46.57228" lon="4.43907">
        <ele>415.603</ele>
        <time>2020-08-02T08:27:46Z</time>
      </trkpt>
      <trkpt lat="46.57239" lon="4.43906">
        <ele>414.603</ele>
        <time>2020-08-02T08:27:51Z</time>
      </trkpt>
      <trkpt lat="46.57245" lon="4.43916">
        <ele>411.603</ele>
        <time>2020-08-02T08:27:56Z</time>
      </trkpt>
      <trkpt lat="46.57253" lon="4.43918">
        <ele>411.603</ele>
        <time>2020-08-02T08:28:01Z</time>
      </trkpt>
      <trkpt lat="46.57261" lon="4.43919">
        <ele>412.603</ele>
        <time>2020-08-02T08:28:06Z</time>
      </trkpt>
      <trkpt lat="46.57268" lon="4.4392">
        <ele>414.603</ele>
        <time>2020-08-02T08:28:12Z</time>
      </trkpt>
      <trkpt lat="46.57275" lon="4.43917">
        <ele>411.603</ele>
        <time>2020-08-02T08:28:19Z</time>
      </trkpt>
      <trkpt lat="46.57281" lon="4.43922">
        <ele>414.603</ele>
        <time>2020-08-02T08:28:25Z</time>
      </trkpt>
      <trkpt lat="46.57289" lon="4.43923">
        <ele>413.603</ele>
        <time>2020-08-02T08:28:30Z</time>
      </trkpt>
      <trkpt lat="46.57297" lon="4.43927">
        <ele>414.603</ele>
        <time>2020-08-02T08:28:35Z</time>
      </trkpt>
      <trkpt lat="46.57304" lon="4.43929">
        <ele>415.603</ele>
        <time>2020-08-02T08:28:41Z</time>
      </trkpt>
      <trkpt lat="46.57313" lon="4.43928">
        <ele>416.603</ele>
        <time>2020-08-02T08:28:46Z</time>
      </trkpt>
      <trkpt lat="46.57319" lon="4.43927">
        <ele>411.603</ele>
        <time>2020-08-02T08:28:51Z</time>
      </trkpt>
      <trkpt lat="46.57327" lon="4.43932">
        <ele>412.603</ele>
        <time>2020-08-02T08:28:56Z</time>
      </trkpt>
      <trkpt lat="46.57336" lon="4.43936">
        <ele>410.603</ele>
        <time>2020-08-02T08:29:01Z</time>
      </trkpt>
      <trkpt lat="46.57343" lon="4.43937">
        <ele>408.603</ele>
        <time>2020-08-02T08:29:06Z</time>
      </trkpt>
      <trkpt lat="46.57351" lon="4.43942">
        <ele>410.603</ele>
        <time>2020-08-02T08:29:11Z</time>
      </trkpt>
      <trkpt lat="46.57358" lon="4.43947">
        <ele>410.603</ele>
        <time>2020-08-02T08:29:17Z</time>
      </trkpt>
      <trkpt lat="46.57365" lon="4.43951">
        <ele>410.603</ele>
        <time>2020-08-02T08:29:22Z</time>
      </trkpt>
      <trkpt lat="46.57372" lon="4.43953">
        <ele>408.603</ele>
        <time>2020-08-02T08:29:28Z</time>
      </trkpt>
      <trkpt lat="46.5738" lon="4.43955">
        <ele>412.603</ele>
        <time>2020-08-02T08:29:33Z</time>
      </trkpt>
      <trkpt lat="46.57388" lon="4.43954">
        <ele>412.604</ele>
        <time>2020-08-02T08:29:39Z</time>
      </trkpt>
      <trkpt lat="46.57398" lon="4.43961">
        <ele>411.604</ele>
        <time>2020-08-02T08:29:44Z</time>
      </trkpt>
      <trkpt lat="46.57405" lon="4.43959">
        <ele>411.604</ele>
        <time>2020-08-02T08:29:50Z</time>
      </trkpt>
      <trkpt lat="46.57412" lon="4.43961">
        <ele>409.604</ele>
        <time>2020-08-02T08:29:55Z</time>
      </trkpt>
      <trkpt lat="46.57419" lon="4.43961">
        <ele>410.604</ele>
        <time>2020-08-02T08:30:00Z</time>
      </trkpt>
      <trkpt lat="46.57426" lon="4.43962">
        <ele>409.604</ele>
        <time>2020-08-02T08:30:05Z</time>
      </trkpt>
      <trkpt lat="46.57433" lon="4.43964">
        <ele>407.604</ele>
        <time>2020-08-02T08:30:10Z</time>
      </trkpt>
      <trkpt lat="46.5744" lon="4.4396">
        <ele>406.604</ele>
        <time>2020-08-02T08:30:16Z</time>
      </trkpt>
      <trkpt lat="46.57448" lon="4.43962">
        <ele>408.604</ele>
        <time>2020-08-02T08:30:21Z</time>
      </trkpt>
      <trkpt lat="46.57455" lon="4.43961">
        <ele>408.604</ele>
        <time>2020-08-02T08:30:26Z</time>
      </trkpt>
      <trkpt lat="46.57462" lon="4.43955">
        <ele>409.604</ele>
        <time>2020-08-02T08:30:31Z</time>
      </trkpt>
      <trkpt lat="46.57471" lon="4.43955">
        <ele>406.604</ele>
        <time>2020-08-02T08:30:36Z</time>
      </trkpt>
      <trkpt lat="46.57477" lon="4.43952">
        <ele>408.604</ele>
        <time>2020-08-02T08:30:41Z</time>
      </trkpt>
      <trkpt lat="46.57485" lon="4.43952">
        <ele>404.604</ele>
        <time>2020-08-02T08:30:46Z</time>
      </trkpt>
      <trkpt lat="46.57494" lon="4.43952">
        <ele>404.604</ele>
        <time>2020-08-02T08:30:51Z</time>
      </trkpt>
      <trkpt lat="46.57502" lon="4.43951">
        <ele>402.604</ele>
        <time>2020-08-02T08:30:56Z</time>
      </trkpt>
      <trkpt lat="46.57508" lon="4.43949">
        <ele>403.604</ele>
        <time>2020-08-02T08:31:01Z</time>
      </trkpt>
      <trkpt lat="46.57515" lon="4.43948">
        <ele>401.604</ele>
        <time>2020-08-02T08:31:06Z</time>
      </trkpt>
      <trkpt lat="46.57522" lon="4.43948">
        <ele>401.604</ele>
        <time>2020-08-02T08:31:11Z</time>
      </trkpt>
      <trkpt lat="46.5753" lon="4.43948">
        <ele>399.604</ele>
        <time>2020-08-02T08:31:17Z</time>
      </trkpt>
      <trkpt lat="46.57539" lon="4.43946">
        <ele>399.604</ele>
        <time>2020-08-02T08:31:22Z</time>
      </trkpt>
      <trkpt lat="46.57548" lon="4.43949">
        <ele>399.604</ele>
        <time>2020-08-02T08:31:27Z</time>
      </trkpt>
      <trkpt lat="46.57553" lon="4.43954">
        <ele>400.604</ele>
        <time>2020-08-02T08:31:33Z</time>
      </trkpt>
      <trkpt lat="46.5756" lon="4.43955">
        <ele>401.604</ele>
        <time>2020-08-02T08:31:39Z</time>
      </trkpt>
      <trkpt lat="46.57568" lon="4.43957">
        <ele>399.604</ele>
        <time>2020-08-02T08:31:44Z</time>
      </trkpt>
      <trkpt lat="46.57575" lon="4.43959">
        <ele>397.604</ele>
        <time>2020-08-02T08:31:49Z</time>
      </trkpt>
      <trkpt lat="46.57581" lon="4.43964">
        <ele>397.604</ele>
        <time>2020-08-02T08:31:54Z</time>
      </trkpt>
      <trkpt lat="46.57589" lon="4.4397">
        <ele>399.604</ele>
        <time>2020-08-02T08:31:59Z</time>
      </trkpt>
      <trkpt lat="46.57598" lon="4.43969">
        <ele>398.604</ele>
        <time>2020-08-02T08:32:04Z</time>
      </trkpt>
      <trkpt lat="46.57606" lon="4.43969">
        <ele>397.604</ele>
        <time>2020-08-02T08:32:09Z</time>
      </trkpt>
      <trkpt lat="46.57612" lon="4.43971">
        <ele>394.604</ele>
        <time>2020-08-02T08:32:15Z</time>
      </trkpt>
      <trkpt lat="46.57618" lon="4.43973">
        <ele>395.604</ele>
        <time>2020-08-02T08:32:20Z</time>
      </trkpt>
      <trkpt lat="46.57625" lon="4.43971">
        <ele>391.604</ele>
        <time>2020-08-02T08:32:27Z</time>
      </trkpt>
      <trkpt lat="46.57633" lon="4.4397">
        <ele>390.604</ele>
        <time>2020-08-02T08:32:34Z</time>
      </trkpt>
      <trkpt lat="46.5764" lon="4.43969">
        <ele>391.604</ele>
        <time>2020-08-02T08:32:39Z</time>
      </trkpt>
      <trkpt lat="46.57647" lon="4.43972">
        <ele>386.604</ele>
        <time>2020-08-02T08:32:44Z</time>
      </trkpt>
      <trkpt lat="46.57653" lon="4.43975">
        <ele>384.604</ele>
        <time>2020-08-02T08:32:50Z</time>
      </trkpt>
      <trkpt lat="46.57662" lon="4.43977">
        <ele>386.604</ele>
        <time>2020-08-02T08:32:55Z</time>
      </trkpt>
      <trkpt lat="46.57669" lon="4.4398">
        <ele>388.604</ele>
        <time>2020-08-02T08:33:00Z</time>
      </trkpt>
      <trkpt lat="46.57672" lon="4.4399">
        <ele>390.604</ele>
        <time>2020-08-02T08:33:05Z</time>
      </trkpt>
      <trkpt lat="46.57678" lon="4.43997">
        <ele>386.604</ele>
        <time>2020-08-02T08:33:13Z</time>
      </trkpt>
      <trkpt lat="46.5768" lon="4.44006">
        <ele>385.604</ele>
        <time>2020-08-02T08:33:19Z</time>
      </trkpt>
      <trkpt lat="46.57686" lon="4.44012">
        <ele>383.604</ele>
        <time>2020-08-02T08:33:24Z</time>
      </trkpt>
      <trkpt lat="46.57691" lon="4.44021">
        <ele>382.604</ele>
        <time>2020-08-02T08:33:29Z</time>
      </trkpt>
      <trkpt lat="46.57697" lon="4.44027">
        <ele>382.604</ele>
        <time>2020-08-02T08:33:34Z</time>
      </trkpt>
      <trkpt lat="46.57702" lon="4.44035">
        <ele>379.604</ele>
        <time>2020-08-02T08:33:41Z</time>
      </trkpt>
      <trkpt lat="46.57706" lon="4.44049">
        <ele>381.604</ele>
        <time>2020-08-02T08:33:49Z</time>
      </trkpt>
      <trkpt lat="46.57711" lon="4.44058">
        <ele>384.604</ele>
        <time>2020-08-02T08:33:54Z</time>
      </trkpt>
      <trkpt lat="46.57715" lon="4.44068">
        <ele>386.604</ele>
        <time>2020-08-02T08:33:59Z</time>
      </trkpt>
      <trkpt lat="46.57718" lon="4.44077">
        <ele>383.605</ele>
        <time>2020-08-02T08:34:06Z</time>
      </trkpt>
      <trkpt lat="46.57722" lon="4.44088">
        <ele>381.605</ele>
        <time>2020-08-02T08:34:11Z</time>
      </trkpt>
      <trkpt lat="46.57728" lon="4.44101">
        <ele>385.605</ele>
        <time>2020-08-02T08:34:16Z</time>
      </trkpt>
      <trkpt lat="46.57734" lon="4.44107">
        <ele>384.605</ele>
        <time>2020-08-02T08:34:21Z</time>
      </trkpt>
      <trkpt lat="46.57735" lon="4.44117">
        <ele>386.605</ele>
        <time>2020-08-02T08:34:27Z</time>
      </trkpt>
      <trkpt lat="46.5774" lon="4.44126">
        <ele>382.605</ele>
        <time>2020-08-02T08:34:32Z</time>
      </trkpt>
      <trkpt lat="46.57745" lon="4.44139">
        <ele>388.605</ele>
        <time>2020-08-02T08:34:37Z</time>
      </trkpt>
      <trkpt lat="46.5775" lon="4.44147">
        <ele>387.605</ele>
        <time>2020-08-02T08:34:42Z</time>
      </trkpt>
      <trkpt lat="46.57754" lon="4.44155">
        <ele>384.605</ele>
        <time>2020-08-02T08:34:47Z</time>
      </trkpt>
      <trkpt lat="46.57756" lon="4.44164">
        <ele>386.605</ele>
        <time>2020-08-02T08:34:54Z</time>
      </trkpt>
      <trkpt lat="46.5776" lon="4.44173">
        <ele>387.605</ele>
        <time>2020-08-02T08:34:59Z</time>
      </trkpt>
      <trkpt lat="46.57765" lon="4.44183">
        <ele>386.605</ele>
        <time>2020-08-02T08:35:04Z</time>
      </trkpt>
      <trkpt lat="46.57769" lon="4.44192">
        <ele>383.605</ele>
        <time>2020-08-02T08:35:10Z</time>
      </trkpt>
      <trkpt lat="46.57772" lon="4.44202">
        <ele>381.605</ele>
        <time>2020-08-02T08:35:17Z</time>
      </trkpt>
      <trkpt lat="46.57775" lon="4.44212">
        <ele>382.605</ele>
        <time>2020-08-02T08:35:22Z</time>
      </trkpt>
      <trkpt lat="46.57777" lon="4.44223">
        <ele>379.605</ele>
        <time>2020-08-02T08:35:27Z</time>
      </trkpt>
      <trkpt lat="46.57782" lon="4.44237">
        <ele>379.605</ele>
        <time>2020-08-02T08:35:32Z</time>
      </trkpt>
      <trkpt lat="46.57783" lon="4.44248">
        <ele>379.605</ele>
        <time>2020-08-02T08:35:37Z</time>
      </trkpt>
      <trkpt lat="46.57786" lon="4.44257">
        <ele>383.605</ele>
        <time>2020-08-02T08:35:44Z</time>
      </trkpt>
      <trkpt lat="46.57791" lon="4.44266">
        <ele>381.605</ele>
        <time>2020-08-02T08:35:49Z</time>
      </trkpt>
      <trkpt lat="46.57797" lon="4.44273">
        <ele>378.605</ele>
        <time>2020-08-02T08:35:54Z</time>
      </trkpt>
      <trkpt lat="46.57803" lon="4.44284">
        <ele>380.605</ele>
        <time>2020-08-02T08:35:59Z</time>
      </trkpt>
      <trkpt lat="46.57807" lon="4.44294">
        <ele>382.605</ele>
        <time>2020-08-02T08:36:04Z</time>
      </trkpt>
      <trkpt lat="46.57808" lon="4.44309">
        <ele>385.605</ele>
        <time>2020-08-02T08:36:09Z</time>
      </trkpt>
      <trkpt lat="46.57813" lon="4.44318">
        <ele>385.605</ele>
        <time>2020-08-02T08:36:16Z</time>
      </trkpt>
      <trkpt lat="46.57817" lon="4.4433">
        <ele>386.605</ele>
        <time>2020-08-02T08:36:21Z</time>
      </trkpt>
      <trkpt lat="46.57824" lon="4.44338">
        <ele>386.605</ele>
        <time>2020-08-02T08:36:26Z</time>
      </trkpt>
      <trkpt lat="46.57824" lon="4.44348">
        <ele>383.605</ele>
        <time>2020-08-02T08:36:31Z</time>
      </trkpt>
      <trkpt lat="46.57827" lon="4.44359">
        <ele>380.605</ele>
        <time>2020-08-02T08:36:39Z</time>
      </trkpt>
      <trkpt lat="46.57828" lon="4.44369">
        <ele>380.605</ele>
        <time>2020-08-02T08:36:44Z</time>
      </trkpt>
      <trkpt lat="46.57828" lon="4.44379">
        <ele>380.605</ele>
        <time>2020-08-02T08:36:49Z</time>
      </trkpt>
      <trkpt lat="46.57827" lon="4.44393">
        <ele>382.605</ele>
        <time>2020-08-02T08:36:54Z</time>
      </trkpt>
      <trkpt lat="46.57829" lon="4.44403">
        <ele>382.605</ele>
        <time>2020-08-02T08:36:59Z</time>
      </trkpt>
      <trkpt lat="46.57831" lon="4.44413">
        <ele>383.605</ele>
        <time>2020-08-02T08:37:06Z</time>
      </trkpt>
      <trkpt lat="46.57836" lon="4.4442">
        <ele>382.605</ele>
        <time>2020-08-02T08:37:12Z</time>
      </trkpt>
      <trkpt lat="46.57842" lon="4.44424">
        <ele>385.605</ele>
        <time>2020-08-02T08:37:20Z</time>
      </trkpt>
      <trkpt lat="46.57848" lon="4.44429">
        <ele>384.605</ele>
        <time>2020-08-02T08:42:01Z</time>
      </trkpt>
      <trkpt lat="46.57848" lon="4.4444">
        <ele>388.605</ele>
        <time>2020-08-02T08:42:07Z</time>
      </trkpt>
      <trkpt lat="46.57851" lon="4.44448">
        <ele>389.605</ele>
        <time>2020-08-02T08:42:13Z</time>
      </trkpt>
      <trkpt lat="46.57856" lon="4.44455">
        <ele>386.605</ele>
        <time>2020-08-02T08:42:21Z</time>
      </trkpt>
      <trkpt lat="46.57861" lon="4.44465">
        <ele>379.605</ele>
        <time>2020-08-02T08:42:26Z</time>
      </trkpt>
      <trkpt lat="46.57864" lon="4.44476">
        <ele>381.605</ele>
        <time>2020-08-02T08:42:31Z</time>
      </trkpt>
      <trkpt lat="46.57867" lon="4.44487">
        <ele>383.605</ele>
        <time>2020-08-02T08:42:37Z</time>
      </trkpt>
      <trkpt lat="46.57867" lon="4.44498">
        <ele>381.605</ele>
        <time>2020-08-02T08:42:45Z</time>
      </trkpt>
      <trkpt lat="46.57869" lon="4.44508">
        <ele>380.605</ele>
        <time>2020-08-02T08:42:50Z</time>
      </trkpt>
      <trkpt lat="46.57867" lon="4.44519">
        <ele>379.605</ele>
        <time>2020-08-02T08:42:55Z</time>
      </trkpt>
      <trkpt lat="46.57867" lon="4.4453">
        <ele>379.605</ele>
        <time>2020-08-02T08:43:00Z</time>
      </trkpt>
      <trkpt lat="46.57864" lon="4.44541">
        <ele>381.605</ele>
        <time>2020-08-02T08:43:05Z</time>
      </trkpt>
      <trkpt lat="46.57866" lon="4.4455">
        <ele>381.605</ele>
        <time>2020-08-02T08:43:12Z</time>
      </trkpt>
      <trkpt lat="46.57867" lon="4.4456">
        <ele>380.605</ele>
        <time>2020-08-02T08:43:18Z</time>
      </trkpt>
      <trkpt lat="46.57871" lon="4.44572">
        <ele>378.605</ele>
        <time>2020-08-02T08:43:23Z</time>
      </trkpt>
      <trkpt lat="46.5787" lon="4.44581">
        <ele>374.605</ele>
        <time>2020-08-02T08:43:30Z</time>
      </trkpt>
      <trkpt lat="46.57874" lon="4.44588">
        <ele>374.605</ele>
        <time>2020-08-02T08:43:35Z</time>
      </trkpt>
      <trkpt lat="46.57878" lon="4.44597">
        <ele>375.605</ele>
        <time>2020-08-02T08:43:40Z</time>
      </trkpt>
      <trkpt lat="46.57878" lon="4.44607">
        <ele>375.605</ele>
        <time>2020-08-02T08:43:46Z</time>
      </trkpt>
      <trkpt lat="46.57876" lon="4.44617">
        <ele>375.605</ele>
        <time>2020-08-02T08:43:52Z</time>
      </trkpt>
      <trkpt lat="46.57881" lon="4.44627">
        <ele>376.605</ele>
        <time>2020-08-02T08:43:59Z</time>
      </trkpt>
      <trkpt lat="46.5788" lon="4.44637">
        <ele>376.605</ele>
        <time>2020-08-02T08:44:04Z</time>
      </trkpt>
      <trkpt lat="46.57881" lon="4.44647">
        <ele>378.605</ele>
        <time>2020-08-02T08:44:09Z</time>
      </trkpt>
      <trkpt lat="46.57882" lon="4.4466">
        <ele>380.605</ele>
        <time>2020-08-02T08:44:14Z</time>
      </trkpt>
      <trkpt lat="46.57883" lon="4.44673">
        <ele>381.605</ele>
        <time>2020-08-02T08:44:19Z</time>
      </trkpt>
      <trkpt lat="46.57885" lon="4.44682">
        <ele>382.605</ele>
        <time>2020-08-02T08:44:26Z</time>
      </trkpt>
      <trkpt lat="46.57886" lon="4.44693">
        <ele>385.605</ele>
        <time>2020-08-02T08:44:32Z</time>
      </trkpt>
      <trkpt lat="46.5789" lon="4.44701">
        <ele>382.605</ele>
        <time>2020-08-02T08:44:39Z</time>
      </trkpt>
      <trkpt lat="46.57893" lon="4.4471">
        <ele>384.605</ele>
        <time>2020-08-02T08:44:44Z</time>
      </trkpt>
      <trkpt lat="46.57894" lon="4.44722">
        <ele>382.605</ele>
        <time>2020-08-02T08:44:49Z</time>
      </trkpt>
      <trkpt lat="46.57895" lon="4.44731">
        <ele>381.605</ele>
        <time>2020-08-02T08:44:54Z</time>
      </trkpt>
      <trkpt lat="46.57898" lon="4.44742">
        <ele>383.605</ele>
        <time>2020-08-02T08:44:59Z</time>
      </trkpt>
      <trkpt lat="46.57903" lon="4.4475">
        <ele>382.606</ele>
        <time>2020-08-02T08:45:04Z</time>
      </trkpt>
      <trkpt lat="46.57902" lon="4.44762">
        <ele>378.606</ele>
        <time>2020-08-02T08:45:12Z</time>
      </trkpt>
      <trkpt lat="46.57905" lon="4.44772">
        <ele>381.606</ele>
        <time>2020-08-02T08:45:17Z</time>
      </trkpt>
      <trkpt lat="46.57905" lon="4.44782">
        <ele>383.606</ele>
        <time>2020-08-02T08:45:22Z</time>
      </trkpt>
      <trkpt lat="46.57908" lon="4.44794">
        <ele>385.606</ele>
        <time>2020-08-02T08:45:27Z</time>
      </trkpt>
      <trkpt lat="46.5791" lon="4.44808">
        <ele>385.606</ele>
        <time>2020-08-02T08:45:32Z</time>
      </trkpt>
      <trkpt lat="46.57913" lon="4.4482">
        <ele>380.606</ele>
        <time>2020-08-02T08:45:37Z</time>
      </trkpt>
      <trkpt lat="46.5792" lon="4.44832">
        <ele>374.606</ele>
        <time>2020-08-02T08:45:42Z</time>
      </trkpt>
      <trkpt lat="46.57924" lon="4.44839">
        <ele>368.606</ele>
        <time>2020-08-02T08:45:51Z</time>
      </trkpt>
      <trkpt lat="46.57928" lon="4.44848">
        <ele>365.606</ele>
        <time>2020-08-02T08:45:57Z</time>
      </trkpt>
      <trkpt lat="46.57931" lon="4.44858">
        <ele>370.606</ele>
        <time>2020-08-02T08:46:03Z</time>
      </trkpt>
      <trkpt lat="46.57933" lon="4.44867">
        <ele>369.606</ele>
        <time>2020-08-02T08:46:08Z</time>
      </trkpt>
      <trkpt lat="46.57937" lon="4.44878">
        <ele>372.606</ele>
        <time>2020-08-02T08:46:16Z</time>
      </trkpt>
      <trkpt lat="46.5794" lon="4.44888">
        <ele>373.606</ele>
        <time>2020-08-02T08:46:23Z</time>
      </trkpt>
      <trkpt lat="46.57942" lon="4.44899">
        <ele>375.606</ele>
        <time>2020-08-02T08:46:28Z</time>
      </trkpt>
      <trkpt lat="46.57942" lon="4.4491">
        <ele>372.606</ele>
        <time>2020-08-02T08:46:35Z</time>
      </trkpt>
      <trkpt lat="46.57941" lon="4.4492">
        <ele>375.606</ele>
        <time>2020-08-02T08:46:40Z</time>
      </trkpt>
      <trkpt lat="46.57945" lon="4.4493">
        <ele>371.606</ele>
        <time>2020-08-02T08:46:48Z</time>
      </trkpt>
      <trkpt lat="46.57946" lon="4.44943">
        <ele>371.606</ele>
        <time>2020-08-02T08:46:53Z</time>
      </trkpt>
      <trkpt lat="46.57947" lon="4.44953">
        <ele>375.606</ele>
        <time>2020-08-02T08:46:58Z</time>
      </trkpt>
      <trkpt lat="46.57954" lon="4.44962">
        <ele>376.606</ele>
        <time>2020-08-02T08:47:03Z</time>
      </trkpt>
      <trkpt lat="46.57953" lon="4.44971">
        <ele>375.606</ele>
        <time>2020-08-02T08:47:09Z</time>
      </trkpt>
      <trkpt lat="46.57954" lon="4.44981">
        <ele>377.606</ele>
        <time>2020-08-02T08:47:26Z</time>
      </trkpt>
      <trkpt lat="46.57952" lon="4.44991">
        <ele>375.606</ele>
        <time>2020-08-02T08:47:35Z</time>
      </trkpt>
      <trkpt lat="46.57948" lon="4.45">
        <ele>378.606</ele>
        <time>2020-08-02T08:47:40Z</time>
      </trkpt>
      <trkpt lat="46.5794" lon="4.45007">
        <ele>377.606</ele>
        <time>2020-08-02T08:47:45Z</time>
      </trkpt>
      <trkpt lat="46.57933" lon="4.45006">
        <ele>375.606</ele>
        <time>2020-08-02T08:48:02Z</time>
      </trkpt>
      <trkpt lat="46.57935" lon="4.44996">
        <ele>377.606</ele>
        <time>2020-08-02T08:48:08Z</time>
      </trkpt>
      <trkpt lat="46.5793" lon="4.44988">
        <ele>378.606</ele>
        <time>2020-08-02T08:48:14Z</time>
      </trkpt>
      <trkpt lat="46.5793" lon="4.44978">
        <ele>380.606</ele>
        <time>2020-08-02T08:48:25Z</time>
      </trkpt>
      <trkpt lat="46.57931" lon="4.44989">
        <ele>371.606</ele>
        <time>2020-08-02T08:50:18Z</time>
      </trkpt>
      <trkpt lat="46.57935" lon="4.44997">
        <ele>374.606</ele>
        <time>2020-08-02T08:50:23Z</time>
      </trkpt>
      <trkpt lat="46.57938" lon="4.45007">
        <ele>376.606</ele>
        <time>2020-08-02T08:50:28Z</time>
      </trkpt>
      <trkpt lat="46.57936" lon="4.45018">
        <ele>377.606</ele>
        <time>2020-08-02T08:50:33Z</time>
      </trkpt>
      <trkpt lat="46.57933" lon="4.45027">
        <ele>375.606</ele>
        <time>2020-08-02T08:50:39Z</time>
      </trkpt>
      <trkpt lat="46.57933" lon="4.4504">
        <ele>376.606</ele>
        <time>2020-08-02T08:50:44Z</time>
      </trkpt>
      <trkpt lat="46.57938" lon="4.45047">
        <ele>379.606</ele>
        <time>2020-08-02T08:50:58Z</time>
      </trkpt>
      <trkpt lat="46.57934" lon="4.45058">
        <ele>379.606</ele>
        <time>2020-08-02T08:52:41Z</time>
      </trkpt>
      <trkpt lat="46.57934" lon="4.45068">
        <ele>376.606</ele>
        <time>2020-08-02T08:53:06Z</time>
      </trkpt>
      <trkpt lat="46.57931" lon="4.45077">
        <ele>376.606</ele>
        <time>2020-08-02T08:53:15Z</time>
      </trkpt>
      <trkpt lat="46.57925" lon="4.45076">
        <ele>375.606</ele>
        <time>2020-08-02T08:53:34Z</time>
      </trkpt>
      <trkpt lat="46.5792" lon="4.45082">
        <ele>379.606</ele>
        <time>2020-08-02T08:53:44Z</time>
      </trkpt>
      <trkpt lat="46.57916" lon="4.45092">
        <ele>377.606</ele>
        <time>2020-08-02T08:53:50Z</time>
      </trkpt>
      <trkpt lat="46.5791" lon="4.45098">
        <ele>375.606</ele>
        <time>2020-08-02T08:53:56Z</time>
      </trkpt>
      <trkpt lat="46.57907" lon="4.45108">
        <ele>377.606</ele>
        <time>2020-08-02T08:54:03Z</time>
      </trkpt>
      <trkpt lat="46.57903" lon="4.45116">
        <ele>378.606</ele>
        <time>2020-08-02T08:54:08Z</time>
      </trkpt>
      <trkpt lat="46.57898" lon="4.45126">
        <ele>382.606</ele>
        <time>2020-08-02T08:54:14Z</time>
      </trkpt>
      <trkpt lat="46.57899" lon="4.45138">
        <ele>384.606</ele>
        <time>2020-08-02T08:54:22Z</time>
      </trkpt>
      <trkpt lat="46.579" lon="4.45149">
        <ele>386.606</ele>
        <time>2020-08-02T08:54:27Z</time>
      </trkpt>
      <trkpt lat="46.57902" lon="4.45161">
        <ele>382.606</ele>
        <time>2020-08-02T08:54:33Z</time>
      </trkpt>
      <trkpt lat="46.57902" lon="4.45172">
        <ele>379.606</ele>
        <time>2020-08-02T08:54:38Z</time>
      </trkpt>
      <trkpt lat="46.57909" lon="4.45184">
        <ele>379.606</ele>
        <time>2020-08-02T08:54:43Z</time>
      </trkpt>
      <trkpt lat="46.57915" lon="4.45188">
        <ele>379.606</ele>
        <time>2020-08-02T08:54:49Z</time>
      </trkpt>
      <trkpt lat="46.5792" lon="4.45196">
        <ele>381.606</ele>
        <time>2020-08-02T08:54:54Z</time>
      </trkpt>
      <trkpt lat="46.57922" lon="4.45205">
        <ele>385.606</ele>
        <time>2020-08-02T08:55:00Z</time>
      </trkpt>
      <trkpt lat="46.57926" lon="4.45221">
        <ele>384.606</ele>
        <time>2020-08-02T08:55:05Z</time>
      </trkpt>
      <trkpt lat="46.57933" lon="4.45228">
        <ele>379.606</ele>
        <time>2020-08-02T08:55:14Z</time>
      </trkpt>
      <trkpt lat="46.57938" lon="4.45235">
        <ele>380.606</ele>
        <time>2020-08-02T08:55:19Z</time>
      </trkpt>
      <trkpt lat="46.57943" lon="4.45242">
        <ele>380.606</ele>
        <time>2020-08-02T08:55:24Z</time>
      </trkpt>
      <trkpt lat="46.57948" lon="4.4525">
        <ele>382.606</ele>
        <time>2020-08-02T08:55:29Z</time>
      </trkpt>
      <trkpt lat="46.57949" lon="4.45257">
        <ele>377.606</ele>
        <time>2020-08-02T08:55:43Z</time>
      </trkpt>
      <trkpt lat="46.57946" lon="4.45266">
        <ele>377.606</ele>
        <time>2020-08-02T08:55:49Z</time>
      </trkpt>
      <trkpt lat="46.57947" lon="4.45276">
        <ele>376.606</ele>
        <time>2020-08-02T08:55:54Z</time>
      </trkpt>
      <trkpt lat="46.57947" lon="4.45287">
        <ele>375.606</ele>
        <time>2020-08-02T08:56:01Z</time>
      </trkpt>
      <trkpt lat="46.57946" lon="4.45298">
        <ele>372.606</ele>
        <time>2020-08-02T08:56:09Z</time>
      </trkpt>
      <trkpt lat="46.57948" lon="4.45308">
        <ele>370.606</ele>
        <time>2020-08-02T08:56:16Z</time>
      </trkpt>
      <trkpt lat="46.57948" lon="4.4532">
        <ele>371.606</ele>
        <time>2020-08-02T08:56:21Z</time>
      </trkpt>
      <trkpt lat="46.57951" lon="4.45334">
        <ele>375.606</ele>
        <time>2020-08-02T08:56:26Z</time>
      </trkpt>
      <trkpt lat="46.57945" lon="4.45343">
        <ele>376.606</ele>
        <time>2020-08-02T08:56:31Z</time>
      </trkpt>
      <trkpt lat="46.57941" lon="4.45356">
        <ele>378.606</ele>
        <time>2020-08-02T08:56:36Z</time>
      </trkpt>
      <trkpt lat="46.5794" lon="4.45367">
        <ele>377.606</ele>
        <time>2020-08-02T08:56:41Z</time>
      </trkpt>
      <trkpt lat="46.57944" lon="4.45377">
        <ele>381.606</ele>
        <time>2020-08-02T08:56:47Z</time>
      </trkpt>
      <trkpt lat="46.57945" lon="4.45388">
        <ele>383.606</ele>
        <time>2020-08-02T08:56:54Z</time>
      </trkpt>
      <trkpt lat="46.57946" lon="4.45398">
        <ele>382.606</ele>
        <time>2020-08-02T08:56:59Z</time>
      </trkpt>
      <trkpt lat="46.57944" lon="4.4541">
        <ele>383.606</ele>
        <time>2020-08-02T08:57:04Z</time>
      </trkpt>
      <trkpt lat="46.57943" lon="4.45422">
        <ele>383.606</ele>
        <time>2020-08-02T08:57:11Z</time>
      </trkpt>
      <trkpt lat="46.57945" lon="4.45431">
        <ele>380.606</ele>
        <time>2020-08-02T08:57:17Z</time>
      </trkpt>
      <trkpt lat="46.57943" lon="4.45441">
        <ele>385.606</ele>
        <time>2020-08-02T08:57:23Z</time>
      </trkpt>
      <trkpt lat="46.57944" lon="4.45453">
        <ele>386.606</ele>
        <time>2020-08-02T08:57:28Z</time>
      </trkpt>
      <trkpt lat="46.57944" lon="4.45464">
        <ele>386.606</ele>
        <time>2020-08-02T08:57:33Z</time>
      </trkpt>
      <trkpt lat="46.57943" lon="4.45474">
        <ele>387.606</ele>
        <time>2020-08-02T08:57:38Z</time>
      </trkpt>
      <trkpt lat="46.57946" lon="4.45487">
        <ele>389.606</ele>
        <time>2020-08-02T08:57:43Z</time>
      </trkpt>
      <trkpt lat="46.57945" lon="4.45501">
        <ele>391.606</ele>
        <time>2020-08-02T08:57:48Z</time>
      </trkpt>
      <trkpt lat="46.57946" lon="4.45512">
        <ele>388.606</ele>
        <time>2020-08-02T08:57:53Z</time>
      </trkpt>
      <trkpt lat="46.57946" lon="4.45522">
        <ele>386.606</ele>
        <time>2020-08-02T08:57:59Z</time>
      </trkpt>
      <trkpt lat="46.57948" lon="4.45531">
        <ele>388.606</ele>
        <time>2020-08-02T08:58:04Z</time>
      </trkpt>
      <trkpt lat="46.57948" lon="4.45543">
        <ele>385.606</ele>
        <time>2020-08-02T08:58:12Z</time>
      </trkpt>
      <trkpt lat="46.57948" lon="4.45553">
        <ele>384.606</ele>
        <time>2020-08-02T08:58:17Z</time>
      </trkpt>
      <trkpt lat="46.57947" lon="4.45565">
        <ele>385.606</ele>
        <time>2020-08-02T08:58:22Z</time>
      </trkpt>
      <trkpt lat="46.5795" lon="4.45575">
        <ele>383.606</ele>
        <time>2020-08-02T08:58:27Z</time>
      </trkpt>
      <trkpt lat="46.57951" lon="4.45587">
        <ele>386.606</ele>
        <time>2020-08-02T08:58:32Z</time>
      </trkpt>
      <trkpt lat="46.5795" lon="4.45598">
        <ele>384.606</ele>
        <time>2020-08-02T08:58:40Z</time>
      </trkpt>
      <trkpt lat="46.57948" lon="4.4561">
        <ele>384.606</ele>
        <time>2020-08-02T08:58:45Z</time>
      </trkpt>
      <trkpt lat="46.57947" lon="4.45621">
        <ele>380.606</ele>
        <time>2020-08-02T08:58:51Z</time>
      </trkpt>
      <trkpt lat="46.5795" lon="4.4563">
        <ele>381.606</ele>
        <time>2020-08-02T08:58:59Z</time>
      </trkpt>
      <trkpt lat="46.57947" lon="4.45642">
        <ele>379.606</ele>
        <time>2020-08-02T08:59:04Z</time>
      </trkpt>
      <trkpt lat="46.57949" lon="4.4565">
        <ele>376.606</ele>
        <time>2020-08-02T08:59:10Z</time>
      </trkpt>
      <trkpt lat="46.57952" lon="4.45659">
        <ele>374.606</ele>
        <time>2020-08-02T08:59:15Z</time>
      </trkpt>
      <trkpt lat="46.5795" lon="4.45674">
        <ele>377.606</ele>
        <time>2020-08-02T08:59:20Z</time>
      </trkpt>
      <trkpt lat="46.57953" lon="4.45685">
        <ele>379.606</ele>
        <time>2020-08-02T08:59:28Z</time>
      </trkpt>
      <trkpt lat="46.57955" lon="4.45696">
        <ele>376.606</ele>
        <time>2020-08-02T08:59:34Z</time>
      </trkpt>
      <trkpt lat="46.57953" lon="4.45706">
        <ele>370.606</ele>
        <time>2020-08-02T08:59:39Z</time>
      </trkpt>
      <trkpt lat="46.57954" lon="4.45715">
        <ele>373.606</ele>
        <time>2020-08-02T08:59:44Z</time>
      </trkpt>
      <trkpt lat="46.57956" lon="4.45724">
        <ele>371.606</ele>
        <time>2020-08-02T08:59:49Z</time>
      </trkpt>
      <trkpt lat="46.57957" lon="4.45734">
        <ele>371.606</ele>
        <time>2020-08-02T08:59:54Z</time>
      </trkpt>
      <trkpt lat="46.57955" lon="4.45747">
        <ele>375.606</ele>
        <time>2020-08-02T08:59:59Z</time>
      </trkpt>
      <trkpt lat="46.57955" lon="4.4576">
        <ele>377.606</ele>
        <time>2020-08-02T09:00:04Z</time>
      </trkpt>
      <trkpt lat="46.57951" lon="4.45773">
        <ele>383.606</ele>
        <time>2020-08-02T09:00:09Z</time>
      </trkpt>
      <trkpt lat="46.57951" lon="4.45782">
        <ele>382.606</ele>
        <time>2020-08-02T09:00:16Z</time>
      </trkpt>
      <trkpt lat="46.57942" lon="4.45783">
        <ele>376.606</ele>
        <time>2020-08-02T09:00:40Z</time>
      </trkpt>
      <trkpt lat="46.57933" lon="4.45786">
        <ele>377.606</ele>
        <time>2020-08-02T09:00:45Z</time>
      </trkpt>
      <trkpt lat="46.57928" lon="4.4579">
        <ele>378.606</ele>
        <time>2020-08-02T09:00:52Z</time>
      </trkpt>
      <trkpt lat="46.5792" lon="4.45787">
        <ele>376.606</ele>
        <time>2020-08-02T09:00:57Z</time>
      </trkpt>
      <trkpt lat="46.57913" lon="4.45791">
        <ele>374.606</ele>
        <time>2020-08-02T09:01:05Z</time>
      </trkpt>
      <trkpt lat="46.57906" lon="4.45793">
        <ele>375.606</ele>
        <time>2020-08-02T09:01:10Z</time>
      </trkpt>
      <trkpt lat="46.57897" lon="4.45793">
        <ele>375.606</ele>
        <time>2020-08-02T09:01:15Z</time>
      </trkpt>
      <trkpt lat="46.5789" lon="4.45797">
        <ele>378.606</ele>
        <time>2020-08-02T09:01:24Z</time>
      </trkpt>
      <trkpt lat="46.57882" lon="4.45796">
        <ele>380.606</ele>
        <time>2020-08-02T09:01:29Z</time>
      </trkpt>
      <trkpt lat="46.57875" lon="4.458">
        <ele>381.606</ele>
        <time>2020-08-02T09:01:34Z</time>
      </trkpt>
      <trkpt lat="46.57868" lon="4.45797">
        <ele>383.606</ele>
        <time>2020-08-02T09:01:42Z</time>
      </trkpt>
      <trkpt lat="46.57862" lon="4.45793">
        <ele>385.606</ele>
        <time>2020-08-02T09:01:48Z</time>
      </trkpt>
      <trkpt lat="46.57853" lon="4.45793">
        <ele>385.606</ele>
        <time>2020-08-02T09:01:56Z</time>
      </trkpt>
      <trkpt lat="46.57848" lon="4.45804">
        <ele>384.606</ele>
        <time>2020-08-02T09:02:04Z</time>
      </trkpt>
      <trkpt lat="46.57844" lon="4.45814">
        <ele>385.606</ele>
        <time>2020-08-02T09:02:10Z</time>
      </trkpt>
      <trkpt lat="46.57841" lon="4.45822">
        <ele>384.606</ele>
        <time>2020-08-02T09:02:20Z</time>
      </trkpt>
      <trkpt lat="46.57837" lon="4.45831">
        <ele>388.606</ele>
        <time>2020-08-02T09:02:27Z</time>
      </trkpt>
      <trkpt lat="46.57832" lon="4.4584">
        <ele>386.606</ele>
        <time>2020-08-02T09:02:33Z</time>
      </trkpt>
      <trkpt lat="46.57834" lon="4.45852">
        <ele>385.606</ele>
        <time>2020-08-02T09:02:43Z</time>
      </trkpt>
      <trkpt lat="46.57837" lon="4.45862">
        <ele>388.606</ele>
        <time>2020-08-02T09:02:50Z</time>
      </trkpt>
      <trkpt lat="46.57839" lon="4.45873">
        <ele>389.606</ele>
        <time>2020-08-02T09:02:55Z</time>
      </trkpt>
      <trkpt lat="46.57843" lon="4.45881">
        <ele>391.606</ele>
        <time>2020-08-02T09:03:01Z</time>
      </trkpt>
      <trkpt lat="46.57846" lon="4.45892">
        <ele>390.606</ele>
        <time>2020-08-02T09:03:08Z</time>
      </trkpt>
      <trkpt lat="46.57851" lon="4.45905">
        <ele>390.606</ele>
        <time>2020-08-02T09:03:16Z</time>
      </trkpt>
      <trkpt lat="46.57853" lon="4.45914">
        <ele>392.606</ele>
        <time>2020-08-02T09:03:23Z</time>
      </trkpt>
      <trkpt lat="46.57852" lon="4.45925">
        <ele>388.606</ele>
        <time>2020-08-02T09:03:28Z</time>
      </trkpt>
      <trkpt lat="46.57857" lon="4.45934">
        <ele>387.606</ele>
        <time>2020-08-02T09:03:34Z</time>
      </trkpt>
      <trkpt lat="46.57859" lon="4.45945">
        <ele>387.606</ele>
        <time>2020-08-02T09:03:39Z</time>
      </trkpt>
      <trkpt lat="46.57861" lon="4.45955">
        <ele>384.606</ele>
        <time>2020-08-02T09:03:46Z</time>
      </trkpt>
      <trkpt lat="46.5786" lon="4.4597">
        <ele>384.606</ele>
        <time>2020-08-02T09:03:51Z</time>
      </trkpt>
      <trkpt lat="46.57859" lon="4.45983">
        <ele>387.606</ele>
        <time>2020-08-02T09:03:56Z</time>
      </trkpt>
      <trkpt lat="46.57858" lon="4.45994">
        <ele>388.606</ele>
        <time>2020-08-02T09:04:02Z</time>
      </trkpt>
      <trkpt lat="46.57862" lon="4.46003">
        <ele>389.606</ele>
        <time>2020-08-02T09:04:08Z</time>
      </trkpt>
      <trkpt lat="46.57863" lon="4.46013">
        <ele>390.606</ele>
        <time>2020-08-02T09:04:15Z</time>
      </trkpt>
      <trkpt lat="46.57864" lon="4.46022">
        <ele>391.606</ele>
        <time>2020-08-02T09:04:20Z</time>
      </trkpt>
      <trkpt lat="46.57865" lon="4.46033">
        <ele>389.606</ele>
        <time>2020-08-02T09:04:29Z</time>
      </trkpt>
      <trkpt lat="46.57867" lon="4.46043">
        <ele>389.606</ele>
        <time>2020-08-02T09:04:35Z</time>
      </trkpt>
      <trkpt lat="46.5787" lon="4.46053">
        <ele>388.606</ele>
        <time>2020-08-02T09:04:41Z</time>
      </trkpt>
      <trkpt lat="46.57871" lon="4.46065">
        <ele>387.606</ele>
        <time>2020-08-02T09:04:47Z</time>
      </trkpt>
      <trkpt lat="46.57872" lon="4.46076">
        <ele>388.606</ele>
        <time>2020-08-02T09:04:52Z</time>
      </trkpt>
      <trkpt lat="46.57873" lon="4.46088">
        <ele>387.606</ele>
        <time>2020-08-02T09:04:57Z</time>
      </trkpt>
      <trkpt lat="46.57874" lon="4.46101">
        <ele>385.606</ele>
        <time>2020-08-02T09:05:04Z</time>
      </trkpt>
      <trkpt lat="46.57875" lon="4.46112">
        <ele>384.606</ele>
        <time>2020-08-02T09:05:10Z</time>
      </trkpt>
      <trkpt lat="46.57878" lon="4.46122">
        <ele>382.606</ele>
        <time>2020-08-02T09:05:16Z</time>
      </trkpt>
      <trkpt lat="46.57879" lon="4.46132">
        <ele>382.606</ele>
        <time>2020-08-02T09:05:21Z</time>
      </trkpt>
      <trkpt lat="46.5788" lon="4.46144">
        <ele>377.606</ele>
        <time>2020-08-02T09:05:29Z</time>
      </trkpt>
      <trkpt lat="46.57882" lon="4.46154">
        <ele>377.606</ele>
        <time>2020-08-02T09:05:34Z</time>
      </trkpt>
      <trkpt lat="46.57883" lon="4.46163">
        <ele>373.606</ele>
        <time>2020-08-02T09:05:40Z</time>
      </trkpt>
      <trkpt lat="46.57883" lon="4.46174">
        <ele>372.606</ele>
        <time>2020-08-02T09:05:46Z</time>
      </trkpt>
      <trkpt lat="46.57881" lon="4.46183">
        <ele>372.606</ele>
        <time>2020-08-02T09:05:56Z</time>
      </trkpt>
      <trkpt lat="46.57879" lon="4.46192">
        <ele>372.606</ele>
        <time>2020-08-02T09:06:52Z</time>
      </trkpt>
      <trkpt lat="46.57881" lon="4.46208">
        <ele>370.606</ele>
        <time>2020-08-02T09:06:57Z</time>
      </trkpt>
      <trkpt lat="46.57875" lon="4.46211">
        <ele>372.606</ele>
        <time>2020-08-02T09:07:02Z</time>
      </trkpt>
      <trkpt lat="46.57869" lon="4.46219">
        <ele>375.606</ele>
        <time>2020-08-02T09:07:09Z</time>
      </trkpt>
      <trkpt lat="46.57863" lon="4.46224">
        <ele>377.606</ele>
        <time>2020-08-02T09:08:41Z</time>
      </trkpt>
      <trkpt lat="46.57858" lon="4.46231">
        <ele>378.606</ele>
        <time>2020-08-02T09:08:47Z</time>
      </trkpt>
      <trkpt lat="46.57853" lon="4.46238">
        <ele>377.606</ele>
        <time>2020-08-02T09:08:53Z</time>
      </trkpt>
      <trkpt lat="46.57851" lon="4.46248">
        <ele>379.606</ele>
        <time>2020-08-02T09:08:58Z</time>
      </trkpt>
      <trkpt lat="46.57847" lon="4.46256">
        <ele>380.606</ele>
        <time>2020-08-02T09:09:04Z</time>
      </trkpt>
      <trkpt lat="46.57842" lon="4.46264">
        <ele>381.606</ele>
        <time>2020-08-02T09:09:10Z</time>
      </trkpt>
      <trkpt lat="46.57838" lon="4.46272">
        <ele>380.606</ele>
        <time>2020-08-02T09:09:15Z</time>
      </trkpt>
      <trkpt lat="46.57837" lon="4.46282">
        <ele>379.606</ele>
        <time>2020-08-02T09:09:20Z</time>
      </trkpt>
      <trkpt lat="46.57834" lon="4.46291">
        <ele>381.606</ele>
        <time>2020-08-02T09:09:25Z</time>
      </trkpt>
      <trkpt lat="46.57834" lon="4.46302">
        <ele>381.606</ele>
        <time>2020-08-02T09:09:31Z</time>
      </trkpt>
      <trkpt lat="46.57832" lon="4.46312">
        <ele>378.606</ele>
        <time>2020-08-02T09:09:36Z</time>
      </trkpt>
      <trkpt lat="46.57828" lon="4.46322">
        <ele>379.606</ele>
        <time>2020-08-02T09:09:42Z</time>
      </trkpt>
      <trkpt lat="46.57824" lon="4.46332">
        <ele>383.606</ele>
        <time>2020-08-02T09:09:49Z</time>
      </trkpt>
      <trkpt lat="46.5782" lon="4.46339">
        <ele>383.606</ele>
        <time>2020-08-02T09:09:55Z</time>
      </trkpt>
      <trkpt lat="46.57816" lon="4.46347">
        <ele>386.606</ele>
        <time>2020-08-02T09:10:00Z</time>
      </trkpt>
      <trkpt lat="46.57809" lon="4.46354">
        <ele>386.606</ele>
        <time>2020-08-02T09:10:08Z</time>
      </trkpt>
      <trkpt lat="46.57804" lon="4.46369">
        <ele>384.606</ele>
        <time>2020-08-02T09:10:13Z</time>
      </trkpt>
      <trkpt lat="46.578" lon="4.46379">
        <ele>384.606</ele>
        <time>2020-08-02T09:10:19Z</time>
      </trkpt>
      <trkpt lat="46.57796" lon="4.46389">
        <ele>386.606</ele>
        <time>2020-08-02T09:10:26Z</time>
      </trkpt>
      <trkpt lat="46.5779" lon="4.46394">
        <ele>381.606</ele>
        <time>2020-08-02T09:10:35Z</time>
      </trkpt>
      <trkpt lat="46.57783" lon="4.46398">
        <ele>381.606</ele>
        <time>2020-08-02T09:10:40Z</time>
      </trkpt>
      <trkpt lat="46.57777" lon="4.46401">
        <ele>382.606</ele>
        <time>2020-08-02T09:10:45Z</time>
      </trkpt>
      <trkpt lat="46.5777" lon="4.46401">
        <ele>381.606</ele>
        <time>2020-08-02T09:10:50Z</time>
      </trkpt>
      <trkpt lat="46.57765" lon="4.46408">
        <ele>378.606</ele>
        <time>2020-08-02T09:10:56Z</time>
      </trkpt>
      <trkpt lat="46.57757" lon="4.4641">
        <ele>379.606</ele>
        <time>2020-08-02T09:11:02Z</time>
      </trkpt>
      <trkpt lat="46.57753" lon="4.46417">
        <ele>377.606</ele>
        <time>2020-08-02T09:11:07Z</time>
      </trkpt>
      <trkpt lat="46.57743" lon="4.46418">
        <ele>378.606</ele>
        <time>2020-08-02T09:11:12Z</time>
      </trkpt>
      <trkpt lat="46.57736" lon="4.46419">
        <ele>377.606</ele>
        <time>2020-08-02T09:11:18Z</time>
      </trkpt>
      <trkpt lat="46.5773" lon="4.46423">
        <ele>377.606</ele>
        <time>2020-08-02T09:11:23Z</time>
      </trkpt>
      <trkpt lat="46.57726" lon="4.46435">
        <ele>377.606</ele>
        <time>2020-08-02T09:11:28Z</time>
      </trkpt>
      <trkpt lat="46.57719" lon="4.4644">
        <ele>377.606</ele>
        <time>2020-08-02T09:11:35Z</time>
      </trkpt>
      <trkpt lat="46.57713" lon="4.46446">
        <ele>377.606</ele>
        <time>2020-08-02T09:11:40Z</time>
      </trkpt>
      <trkpt lat="46.57707" lon="4.46452">
        <ele>376.606</ele>
        <time>2020-08-02T09:11:45Z</time>
      </trkpt>
      <trkpt lat="46.57703" lon="4.46461">
        <ele>379.606</ele>
        <time>2020-08-02T09:11:50Z</time>
      </trkpt>
      <trkpt lat="46.57701" lon="4.46471">
        <ele>379.606</ele>
        <time>2020-08-02T09:11:55Z</time>
      </trkpt>
      <trkpt lat="46.57696" lon="4.46482">
        <ele>381.606</ele>
        <time>2020-08-02T09:12:00Z</time>
      </trkpt>
      <trkpt lat="46.57691" lon="4.46488">
        <ele>378.606</ele>
        <time>2020-08-02T09:12:05Z</time>
      </trkpt>
      <trkpt lat="46.57687" lon="4.46498">
        <ele>379.606</ele>
        <time>2020-08-02T09:12:10Z</time>
      </trkpt>
      <trkpt lat="46.57687" lon="4.46511">
        <ele>379.606</ele>
        <time>2020-08-02T09:12:15Z</time>
      </trkpt>
      <trkpt lat="46.57681" lon="4.4652">
        <ele>379.606</ele>
        <time>2020-08-02T09:12:20Z</time>
      </trkpt>
      <trkpt lat="46.57677" lon="4.46528">
        <ele>381.606</ele>
        <time>2020-08-02T09:12:26Z</time>
      </trkpt>
      <trkpt lat="46.57673" lon="4.46536">
        <ele>380.606</ele>
        <time>2020-08-02T09:12:31Z</time>
      </trkpt>
      <trkpt lat="46.57663" lon="4.46544">
        <ele>383.606</ele>
        <time>2020-08-02T09:12:36Z</time>
      </trkpt>
      <trkpt lat="46.57657" lon="4.46547">
        <ele>385.606</ele>
        <time>2020-08-02T09:12:42Z</time>
      </trkpt>
      <trkpt lat="46.57651" lon="4.46557">
        <ele>389.606</ele>
        <time>2020-08-02T09:12:48Z</time>
      </trkpt>
      <trkpt lat="46.57648" lon="4.46568">
        <ele>387.606</ele>
        <time>2020-08-02T09:12:53Z</time>
      </trkpt>
      <trkpt lat="46.57642" lon="4.46573">
        <ele>383.606</ele>
        <time>2020-08-02T09:13:00Z</time>
      </trkpt>
      <trkpt lat="46.57636" lon="4.4658">
        <ele>385.606</ele>
        <time>2020-08-02T09:13:06Z</time>
      </trkpt>
      <trkpt lat="46.57628" lon="4.46586">
        <ele>386.606</ele>
        <time>2020-08-02T09:13:11Z</time>
      </trkpt>
      <trkpt lat="46.57622" lon="4.46588">
        <ele>386.606</ele>
        <time>2020-08-02T09:13:16Z</time>
      </trkpt>
      <trkpt lat="46.57618" lon="4.46598">
        <ele>386.606</ele>
        <time>2020-08-02T09:13:22Z</time>
      </trkpt>
      <trkpt lat="46.57616" lon="4.4661">
        <ele>381.606</ele>
        <time>2020-08-02T09:13:27Z</time>
      </trkpt>
      <trkpt lat="46.57612" lon="4.46619">
        <ele>383.606</ele>
        <time>2020-08-02T09:13:33Z</time>
      </trkpt>
      <trkpt lat="46.5761" lon="4.46628">
        <ele>382.606</ele>
        <time>2020-08-02T09:13:39Z</time>
      </trkpt>
      <trkpt lat="46.57606" lon="4.46638">
        <ele>381.606</ele>
        <time>2020-08-02T09:13:44Z</time>
      </trkpt>
      <trkpt lat="46.57601" lon="4.46646">
        <ele>381.606</ele>
        <time>2020-08-02T09:13:49Z</time>
      </trkpt>
      <trkpt lat="46.57596" lon="4.46654">
        <ele>381.606</ele>
        <time>2020-08-02T09:13:56Z</time>
      </trkpt>
      <trkpt lat="46.57595" lon="4.46669">
        <ele>377.606</ele>
        <time>2020-08-02T09:14:01Z</time>
      </trkpt>
      <trkpt lat="46.57591" lon="4.46682">
        <ele>377.606</ele>
        <time>2020-08-02T09:14:06Z</time>
      </trkpt>
      <trkpt lat="46.57585" lon="4.46688">
        <ele>379.606</ele>
        <time>2020-08-02T09:14:11Z</time>
      </trkpt>
      <trkpt lat="46.5758" lon="4.46694">
        <ele>379.606</ele>
        <time>2020-08-02T09:14:16Z</time>
      </trkpt>
      <trkpt lat="46.57574" lon="4.46701">
        <ele>379.606</ele>
        <time>2020-08-02T09:14:22Z</time>
      </trkpt>
      <trkpt lat="46.57569" lon="4.46709">
        <ele>378.606</ele>
        <time>2020-08-02T09:14:28Z</time>
      </trkpt>
      <trkpt lat="46.57564" lon="4.46715">
        <ele>377.606</ele>
        <time>2020-08-02T09:14:34Z</time>
      </trkpt>
      <trkpt lat="46.57556" lon="4.46719">
        <ele>379.606</ele>
        <time>2020-08-02T09:14:39Z</time>
      </trkpt>
      <trkpt lat="46.57551" lon="4.46726">
        <ele>378.606</ele>
        <time>2020-08-02T09:14:44Z</time>
      </trkpt>
      <trkpt lat="46.57547" lon="4.46735">
        <ele>381.606</ele>
        <time>2020-08-02T09:14:50Z</time>
      </trkpt>
      <trkpt lat="46.57541" lon="4.4674">
        <ele>378.606</ele>
        <time>2020-08-02T09:14:55Z</time>
      </trkpt>
      <trkpt lat="46.57534" lon="4.46747">
        <ele>377.606</ele>
        <time>2020-08-02T09:15:00Z</time>
      </trkpt>
      <trkpt lat="46.57527" lon="4.46754">
        <ele>379.606</ele>
        <time>2020-08-02T09:15:06Z</time>
      </trkpt>
      <trkpt lat="46.57519" lon="4.46754">
        <ele>380.606</ele>
        <time>2020-08-02T09:15:11Z</time>
      </trkpt>
      <trkpt lat="46.57511" lon="4.46759">
        <ele>382.606</ele>
        <time>2020-08-02T09:15:16Z</time>
      </trkpt>
      <trkpt lat="46.57504" lon="4.46763">
        <ele>383.606</ele>
        <time>2020-08-02T09:15:22Z</time>
      </trkpt>
      <trkpt lat="46.57494" lon="4.46764">
        <ele>384.606</ele>
        <time>2020-08-02T09:15:27Z</time>
      </trkpt>
      <trkpt lat="46.57485" lon="4.4677">
        <ele>385.606</ele>
        <time>2020-08-02T09:15:32Z</time>
      </trkpt>
      <trkpt lat="46.57479" lon="4.46772">
        <ele>386.606</ele>
        <time>2020-08-02T09:15:38Z</time>
      </trkpt>
      <trkpt lat="46.57473" lon="4.46779">
        <ele>386.606</ele>
        <time>2020-08-02T09:15:43Z</time>
      </trkpt>
      <trkpt lat="46.57466" lon="4.46784">
        <ele>385.606</ele>
        <time>2020-08-02T09:15:48Z</time>
      </trkpt>
      <trkpt lat="46.57463" lon="4.46794">
        <ele>387.606</ele>
        <time>2020-08-02T09:15:54Z</time>
      </trkpt>
      <trkpt lat="46.57458" lon="4.46802">
        <ele>388.606</ele>
        <time>2020-08-02T09:15:59Z</time>
      </trkpt>
      <trkpt lat="46.57452" lon="4.46808">
        <ele>385.606</ele>
        <time>2020-08-02T09:16:04Z</time>
      </trkpt>
      <trkpt lat="46.57447" lon="4.46815">
        <ele>385.606</ele>
        <time>2020-08-02T09:16:09Z</time>
      </trkpt>
      <trkpt lat="46.5744" lon="4.46821">
        <ele>386.606</ele>
        <time>2020-08-02T09:16:14Z</time>
      </trkpt>
      <trkpt lat="46.57433" lon="4.46824">
        <ele>389.606</ele>
        <time>2020-08-02T09:16:19Z</time>
      </trkpt>
      <trkpt lat="46.57427" lon="4.46829">
        <ele>389.606</ele>
        <time>2020-08-02T09:16:24Z</time>
      </trkpt>
      <trkpt lat="46.57422" lon="4.46837">
        <ele>387.606</ele>
        <time>2020-08-02T09:16:29Z</time>
      </trkpt>
      <trkpt lat="46.57417" lon="4.46845">
        <ele>386.606</ele>
        <time>2020-08-02T09:16:34Z</time>
      </trkpt>
      <trkpt lat="46.57414" lon="4.46853">
        <ele>385.606</ele>
        <time>2020-08-02T09:16:39Z</time>
      </trkpt>
      <trkpt lat="46.57409" lon="4.4686">
        <ele>385.606</ele>
        <time>2020-08-02T09:16:44Z</time>
      </trkpt>
      <trkpt lat="46.57401" lon="4.46863">
        <ele>386.606</ele>
        <time>2020-08-02T09:16:49Z</time>
      </trkpt>
      <trkpt lat="46.57399" lon="4.46873">
        <ele>384.606</ele>
        <time>2020-08-02T09:16:54Z</time>
      </trkpt>
      <trkpt lat="46.57391" lon="4.4688">
        <ele>385.606</ele>
        <time>2020-08-02T09:16:59Z</time>
      </trkpt>
      <trkpt lat="46.57385" lon="4.46885">
        <ele>387.606</ele>
        <time>2020-08-02T09:17:04Z</time>
      </trkpt>
      <trkpt lat="46.5738" lon="4.46891">
        <ele>392.606</ele>
        <time>2020-08-02T09:17:14Z</time>
      </trkpt>
      <trkpt lat="46.57375" lon="4.46896">
        <ele>392.606</ele>
        <time>2020-08-02T09:17:19Z</time>
      </trkpt>
      <trkpt lat="46.5737" lon="4.46907">
        <ele>392.606</ele>
        <time>2020-08-02T09:17:25Z</time>
      </trkpt>
      <trkpt lat="46.57364" lon="4.4691">
        <ele>387.606</ele>
        <time>2020-08-02T09:17:31Z</time>
      </trkpt>
      <trkpt lat="46.57361" lon="4.46921">
        <ele>386.606</ele>
        <time>2020-08-02T09:17:37Z</time>
      </trkpt>
      <trkpt lat="46.57361" lon="4.46933">
        <ele>388.606</ele>
        <time>2020-08-02T09:17:43Z</time>
      </trkpt>
      <trkpt lat="46.57357" lon="4.46944">
        <ele>386.606</ele>
        <time>2020-08-02T09:17:48Z</time>
      </trkpt>
      <trkpt lat="46.57356" lon="4.46953">
        <ele>387.606</ele>
        <time>2020-08-02T09:17:53Z</time>
      </trkpt>
      <trkpt lat="46.57352" lon="4.46963">
        <ele>385.606</ele>
        <time>2020-08-02T09:17:59Z</time>
      </trkpt>
      <trkpt lat="46.57348" lon="4.46971">
        <ele>383.606</ele>
        <time>2020-08-02T09:18:04Z</time>
      </trkpt>
      <trkpt lat="46.57352" lon="4.46984">
        <ele>379.606</ele>
        <time>2020-08-02T09:18:09Z</time>
      </trkpt>
      <trkpt lat="46.5735" lon="4.46995">
        <ele>377.606</ele>
        <time>2020-08-02T09:18:15Z</time>
      </trkpt>
      <trkpt lat="46.57347" lon="4.47004">
        <ele>381.606</ele>
        <time>2020-08-02T09:18:20Z</time>
      </trkpt>
      <trkpt lat="46.57345" lon="4.47017">
        <ele>382.606</ele>
        <time>2020-08-02T09:18:25Z</time>
      </trkpt>
      <trkpt lat="46.57345" lon="4.47027">
        <ele>381.606</ele>
        <time>2020-08-02T09:18:30Z</time>
      </trkpt>
      <trkpt lat="46.57345" lon="4.4704">
        <ele>384.606</ele>
        <time>2020-08-02T09:18:37Z</time>
      </trkpt>
      <trkpt lat="46.57342" lon="4.47051">
        <ele>383.606</ele>
        <time>2020-08-02T09:18:44Z</time>
      </trkpt>
      <trkpt lat="46.5734" lon="4.47062">
        <ele>382.606</ele>
        <time>2020-08-02T09:18:52Z</time>
      </trkpt>
      <trkpt lat="46.57338" lon="4.47074">
        <ele>381.606</ele>
        <time>2020-08-02T09:18:57Z</time>
      </trkpt>
      <trkpt lat="46.57338" lon="4.47084">
        <ele>380.606</ele>
        <time>2020-08-02T09:19:02Z</time>
      </trkpt>
      <trkpt lat="46.57338" lon="4.47096">
        <ele>378.606</ele>
        <time>2020-08-02T09:19:07Z</time>
      </trkpt>
      <trkpt lat="46.57338" lon="4.47107">
        <ele>378.606</ele>
        <time>2020-08-02T09:19:13Z</time>
      </trkpt>
      <trkpt lat="46.57337" lon="4.47122">
        <ele>375.606</ele>
        <time>2020-08-02T09:19:18Z</time>
      </trkpt>
      <trkpt lat="46.57336" lon="4.47132">
        <ele>374.606</ele>
        <time>2020-08-02T09:19:24Z</time>
      </trkpt>
      <trkpt lat="46.57333" lon="4.47141">
        <ele>372.606</ele>
        <time>2020-08-02T09:19:29Z</time>
      </trkpt>
      <trkpt lat="46.5733" lon="4.47152">
        <ele>370.606</ele>
        <time>2020-08-02T09:19:35Z</time>
      </trkpt>
      <trkpt lat="46.57325" lon="4.47161">
        <ele>367.606</ele>
        <time>2020-08-02T09:19:41Z</time>
      </trkpt>
      <trkpt lat="46.57323" lon="4.47171">
        <ele>369.606</ele>
        <time>2020-08-02T09:19:47Z</time>
      </trkpt>
      <trkpt lat="46.57318" lon="4.47184">
        <ele>376.606</ele>
        <time>2020-08-02T09:19:52Z</time>
      </trkpt>
      <trkpt lat="46.57315" lon="4.47195">
        <ele>373.606</ele>
        <time>2020-08-02T09:19:59Z</time>
      </trkpt>
      <trkpt lat="46.57315" lon="4.47205">
        <ele>367.606</ele>
        <time>2020-08-02T09:20:04Z</time>
      </trkpt>
      <trkpt lat="46.57311" lon="4.47215">
        <ele>370.606</ele>
        <time>2020-08-02T09:20:09Z</time>
      </trkpt>
      <trkpt lat="46.57306" lon="4.47224">
        <ele>369.606</ele>
        <time>2020-08-02T09:20:15Z</time>
      </trkpt>
      <trkpt lat="46.57301" lon="4.47235">
        <ele>372.606</ele>
        <time>2020-08-02T09:20:20Z</time>
      </trkpt>
      <trkpt lat="46.573" lon="4.47244">
        <ele>374.606</ele>
        <time>2020-08-02T09:20:26Z</time>
      </trkpt>
      <trkpt lat="46.57296" lon="4.47252">
        <ele>374.606</ele>
        <time>2020-08-02T09:20:31Z</time>
      </trkpt>
      <trkpt lat="46.57292" lon="4.47262">
        <ele>374.606</ele>
        <time>2020-08-02T09:20:36Z</time>
      </trkpt>
      <trkpt lat="46.57287" lon="4.4727">
        <ele>373.606</ele>
        <time>2020-08-02T09:20:42Z</time>
      </trkpt>
      <trkpt lat="46.57285" lon="4.47282">
        <ele>373.606</ele>
        <time>2020-08-02T09:20:47Z</time>
      </trkpt>
      <trkpt lat="46.57282" lon="4.47292">
        <ele>373.606</ele>
        <time>2020-08-02T09:20:54Z</time>
      </trkpt>
      <trkpt lat="46.57279" lon="4.47302">
        <ele>370.606</ele>
        <time>2020-08-02T09:21:01Z</time>
      </trkpt>
      <trkpt lat="46.57275" lon="4.47314">
        <ele>370.606</ele>
        <time>2020-08-02T09:21:06Z</time>
      </trkpt>
      <trkpt lat="46.57271" lon="4.47323">
        <ele>374.606</ele>
        <time>2020-08-02T09:21:11Z</time>
      </trkpt>
      <trkpt lat="46.57267" lon="4.47331">
        <ele>374.606</ele>
        <time>2020-08-02T09:21:16Z</time>
      </trkpt>
      <trkpt lat="46.57264" lon="4.47341">
        <ele>375.606</ele>
        <time>2020-08-02T09:21:21Z</time>
      </trkpt>
      <trkpt lat="46.5726" lon="4.47351">
        <ele>372.606</ele>
        <time>2020-08-02T09:21:28Z</time>
      </trkpt>
      <trkpt lat="46.5726" lon="4.47367">
        <ele>372.606</ele>
        <time>2020-08-02T09:21:33Z</time>
      </trkpt>
      <trkpt lat="46.57256" lon="4.47375">
        <ele>372.606</ele>
        <time>2020-08-02T09:21:38Z</time>
      </trkpt>
      <trkpt lat="46.57252" lon="4.47383">
        <ele>373.606</ele>
        <time>2020-08-02T09:21:43Z</time>
      </trkpt>
      <trkpt lat="46.57248" lon="4.47392">
        <ele>374.606</ele>
        <time>2020-08-02T09:21:49Z</time>
      </trkpt>
      <trkpt lat="46.57245" lon="4.47402">
        <ele>374.606</ele>
        <time>2020-08-02T09:21:54Z</time>
      </trkpt>
      <trkpt lat="46.5724" lon="4.47408">
        <ele>375.606</ele>
        <time>2020-08-02T09:21:59Z</time>
      </trkpt>
      <trkpt lat="46.57235" lon="4.47415">
        <ele>376.606</ele>
        <time>2020-08-02T09:22:05Z</time>
      </trkpt>
      <trkpt lat="46.57234" lon="4.47425">
        <ele>370.606</ele>
        <time>2020-08-02T09:25:16Z</time>
      </trkpt>
      <trkpt lat="46.57232" lon="4.47434">
        <ele>369.606</ele>
        <time>2020-08-02T09:25:47Z</time>
      </trkpt>
      <trkpt lat="46.57227" lon="4.47441">
        <ele>371.606</ele>
        <time>2020-08-02T09:25:57Z</time>
      </trkpt>
      <trkpt lat="46.57222" lon="4.47449">
        <ele>369.606</ele>
        <time>2020-08-02T09:26:03Z</time>
      </trkpt>
      <trkpt lat="46.57217" lon="4.47456">
        <ele>371.606</ele>
        <time>2020-08-02T09:26:08Z</time>
      </trkpt>
      <trkpt lat="46.5721" lon="4.4746">
        <ele>373.606</ele>
        <time>2020-08-02T09:26:13Z</time>
      </trkpt>
      <trkpt lat="46.57204" lon="4.47465">
        <ele>373.606</ele>
        <time>2020-08-02T09:26:18Z</time>
      </trkpt>
      <trkpt lat="46.57199" lon="4.47473">
        <ele>375.605</ele>
        <time>2020-08-02T09:26:24Z</time>
      </trkpt>
      <trkpt lat="46.57195" lon="4.47481">
        <ele>375.605</ele>
        <time>2020-08-02T09:26:31Z</time>
      </trkpt>
      <trkpt lat="46.57187" lon="4.47484">
        <ele>378.605</ele>
        <time>2020-08-02T09:26:36Z</time>
      </trkpt>
      <trkpt lat="46.57183" lon="4.47493">
        <ele>379.605</ele>
        <time>2020-08-02T09:26:42Z</time>
      </trkpt>
      <trkpt lat="46.57178" lon="4.47503">
        <ele>377.605</ele>
        <time>2020-08-02T09:26:47Z</time>
      </trkpt>
      <trkpt lat="46.57171" lon="4.47509">
        <ele>376.605</ele>
        <time>2020-08-02T09:26:52Z</time>
      </trkpt>
      <trkpt lat="46.57165" lon="4.47515">
        <ele>372.605</ele>
        <time>2020-08-02T09:26:57Z</time>
      </trkpt>
      <trkpt lat="46.57159" lon="4.47519">
        <ele>374.605</ele>
        <time>2020-08-02T09:27:02Z</time>
      </trkpt>
      <trkpt lat="46.57153" lon="4.47527">
        <ele>372.605</ele>
        <time>2020-08-02T09:27:07Z</time>
      </trkpt>
      <trkpt lat="46.57149" lon="4.47536">
        <ele>371.605</ele>
        <time>2020-08-02T09:27:14Z</time>
      </trkpt>
      <trkpt lat="46.57144" lon="4.47544">
        <ele>371.605</ele>
        <time>2020-08-02T09:27:19Z</time>
      </trkpt>
      <trkpt lat="46.57142" lon="4.47557">
        <ele>370.605</ele>
        <time>2020-08-02T09:27:24Z</time>
      </trkpt>
      <trkpt lat="46.57134" lon="4.47565">
        <ele>369.605</ele>
        <time>2020-08-02T09:27:33Z</time>
      </trkpt>
      <trkpt lat="46.57128" lon="4.47577">
        <ele>368.605</ele>
        <time>2020-08-02T09:27:38Z</time>
      </trkpt>
      <trkpt lat="46.57126" lon="4.47588">
        <ele>364.605</ele>
        <time>2020-08-02T09:27:44Z</time>
      </trkpt>
      <trkpt lat="46.57124" lon="4.47597">
        <ele>363.605</ele>
        <time>2020-08-02T09:27:51Z</time>
      </trkpt>
      <trkpt lat="46.57121" lon="4.47606">
        <ele>360.605</ele>
        <time>2020-08-02T09:27:57Z</time>
      </trkpt>
      <trkpt lat="46.57119" lon="4.47618">
        <ele>359.605</ele>
        <time>2020-08-02T09:28:02Z</time>
      </trkpt>
      <trkpt lat="46.57119" lon="4.47629">
        <ele>354.605</ele>
        <time>2020-08-02T09:28:07Z</time>
      </trkpt>
      <trkpt lat="46.57117" lon="4.47639">
        <ele>352.605</ele>
        <time>2020-08-02T09:28:13Z</time>
      </trkpt>
      <trkpt lat="46.57115" lon="4.47651">
        <ele>353.605</ele>
        <time>2020-08-02T09:28:18Z</time>
      </trkpt>
      <trkpt lat="46.57114" lon="4.47662">
        <ele>354.605</ele>
        <time>2020-08-02T09:28:23Z</time>
      </trkpt>
      <trkpt lat="46.57109" lon="4.4767">
        <ele>359.605</ele>
        <time>2020-08-02T09:28:28Z</time>
      </trkpt>
      <trkpt lat="46.57105" lon="4.4768">
        <ele>362.605</ele>
        <time>2020-08-02T09:28:33Z</time>
      </trkpt>
      <trkpt lat="46.571" lon="4.47686">
        <ele>362.605</ele>
        <time>2020-08-02T09:28:38Z</time>
      </trkpt>
      <trkpt lat="46.57094" lon="4.47692">
        <ele>356.605</ele>
        <time>2020-08-02T09:28:44Z</time>
      </trkpt>
      <trkpt lat="46.57089" lon="4.47699">
        <ele>355.605</ele>
        <time>2020-08-02T09:28:49Z</time>
      </trkpt>
      <trkpt lat="46.57084" lon="4.47706">
        <ele>358.605</ele>
        <time>2020-08-02T09:28:55Z</time>
      </trkpt>
      <trkpt lat="46.5708" lon="4.47714">
        <ele>357.605</ele>
        <time>2020-08-02T09:29:01Z</time>
      </trkpt>
      <trkpt lat="46.57076" lon="4.47725">
        <ele>360.605</ele>
        <time>2020-08-02T09:29:06Z</time>
      </trkpt>
      <trkpt lat="46.5707" lon="4.47737">
        <ele>357.605</ele>
        <time>2020-08-02T09:29:11Z</time>
      </trkpt>
      <trkpt lat="46.57072" lon="4.47747">
        <ele>355.605</ele>
        <time>2020-08-02T09:29:16Z</time>
      </trkpt>
      <trkpt lat="46.57067" lon="4.47756">
        <ele>352.605</ele>
        <time>2020-08-02T09:29:21Z</time>
      </trkpt>
      <trkpt lat="46.57066" lon="4.47767">
        <ele>350.605</ele>
        <time>2020-08-02T09:29:26Z</time>
      </trkpt>
      <trkpt lat="46.57067" lon="4.4778">
        <ele>352.605</ele>
        <time>2020-08-02T09:29:31Z</time>
      </trkpt>
      <trkpt lat="46.57065" lon="4.4779">
        <ele>352.605</ele>
        <time>2020-08-02T09:29:38Z</time>
      </trkpt>
      <trkpt lat="46.57067" lon="4.47801">
        <ele>355.605</ele>
        <time>2020-08-02T09:29:44Z</time>
      </trkpt>
      <trkpt lat="46.57066" lon="4.47812">
        <ele>355.605</ele>
        <time>2020-08-02T09:29:50Z</time>
      </trkpt>
      <trkpt lat="46.57066" lon="4.47822">
        <ele>355.605</ele>
        <time>2020-08-02T09:29:56Z</time>
      </trkpt>
      <trkpt lat="46.57068" lon="4.47832">
        <ele>355.605</ele>
        <time>2020-08-02T09:30:03Z</time>
      </trkpt>
      <trkpt lat="46.57064" lon="4.47845">
        <ele>354.605</ele>
        <time>2020-08-02T09:30:08Z</time>
      </trkpt>
      <trkpt lat="46.57063" lon="4.47854">
        <ele>357.605</ele>
        <time>2020-08-02T09:30:16Z</time>
      </trkpt>
      <trkpt lat="46.57061" lon="4.47868">
        <ele>358.605</ele>
        <time>2020-08-02T09:30:21Z</time>
      </trkpt>
      <trkpt lat="46.57061" lon="4.4788">
        <ele>355.605</ele>
        <time>2020-08-02T09:30:26Z</time>
      </trkpt>
      <trkpt lat="46.57059" lon="4.47889">
        <ele>354.605</ele>
        <time>2020-08-02T09:30:31Z</time>
      </trkpt>
      <trkpt lat="46.57058" lon="4.479">
        <ele>359.605</ele>
        <time>2020-08-02T09:30:36Z</time>
      </trkpt>
      <trkpt lat="46.57055" lon="4.47911">
        <ele>359.605</ele>
        <time>2020-08-02T09:30:42Z</time>
      </trkpt>
      <trkpt lat="46.57048" lon="4.47916">
        <ele>363.605</ele>
        <time>2020-08-02T09:30:49Z</time>
      </trkpt>
      <trkpt lat="46.57042" lon="4.47921">
        <ele>365.605</ele>
        <time>2020-08-02T09:30:54Z</time>
      </trkpt>
      <trkpt lat="46.57035" lon="4.47925">
        <ele>366.605</ele>
        <time>2020-08-02T09:31:02Z</time>
      </trkpt>
      <trkpt lat="46.57029" lon="4.47929">
        <ele>362.605</ele>
        <time>2020-08-02T09:31:09Z</time>
      </trkpt>
      <trkpt lat="46.57025" lon="4.47937">
        <ele>362.605</ele>
        <time>2020-08-02T09:31:14Z</time>
      </trkpt>
      <trkpt lat="46.5702" lon="4.47945">
        <ele>370.605</ele>
        <time>2020-08-02T09:31:23Z</time>
      </trkpt>
      <trkpt lat="46.57018" lon="4.47955">
        <ele>371.605</ele>
        <time>2020-08-02T09:31:30Z</time>
      </trkpt>
      <trkpt lat="46.57015" lon="4.47965">
        <ele>374.605</ele>
        <time>2020-08-02T09:31:36Z</time>
      </trkpt>
      <trkpt lat="46.57008" lon="4.47969">
        <ele>369.605</ele>
        <time>2020-08-02T09:31:41Z</time>
      </trkpt>
      <trkpt lat="46.57005" lon="4.4798">
        <ele>367.605</ele>
        <time>2020-08-02T09:31:46Z</time>
      </trkpt>
      <trkpt lat="46.57001" lon="4.47989">
        <ele>373.605</ele>
        <time>2020-08-02T09:31:53Z</time>
      </trkpt>
      <trkpt lat="46.56994" lon="4.47997">
        <ele>372.605</ele>
        <time>2020-08-02T09:31:58Z</time>
      </trkpt>
      <trkpt lat="46.56989" lon="4.48004">
        <ele>373.605</ele>
        <time>2020-08-02T09:32:04Z</time>
      </trkpt>
      <trkpt lat="46.56983" lon="4.48012">
        <ele>371.605</ele>
        <time>2020-08-02T09:32:09Z</time>
      </trkpt>
      <trkpt lat="46.56978" lon="4.48019">
        <ele>371.605</ele>
        <time>2020-08-02T09:32:17Z</time>
      </trkpt>
      <trkpt lat="46.56972" lon="4.48022">
        <ele>375.605</ele>
        <time>2020-08-02T09:32:22Z</time>
      </trkpt>
      <trkpt lat="46.56967" lon="4.48029">
        <ele>373.605</ele>
        <time>2020-08-02T09:32:30Z</time>
      </trkpt>
      <trkpt lat="46.56962" lon="4.48036">
        <ele>378.605</ele>
        <time>2020-08-02T09:32:38Z</time>
      </trkpt>
      <trkpt lat="46.56955" lon="4.48039">
        <ele>382.605</ele>
        <time>2020-08-02T09:32:43Z</time>
      </trkpt>
      <trkpt lat="46.56948" lon="4.48042">
        <ele>384.605</ele>
        <time>2020-08-02T09:32:50Z</time>
      </trkpt>
      <trkpt lat="46.56943" lon="4.48048">
        <ele>386.605</ele>
        <time>2020-08-02T09:32:55Z</time>
      </trkpt>
      <trkpt lat="46.56937" lon="4.48055">
        <ele>389.605</ele>
        <time>2020-08-02T09:33:03Z</time>
      </trkpt>
      <trkpt lat="46.56933" lon="4.48064">
        <ele>393.605</ele>
        <time>2020-08-02T09:33:12Z</time>
      </trkpt>
      <trkpt lat="46.56929" lon="4.48073">
        <ele>393.605</ele>
        <time>2020-08-02T09:33:17Z</time>
      </trkpt>
      <trkpt lat="46.56926" lon="4.48083">
        <ele>393.605</ele>
        <time>2020-08-02T09:33:24Z</time>
      </trkpt>
      <trkpt lat="46.56925" lon="4.48093">
        <ele>393.605</ele>
        <time>2020-08-02T09:33:30Z</time>
      </trkpt>
      <trkpt lat="46.56926" lon="4.48103">
        <ele>391.605</ele>
        <time>2020-08-02T09:33:36Z</time>
      </trkpt>
      <trkpt lat="46.56926" lon="4.48114">
        <ele>391.605</ele>
        <time>2020-08-02T09:33:41Z</time>
      </trkpt>
      <trkpt lat="46.56927" lon="4.48125">
        <ele>390.605</ele>
        <time>2020-08-02T09:33:49Z</time>
      </trkpt>
      <trkpt lat="46.56927" lon="4.48138">
        <ele>393.605</ele>
        <time>2020-08-02T09:33:54Z</time>
      </trkpt>
      <trkpt lat="46.56924" lon="4.48149">
        <ele>389.605</ele>
        <time>2020-08-02T09:34:02Z</time>
      </trkpt>
      <trkpt lat="46.56917" lon="4.48159">
        <ele>392.605</ele>
        <time>2020-08-02T09:34:07Z</time>
      </trkpt>
      <trkpt lat="46.56909" lon="4.48167">
        <ele>384.605</ele>
        <time>2020-08-02T09:34:12Z</time>
      </trkpt>
      <trkpt lat="46.56904" lon="4.48174">
        <ele>384.605</ele>
        <time>2020-08-02T09:34:17Z</time>
      </trkpt>
      <trkpt lat="46.56901" lon="4.48182">
        <ele>386.605</ele>
        <time>2020-08-02T09:34:22Z</time>
      </trkpt>
      <trkpt lat="46.56897" lon="4.48189">
        <ele>388.605</ele>
        <time>2020-08-02T09:34:27Z</time>
      </trkpt>
      <trkpt lat="46.56892" lon="4.48197">
        <ele>388.605</ele>
        <time>2020-08-02T09:34:33Z</time>
      </trkpt>
      <trkpt lat="46.56887" lon="4.48203">
        <ele>389.605</ele>
        <time>2020-08-02T09:34:39Z</time>
      </trkpt>
      <trkpt lat="46.56883" lon="4.48213">
        <ele>385.605</ele>
        <time>2020-08-02T09:34:47Z</time>
      </trkpt>
      <trkpt lat="46.56884" lon="4.48222">
        <ele>384.605</ele>
        <time>2020-08-02T09:34:54Z</time>
      </trkpt>
      <trkpt lat="46.56887" lon="4.48233">
        <ele>385.605</ele>
        <time>2020-08-02T09:35:03Z</time>
      </trkpt>
      <trkpt lat="46.56887" lon="4.48244">
        <ele>385.605</ele>
        <time>2020-08-02T09:35:10Z</time>
      </trkpt>
      <trkpt lat="46.56889" lon="4.48253">
        <ele>382.605</ele>
        <time>2020-08-02T09:35:16Z</time>
      </trkpt>
      <trkpt lat="46.56889" lon="4.48263">
        <ele>382.605</ele>
        <time>2020-08-02T09:35:21Z</time>
      </trkpt>
      <trkpt lat="46.5689" lon="4.48273">
        <ele>383.605</ele>
        <time>2020-08-02T09:35:27Z</time>
      </trkpt>
      <trkpt lat="46.56891" lon="4.48284">
        <ele>384.605</ele>
        <time>2020-08-02T09:35:32Z</time>
      </trkpt>
      <trkpt lat="46.56892" lon="4.48295">
        <ele>383.605</ele>
        <time>2020-08-02T09:35:37Z</time>
      </trkpt>
      <trkpt lat="46.56891" lon="4.48305">
        <ele>381.605</ele>
        <time>2020-08-02T09:35:42Z</time>
      </trkpt>
      <trkpt lat="46.56893" lon="4.48315">
        <ele>379.605</ele>
        <time>2020-08-02T09:35:51Z</time>
      </trkpt>
      <trkpt lat="46.56896" lon="4.48327">
        <ele>379.605</ele>
        <time>2020-08-02T09:35:56Z</time>
      </trkpt>
      <trkpt lat="46.569" lon="4.48341">
        <ele>377.605</ele>
        <time>2020-08-02T09:36:01Z</time>
      </trkpt>
      <trkpt lat="46.56902" lon="4.48351">
        <ele>377.605</ele>
        <time>2020-08-02T09:36:15Z</time>
      </trkpt>
      <trkpt lat="46.56903" lon="4.48362">
        <ele>375.605</ele>
        <time>2020-08-02T09:36:20Z</time>
      </trkpt>
      <trkpt lat="46.56909" lon="4.48368">
        <ele>376.605</ele>
        <time>2020-08-02T09:36:25Z</time>
      </trkpt>
      <trkpt lat="46.56913" lon="4.48377">
        <ele>380.605</ele>
        <time>2020-08-02T09:36:31Z</time>
      </trkpt>
      <trkpt lat="46.56914" lon="4.4839">
        <ele>380.605</ele>
        <time>2020-08-02T09:36:36Z</time>
      </trkpt>
      <trkpt lat="46.56916" lon="4.484">
        <ele>380.605</ele>
        <time>2020-08-02T09:36:41Z</time>
      </trkpt>
      <trkpt lat="46.56918" lon="4.48409">
        <ele>381.605</ele>
        <time>2020-08-02T09:36:46Z</time>
      </trkpt>
      <trkpt lat="46.56923" lon="4.48418">
        <ele>380.605</ele>
        <time>2020-08-02T09:36:51Z</time>
      </trkpt>
      <trkpt lat="46.56925" lon="4.48427">
        <ele>378.605</ele>
        <time>2020-08-02T09:36:56Z</time>
      </trkpt>
      <trkpt lat="46.56928" lon="4.48436">
        <ele>378.605</ele>
        <time>2020-08-02T09:37:01Z</time>
      </trkpt>
      <trkpt lat="46.5693" lon="4.48447">
        <ele>378.605</ele>
        <time>2020-08-02T09:37:07Z</time>
      </trkpt>
      <trkpt lat="46.56933" lon="4.48458">
        <ele>377.605</ele>
        <time>2020-08-02T09:37:12Z</time>
      </trkpt>
      <trkpt lat="46.56935" lon="4.48468">
        <ele>377.605</ele>
        <time>2020-08-02T09:37:18Z</time>
      </trkpt>
      <trkpt lat="46.56935" lon="4.48479">
        <ele>376.605</ele>
        <time>2020-08-02T09:37:23Z</time>
      </trkpt>
      <trkpt lat="46.56936" lon="4.48492">
        <ele>377.605</ele>
        <time>2020-08-02T09:37:28Z</time>
      </trkpt>
      <trkpt lat="46.56937" lon="4.48507">
        <ele>375.606</ele>
        <time>2020-08-02T09:37:33Z</time>
      </trkpt>
      <trkpt lat="46.56936" lon="4.48518">
        <ele>373.606</ele>
        <time>2020-08-02T09:37:43Z</time>
      </trkpt>
      <trkpt lat="46.56932" lon="4.48529">
        <ele>374.606</ele>
        <time>2020-08-02T09:37:48Z</time>
      </trkpt>
      <trkpt lat="46.56927" lon="4.48544">
        <ele>375.606</ele>
        <time>2020-08-02T09:37:53Z</time>
      </trkpt>
      <trkpt lat="46.56927" lon="4.48554">
        <ele>371.606</ele>
        <time>2020-08-02T09:38:02Z</time>
      </trkpt>
      <trkpt lat="46.56923" lon="4.48561">
        <ele>368.606</ele>
        <time>2020-08-02T09:38:07Z</time>
      </trkpt>
      <trkpt lat="46.56915" lon="4.48571">
        <ele>367.605</ele>
        <time>2020-08-02T09:38:12Z</time>
      </trkpt>
      <trkpt lat="46.56907" lon="4.48581">
        <ele>369.605</ele>
        <time>2020-08-02T09:38:17Z</time>
      </trkpt>
      <trkpt lat="46.569" lon="4.48587">
        <ele>372.605</ele>
        <time>2020-08-02T09:38:22Z</time>
      </trkpt>
      <trkpt lat="46.56893" lon="4.4859">
        <ele>373.605</ele>
        <time>2020-08-02T09:38:27Z</time>
      </trkpt>
      <trkpt lat="46.56886" lon="4.48595">
        <ele>371.605</ele>
        <time>2020-08-02T09:38:32Z</time>
      </trkpt>
      <trkpt lat="46.5688" lon="4.48601">
        <ele>371.605</ele>
        <time>2020-08-02T09:38:37Z</time>
      </trkpt>
      <trkpt lat="46.56872" lon="4.48609">
        <ele>373.605</ele>
        <time>2020-08-02T09:38:42Z</time>
      </trkpt>
      <trkpt lat="46.56868" lon="4.48617">
        <ele>373.605</ele>
        <time>2020-08-02T09:38:48Z</time>
      </trkpt>
      <trkpt lat="46.56862" lon="4.48624">
        <ele>372.605</ele>
        <time>2020-08-02T09:38:54Z</time>
      </trkpt>
      <trkpt lat="46.56854" lon="4.48627">
        <ele>371.605</ele>
        <time>2020-08-02T09:38:59Z</time>
      </trkpt>
      <trkpt lat="46.56847" lon="4.48633">
        <ele>372.605</ele>
        <time>2020-08-02T09:39:05Z</time>
      </trkpt>
      <trkpt lat="46.5684" lon="4.4864">
        <ele>373.605</ele>
        <time>2020-08-02T09:39:10Z</time>
      </trkpt>
      <trkpt lat="46.5683" lon="4.48644">
        <ele>374.605</ele>
        <time>2020-08-02T09:39:15Z</time>
      </trkpt>
      <trkpt lat="46.56824" lon="4.48649">
        <ele>371.605</ele>
        <time>2020-08-02T09:39:22Z</time>
      </trkpt>
      <trkpt lat="46.56816" lon="4.48652">
        <ele>371.605</ele>
        <time>2020-08-02T09:39:27Z</time>
      </trkpt>
      <trkpt lat="46.56808" lon="4.48656">
        <ele>372.605</ele>
        <time>2020-08-02T09:39:32Z</time>
      </trkpt>
      <trkpt lat="46.568" lon="4.48661">
        <ele>374.605</ele>
        <time>2020-08-02T09:39:37Z</time>
      </trkpt>
      <trkpt lat="46.56793" lon="4.48668">
        <ele>378.605</ele>
        <time>2020-08-02T09:39:42Z</time>
      </trkpt>
      <trkpt lat="46.56787" lon="4.48674">
        <ele>376.605</ele>
        <time>2020-08-02T09:39:47Z</time>
      </trkpt>
      <trkpt lat="46.56781" lon="4.48676">
        <ele>376.605</ele>
        <time>2020-08-02T09:39:52Z</time>
      </trkpt>
      <trkpt lat="46.56774" lon="4.48683">
        <ele>377.605</ele>
        <time>2020-08-02T09:39:57Z</time>
      </trkpt>
      <trkpt lat="46.56769" lon="4.48691">
        <ele>375.605</ele>
        <time>2020-08-02T09:40:02Z</time>
      </trkpt>
      <trkpt lat="46.56763" lon="4.48698">
        <ele>376.605</ele>
        <time>2020-08-02T09:40:07Z</time>
      </trkpt>
      <trkpt lat="46.56758" lon="4.48704">
        <ele>375.605</ele>
        <time>2020-08-02T09:40:12Z</time>
      </trkpt>
      <trkpt lat="46.56753" lon="4.4871">
        <ele>374.605</ele>
        <time>2020-08-02T09:40:18Z</time>
      </trkpt>
      <trkpt lat="46.56748" lon="4.48717">
        <ele>377.605</ele>
        <time>2020-08-02T09:40:24Z</time>
      </trkpt>
      <trkpt lat="46.56741" lon="4.48726">
        <ele>374.605</ele>
        <time>2020-08-02T09:40:29Z</time>
      </trkpt>
      <trkpt lat="46.56735" lon="4.48731">
        <ele>373.605</ele>
        <time>2020-08-02T09:40:34Z</time>
      </trkpt>
      <trkpt lat="46.56728" lon="4.48728">
        <ele>373.605</ele>
        <time>2020-08-02T09:40:39Z</time>
      </trkpt>
      <trkpt lat="46.56722" lon="4.48723">
        <ele>374.605</ele>
        <time>2020-08-02T09:40:44Z</time>
      </trkpt>
      <trkpt lat="46.56716" lon="4.48714">
        <ele>375.605</ele>
        <time>2020-08-02T09:40:49Z</time>
      </trkpt>
      <trkpt lat="46.56709" lon="4.48716">
        <ele>379.605</ele>
        <time>2020-08-02T09:40:57Z</time>
      </trkpt>
      <trkpt lat="46.56707" lon="4.48727">
        <ele>380.605</ele>
        <time>2020-08-02T09:41:02Z</time>
      </trkpt>
      <trkpt lat="46.56704" lon="4.48739">
        <ele>375.605</ele>
        <time>2020-08-02T09:41:07Z</time>
      </trkpt>
      <trkpt lat="46.56702" lon="4.48748">
        <ele>373.605</ele>
        <time>2020-08-02T09:41:12Z</time>
      </trkpt>
      <trkpt lat="46.56699" lon="4.48757">
        <ele>371.605</ele>
        <time>2020-08-02T09:41:18Z</time>
      </trkpt>
      <trkpt lat="46.56696" lon="4.48766">
        <ele>373.605</ele>
        <time>2020-08-02T09:41:23Z</time>
      </trkpt>
      <trkpt lat="46.56692" lon="4.4878">
        <ele>369.605</ele>
        <time>2020-08-02T09:41:28Z</time>
      </trkpt>
      <trkpt lat="46.5669" lon="4.4879">
        <ele>370.605</ele>
        <time>2020-08-02T09:41:34Z</time>
      </trkpt>
      <trkpt lat="46.56687" lon="4.488">
        <ele>368.605</ele>
        <time>2020-08-02T09:41:42Z</time>
      </trkpt>
      <trkpt lat="46.56683" lon="4.48809">
        <ele>368.605</ele>
        <time>2020-08-02T09:41:47Z</time>
      </trkpt>
      <trkpt lat="46.5668" lon="4.48821">
        <ele>369.605</ele>
        <time>2020-08-02T09:41:52Z</time>
      </trkpt>
      <trkpt lat="46.56676" lon="4.48834">
        <ele>371.605</ele>
        <time>2020-08-02T09:41:57Z</time>
      </trkpt>
      <trkpt lat="46.56672" lon="4.48842">
        <ele>371.605</ele>
        <time>2020-08-02T09:42:02Z</time>
      </trkpt>
      <trkpt lat="46.5667" lon="4.48852">
        <ele>372.605</ele>
        <time>2020-08-02T09:42:08Z</time>
      </trkpt>
      <trkpt lat="46.56666" lon="4.48861">
        <ele>371.605</ele>
        <time>2020-08-02T09:42:14Z</time>
      </trkpt>
      <trkpt lat="46.56665" lon="4.48876">
        <ele>369.605</ele>
        <time>2020-08-02T09:42:19Z</time>
      </trkpt>
      <trkpt lat="46.56665" lon="4.48889">
        <ele>371.605</ele>
        <time>2020-08-02T09:42:24Z</time>
      </trkpt>
      <trkpt lat="46.56661" lon="4.48903">
        <ele>370.605</ele>
        <time>2020-08-02T09:42:29Z</time>
      </trkpt>
      <trkpt lat="46.56662" lon="4.48914">
        <ele>367.605</ele>
        <time>2020-08-02T09:42:34Z</time>
      </trkpt>
      <trkpt lat="46.56661" lon="4.48923">
        <ele>365.605</ele>
        <time>2020-08-02T09:42:40Z</time>
      </trkpt>
      <trkpt lat="46.56658" lon="4.48933">
        <ele>365.605</ele>
        <time>2020-08-02T09:42:47Z</time>
      </trkpt>
      <trkpt lat="46.56654" lon="4.48946">
        <ele>360.605</ele>
        <time>2020-08-02T09:42:52Z</time>
      </trkpt>
      <trkpt lat="46.56652" lon="4.48957">
        <ele>359.605</ele>
        <time>2020-08-02T09:42:57Z</time>
      </trkpt>
      <trkpt lat="46.56651" lon="4.48971">
        <ele>360.605</ele>
        <time>2020-08-02T09:43:02Z</time>
      </trkpt>
      <trkpt lat="46.56649" lon="4.48982">
        <ele>359.605</ele>
        <time>2020-08-02T09:43:07Z</time>
      </trkpt>
      <trkpt lat="46.5665" lon="4.48992">
        <ele>360.605</ele>
        <time>2020-08-02T09:43:12Z</time>
      </trkpt>
      <trkpt lat="46.56649" lon="4.49001">
        <ele>362.605</ele>
        <time>2020-08-02T09:43:18Z</time>
      </trkpt>
      <trkpt lat="46.5665" lon="4.4901">
        <ele>363.605</ele>
        <time>2020-08-02T09:43:25Z</time>
      </trkpt>
      <trkpt lat="46.56648" lon="4.4902">
        <ele>364.605</ele>
        <time>2020-08-02T09:43:30Z</time>
      </trkpt>
      <trkpt lat="46.56647" lon="4.49035">
        <ele>365.605</ele>
        <time>2020-08-02T09:43:35Z</time>
      </trkpt>
      <trkpt lat="46.56646" lon="4.49048">
        <ele>367.605</ele>
        <time>2020-08-02T09:43:40Z</time>
      </trkpt>
      <trkpt lat="46.56646" lon="4.49061">
        <ele>368.605</ele>
        <time>2020-08-02T09:43:45Z</time>
      </trkpt>
      <trkpt lat="46.56645" lon="4.49073">
        <ele>366.605</ele>
        <time>2020-08-02T09:43:50Z</time>
      </trkpt>
      <trkpt lat="46.56641" lon="4.49087">
        <ele>369.605</ele>
        <time>2020-08-02T09:43:55Z</time>
      </trkpt>
      <trkpt lat="46.56641" lon="4.49099">
        <ele>368.605</ele>
        <time>2020-08-02T09:44:00Z</time>
      </trkpt>
      <trkpt lat="46.56639" lon="4.49109">
        <ele>371.605</ele>
        <time>2020-08-02T09:44:10Z</time>
      </trkpt>
      <trkpt lat="46.56635" lon="4.49118">
        <ele>368.605</ele>
        <time>2020-08-02T09:44:16Z</time>
      </trkpt>
      <trkpt lat="46.56631" lon="4.4913">
        <ele>369.605</ele>
        <time>2020-08-02T09:44:21Z</time>
      </trkpt>
      <trkpt lat="46.56627" lon="4.49142">
        <ele>366.605</ele>
        <time>2020-08-02T09:44:26Z</time>
      </trkpt>
      <trkpt lat="46.56624" lon="4.49152">
        <ele>367.605</ele>
        <time>2020-08-02T09:44:31Z</time>
      </trkpt>
      <trkpt lat="46.56618" lon="4.4916">
        <ele>368.605</ele>
        <time>2020-08-02T09:44:36Z</time>
      </trkpt>
      <trkpt lat="46.56612" lon="4.49168">
        <ele>365.605</ele>
        <time>2020-08-02T09:44:41Z</time>
      </trkpt>
      <trkpt lat="46.56609" lon="4.49177">
        <ele>364.605</ele>
        <time>2020-08-02T09:44:46Z</time>
      </trkpt>
      <trkpt lat="46.56606" lon="4.49185">
        <ele>364.605</ele>
        <time>2020-08-02T09:44:52Z</time>
      </trkpt>
      <trkpt lat="46.56601" lon="4.49191">
        <ele>365.605</ele>
        <time>2020-08-02T09:44:57Z</time>
      </trkpt>
      <trkpt lat="46.56598" lon="4.49201">
        <ele>369.605</ele>
        <time>2020-08-02T09:45:07Z</time>
      </trkpt>
      <trkpt lat="46.56593" lon="4.49208">
        <ele>368.605</ele>
        <time>2020-08-02T09:45:12Z</time>
      </trkpt>
      <trkpt lat="46.56594" lon="4.4922">
        <ele>366.605</ele>
        <time>2020-08-02T09:45:18Z</time>
      </trkpt>
      <trkpt lat="46.56594" lon="4.4923">
        <ele>366.605</ele>
        <time>2020-08-02T09:45:23Z</time>
      </trkpt>
      <trkpt lat="46.56595" lon="4.49241">
        <ele>365.605</ele>
        <time>2020-08-02T09:45:28Z</time>
      </trkpt>
      <trkpt lat="46.56597" lon="4.4925">
        <ele>366.605</ele>
        <time>2020-08-02T09:45:33Z</time>
      </trkpt>
      <trkpt lat="46.56597" lon="4.4926">
        <ele>365.605</ele>
        <time>2020-08-02T09:45:39Z</time>
      </trkpt>
      <trkpt lat="46.56599" lon="4.4927">
        <ele>358.605</ele>
        <time>2020-08-02T09:45:48Z</time>
      </trkpt>
      <trkpt lat="46.56601" lon="4.49282">
        <ele>361.605</ele>
        <time>2020-08-02T09:45:53Z</time>
      </trkpt>
      <trkpt lat="46.566" lon="4.49293">
        <ele>356.605</ele>
        <time>2020-08-02T09:46:00Z</time>
      </trkpt>
      <trkpt lat="46.56598" lon="4.49302">
        <ele>357.605</ele>
        <time>2020-08-02T09:46:06Z</time>
      </trkpt>
      <trkpt lat="46.56601" lon="4.49314">
        <ele>355.605</ele>
        <time>2020-08-02T09:46:11Z</time>
      </trkpt>
      <trkpt lat="46.56601" lon="4.49325">
        <ele>357.605</ele>
        <time>2020-08-02T09:46:18Z</time>
      </trkpt>
      <trkpt lat="46.56601" lon="4.49335">
        <ele>358.605</ele>
        <time>2020-08-02T09:46:23Z</time>
      </trkpt>
      <trkpt lat="46.56598" lon="4.49345">
        <ele>356.605</ele>
        <time>2020-08-02T09:46:30Z</time>
      </trkpt>
      <trkpt lat="46.56596" lon="4.49355">
        <ele>355.605</ele>
        <time>2020-08-02T09:46:35Z</time>
      </trkpt>
      <trkpt lat="46.56595" lon="4.49365">
        <ele>353.605</ele>
        <time>2020-08-02T09:46:40Z</time>
      </trkpt>
      <trkpt lat="46.56592" lon="4.49375">
        <ele>353.605</ele>
        <time>2020-08-02T09:46:45Z</time>
      </trkpt>
      <trkpt lat="46.56591" lon="4.49384">
        <ele>355.605</ele>
        <time>2020-08-02T09:46:51Z</time>
      </trkpt>
      <trkpt lat="46.56589" lon="4.49394">
        <ele>356.605</ele>
        <time>2020-08-02T09:46:56Z</time>
      </trkpt>
      <trkpt lat="46.56587" lon="4.49404">
        <ele>357.605</ele>
        <time>2020-08-02T09:47:02Z</time>
      </trkpt>
      <trkpt lat="46.56585" lon="4.49414">
        <ele>358.605</ele>
        <time>2020-08-02T09:47:07Z</time>
      </trkpt>
      <trkpt lat="46.56583" lon="4.49424">
        <ele>356.605</ele>
        <time>2020-08-02T09:47:12Z</time>
      </trkpt>
      <trkpt lat="46.56581" lon="4.49434">
        <ele>357.605</ele>
        <time>2020-08-02T09:47:17Z</time>
      </trkpt>
      <trkpt lat="46.56579" lon="4.49445">
        <ele>357.605</ele>
        <time>2020-08-02T09:47:22Z</time>
      </trkpt>
      <trkpt lat="46.56578" lon="4.49455">
        <ele>360.605</ele>
        <time>2020-08-02T09:47:27Z</time>
      </trkpt>
      <trkpt lat="46.56579" lon="4.49465">
        <ele>357.605</ele>
        <time>2020-08-02T09:47:32Z</time>
      </trkpt>
      <trkpt lat="46.56577" lon="4.49474">
        <ele>358.605</ele>
        <time>2020-08-02T09:47:39Z</time>
      </trkpt>
      <trkpt lat="46.56576" lon="4.49485">
        <ele>358.605</ele>
        <time>2020-08-02T09:47:44Z</time>
      </trkpt>
      <trkpt lat="46.56573" lon="4.49495">
        <ele>360.605</ele>
        <time>2020-08-02T09:47:50Z</time>
      </trkpt>
      <trkpt lat="46.56572" lon="4.49505">
        <ele>362.605</ele>
        <time>2020-08-02T09:47:55Z</time>
      </trkpt>
      <trkpt lat="46.56573" lon="4.49515">
        <ele>357.605</ele>
        <time>2020-08-02T09:48:07Z</time>
      </trkpt>
      <trkpt lat="46.56572" lon="4.49525">
        <ele>356.605</ele>
        <time>2020-08-02T09:48:13Z</time>
      </trkpt>
      <trkpt lat="46.56574" lon="4.49535">
        <ele>355.605</ele>
        <time>2020-08-02T09:48:21Z</time>
      </trkpt>
      <trkpt lat="46.56578" lon="4.49545">
        <ele>353.605</ele>
        <time>2020-08-02T09:48:26Z</time>
      </trkpt>
      <trkpt lat="46.56578" lon="4.49555">
        <ele>353.605</ele>
        <time>2020-08-02T09:48:32Z</time>
      </trkpt>
      <trkpt lat="46.56578" lon="4.49566">
        <ele>350.605</ele>
        <time>2020-08-02T09:48:40Z</time>
      </trkpt>
      <trkpt lat="46.56577" lon="4.49577">
        <ele>345.605</ele>
        <time>2020-08-02T09:48:45Z</time>
      </trkpt>
      <trkpt lat="46.56578" lon="4.49587">
        <ele>343.605</ele>
        <time>2020-08-02T09:48:52Z</time>
      </trkpt>
      <trkpt lat="46.56579" lon="4.49598">
        <ele>343.605</ele>
        <time>2020-08-02T09:48:57Z</time>
      </trkpt>
      <trkpt lat="46.56578" lon="4.4961">
        <ele>338.605</ele>
        <time>2020-08-02T09:49:05Z</time>
      </trkpt>
      <trkpt lat="46.56577" lon="4.49623">
        <ele>341.605</ele>
        <time>2020-08-02T09:49:10Z</time>
      </trkpt>
      <trkpt lat="46.56574" lon="4.49634">
        <ele>340.605</ele>
        <time>2020-08-02T09:49:17Z</time>
      </trkpt>
      <trkpt lat="46.56575" lon="4.49645">
        <ele>340.605</ele>
        <time>2020-08-02T09:49:22Z</time>
      </trkpt>
      <trkpt lat="46.56575" lon="4.49655">
        <ele>339.605</ele>
        <time>2020-08-02T09:49:27Z</time>
      </trkpt>
      <trkpt lat="46.56573" lon="4.49666">
        <ele>337.605</ele>
        <time>2020-08-02T09:49:34Z</time>
      </trkpt>
      <trkpt lat="46.56572" lon="4.49675">
        <ele>337.605</ele>
        <time>2020-08-02T09:49:40Z</time>
      </trkpt>
      <trkpt lat="46.56573" lon="4.49685">
        <ele>338.605</ele>
        <time>2020-08-02T09:49:45Z</time>
      </trkpt>
      <trkpt lat="46.56572" lon="4.49695">
        <ele>335.605</ele>
        <time>2020-08-02T09:49:50Z</time>
      </trkpt>
      <trkpt lat="46.56574" lon="4.49707">
        <ele>335.605</ele>
        <time>2020-08-02T09:49:55Z</time>
      </trkpt>
      <trkpt lat="46.56572" lon="4.49718">
        <ele>337.605</ele>
        <time>2020-08-02T09:50:00Z</time>
      </trkpt>
      <trkpt lat="46.56574" lon="4.49727">
        <ele>339.605</ele>
        <time>2020-08-02T09:50:08Z</time>
      </trkpt>
      <trkpt lat="46.56576" lon="4.49737">
        <ele>335.605</ele>
        <time>2020-08-02T09:50:14Z</time>
      </trkpt>
      <trkpt lat="46.56575" lon="4.49747">
        <ele>332.605</ele>
        <time>2020-08-02T09:50:19Z</time>
      </trkpt>
      <trkpt lat="46.56573" lon="4.49756">
        <ele>333.605</ele>
        <time>2020-08-02T09:50:24Z</time>
      </trkpt>
      <trkpt lat="46.5657" lon="4.49771">
        <ele>336.605</ele>
        <time>2020-08-02T09:50:29Z</time>
      </trkpt>
      <trkpt lat="46.56572" lon="4.49782">
        <ele>331.605</ele>
        <time>2020-08-02T09:50:35Z</time>
      </trkpt>
      <trkpt lat="46.56568" lon="4.4979">
        <ele>329.605</ele>
        <time>2020-08-02T09:50:40Z</time>
      </trkpt>
      <trkpt lat="46.56566" lon="4.49799">
        <ele>333.605</ele>
        <time>2020-08-02T09:50:47Z</time>
      </trkpt>
      <trkpt lat="46.56564" lon="4.49809">
        <ele>333.605</ele>
        <time>2020-08-02T09:50:54Z</time>
      </trkpt>
      <trkpt lat="46.56561" lon="4.49817">
        <ele>328.605</ele>
        <time>2020-08-02T09:51:00Z</time>
      </trkpt>
      <trkpt lat="46.56559" lon="4.49828">
        <ele>327.605</ele>
        <time>2020-08-02T09:51:05Z</time>
      </trkpt>
      <trkpt lat="46.56556" lon="4.49842">
        <ele>330.605</ele>
        <time>2020-08-02T09:51:10Z</time>
      </trkpt>
      <trkpt lat="46.56554" lon="4.49851">
        <ele>333.605</ele>
        <time>2020-08-02T09:51:15Z</time>
      </trkpt>
      <trkpt lat="46.56552" lon="4.49862">
        <ele>329.605</ele>
        <time>2020-08-02T09:51:23Z</time>
      </trkpt>
      <trkpt lat="46.56549" lon="4.49874">
        <ele>330.605</ele>
        <time>2020-08-02T09:51:28Z</time>
      </trkpt>
      <trkpt lat="46.56545" lon="4.49886">
        <ele>330.605</ele>
        <time>2020-08-02T09:51:33Z</time>
      </trkpt>
      <trkpt lat="46.56542" lon="4.49896">
        <ele>333.605</ele>
        <time>2020-08-02T09:51:38Z</time>
      </trkpt>
      <trkpt lat="46.56539" lon="4.49906">
        <ele>329.605</ele>
        <time>2020-08-02T09:51:43Z</time>
      </trkpt>
      <trkpt lat="46.56537" lon="4.49915">
        <ele>329.605</ele>
        <time>2020-08-02T09:51:49Z</time>
      </trkpt>
      <trkpt lat="46.56534" lon="4.49925">
        <ele>330.605</ele>
        <time>2020-08-02T09:51:54Z</time>
      </trkpt>
      <trkpt lat="46.56531" lon="4.49937">
        <ele>328.605</ele>
        <time>2020-08-02T09:51:59Z</time>
      </trkpt>
      <trkpt lat="46.56528" lon="4.49949">
        <ele>329.605</ele>
        <time>2020-08-02T09:52:04Z</time>
      </trkpt>
      <trkpt lat="46.56527" lon="4.49958">
        <ele>325.605</ele>
        <time>2020-08-02T09:52:09Z</time>
      </trkpt>
      <trkpt lat="46.56522" lon="4.49967">
        <ele>327.605</ele>
        <time>2020-08-02T09:52:17Z</time>
      </trkpt>
      <trkpt lat="46.56517" lon="4.49977">
        <ele>325.605</ele>
        <time>2020-08-02T09:52:22Z</time>
      </trkpt>
      <trkpt lat="46.56515" lon="4.49994">
        <ele>322.605</ele>
        <time>2020-08-02T09:52:27Z</time>
      </trkpt>
      <trkpt lat="46.56511" lon="4.50003">
        <ele>320.605</ele>
        <time>2020-08-02T09:52:34Z</time>
      </trkpt>
      <trkpt lat="46.56506" lon="4.50009">
        <ele>323.605</ele>
        <time>2020-08-02T09:52:39Z</time>
      </trkpt>
      <trkpt lat="46.565" lon="4.50017">
        <ele>324.605</ele>
        <time>2020-08-02T09:52:46Z</time>
      </trkpt>
      <trkpt lat="46.56495" lon="4.50027">
        <ele>324.605</ele>
        <time>2020-08-02T09:52:51Z</time>
      </trkpt>
      <trkpt lat="46.56496" lon="4.50039">
        <ele>323.605</ele>
        <time>2020-08-02T09:52:56Z</time>
      </trkpt>
      <trkpt lat="46.5649" lon="4.50045">
        <ele>324.605</ele>
        <time>2020-08-02T09:53:01Z</time>
      </trkpt>
      <trkpt lat="46.56486" lon="4.50053">
        <ele>326.605</ele>
        <time>2020-08-02T09:53:06Z</time>
      </trkpt>
      <trkpt lat="46.5648" lon="4.50062">
        <ele>325.605</ele>
        <time>2020-08-02T09:53:11Z</time>
      </trkpt>
      <trkpt lat="46.56476" lon="4.50071">
        <ele>324.605</ele>
        <time>2020-08-02T09:53:16Z</time>
      </trkpt>
      <trkpt lat="46.56471" lon="4.5008">
        <ele>324.605</ele>
        <time>2020-08-02T09:53:22Z</time>
      </trkpt>
      <trkpt lat="46.56468" lon="4.50091">
        <ele>322.605</ele>
        <time>2020-08-02T09:53:27Z</time>
      </trkpt>
      <trkpt lat="46.56465" lon="4.50099">
        <ele>324.605</ele>
        <time>2020-08-02T09:53:33Z</time>
      </trkpt>
      <trkpt lat="46.56466" lon="4.50112">
        <ele>317.605</ele>
        <time>2020-08-02T09:53:38Z</time>
      </trkpt>
      <trkpt lat="46.56462" lon="4.50121">
        <ele>318.605</ele>
        <time>2020-08-02T09:53:43Z</time>
      </trkpt>
      <trkpt lat="46.56459" lon="4.5013">
        <ele>318.605</ele>
        <time>2020-08-02T09:53:48Z</time>
      </trkpt>
      <trkpt lat="46.56453" lon="4.50142">
        <ele>322.605</ele>
        <time>2020-08-02T09:53:53Z</time>
      </trkpt>
      <trkpt lat="46.56451" lon="4.50154">
        <ele>318.605</ele>
        <time>2020-08-02T09:53:58Z</time>
      </trkpt>
      <trkpt lat="46.56449" lon="4.50163">
        <ele>315.605</ele>
        <time>2020-08-02T09:54:04Z</time>
      </trkpt>
      <trkpt lat="46.56446" lon="4.50174">
        <ele>313.605</ele>
        <time>2020-08-02T09:54:10Z</time>
      </trkpt>
      <trkpt lat="46.56444" lon="4.50184">
        <ele>314.605</ele>
        <time>2020-08-02T09:54:15Z</time>
      </trkpt>
      <trkpt lat="46.56444" lon="4.50196">
        <ele>314.605</ele>
        <time>2020-08-02T09:54:20Z</time>
      </trkpt>
      <trkpt lat="46.56443" lon="4.50207">
        <ele>313.605</ele>
        <time>2020-08-02T09:54:25Z</time>
      </trkpt>
      <trkpt lat="46.56443" lon="4.50218">
        <ele>311.605</ele>
        <time>2020-08-02T09:54:33Z</time>
      </trkpt>
      <trkpt lat="46.56441" lon="4.50229">
        <ele>308.605</ele>
        <time>2020-08-02T09:54:38Z</time>
      </trkpt>
      <trkpt lat="46.5644" lon="4.50239">
        <ele>305.605</ele>
        <time>2020-08-02T09:54:43Z</time>
      </trkpt>
      <trkpt lat="46.56437" lon="4.50254">
        <ele>310.605</ele>
        <time>2020-08-02T09:54:48Z</time>
      </trkpt>
      <trkpt lat="46.56435" lon="4.50264">
        <ele>308.605</ele>
        <time>2020-08-02T09:54:53Z</time>
      </trkpt>
      <trkpt lat="46.56434" lon="4.50274">
        <ele>307.605</ele>
        <time>2020-08-02T09:55:01Z</time>
      </trkpt>
      <trkpt lat="46.56431" lon="4.50286">
        <ele>304.605</ele>
        <time>2020-08-02T09:55:06Z</time>
      </trkpt>
      <trkpt lat="46.5643" lon="4.50297">
        <ele>302.605</ele>
        <time>2020-08-02T09:55:11Z</time>
      </trkpt>
      <trkpt lat="46.5643" lon="4.5031">
        <ele>303.605</ele>
        <time>2020-08-02T09:55:16Z</time>
      </trkpt>
      <trkpt lat="46.56428" lon="4.50323">
        <ele>299.605</ele>
        <time>2020-08-02T09:55:22Z</time>
      </trkpt>
      <trkpt lat="46.56425" lon="4.50332">
        <ele>303.605</ele>
        <time>2020-08-02T09:55:31Z</time>
      </trkpt>
      <trkpt lat="46.56422" lon="4.50345">
        <ele>299.605</ele>
        <time>2020-08-02T09:55:36Z</time>
      </trkpt>
      <trkpt lat="46.56421" lon="4.50359">
        <ele>299.605</ele>
        <time>2020-08-02T09:55:41Z</time>
      </trkpt>
      <trkpt lat="46.5642" lon="4.50372">
        <ele>302.605</ele>
        <time>2020-08-02T09:55:46Z</time>
      </trkpt>
      <trkpt lat="46.56423" lon="4.50388">
        <ele>305.605</ele>
        <time>2020-08-02T09:55:51Z</time>
      </trkpt>
      <trkpt lat="46.5642" lon="4.50396">
        <ele>305.605</ele>
        <time>2020-08-02T09:55:58Z</time>
      </trkpt>
      <trkpt lat="46.56415" lon="4.50406">
        <ele>305.605</ele>
        <time>2020-08-02T09:56:04Z</time>
      </trkpt>
      <trkpt lat="46.56414" lon="4.5042">
        <ele>302.605</ele>
        <time>2020-08-02T09:56:09Z</time>
      </trkpt>
      <trkpt lat="46.56411" lon="4.50434">
        <ele>305.605</ele>
        <time>2020-08-02T09:56:14Z</time>
      </trkpt>
      <trkpt lat="46.5641" lon="4.50448">
        <ele>304.605</ele>
        <time>2020-08-02T09:56:19Z</time>
      </trkpt>
      <trkpt lat="46.56408" lon="4.50459">
        <ele>304.605</ele>
        <time>2020-08-02T09:56:27Z</time>
      </trkpt>
      <trkpt lat="46.56407" lon="4.50468">
        <ele>303.605</ele>
        <time>2020-08-02T09:56:35Z</time>
      </trkpt>
      <trkpt lat="46.56408" lon="4.50479">
        <ele>304.605</ele>
        <time>2020-08-02T09:56:43Z</time>
      </trkpt>
      <trkpt lat="46.56411" lon="4.50488">
        <ele>300.605</ele>
        <time>2020-08-02T09:56:48Z</time>
      </trkpt>
      <trkpt lat="46.56413" lon="4.50498">
        <ele>300.605</ele>
        <time>2020-08-02T09:56:55Z</time>
      </trkpt>
      <trkpt lat="46.56419" lon="4.50508">
        <ele>300.606</ele>
        <time>2020-08-02T09:57:00Z</time>
      </trkpt>
      <trkpt lat="46.56426" lon="4.50512">
        <ele>305.606</ele>
        <time>2020-08-02T09:57:09Z</time>
      </trkpt>
      <trkpt lat="46.56432" lon="4.50516">
        <ele>304.606</ele>
        <time>2020-08-02T09:57:15Z</time>
      </trkpt>
      <trkpt lat="46.56438" lon="4.50523">
        <ele>301.606</ele>
        <time>2020-08-02T09:57:29Z</time>
      </trkpt>
      <trkpt lat="46.56445" lon="4.50528">
        <ele>301.606</ele>
        <time>2020-08-02T09:57:34Z</time>
      </trkpt>
      <trkpt lat="46.56454" lon="4.50534">
        <ele>302.606</ele>
        <time>2020-08-02T09:57:39Z</time>
      </trkpt>
      <trkpt lat="46.5646" lon="4.5054">
        <ele>305.606</ele>
        <time>2020-08-02T09:57:44Z</time>
      </trkpt>
      <trkpt lat="46.56466" lon="4.50547">
        <ele>306.606</ele>
        <time>2020-08-02T09:57:49Z</time>
      </trkpt>
      <trkpt lat="46.56469" lon="4.50555">
        <ele>306.606</ele>
        <time>2020-08-02T09:57:54Z</time>
      </trkpt>
      <trkpt lat="46.56471" lon="4.50565">
        <ele>305.606</ele>
        <time>2020-08-02T09:57:59Z</time>
      </trkpt>
      <trkpt lat="46.56475" lon="4.50575">
        <ele>303.606</ele>
        <time>2020-08-02T09:58:05Z</time>
      </trkpt>
      <trkpt lat="46.56474" lon="4.50585">
        <ele>306.606</ele>
        <time>2020-08-02T09:58:12Z</time>
      </trkpt>
      <trkpt lat="46.56473" lon="4.50595">
        <ele>309.606</ele>
        <time>2020-08-02T09:58:18Z</time>
      </trkpt>
      <trkpt lat="46.56473" lon="4.50607">
        <ele>308.606</ele>
        <time>2020-08-02T09:58:23Z</time>
      </trkpt>
      <trkpt lat="46.56471" lon="4.50616">
        <ele>306.606</ele>
        <time>2020-08-02T09:58:29Z</time>
      </trkpt>
      <trkpt lat="46.5647" lon="4.50626">
        <ele>308.606</ele>
        <time>2020-08-02T09:58:34Z</time>
      </trkpt>
      <trkpt lat="46.56466" lon="4.50638">
        <ele>307.606</ele>
        <time>2020-08-02T09:58:39Z</time>
      </trkpt>
      <trkpt lat="46.56465" lon="4.5065">
        <ele>303.606</ele>
        <time>2020-08-02T09:58:44Z</time>
      </trkpt>
      <trkpt lat="46.56459" lon="4.50658">
        <ele>301.606</ele>
        <time>2020-08-02T09:58:50Z</time>
      </trkpt>
      <trkpt lat="46.56456" lon="4.5067">
        <ele>301.606</ele>
        <time>2020-08-02T09:58:55Z</time>
      </trkpt>
      <trkpt lat="46.56453" lon="4.50682">
        <ele>299.606</ele>
        <time>2020-08-02T09:59:00Z</time>
      </trkpt>
      <trkpt lat="46.56452" lon="4.50691">
        <ele>300.606</ele>
        <time>2020-08-02T09:59:08Z</time>
      </trkpt>
      <trkpt lat="46.56449" lon="4.50702">
        <ele>297.606</ele>
        <time>2020-08-02T09:59:13Z</time>
      </trkpt>
      <trkpt lat="46.56446" lon="4.50716">
        <ele>292.606</ele>
        <time>2020-08-02T09:59:18Z</time>
      </trkpt>
      <trkpt lat="46.56442" lon="4.50728">
        <ele>293.606</ele>
        <time>2020-08-02T09:59:23Z</time>
      </trkpt>
      <trkpt lat="46.56439" lon="4.50737">
        <ele>294.606</ele>
        <time>2020-08-02T09:59:29Z</time>
      </trkpt>
      <trkpt lat="46.56436" lon="4.50749">
        <ele>296.606</ele>
        <time>2020-08-02T09:59:36Z</time>
      </trkpt>
      <trkpt lat="46.56433" lon="4.50758">
        <ele>297.606</ele>
        <time>2020-08-02T09:59:41Z</time>
      </trkpt>
      <trkpt lat="46.5643" lon="4.50767">
        <ele>294.606</ele>
        <time>2020-08-02T09:59:47Z</time>
      </trkpt>
      <trkpt lat="46.56426" lon="4.50777">
        <ele>293.606</ele>
        <time>2020-08-02T09:59:53Z</time>
      </trkpt>
      <trkpt lat="46.56421" lon="4.50787">
        <ele>295.606</ele>
        <time>2020-08-02T09:59:58Z</time>
      </trkpt>
      <trkpt lat="46.5642" lon="4.50798">
        <ele>293.606</ele>
        <time>2020-08-02T10:00:03Z</time>
      </trkpt>
      <trkpt lat="46.56418" lon="4.50806">
        <ele>291.606</ele>
        <time>2020-08-02T10:00:08Z</time>
      </trkpt>
      <trkpt lat="46.56413" lon="4.50818">
        <ele>288.606</ele>
        <time>2020-08-02T10:00:13Z</time>
      </trkpt>
      <trkpt lat="46.56411" lon="4.50827">
        <ele>287.606</ele>
        <time>2020-08-02T10:00:18Z</time>
      </trkpt>
      <trkpt lat="46.56406" lon="4.50836">
        <ele>288.606</ele>
        <time>2020-08-02T10:00:24Z</time>
      </trkpt>
      <trkpt lat="46.56401" lon="4.50845">
        <ele>283.606</ele>
        <time>2020-08-02T10:00:29Z</time>
      </trkpt>
      <trkpt lat="46.56396" lon="4.50854">
        <ele>282.606</ele>
        <time>2020-08-02T10:00:34Z</time>
      </trkpt>
      <trkpt lat="46.56391" lon="4.50864">
        <ele>286.606</ele>
        <time>2020-08-02T10:00:39Z</time>
      </trkpt>
      <trkpt lat="46.56386" lon="4.50871">
        <ele>287.606</ele>
        <time>2020-08-02T10:00:47Z</time>
      </trkpt>
      <trkpt lat="46.5638" lon="4.50878">
        <ele>288.606</ele>
        <time>2020-08-02T10:00:52Z</time>
      </trkpt>
      <trkpt lat="46.56377" lon="4.50891">
        <ele>286.606</ele>
        <time>2020-08-02T10:00:57Z</time>
      </trkpt>
      <trkpt lat="46.56373" lon="4.50902">
        <ele>285.606</ele>
        <time>2020-08-02T10:01:02Z</time>
      </trkpt>
      <trkpt lat="46.56368" lon="4.50908">
        <ele>287.606</ele>
        <time>2020-08-02T10:01:10Z</time>
      </trkpt>
      <trkpt lat="46.56366" lon="4.50919">
        <ele>287.606</ele>
        <time>2020-08-02T10:01:15Z</time>
      </trkpt>
      <trkpt lat="46.56358" lon="4.50929">
        <ele>285.606</ele>
        <time>2020-08-02T10:01:20Z</time>
      </trkpt>
      <trkpt lat="46.56354" lon="4.50939">
        <ele>287.606</ele>
        <time>2020-08-02T10:01:25Z</time>
      </trkpt>
      <trkpt lat="46.56347" lon="4.50945">
        <ele>289.606</ele>
        <time>2020-08-02T10:01:32Z</time>
      </trkpt>
      <trkpt lat="46.56341" lon="4.50952">
        <ele>289.606</ele>
        <time>2020-08-02T10:01:38Z</time>
      </trkpt>
      <trkpt lat="46.56336" lon="4.50961">
        <ele>287.606</ele>
        <time>2020-08-02T10:01:43Z</time>
      </trkpt>
      <trkpt lat="46.56331" lon="4.50969">
        <ele>290.606</ele>
        <time>2020-08-02T10:01:48Z</time>
      </trkpt>
      <trkpt lat="46.56326" lon="4.5098">
        <ele>290.606</ele>
        <time>2020-08-02T10:01:53Z</time>
      </trkpt>
      <trkpt lat="46.56322" lon="4.5099">
        <ele>290.606</ele>
        <time>2020-08-02T10:01:58Z</time>
      </trkpt>
      <trkpt lat="46.56319" lon="4.50998">
        <ele>284.606</ele>
        <time>2020-08-02T10:02:05Z</time>
      </trkpt>
      <trkpt lat="46.56313" lon="4.51006">
        <ele>281.606</ele>
        <time>2020-08-02T10:02:10Z</time>
      </trkpt>
      <trkpt lat="46.56309" lon="4.51014">
        <ele>281.606</ele>
        <time>2020-08-02T10:02:15Z</time>
      </trkpt>
      <trkpt lat="46.56304" lon="4.51025">
        <ele>280.606</ele>
        <time>2020-08-02T10:02:20Z</time>
      </trkpt>
      <trkpt lat="46.56303" lon="4.51035">
        <ele>282.606</ele>
        <time>2020-08-02T10:02:25Z</time>
      </trkpt>
      <trkpt lat="46.563" lon="4.51046">
        <ele>277.606</ele>
        <time>2020-08-02T10:02:31Z</time>
      </trkpt>
      <trkpt lat="46.56297" lon="4.51055">
        <ele>275.606</ele>
        <time>2020-08-02T10:02:36Z</time>
      </trkpt>
      <trkpt lat="46.56294" lon="4.51063">
        <ele>273.606</ele>
        <time>2020-08-02T10:02:41Z</time>
      </trkpt>
      <trkpt lat="46.56291" lon="4.51075">
        <ele>272.606</ele>
        <time>2020-08-02T10:02:46Z</time>
      </trkpt>
      <trkpt lat="46.56289" lon="4.51088">
        <ele>273.606</ele>
        <time>2020-08-02T10:02:51Z</time>
      </trkpt>
      <trkpt lat="46.56287" lon="4.51097">
        <ele>275.606</ele>
        <time>2020-08-02T10:02:56Z</time>
      </trkpt>
      <trkpt lat="46.56287" lon="4.51107">
        <ele>275.606</ele>
        <time>2020-08-02T10:03:02Z</time>
      </trkpt>
      <trkpt lat="46.56284" lon="4.51117">
        <ele>274.606</ele>
        <time>2020-08-02T10:03:07Z</time>
      </trkpt>
      <trkpt lat="46.56283" lon="4.51132">
        <ele>269.606</ele>
        <time>2020-08-02T10:03:12Z</time>
      </trkpt>
      <trkpt lat="46.56281" lon="4.51144">
        <ele>269.606</ele>
        <time>2020-08-02T10:03:17Z</time>
      </trkpt>
      <trkpt lat="46.56278" lon="4.51156">
        <ele>270.606</ele>
        <time>2020-08-02T10:03:22Z</time>
      </trkpt>
      <trkpt lat="46.56282" lon="4.51165">
        <ele>274.606</ele>
        <time>2020-08-02T10:03:27Z</time>
      </trkpt>
      <trkpt lat="46.56278" lon="4.51175">
        <ele>274.606</ele>
        <time>2020-08-02T10:03:34Z</time>
      </trkpt>
      <trkpt lat="46.56276" lon="4.51185">
        <ele>272.606</ele>
        <time>2020-08-02T10:03:39Z</time>
      </trkpt>
      <trkpt lat="46.56276" lon="4.51196">
        <ele>274.606</ele>
        <time>2020-08-02T10:03:44Z</time>
      </trkpt>
      <trkpt lat="46.56275" lon="4.51209">
        <ele>273.606</ele>
        <time>2020-08-02T10:03:49Z</time>
      </trkpt>
      <trkpt lat="46.56274" lon="4.5122">
        <ele>271.606</ele>
        <time>2020-08-02T10:03:56Z</time>
      </trkpt>
      <trkpt lat="46.56272" lon="4.51228">
        <ele>273.606</ele>
        <time>2020-08-02T10:04:01Z</time>
      </trkpt>
      <trkpt lat="46.56269" lon="4.51242">
        <ele>273.606</ele>
        <time>2020-08-02T10:04:06Z</time>
      </trkpt>
      <trkpt lat="46.56267" lon="4.51257">
        <ele>272.606</ele>
        <time>2020-08-02T10:04:11Z</time>
      </trkpt>
      <trkpt lat="46.56262" lon="4.51266">
        <ele>272.606</ele>
        <time>2020-08-02T10:04:16Z</time>
      </trkpt>
      <trkpt lat="46.56261" lon="4.51276">
        <ele>272.606</ele>
        <time>2020-08-02T10:04:22Z</time>
      </trkpt>
      <trkpt lat="46.56255" lon="4.51284">
        <ele>276.606</ele>
        <time>2020-08-02T10:04:30Z</time>
      </trkpt>
      <trkpt lat="46.5625" lon="4.51294">
        <ele>274.606</ele>
        <time>2020-08-02T10:04:35Z</time>
      </trkpt>
      <trkpt lat="46.56244" lon="4.51305">
        <ele>272.606</ele>
        <time>2020-08-02T10:04:40Z</time>
      </trkpt>
      <trkpt lat="46.56239" lon="4.51315">
        <ele>269.606</ele>
        <time>2020-08-02T10:04:45Z</time>
      </trkpt>
      <trkpt lat="46.56239" lon="4.51327">
        <ele>266.606</ele>
        <time>2020-08-02T10:04:50Z</time>
      </trkpt>
      <trkpt lat="46.56235" lon="4.51334">
        <ele>264.606</ele>
        <time>2020-08-02T10:04:55Z</time>
      </trkpt>
      <trkpt lat="46.5623" lon="4.51343">
        <ele>263.606</ele>
        <time>2020-08-02T10:05:00Z</time>
      </trkpt>
      <trkpt lat="46.56229" lon="4.51352">
        <ele>264.606</ele>
        <time>2020-08-02T10:05:05Z</time>
      </trkpt>
      <trkpt lat="46.56223" lon="4.51364">
        <ele>265.606</ele>
        <time>2020-08-02T10:05:10Z</time>
      </trkpt>
      <trkpt lat="46.56218" lon="4.51378">
        <ele>268.606</ele>
        <time>2020-08-02T10:05:15Z</time>
      </trkpt>
      <trkpt lat="46.56212" lon="4.51388">
        <ele>271.606</ele>
        <time>2020-08-02T10:05:20Z</time>
      </trkpt>
      <trkpt lat="46.56209" lon="4.51396">
        <ele>271.606</ele>
        <time>2020-08-02T10:05:25Z</time>
      </trkpt>
      <trkpt lat="46.56204" lon="4.51401">
        <ele>273.606</ele>
        <time>2020-08-02T10:05:35Z</time>
      </trkpt>
      <trkpt lat="46.56199" lon="4.51411">
        <ele>279.606</ele>
        <time>2020-08-02T10:05:40Z</time>
      </trkpt>
      <trkpt lat="46.56194" lon="4.51419">
        <ele>276.606</ele>
        <time>2020-08-02T10:05:47Z</time>
      </trkpt>
      <trkpt lat="46.5619" lon="4.51428">
        <ele>273.606</ele>
        <time>2020-08-02T10:05:54Z</time>
      </trkpt>
      <trkpt lat="46.56186" lon="4.51436">
        <ele>270.606</ele>
        <time>2020-08-02T10:05:59Z</time>
      </trkpt>
      <trkpt lat="46.5618" lon="4.51448">
        <ele>269.606</ele>
        <time>2020-08-02T10:06:04Z</time>
      </trkpt>
      <trkpt lat="46.56176" lon="4.51457">
        <ele>267.606</ele>
        <time>2020-08-02T10:06:09Z</time>
      </trkpt>
      <trkpt lat="46.56174" lon="4.5147">
        <ele>267.606</ele>
        <time>2020-08-02T10:06:14Z</time>
      </trkpt>
      <trkpt lat="46.56169" lon="4.51483">
        <ele>266.606</ele>
        <time>2020-08-02T10:06:19Z</time>
      </trkpt>
      <trkpt lat="46.56163" lon="4.51492">
        <ele>269.606</ele>
        <time>2020-08-02T10:06:24Z</time>
      </trkpt>
      <trkpt lat="46.56159" lon="4.51503">
        <ele>271.606</ele>
        <time>2020-08-02T10:06:29Z</time>
      </trkpt>
      <trkpt lat="46.56155" lon="4.51514">
        <ele>272.606</ele>
        <time>2020-08-02T10:06:34Z</time>
      </trkpt>
      <trkpt lat="46.5615" lon="4.51522">
        <ele>270.606</ele>
        <time>2020-08-02T10:06:39Z</time>
      </trkpt>
      <trkpt lat="46.56146" lon="4.51529">
        <ele>269.606</ele>
        <time>2020-08-02T10:06:45Z</time>
      </trkpt>
      <trkpt lat="46.56142" lon="4.51538">
        <ele>267.606</ele>
        <time>2020-08-02T10:06:52Z</time>
      </trkpt>
      <trkpt lat="46.56137" lon="4.51544">
        <ele>264.605</ele>
        <time>2020-08-02T10:06:57Z</time>
      </trkpt>
      <trkpt lat="46.56132" lon="4.51553">
        <ele>264.605</ele>
        <time>2020-08-02T10:07:02Z</time>
      </trkpt>
      <trkpt lat="46.56129" lon="4.51564">
        <ele>263.605</ele>
        <time>2020-08-02T10:07:07Z</time>
      </trkpt>
      <trkpt lat="46.56125" lon="4.51574">
        <ele>262.605</ele>
        <time>2020-08-02T10:07:12Z</time>
      </trkpt>
      <trkpt lat="46.56118" lon="4.51583">
        <ele>263.605</ele>
        <time>2020-08-02T10:07:17Z</time>
      </trkpt>
      <trkpt lat="46.56111" lon="4.51591">
        <ele>264.605</ele>
        <time>2020-08-02T10:07:22Z</time>
      </trkpt>
      <trkpt lat="46.56108" lon="4.51601">
        <ele>267.605</ele>
        <time>2020-08-02T10:07:27Z</time>
      </trkpt>
      <trkpt lat="46.56104" lon="4.51613">
        <ele>267.605</ele>
        <time>2020-08-02T10:07:32Z</time>
      </trkpt>
      <trkpt lat="46.561" lon="4.51622">
        <ele>267.605</ele>
        <time>2020-08-02T10:07:37Z</time>
      </trkpt>
      <trkpt lat="46.56098" lon="4.51635">
        <ele>266.605</ele>
        <time>2020-08-02T10:07:42Z</time>
      </trkpt>
      <trkpt lat="46.56092" lon="4.51644">
        <ele>267.605</ele>
        <time>2020-08-02T10:07:47Z</time>
      </trkpt>
      <trkpt lat="46.56087" lon="4.51651">
        <ele>270.605</ele>
        <time>2020-08-02T10:07:52Z</time>
      </trkpt>
      <trkpt lat="46.56083" lon="4.51659">
        <ele>270.605</ele>
        <time>2020-08-02T10:07:57Z</time>
      </trkpt>
      <trkpt lat="46.5608" lon="4.51668">
        <ele>270.605</ele>
        <time>2020-08-02T10:08:02Z</time>
      </trkpt>
      <trkpt lat="46.56078" lon="4.51678">
        <ele>271.605</ele>
        <time>2020-08-02T10:08:08Z</time>
      </trkpt>
      <trkpt lat="46.56075" lon="4.51688">
        <ele>271.605</ele>
        <time>2020-08-02T10:08:13Z</time>
      </trkpt>
      <trkpt lat="46.56074" lon="4.51699">
        <ele>274.605</ele>
        <time>2020-08-02T10:08:20Z</time>
      </trkpt>
      <trkpt lat="46.56072" lon="4.51713">
        <ele>272.605</ele>
        <time>2020-08-02T10:08:25Z</time>
      </trkpt>
      <trkpt lat="46.5607" lon="4.51723">
        <ele>271.605</ele>
        <time>2020-08-02T10:08:31Z</time>
      </trkpt>
      <trkpt lat="46.56071" lon="4.51734">
        <ele>270.605</ele>
        <time>2020-08-02T10:08:38Z</time>
      </trkpt>
      <trkpt lat="46.56067" lon="4.51744">
        <ele>268.605</ele>
        <time>2020-08-02T10:08:44Z</time>
      </trkpt>
      <trkpt lat="46.56064" lon="4.51758">
        <ele>266.605</ele>
        <time>2020-08-02T10:08:49Z</time>
      </trkpt>
      <trkpt lat="46.56062" lon="4.51769">
        <ele>267.605</ele>
        <time>2020-08-02T10:08:54Z</time>
      </trkpt>
      <trkpt lat="46.56062" lon="4.51781">
        <ele>271.605</ele>
        <time>2020-08-02T10:08:59Z</time>
      </trkpt>
      <trkpt lat="46.56062" lon="4.51795">
        <ele>268.605</ele>
        <time>2020-08-02T10:09:04Z</time>
      </trkpt>
      <trkpt lat="46.56063" lon="4.51813">
        <ele>265.605</ele>
        <time>2020-08-02T10:09:09Z</time>
      </trkpt>
      <trkpt lat="46.5606" lon="4.51824">
        <ele>266.605</ele>
        <time>2020-08-02T10:09:14Z</time>
      </trkpt>
      <trkpt lat="46.56057" lon="4.51838">
        <ele>264.605</ele>
        <time>2020-08-02T10:09:19Z</time>
      </trkpt>
      <trkpt lat="46.56054" lon="4.51849">
        <ele>262.605</ele>
        <time>2020-08-02T10:09:24Z</time>
      </trkpt>
      <trkpt lat="46.56049" lon="4.51857">
        <ele>260.605</ele>
        <time>2020-08-02T10:09:29Z</time>
      </trkpt>
      <trkpt lat="46.56046" lon="4.51867">
        <ele>261.605</ele>
        <time>2020-08-02T10:09:36Z</time>
      </trkpt>
      <trkpt lat="46.56045" lon="4.51877">
        <ele>262.605</ele>
        <time>2020-08-02T10:09:42Z</time>
      </trkpt>
      <trkpt lat="46.56043" lon="4.51886">
        <ele>261.605</ele>
        <time>2020-08-02T10:09:47Z</time>
      </trkpt>
      <trkpt lat="46.56042" lon="4.51898">
        <ele>257.605</ele>
        <time>2020-08-02T10:09:52Z</time>
      </trkpt>
      <trkpt lat="46.56041" lon="4.51908">
        <ele>257.605</ele>
        <time>2020-08-02T10:09:57Z</time>
      </trkpt>
      <trkpt lat="46.56041" lon="4.51919">
        <ele>256.605</ele>
        <time>2020-08-02T10:10:02Z</time>
      </trkpt>
      <trkpt lat="46.56039" lon="4.51929">
        <ele>253.605</ele>
        <time>2020-08-02T10:10:07Z</time>
      </trkpt>
      <trkpt lat="46.56037" lon="4.5194">
        <ele>252.605</ele>
        <time>2020-08-02T10:10:12Z</time>
      </trkpt>
      <trkpt lat="46.56033" lon="4.51954">
        <ele>252.605</ele>
        <time>2020-08-02T10:10:17Z</time>
      </trkpt>
      <trkpt lat="46.5603" lon="4.51968">
        <ele>250.606</ele>
        <time>2020-08-02T10:10:22Z</time>
      </trkpt>
      <trkpt lat="46.56028" lon="4.51983">
        <ele>252.606</ele>
        <time>2020-08-02T10:10:27Z</time>
      </trkpt>
      <trkpt lat="46.56028" lon="4.51997">
        <ele>256.606</ele>
        <time>2020-08-02T10:10:32Z</time>
      </trkpt>
      <trkpt lat="46.56026" lon="4.52007">
        <ele>255.606</ele>
        <time>2020-08-02T10:10:37Z</time>
      </trkpt>
      <trkpt lat="46.56024" lon="4.52018">
        <ele>255.606</ele>
        <time>2020-08-02T10:10:43Z</time>
      </trkpt>
      <trkpt lat="46.56022" lon="4.52028">
        <ele>257.606</ele>
        <time>2020-08-02T10:10:48Z</time>
      </trkpt>
      <trkpt lat="46.56019" lon="4.52038">
        <ele>254.606</ele>
        <time>2020-08-02T10:10:53Z</time>
      </trkpt>
      <trkpt lat="46.56017" lon="4.52049">
        <ele>254.606</ele>
        <time>2020-08-02T10:10:58Z</time>
      </trkpt>
      <trkpt lat="46.56016" lon="4.52059">
        <ele>256.606</ele>
        <time>2020-08-02T10:11:03Z</time>
      </trkpt>
      <trkpt lat="46.56014" lon="4.52069">
        <ele>255.606</ele>
        <time>2020-08-02T10:11:08Z</time>
      </trkpt>
      <trkpt lat="46.56014" lon="4.5208">
        <ele>253.606</ele>
        <time>2020-08-02T10:11:20Z</time>
      </trkpt>
      <trkpt lat="46.56012" lon="4.52091">
        <ele>253.606</ele>
        <time>2020-08-02T10:11:25Z</time>
      </trkpt>
      <trkpt lat="46.56012" lon="4.52105">
        <ele>253.606</ele>
        <time>2020-08-02T10:11:30Z</time>
      </trkpt>
      <trkpt lat="46.56015" lon="4.52117">
        <ele>248.606</ele>
        <time>2020-08-02T10:11:35Z</time>
      </trkpt>
      <trkpt lat="46.56013" lon="4.52127">
        <ele>248.606</ele>
        <time>2020-08-02T10:11:40Z</time>
      </trkpt>
      <trkpt lat="46.5601" lon="4.52136">
        <ele>250.606</ele>
        <time>2020-08-02T10:11:45Z</time>
      </trkpt>
      <trkpt lat="46.56008" lon="4.52147">
        <ele>253.606</ele>
        <time>2020-08-02T10:11:51Z</time>
      </trkpt>
      <trkpt lat="46.56006" lon="4.52158">
        <ele>253.606</ele>
        <time>2020-08-02T10:11:56Z</time>
      </trkpt>
      <trkpt lat="46.56004" lon="4.5217">
        <ele>255.606</ele>
        <time>2020-08-02T10:12:01Z</time>
      </trkpt>
      <trkpt lat="46.56002" lon="4.52181">
        <ele>255.606</ele>
        <time>2020-08-02T10:12:06Z</time>
      </trkpt>
      <trkpt lat="46.55999" lon="4.5219">
        <ele>255.606</ele>
        <time>2020-08-02T10:12:11Z</time>
      </trkpt>
      <trkpt lat="46.55998" lon="4.52201">
        <ele>257.606</ele>
        <time>2020-08-02T10:12:16Z</time>
      </trkpt>
      <trkpt lat="46.55996" lon="4.5221">
        <ele>259.606</ele>
        <time>2020-08-02T10:12:21Z</time>
      </trkpt>
      <trkpt lat="46.55995" lon="4.52223">
        <ele>259.606</ele>
        <time>2020-08-02T10:12:26Z</time>
      </trkpt>
      <trkpt lat="46.55995" lon="4.52235">
        <ele>259.606</ele>
        <time>2020-08-02T10:12:31Z</time>
      </trkpt>
      <trkpt lat="46.5599" lon="4.52244">
        <ele>260.606</ele>
        <time>2020-08-02T10:12:37Z</time>
      </trkpt>
      <trkpt lat="46.55989" lon="4.52254">
        <ele>262.606</ele>
        <time>2020-08-02T10:12:42Z</time>
      </trkpt>
      <trkpt lat="46.55989" lon="4.52265">
        <ele>262.606</ele>
        <time>2020-08-02T10:12:47Z</time>
      </trkpt>
      <trkpt lat="46.55989" lon="4.52277">
        <ele>262.606</ele>
        <time>2020-08-02T10:12:52Z</time>
      </trkpt>
      <trkpt lat="46.55989" lon="4.52288">
        <ele>260.606</ele>
        <time>2020-08-02T10:12:57Z</time>
      </trkpt>
      <trkpt lat="46.55989" lon="4.52302">
        <ele>258.606</ele>
        <time>2020-08-02T10:13:02Z</time>
      </trkpt>
      <trkpt lat="46.55988" lon="4.52312">
        <ele>257.606</ele>
        <time>2020-08-02T10:13:07Z</time>
      </trkpt>
      <trkpt lat="46.55988" lon="4.52323">
        <ele>259.606</ele>
        <time>2020-08-02T10:13:12Z</time>
      </trkpt>
      <trkpt lat="46.55984" lon="4.52333">
        <ele>260.606</ele>
        <time>2020-08-02T10:13:17Z</time>
      </trkpt>
      <trkpt lat="46.55982" lon="4.52348">
        <ele>263.606</ele>
        <time>2020-08-02T10:13:22Z</time>
      </trkpt>
      <trkpt lat="46.55984" lon="4.52362">
        <ele>259.606</ele>
        <time>2020-08-02T10:13:27Z</time>
      </trkpt>
      <trkpt lat="46.55986" lon="4.52374">
        <ele>256.606</ele>
        <time>2020-08-02T10:13:32Z</time>
      </trkpt>
      <trkpt lat="46.55986" lon="4.52385">
        <ele>255.606</ele>
        <time>2020-08-02T10:13:42Z</time>
      </trkpt>
      <trkpt lat="46.55991" lon="4.52393">
        <ele>255.606</ele>
        <time>2020-08-02T10:13:49Z</time>
      </trkpt>
      <trkpt lat="46.5599" lon="4.52403">
        <ele>251.606</ele>
        <time>2020-08-02T10:13:54Z</time>
      </trkpt>
      <trkpt lat="46.55992" lon="4.52414">
        <ele>255.606</ele>
        <time>2020-08-02T10:13:59Z</time>
      </trkpt>
      <trkpt lat="46.55992" lon="4.52425">
        <ele>256.606</ele>
        <time>2020-08-02T10:14:04Z</time>
      </trkpt>
      <trkpt lat="46.55993" lon="4.52436">
        <ele>256.606</ele>
        <time>2020-08-02T10:14:09Z</time>
      </trkpt>
      <trkpt lat="46.55995" lon="4.52448">
        <ele>258.606</ele>
        <time>2020-08-02T10:14:14Z</time>
      </trkpt>
      <trkpt lat="46.55995" lon="4.52462">
        <ele>259.606</ele>
        <time>2020-08-02T10:14:19Z</time>
      </trkpt>
      <trkpt lat="46.55996" lon="4.52474">
        <ele>258.606</ele>
        <time>2020-08-02T10:14:24Z</time>
      </trkpt>
      <trkpt lat="46.55997" lon="4.52486">
        <ele>255.606</ele>
        <time>2020-08-02T10:14:29Z</time>
      </trkpt>
      <trkpt lat="46.55998" lon="4.52499">
        <ele>254.606</ele>
        <time>2020-08-02T10:14:34Z</time>
      </trkpt>
      <trkpt lat="46.55997" lon="4.52514">
        <ele>255.606</ele>
        <time>2020-08-02T10:14:39Z</time>
      </trkpt>
      <trkpt lat="46.56001" lon="4.52525">
        <ele>253.606</ele>
        <time>2020-08-02T10:14:44Z</time>
      </trkpt>
      <trkpt lat="46.56005" lon="4.52537">
        <ele>251.606</ele>
        <time>2020-08-02T10:14:49Z</time>
      </trkpt>
      <trkpt lat="46.56006" lon="4.5255">
        <ele>249.606</ele>
        <time>2020-08-02T10:14:56Z</time>
      </trkpt>
      <trkpt lat="46.56008" lon="4.5256">
        <ele>250.606</ele>
        <time>2020-08-02T10:15:02Z</time>
      </trkpt>
      <trkpt lat="46.56005" lon="4.52569">
        <ele>249.606</ele>
        <time>2020-08-02T10:15:09Z</time>
      </trkpt>
      <trkpt lat="46.56003" lon="4.52582">
        <ele>249.606</ele>
        <time>2020-08-02T10:15:14Z</time>
      </trkpt>
      <trkpt lat="46.56" lon="4.52591">
        <ele>249.606</ele>
        <time>2020-08-02T10:15:19Z</time>
      </trkpt>
      <trkpt lat="46.56001" lon="4.52603">
        <ele>250.606</ele>
        <time>2020-08-02T10:15:24Z</time>
      </trkpt>
      <trkpt lat="46.56002" lon="4.52613">
        <ele>248.606</ele>
        <time>2020-08-02T10:15:29Z</time>
      </trkpt>
      <trkpt lat="46.55998" lon="4.52628">
        <ele>250.606</ele>
        <time>2020-08-02T10:15:34Z</time>
      </trkpt>
      <trkpt lat="46.55996" lon="4.5264">
        <ele>250.606</ele>
        <time>2020-08-02T10:15:39Z</time>
      </trkpt>
      <trkpt lat="46.55995" lon="4.52651">
        <ele>249.606</ele>
        <time>2020-08-02T10:15:47Z</time>
      </trkpt>
      <trkpt lat="46.55994" lon="4.52662">
        <ele>249.606</ele>
        <time>2020-08-02T10:15:52Z</time>
      </trkpt>
      <trkpt lat="46.55992" lon="4.52675">
        <ele>249.606</ele>
        <time>2020-08-02T10:15:57Z</time>
      </trkpt>
      <trkpt lat="46.55989" lon="4.52686">
        <ele>246.606</ele>
        <time>2020-08-02T10:16:02Z</time>
      </trkpt>
      <trkpt lat="46.55989" lon="4.52697">
        <ele>246.606</ele>
        <time>2020-08-02T10:16:07Z</time>
      </trkpt>
      <trkpt lat="46.55989" lon="4.5271">
        <ele>247.606</ele>
        <time>2020-08-02T10:16:12Z</time>
      </trkpt>
      <trkpt lat="46.55989" lon="4.52725">
        <ele>247.606</ele>
        <time>2020-08-02T10:16:17Z</time>
      </trkpt>
      <trkpt lat="46.55988" lon="4.5274">
        <ele>246.606</ele>
        <time>2020-08-02T10:16:22Z</time>
      </trkpt>
      <trkpt lat="46.55988" lon="4.52749">
        <ele>247.606</ele>
        <time>2020-08-02T10:16:28Z</time>
      </trkpt>
      <trkpt lat="46.55986" lon="4.52759">
        <ele>249.606</ele>
        <time>2020-08-02T10:16:35Z</time>
      </trkpt>
      <trkpt lat="46.55985" lon="4.52768">
        <ele>250.606</ele>
        <time>2020-08-02T10:16:41Z</time>
      </trkpt>
      <trkpt lat="46.55985" lon="4.52778">
        <ele>251.606</ele>
        <time>2020-08-02T10:16:46Z</time>
      </trkpt>
      <trkpt lat="46.55983" lon="4.52789">
        <ele>250.606</ele>
        <time>2020-08-02T10:16:51Z</time>
      </trkpt>
      <trkpt lat="46.5598" lon="4.52802">
        <ele>249.606</ele>
        <time>2020-08-02T10:16:56Z</time>
      </trkpt>
      <trkpt lat="46.5598" lon="4.52815">
        <ele>250.606</ele>
        <time>2020-08-02T10:17:01Z</time>
      </trkpt>
      <trkpt lat="46.55978" lon="4.52827">
        <ele>248.606</ele>
        <time>2020-08-02T10:17:06Z</time>
      </trkpt>
      <trkpt lat="46.55976" lon="4.52838">
        <ele>250.606</ele>
        <time>2020-08-02T10:17:11Z</time>
      </trkpt>
      <trkpt lat="46.55974" lon="4.52851">
        <ele>255.606</ele>
        <time>2020-08-02T10:17:16Z</time>
      </trkpt>
      <trkpt lat="46.55975" lon="4.5286">
        <ele>252.606</ele>
        <time>2020-08-02T10:17:21Z</time>
      </trkpt>
      <trkpt lat="46.55974" lon="4.5287">
        <ele>251.606</ele>
        <time>2020-08-02T10:17:26Z</time>
      </trkpt>
      <trkpt lat="46.55971" lon="4.52879">
        <ele>254.606</ele>
        <time>2020-08-02T10:17:32Z</time>
      </trkpt>
      <trkpt lat="46.5597" lon="4.5289">
        <ele>256.606</ele>
        <time>2020-08-02T10:17:37Z</time>
      </trkpt>
      <trkpt lat="46.55969" lon="4.52902">
        <ele>253.606</ele>
        <time>2020-08-02T10:17:42Z</time>
      </trkpt>
      <trkpt lat="46.55967" lon="4.52912">
        <ele>252.606</ele>
        <time>2020-08-02T10:17:47Z</time>
      </trkpt>
      <trkpt lat="46.55965" lon="4.52926">
        <ele>251.606</ele>
        <time>2020-08-02T10:17:52Z</time>
      </trkpt>
      <trkpt lat="46.55962" lon="4.52938">
        <ele>251.606</ele>
        <time>2020-08-02T10:17:57Z</time>
      </trkpt>
      <trkpt lat="46.55962" lon="4.52953">
        <ele>253.606</ele>
        <time>2020-08-02T10:18:02Z</time>
      </trkpt>
      <trkpt lat="46.55958" lon="4.52963">
        <ele>253.606</ele>
        <time>2020-08-02T10:18:07Z</time>
      </trkpt>
      <trkpt lat="46.55957" lon="4.52973">
        <ele>251.606</ele>
        <time>2020-08-02T10:18:12Z</time>
      </trkpt>
      <trkpt lat="46.55954" lon="4.52983">
        <ele>252.606</ele>
        <time>2020-08-02T10:18:20Z</time>
      </trkpt>
      <trkpt lat="46.55954" lon="4.52993">
        <ele>250.606</ele>
        <time>2020-08-02T10:18:26Z</time>
      </trkpt>
      <trkpt lat="46.5595" lon="4.53002">
        <ele>251.606</ele>
        <time>2020-08-02T10:18:32Z</time>
      </trkpt>
      <trkpt lat="46.55948" lon="4.53013">
        <ele>251.606</ele>
        <time>2020-08-02T10:18:37Z</time>
      </trkpt>
      <trkpt lat="46.55945" lon="4.53024">
        <ele>252.606</ele>
        <time>2020-08-02T10:18:42Z</time>
      </trkpt>
      <trkpt lat="46.55942" lon="4.53034">
        <ele>251.606</ele>
        <time>2020-08-02T10:18:47Z</time>
      </trkpt>
      <trkpt lat="46.55939" lon="4.53047">
        <ele>252.606</ele>
        <time>2020-08-02T10:18:52Z</time>
      </trkpt>
      <trkpt lat="46.55937" lon="4.5306">
        <ele>251.606</ele>
        <time>2020-08-02T10:18:57Z</time>
      </trkpt>
      <trkpt lat="46.55936" lon="4.53074">
        <ele>249.606</ele>
        <time>2020-08-02T10:19:02Z</time>
      </trkpt>
      <trkpt lat="46.55932" lon="4.53084">
        <ele>249.606</ele>
        <time>2020-08-02T10:19:07Z</time>
      </trkpt>
      <trkpt lat="46.55929" lon="4.53096">
        <ele>250.606</ele>
        <time>2020-08-02T10:19:12Z</time>
      </trkpt>
      <trkpt lat="46.55928" lon="4.5311">
        <ele>252.606</ele>
        <time>2020-08-02T10:19:17Z</time>
      </trkpt>
      <trkpt lat="46.55929" lon="4.53125">
        <ele>250.606</ele>
        <time>2020-08-02T10:19:22Z</time>
      </trkpt>
      <trkpt lat="46.55926" lon="4.53136">
        <ele>252.606</ele>
        <time>2020-08-02T10:19:29Z</time>
      </trkpt>
      <trkpt lat="46.55922" lon="4.53148">
        <ele>252.606</ele>
        <time>2020-08-02T10:19:34Z</time>
      </trkpt>
      <trkpt lat="46.55919" lon="4.53158">
        <ele>252.606</ele>
        <time>2020-08-02T10:19:39Z</time>
      </trkpt>
      <trkpt lat="46.55919" lon="4.53168">
        <ele>251.606</ele>
        <time>2020-08-02T10:19:45Z</time>
      </trkpt>
      <trkpt lat="46.55921" lon="4.53178">
        <ele>251.606</ele>
        <time>2020-08-02T10:19:52Z</time>
      </trkpt>
      <trkpt lat="46.55918" lon="4.53187">
        <ele>250.606</ele>
        <time>2020-08-02T10:19:59Z</time>
      </trkpt>
      <trkpt lat="46.55916" lon="4.53198">
        <ele>251.606</ele>
        <time>2020-08-02T10:20:04Z</time>
      </trkpt>
      <trkpt lat="46.55914" lon="4.5321">
        <ele>251.606</ele>
        <time>2020-08-02T10:20:09Z</time>
      </trkpt>
      <trkpt lat="46.55912" lon="4.53221">
        <ele>250.606</ele>
        <time>2020-08-02T10:20:14Z</time>
      </trkpt>
      <trkpt lat="46.55909" lon="4.53232">
        <ele>250.606</ele>
        <time>2020-08-02T10:20:19Z</time>
      </trkpt>
      <trkpt lat="46.5591" lon="4.53247">
        <ele>250.606</ele>
        <time>2020-08-02T10:20:24Z</time>
      </trkpt>
      <trkpt lat="46.55909" lon="4.53258">
        <ele>250.606</ele>
        <time>2020-08-02T10:20:29Z</time>
      </trkpt>
      <trkpt lat="46.55912" lon="4.53271">
        <ele>252.606</ele>
        <time>2020-08-02T10:20:34Z</time>
      </trkpt>
      <trkpt lat="46.55911" lon="4.53288">
        <ele>253.606</ele>
        <time>2020-08-02T10:20:39Z</time>
      </trkpt>
      <trkpt lat="46.55913" lon="4.533">
        <ele>253.606</ele>
        <time>2020-08-02T10:20:44Z</time>
      </trkpt>
      <trkpt lat="46.55912" lon="4.53311">
        <ele>253.606</ele>
        <time>2020-08-02T10:20:49Z</time>
      </trkpt>
      <trkpt lat="46.55911" lon="4.53322">
        <ele>250.606</ele>
        <time>2020-08-02T10:20:54Z</time>
      </trkpt>
      <trkpt lat="46.55913" lon="4.53331">
        <ele>249.606</ele>
        <time>2020-08-02T10:21:00Z</time>
      </trkpt>
      <trkpt lat="46.55915" lon="4.5334">
        <ele>250.606</ele>
        <time>2020-08-02T10:21:09Z</time>
      </trkpt>
      <trkpt lat="46.55918" lon="4.53349">
        <ele>245.606</ele>
        <time>2020-08-02T10:21:16Z</time>
      </trkpt>
      <trkpt lat="46.55922" lon="4.53357">
        <ele>245.606</ele>
        <time>2020-08-02T10:21:21Z</time>
      </trkpt>
      <trkpt lat="46.55924" lon="4.53371">
        <ele>244.606</ele>
        <time>2020-08-02T10:21:26Z</time>
      </trkpt>
      <trkpt lat="46.55925" lon="4.5338">
        <ele>243.606</ele>
        <time>2020-08-02T10:21:31Z</time>
      </trkpt>
      <trkpt lat="46.55928" lon="4.53393">
        <ele>240.606</ele>
        <time>2020-08-02T10:21:36Z</time>
      </trkpt>
      <trkpt lat="46.5593" lon="4.53409">
        <ele>241.606</ele>
        <time>2020-08-02T10:21:41Z</time>
      </trkpt>
      <trkpt lat="46.55932" lon="4.53426">
        <ele>243.606</ele>
        <time>2020-08-02T10:21:46Z</time>
      </trkpt>
      <trkpt lat="46.55932" lon="4.53441">
        <ele>248.606</ele>
        <time>2020-08-02T10:21:51Z</time>
      </trkpt>
      <trkpt lat="46.55929" lon="4.53455">
        <ele>249.606</ele>
        <time>2020-08-02T10:21:56Z</time>
      </trkpt>
      <trkpt lat="46.55928" lon="4.53468">
        <ele>249.606</ele>
        <time>2020-08-02T10:22:01Z</time>
      </trkpt>
      <trkpt lat="46.55927" lon="4.5348">
        <ele>248.606</ele>
        <time>2020-08-02T10:22:06Z</time>
      </trkpt>
      <trkpt lat="46.55926" lon="4.5349">
        <ele>245.606</ele>
        <time>2020-08-02T10:22:11Z</time>
      </trkpt>
      <trkpt lat="46.55925" lon="4.535">
        <ele>244.606</ele>
        <time>2020-08-02T10:22:17Z</time>
      </trkpt>
      <trkpt lat="46.55921" lon="4.53508">
        <ele>247.606</ele>
        <time>2020-08-02T10:22:25Z</time>
      </trkpt>
      <trkpt lat="46.55921" lon="4.5352">
        <ele>246.606</ele>
        <time>2020-08-02T10:22:33Z</time>
      </trkpt>
      <trkpt lat="46.55919" lon="4.5353">
        <ele>248.606</ele>
        <time>2020-08-02T10:22:38Z</time>
      </trkpt>
      <trkpt lat="46.55917" lon="4.53539">
        <ele>247.606</ele>
        <time>2020-08-02T10:22:43Z</time>
      </trkpt>
      <trkpt lat="46.55916" lon="4.5355">
        <ele>252.606</ele>
        <time>2020-08-02T10:22:51Z</time>
      </trkpt>
      <trkpt lat="46.55914" lon="4.5356">
        <ele>254.606</ele>
        <time>2020-08-02T10:22:56Z</time>
      </trkpt>
      <trkpt lat="46.55912" lon="4.53571">
        <ele>255.606</ele>
        <time>2020-08-02T10:23:01Z</time>
      </trkpt>
      <trkpt lat="46.55908" lon="4.53586">
        <ele>255.606</ele>
        <time>2020-08-02T10:23:06Z</time>
      </trkpt>
      <trkpt lat="46.55906" lon="4.53598">
        <ele>254.606</ele>
        <time>2020-08-02T10:23:11Z</time>
      </trkpt>
      <trkpt lat="46.55903" lon="4.53612">
        <ele>253.606</ele>
        <time>2020-08-02T10:23:16Z</time>
      </trkpt>
      <trkpt lat="46.559" lon="4.53622">
        <ele>254.606</ele>
        <time>2020-08-02T10:23:22Z</time>
      </trkpt>
      <trkpt lat="46.55894" lon="4.53632">
        <ele>252.606</ele>
        <time>2020-08-02T10:23:27Z</time>
      </trkpt>
      <trkpt lat="46.55889" lon="4.53647">
        <ele>254.606</ele>
        <time>2020-08-02T10:23:32Z</time>
      </trkpt>
      <trkpt lat="46.55888" lon="4.53663">
        <ele>253.606</ele>
        <time>2020-08-02T10:23:37Z</time>
      </trkpt>
      <trkpt lat="46.55882" lon="4.53669">
        <ele>251.606</ele>
        <time>2020-08-02T10:23:42Z</time>
      </trkpt>
      <trkpt lat="46.55879" lon="4.53677">
        <ele>250.606</ele>
        <time>2020-08-02T10:23:47Z</time>
      </trkpt>
      <trkpt lat="46.55874" lon="4.53685">
        <ele>251.606</ele>
        <time>2020-08-02T10:23:54Z</time>
      </trkpt>
      <trkpt lat="46.55867" lon="4.53689">
        <ele>253.606</ele>
        <time>2020-08-02T10:24:01Z</time>
      </trkpt>
      <trkpt lat="46.55861" lon="4.53698">
        <ele>252.606</ele>
        <time>2020-08-02T10:24:06Z</time>
      </trkpt>
      <trkpt lat="46.55858" lon="4.53706">
        <ele>252.606</ele>
        <time>2020-08-02T10:24:11Z</time>
      </trkpt>
      <trkpt lat="46.55852" lon="4.53714">
        <ele>252.606</ele>
        <time>2020-08-02T10:24:16Z</time>
      </trkpt>
      <trkpt lat="46.55847" lon="4.53722">
        <ele>252.606</ele>
        <time>2020-08-02T10:24:21Z</time>
      </trkpt>
      <trkpt lat="46.55841" lon="4.53729">
        <ele>254.606</ele>
        <time>2020-08-02T10:24:26Z</time>
      </trkpt>
      <trkpt lat="46.55835" lon="4.53736">
        <ele>255.606</ele>
        <time>2020-08-02T10:24:31Z</time>
      </trkpt>
      <trkpt lat="46.5583" lon="4.53743">
        <ele>253.606</ele>
        <time>2020-08-02T10:24:36Z</time>
      </trkpt>
      <trkpt lat="46.55826" lon="4.53751">
        <ele>254.606</ele>
        <time>2020-08-02T10:24:50Z</time>
      </trkpt>
      <trkpt lat="46.55821" lon="4.53762">
        <ele>252.606</ele>
        <time>2020-08-02T10:24:55Z</time>
      </trkpt>
      <trkpt lat="46.55818" lon="4.5377">
        <ele>252.606</ele>
        <time>2020-08-02T10:25:00Z</time>
      </trkpt>
      <trkpt lat="46.55817" lon="4.53782">
        <ele>253.606</ele>
        <time>2020-08-02T10:25:05Z</time>
      </trkpt>
      <trkpt lat="46.55813" lon="4.5379">
        <ele>255.606</ele>
        <time>2020-08-02T10:25:10Z</time>
      </trkpt>
      <trkpt lat="46.55806" lon="4.53796">
        <ele>255.606</ele>
        <time>2020-08-02T10:25:19Z</time>
      </trkpt>
      <trkpt lat="46.558" lon="4.53803">
        <ele>255.606</ele>
        <time>2020-08-02T10:25:24Z</time>
      </trkpt>
      <trkpt lat="46.55795" lon="4.53808">
        <ele>253.606</ele>
        <time>2020-08-02T10:25:29Z</time>
      </trkpt>
      <trkpt lat="46.55791" lon="4.53817">
        <ele>252.606</ele>
        <time>2020-08-02T10:25:35Z</time>
      </trkpt>
      <trkpt lat="46.5579" lon="4.53827">
        <ele>253.606</ele>
        <time>2020-08-02T10:25:40Z</time>
      </trkpt>
      <trkpt lat="46.55792" lon="4.53837">
        <ele>254.606</ele>
        <time>2020-08-02T10:25:45Z</time>
      </trkpt>
      <trkpt lat="46.5579" lon="4.53848">
        <ele>256.606</ele>
        <time>2020-08-02T10:25:50Z</time>
      </trkpt>
      <trkpt lat="46.5579" lon="4.53858">
        <ele>257.606</ele>
        <time>2020-08-02T10:25:57Z</time>
      </trkpt>
      <trkpt lat="46.55786" lon="4.53869">
        <ele>255.606</ele>
        <time>2020-08-02T10:26:03Z</time>
      </trkpt>
      <trkpt lat="46.55784" lon="4.53879">
        <ele>249.606</ele>
        <time>2020-08-02T10:26:11Z</time>
      </trkpt>
      <trkpt lat="46.55779" lon="4.53886">
        <ele>247.606</ele>
        <time>2020-08-02T10:26:21Z</time>
      </trkpt>
      <trkpt lat="46.55774" lon="4.53892">
        <ele>246.606</ele>
        <time>2020-08-02T10:26:28Z</time>
      </trkpt>
      <trkpt lat="46.5577" lon="4.53902">
        <ele>245.606</ele>
        <time>2020-08-02T10:26:34Z</time>
      </trkpt>
      <trkpt lat="46.55766" lon="4.5391">
        <ele>238.606</ele>
        <time>2020-08-02T10:26:41Z</time>
      </trkpt>
      <trkpt lat="46.55762" lon="4.53919">
        <ele>237.606</ele>
        <time>2020-08-02T10:26:47Z</time>
      </trkpt>
      <trkpt lat="46.55757" lon="4.53926">
        <ele>233.606</ele>
        <time>2020-08-02T10:26:55Z</time>
      </trkpt>
      <trkpt lat="46.55751" lon="4.5393">
        <ele>232.606</ele>
        <time>2020-08-02T10:27:01Z</time>
      </trkpt>
      <trkpt lat="46.55743" lon="4.5393">
        <ele>231.606</ele>
        <time>2020-08-02T10:27:11Z</time>
      </trkpt>
      <trkpt lat="46.55737" lon="4.53934">
        <ele>229.606</ele>
        <time>2020-08-02T10:27:16Z</time>
      </trkpt>
      <trkpt lat="46.55733" lon="4.53945">
        <ele>230.606</ele>
        <time>2020-08-02T10:27:21Z</time>
      </trkpt>
      <trkpt lat="46.55728" lon="4.53952">
        <ele>231.606</ele>
        <time>2020-08-02T10:27:30Z</time>
      </trkpt>
      <trkpt lat="46.55722" lon="4.53958">
        <ele>227.606</ele>
        <time>2020-08-02T10:27:39Z</time>
      </trkpt>
      <trkpt lat="46.55721" lon="4.53967">
        <ele>227.606</ele>
        <time>2020-08-02T10:27:44Z</time>
      </trkpt>
      <trkpt lat="46.55717" lon="4.53978">
        <ele>228.606</ele>
        <time>2020-08-02T10:27:49Z</time>
      </trkpt>
      <trkpt lat="46.55711" lon="4.53983">
        <ele>228.606</ele>
        <time>2020-08-02T10:27:56Z</time>
      </trkpt>
      <trkpt lat="46.55707" lon="4.53991">
        <ele>227.606</ele>
        <time>2020-08-02T10:28:03Z</time>
      </trkpt>
      <trkpt lat="46.55703" lon="4.54">
        <ele>228.606</ele>
        <time>2020-08-02T10:28:08Z</time>
      </trkpt>
      <trkpt lat="46.557" lon="4.54011">
        <ele>228.606</ele>
        <time>2020-08-02T10:28:14Z</time>
      </trkpt>
      <trkpt lat="46.55698" lon="4.5402">
        <ele>227.606</ele>
        <time>2020-08-02T10:28:19Z</time>
      </trkpt>
      <trkpt lat="46.55697" lon="4.54032">
        <ele>227.606</ele>
        <time>2020-08-02T10:28:26Z</time>
      </trkpt>
      <trkpt lat="46.55696" lon="4.54042">
        <ele>227.606</ele>
        <time>2020-08-02T10:28:32Z</time>
      </trkpt>
      <trkpt lat="46.55695" lon="4.54052">
        <ele>226.606</ele>
        <time>2020-08-02T10:28:37Z</time>
      </trkpt>
      <trkpt lat="46.55696" lon="4.54061">
        <ele>228.606</ele>
        <time>2020-08-02T10:28:42Z</time>
      </trkpt>
      <trkpt lat="46.55695" lon="4.54073">
        <ele>231.606</ele>
        <time>2020-08-02T10:28:51Z</time>
      </trkpt>
      <trkpt lat="46.55691" lon="4.54084">
        <ele>230.606</ele>
        <time>2020-08-02T10:28:56Z</time>
      </trkpt>
      <trkpt lat="46.5569" lon="4.54096">
        <ele>233.606</ele>
        <time>2020-08-02T10:29:01Z</time>
      </trkpt>
      <trkpt lat="46.55689" lon="4.54106">
        <ele>231.606</ele>
        <time>2020-08-02T10:29:06Z</time>
      </trkpt>
      <trkpt lat="46.55689" lon="4.54116">
        <ele>227.606</ele>
        <time>2020-08-02T10:29:12Z</time>
      </trkpt>
      <trkpt lat="46.55687" lon="4.54126">
        <ele>224.606</ele>
        <time>2020-08-02T10:29:17Z</time>
      </trkpt>
      <trkpt lat="46.55687" lon="4.54137">
        <ele>222.606</ele>
        <time>2020-08-02T10:29:22Z</time>
      </trkpt>
      <trkpt lat="46.55685" lon="4.54147">
        <ele>224.606</ele>
        <time>2020-08-02T10:29:27Z</time>
      </trkpt>
      <trkpt lat="46.55683" lon="4.54157">
        <ele>223.606</ele>
        <time>2020-08-02T10:29:35Z</time>
      </trkpt>
      <trkpt lat="46.55683" lon="4.54169">
        <ele>224.606</ele>
        <time>2020-08-02T10:29:40Z</time>
      </trkpt>
      <trkpt lat="46.5568" lon="4.54179">
        <ele>223.606</ele>
        <time>2020-08-02T10:29:46Z</time>
      </trkpt>
      <trkpt lat="46.55678" lon="4.54188">
        <ele>226.606</ele>
        <time>2020-08-02T10:29:51Z</time>
      </trkpt>
      <trkpt lat="46.55677" lon="4.54199">
        <ele>225.606</ele>
        <time>2020-08-02T10:29:56Z</time>
      </trkpt>
      <trkpt lat="46.55676" lon="4.5421">
        <ele>223.606</ele>
        <time>2020-08-02T10:30:02Z</time>
      </trkpt>
      <trkpt lat="46.55677" lon="4.54222">
        <ele>220.606</ele>
        <time>2020-08-02T10:30:07Z</time>
      </trkpt>
      <trkpt lat="46.55678" lon="4.54231">
        <ele>219.606</ele>
        <time>2020-08-02T10:30:13Z</time>
      </trkpt>
      <trkpt lat="46.55679" lon="4.54243">
        <ele>219.606</ele>
        <time>2020-08-02T10:30:18Z</time>
      </trkpt>
      <trkpt lat="46.55679" lon="4.54258">
        <ele>223.606</ele>
        <time>2020-08-02T10:30:23Z</time>
      </trkpt>
      <trkpt lat="46.5568" lon="4.54269">
        <ele>219.606</ele>
        <time>2020-08-02T10:30:29Z</time>
      </trkpt>
      <trkpt lat="46.55683" lon="4.5428">
        <ele>214.606</ele>
        <time>2020-08-02T10:30:34Z</time>
      </trkpt>
      <trkpt lat="46.55681" lon="4.5429">
        <ele>219.606</ele>
        <time>2020-08-02T10:30:44Z</time>
      </trkpt>
      <trkpt lat="46.55676" lon="4.543">
        <ele>221.606</ele>
        <time>2020-08-02T10:30:49Z</time>
      </trkpt>
      <trkpt lat="46.55672" lon="4.54309">
        <ele>222.606</ele>
        <time>2020-08-02T10:30:54Z</time>
      </trkpt>
      <trkpt lat="46.5567" lon="4.54319">
        <ele>223.606</ele>
        <time>2020-08-02T10:30:59Z</time>
      </trkpt>
      <trkpt lat="46.55665" lon="4.54327">
        <ele>225.606</ele>
        <time>2020-08-02T10:31:06Z</time>
      </trkpt>
      <trkpt lat="46.55661" lon="4.54335">
        <ele>223.606</ele>
        <time>2020-08-02T10:31:12Z</time>
      </trkpt>
      <trkpt lat="46.55657" lon="4.54343">
        <ele>225.606</ele>
        <time>2020-08-02T10:31:17Z</time>
      </trkpt>
      <trkpt lat="46.55656" lon="4.54352">
        <ele>225.606</ele>
        <time>2020-08-02T10:31:22Z</time>
      </trkpt>
      <trkpt lat="46.55654" lon="4.54364">
        <ele>227.606</ele>
        <time>2020-08-02T10:31:29Z</time>
      </trkpt>
      <trkpt lat="46.55652" lon="4.54373">
        <ele>228.606</ele>
        <time>2020-08-02T10:31:36Z</time>
      </trkpt>
      <trkpt lat="46.55653" lon="4.54383">
        <ele>229.606</ele>
        <time>2020-08-02T10:31:41Z</time>
      </trkpt>
      <trkpt lat="46.55654" lon="4.54394">
        <ele>227.606</ele>
        <time>2020-08-02T10:31:47Z</time>
      </trkpt>
      <trkpt lat="46.55652" lon="4.54403">
        <ele>227.606</ele>
        <time>2020-08-02T10:31:53Z</time>
      </trkpt>
      <trkpt lat="46.55655" lon="4.54412">
        <ele>222.606</ele>
        <time>2020-08-02T10:31:59Z</time>
      </trkpt>
      <trkpt lat="46.55655" lon="4.54424">
        <ele>230.606</ele>
        <time>2020-08-02T10:32:09Z</time>
      </trkpt>
      <trkpt lat="46.55654" lon="4.54433">
        <ele>234.606</ele>
        <time>2020-08-02T10:32:16Z</time>
      </trkpt>
      <trkpt lat="46.55653" lon="4.54446">
        <ele>239.606</ele>
        <time>2020-08-02T10:32:21Z</time>
      </trkpt>
      <trkpt lat="46.55647" lon="4.54459">
        <ele>238.606</ele>
        <time>2020-08-02T10:32:33Z</time>
      </trkpt>
      <trkpt lat="46.55645" lon="4.54468">
        <ele>238.606</ele>
        <time>2020-08-02T10:32:39Z</time>
      </trkpt>
      <trkpt lat="46.5564" lon="4.54478">
        <ele>240.606</ele>
        <time>2020-08-02T10:32:44Z</time>
      </trkpt>
      <trkpt lat="46.55635" lon="4.54488">
        <ele>243.606</ele>
        <time>2020-08-02T10:32:50Z</time>
      </trkpt>
      <trkpt lat="46.55633" lon="4.54497">
        <ele>246.606</ele>
        <time>2020-08-02T10:32:57Z</time>
      </trkpt>
      <trkpt lat="46.55627" lon="4.54503">
        <ele>244.606</ele>
        <time>2020-08-02T10:33:02Z</time>
      </trkpt>
      <trkpt lat="46.5562" lon="4.54506">
        <ele>242.606</ele>
        <time>2020-08-02T10:33:09Z</time>
      </trkpt>
      <trkpt lat="46.55614" lon="4.54503">
        <ele>240.606</ele>
        <time>2020-08-02T10:33:16Z</time>
      </trkpt>
      <trkpt lat="46.55608" lon="4.54496">
        <ele>241.606</ele>
        <time>2020-08-02T10:33:22Z</time>
      </trkpt>
      <trkpt lat="46.556" lon="4.54491">
        <ele>240.606</ele>
        <time>2020-08-02T10:33:27Z</time>
      </trkpt>
      <trkpt lat="46.55595" lon="4.54484">
        <ele>243.606</ele>
        <time>2020-08-02T10:33:34Z</time>
      </trkpt>
      <trkpt lat="46.55587" lon="4.54478">
        <ele>242.606</ele>
        <time>2020-08-02T10:33:39Z</time>
      </trkpt>
      <trkpt lat="46.55582" lon="4.5447">
        <ele>242.606</ele>
        <time>2020-08-02T10:33:46Z</time>
      </trkpt>
      <trkpt lat="46.55575" lon="4.54464">
        <ele>242.606</ele>
        <time>2020-08-02T10:33:51Z</time>
      </trkpt>
      <trkpt lat="46.55568" lon="4.54456">
        <ele>246.606</ele>
        <time>2020-08-02T10:33:58Z</time>
      </trkpt>
      <trkpt lat="46.55562" lon="4.54451">
        <ele>248.606</ele>
        <time>2020-08-02T10:34:03Z</time>
      </trkpt>
      <trkpt lat="46.55556" lon="4.54443">
        <ele>249.606</ele>
        <time>2020-08-02T10:34:08Z</time>
      </trkpt>
      <trkpt lat="46.5555" lon="4.54438">
        <ele>249.606</ele>
        <time>2020-08-02T10:34:13Z</time>
      </trkpt>
      <trkpt lat="46.55544" lon="4.54434">
        <ele>250.606</ele>
        <time>2020-08-02T10:34:19Z</time>
      </trkpt>
      <trkpt lat="46.55538" lon="4.54426">
        <ele>251.606</ele>
        <time>2020-08-02T10:34:24Z</time>
      </trkpt>
      <trkpt lat="46.5553" lon="4.5442">
        <ele>251.606</ele>
        <time>2020-08-02T10:34:29Z</time>
      </trkpt>
      <trkpt lat="46.55525" lon="4.54412">
        <ele>254.606</ele>
        <time>2020-08-02T10:34:37Z</time>
      </trkpt>
      <trkpt lat="46.55518" lon="4.54406">
        <ele>255.606</ele>
        <time>2020-08-02T10:34:42Z</time>
      </trkpt>
      <trkpt lat="46.55509" lon="4.54401">
        <ele>257.606</ele>
        <time>2020-08-02T10:34:47Z</time>
      </trkpt>
      <trkpt lat="46.55504" lon="4.54395">
        <ele>254.606</ele>
        <time>2020-08-02T10:34:53Z</time>
      </trkpt>
      <trkpt lat="46.55499" lon="4.54388">
        <ele>255.606</ele>
        <time>2020-08-02T10:34:58Z</time>
      </trkpt>
      <trkpt lat="46.5549" lon="4.54382">
        <ele>254.606</ele>
        <time>2020-08-02T10:35:03Z</time>
      </trkpt>
      <trkpt lat="46.55484" lon="4.54376">
        <ele>252.606</ele>
        <time>2020-08-02T10:35:10Z</time>
      </trkpt>
      <trkpt lat="46.55477" lon="4.54372">
        <ele>251.606</ele>
        <time>2020-08-02T10:35:15Z</time>
      </trkpt>
      <trkpt lat="46.55471" lon="4.54368">
        <ele>247.606</ele>
        <time>2020-08-02T10:35:22Z</time>
      </trkpt>
      <trkpt lat="46.55464" lon="4.54359">
        <ele>248.606</ele>
        <time>2020-08-02T10:35:27Z</time>
      </trkpt>
      <trkpt lat="46.55457" lon="4.54354">
        <ele>244.606</ele>
        <time>2020-08-02T10:35:34Z</time>
      </trkpt>
      <trkpt lat="46.55451" lon="4.54347">
        <ele>241.606</ele>
        <time>2020-08-02T10:35:41Z</time>
      </trkpt>
      <trkpt lat="46.55441" lon="4.54341">
        <ele>239.606</ele>
        <time>2020-08-02T10:35:46Z</time>
      </trkpt>
      <trkpt lat="46.55435" lon="4.54337">
        <ele>236.606</ele>
        <time>2020-08-02T10:35:51Z</time>
      </trkpt>
      <trkpt lat="46.5543" lon="4.54329">
        <ele>235.606</ele>
        <time>2020-08-02T10:35:58Z</time>
      </trkpt>
      <trkpt lat="46.55424" lon="4.5432">
        <ele>236.606</ele>
        <time>2020-08-02T10:36:03Z</time>
      </trkpt>
      <trkpt lat="46.55419" lon="4.54313">
        <ele>238.606</ele>
        <time>2020-08-02T10:36:09Z</time>
      </trkpt>
      <trkpt lat="46.55413" lon="4.54306">
        <ele>234.606</ele>
        <time>2020-08-02T10:36:14Z</time>
      </trkpt>
      <trkpt lat="46.55407" lon="4.54297">
        <ele>238.605</ele>
        <time>2020-08-02T10:36:19Z</time>
      </trkpt>
      <trkpt lat="46.554" lon="4.5429">
        <ele>238.605</ele>
        <time>2020-08-02T10:36:24Z</time>
      </trkpt>
      <trkpt lat="46.55396" lon="4.54278">
        <ele>238.605</ele>
        <time>2020-08-02T10:36:31Z</time>
      </trkpt>
      <trkpt lat="46.5539" lon="4.54274">
        <ele>236.605</ele>
        <time>2020-08-02T10:36:37Z</time>
      </trkpt>
      <trkpt lat="46.55383" lon="4.54268">
        <ele>236.605</ele>
        <time>2020-08-02T10:36:44Z</time>
      </trkpt>
      <trkpt lat="46.55377" lon="4.54274">
        <ele>238.605</ele>
        <time>2020-08-02T10:36:56Z</time>
      </trkpt>
      <trkpt lat="46.55376" lon="4.54284">
        <ele>237.605</ele>
        <time>2020-08-02T10:37:04Z</time>
      </trkpt>
      <trkpt lat="46.55374" lon="4.54293">
        <ele>237.605</ele>
        <time>2020-08-02T10:37:11Z</time>
      </trkpt>
      <trkpt lat="46.55373" lon="4.54303">
        <ele>241.605</ele>
        <time>2020-08-02T10:37:22Z</time>
      </trkpt>
      <trkpt lat="46.5537" lon="4.54313">
        <ele>243.605</ele>
        <time>2020-08-02T10:37:31Z</time>
      </trkpt>
      <trkpt lat="46.55363" lon="4.54316">
        <ele>247.605</ele>
        <time>2020-08-02T10:37:41Z</time>
      </trkpt>
      <trkpt lat="46.5536" lon="4.54326">
        <ele>246.605</ele>
        <time>2020-08-02T10:37:48Z</time>
      </trkpt>
      <trkpt lat="46.55355" lon="4.54334">
        <ele>246.605</ele>
        <time>2020-08-02T10:37:55Z</time>
      </trkpt>
      <trkpt lat="46.5535" lon="4.54341">
        <ele>248.605</ele>
        <time>2020-08-02T10:38:02Z</time>
      </trkpt>
      <trkpt lat="46.55345" lon="4.54348">
        <ele>249.605</ele>
        <time>2020-08-02T10:38:07Z</time>
      </trkpt>
      <trkpt lat="46.5534" lon="4.54356">
        <ele>251.605</ele>
        <time>2020-08-02T10:38:14Z</time>
      </trkpt>
      <trkpt lat="46.55334" lon="4.54362">
        <ele>251.605</ele>
        <time>2020-08-02T10:38:23Z</time>
      </trkpt>
      <trkpt lat="46.55329" lon="4.54368">
        <ele>252.605</ele>
        <time>2020-08-02T10:40:14Z</time>
      </trkpt>
      <trkpt lat="46.55325" lon="4.54377">
        <ele>251.605</ele>
        <time>2020-08-02T10:40:19Z</time>
      </trkpt>
      <trkpt lat="46.55319" lon="4.54385">
        <ele>253.605</ele>
        <time>2020-08-02T10:40:25Z</time>
      </trkpt>
      <trkpt lat="46.55318" lon="4.54395">
        <ele>251.605</ele>
        <time>2020-08-02T10:40:33Z</time>
      </trkpt>
      <trkpt lat="46.55313" lon="4.54402">
        <ele>253.605</ele>
        <time>2020-08-02T10:40:41Z</time>
      </trkpt>
      <trkpt lat="46.55305" lon="4.54407">
        <ele>254.605</ele>
        <time>2020-08-02T10:40:46Z</time>
      </trkpt>
      <trkpt lat="46.55298" lon="4.54411">
        <ele>257.605</ele>
        <time>2020-08-02T10:40:52Z</time>
      </trkpt>
      <trkpt lat="46.55291" lon="4.54414">
        <ele>256.605</ele>
        <time>2020-08-02T10:40:58Z</time>
      </trkpt>
      <trkpt lat="46.55284" lon="4.54418">
        <ele>255.605</ele>
        <time>2020-08-02T10:41:03Z</time>
      </trkpt>
      <trkpt lat="46.55278" lon="4.54422">
        <ele>254.605</ele>
        <time>2020-08-02T10:41:08Z</time>
      </trkpt>
      <trkpt lat="46.55271" lon="4.54422">
        <ele>254.605</ele>
        <time>2020-08-02T10:41:14Z</time>
      </trkpt>
      <trkpt lat="46.55264" lon="4.54424">
        <ele>252.605</ele>
        <time>2020-08-02T10:41:20Z</time>
      </trkpt>
      <trkpt lat="46.55256" lon="4.54423">
        <ele>257.605</ele>
        <time>2020-08-02T10:41:25Z</time>
      </trkpt>
      <trkpt lat="46.55248" lon="4.54422">
        <ele>258.605</ele>
        <time>2020-08-02T10:41:32Z</time>
      </trkpt>
      <trkpt lat="46.55241" lon="4.54421">
        <ele>256.605</ele>
        <time>2020-08-02T10:41:38Z</time>
      </trkpt>
      <trkpt lat="46.55233" lon="4.5442">
        <ele>256.605</ele>
        <time>2020-08-02T10:41:46Z</time>
      </trkpt>
      <trkpt lat="46.55224" lon="4.54415">
        <ele>258.605</ele>
        <time>2020-08-02T10:41:51Z</time>
      </trkpt>
      <trkpt lat="46.55217" lon="4.54414">
        <ele>257.605</ele>
        <time>2020-08-02T10:41:57Z</time>
      </trkpt>
      <trkpt lat="46.5521" lon="4.54412">
        <ele>256.605</ele>
        <time>2020-08-02T10:42:02Z</time>
      </trkpt>
      <trkpt lat="46.55202" lon="4.5441">
        <ele>255.605</ele>
        <time>2020-08-02T10:42:08Z</time>
      </trkpt>
      <trkpt lat="46.55196" lon="4.54406">
        <ele>258.605</ele>
        <time>2020-08-02T10:42:14Z</time>
      </trkpt>
      <trkpt lat="46.55189" lon="4.54408">
        <ele>259.605</ele>
        <time>2020-08-02T10:42:21Z</time>
      </trkpt>
      <trkpt lat="46.55183" lon="4.54413">
        <ele>255.605</ele>
        <time>2020-08-02T10:42:27Z</time>
      </trkpt>
      <trkpt lat="46.55176" lon="4.54418">
        <ele>256.605</ele>
        <time>2020-08-02T10:42:33Z</time>
      </trkpt>
      <trkpt lat="46.55169" lon="4.54417">
        <ele>256.605</ele>
        <time>2020-08-02T10:42:44Z</time>
      </trkpt>
      <trkpt lat="46.55162" lon="4.5442">
        <ele>256.605</ele>
        <time>2020-08-02T10:42:51Z</time>
      </trkpt>
      <trkpt lat="46.55156" lon="4.54424">
        <ele>254.605</ele>
        <time>2020-08-02T10:42:58Z</time>
      </trkpt>
      <trkpt lat="46.5515" lon="4.54426">
        <ele>254.605</ele>
        <time>2020-08-02T10:43:04Z</time>
      </trkpt>
      <trkpt lat="46.55143" lon="4.54431">
        <ele>254.605</ele>
        <time>2020-08-02T10:43:09Z</time>
      </trkpt>
      <trkpt lat="46.55137" lon="4.54436">
        <ele>255.605</ele>
        <time>2020-08-02T10:43:14Z</time>
      </trkpt>
      <trkpt lat="46.55133" lon="4.54443">
        <ele>255.605</ele>
        <time>2020-08-02T10:43:20Z</time>
      </trkpt>
      <trkpt lat="46.55124" lon="4.54445">
        <ele>256.605</ele>
        <time>2020-08-02T10:43:27Z</time>
      </trkpt>
      <trkpt lat="46.55118" lon="4.5445">
        <ele>258.605</ele>
        <time>2020-08-02T10:43:34Z</time>
      </trkpt>
      <trkpt lat="46.55113" lon="4.54457">
        <ele>256.605</ele>
        <time>2020-08-02T10:43:39Z</time>
      </trkpt>
      <trkpt lat="46.55108" lon="4.54462">
        <ele>259.605</ele>
        <time>2020-08-02T10:43:44Z</time>
      </trkpt>
      <trkpt lat="46.55101" lon="4.54467">
        <ele>258.605</ele>
        <time>2020-08-02T10:43:53Z</time>
      </trkpt>
      <trkpt lat="46.55096" lon="4.54472">
        <ele>260.605</ele>
        <time>2020-08-02T10:44:03Z</time>
      </trkpt>
      <trkpt lat="46.55087" lon="4.54474">
        <ele>263.605</ele>
        <time>2020-08-02T10:44:10Z</time>
      </trkpt>
      <trkpt lat="46.5508" lon="4.54476">
        <ele>267.605</ele>
        <time>2020-08-02T10:44:15Z</time>
      </trkpt>
      <trkpt lat="46.55076" lon="4.54484">
        <ele>262.605</ele>
        <time>2020-08-02T10:44:22Z</time>
      </trkpt>
      <trkpt lat="46.5507" lon="4.54488">
        <ele>264.605</ele>
        <time>2020-08-02T10:44:29Z</time>
      </trkpt>
      <trkpt lat="46.55063" lon="4.54488">
        <ele>267.605</ele>
        <time>2020-08-02T10:44:41Z</time>
      </trkpt>
      <trkpt lat="46.55057" lon="4.54493">
        <ele>267.605</ele>
        <time>2020-08-02T10:44:49Z</time>
      </trkpt>
      <trkpt lat="46.55051" lon="4.54498">
        <ele>268.605</ele>
        <time>2020-08-02T10:45:10Z</time>
      </trkpt>
      <trkpt lat="46.55044" lon="4.54501">
        <ele>271.605</ele>
        <time>2020-08-02T10:45:17Z</time>
      </trkpt>
      <trkpt lat="46.55037" lon="4.545">
        <ele>274.605</ele>
        <time>2020-08-02T10:45:22Z</time>
      </trkpt>
      <trkpt lat="46.5503" lon="4.54501">
        <ele>273.605</ele>
        <time>2020-08-02T10:45:29Z</time>
      </trkpt>
      <trkpt lat="46.55023" lon="4.54502">
        <ele>274.605</ele>
        <time>2020-08-02T10:45:34Z</time>
      </trkpt>
      <trkpt lat="46.55016" lon="4.54501">
        <ele>280.605</ele>
        <time>2020-08-02T10:45:40Z</time>
      </trkpt>
      <trkpt lat="46.55009" lon="4.54501">
        <ele>280.605</ele>
        <time>2020-08-02T10:45:47Z</time>
      </trkpt>
      <trkpt lat="46.55002" lon="4.54498">
        <ele>283.605</ele>
        <time>2020-08-02T10:45:52Z</time>
      </trkpt>
      <trkpt lat="46.54994" lon="4.54497">
        <ele>280.604</ele>
        <time>2020-08-02T10:46:03Z</time>
      </trkpt>
      <trkpt lat="46.54986" lon="4.54497">
        <ele>278.604</ele>
        <time>2020-08-02T10:46:08Z</time>
      </trkpt>
      <trkpt lat="46.54979" lon="4.54496">
        <ele>279.604</ele>
        <time>2020-08-02T10:46:14Z</time>
      </trkpt>
      <trkpt lat="46.54973" lon="4.54493">
        <ele>282.604</ele>
        <time>2020-08-02T10:46:19Z</time>
      </trkpt>
      <trkpt lat="46.54965" lon="4.54493">
        <ele>284.604</ele>
        <time>2020-08-02T10:46:24Z</time>
      </trkpt>
      <trkpt lat="46.54958" lon="4.54496">
        <ele>277.604</ele>
        <time>2020-08-02T10:46:31Z</time>
      </trkpt>
      <trkpt lat="46.54951" lon="4.54496">
        <ele>279.604</ele>
        <time>2020-08-02T10:46:37Z</time>
      </trkpt>
      <trkpt lat="46.54944" lon="4.54495">
        <ele>277.604</ele>
        <time>2020-08-02T10:46:43Z</time>
      </trkpt>
      <trkpt lat="46.54937" lon="4.5449">
        <ele>275.604</ele>
        <time>2020-08-02T10:46:49Z</time>
      </trkpt>
      <trkpt lat="46.5493" lon="4.54488">
        <ele>277.604</ele>
        <time>2020-08-02T10:46:55Z</time>
      </trkpt>
      <trkpt lat="46.54922" lon="4.54489">
        <ele>277.604</ele>
        <time>2020-08-02T10:47:02Z</time>
      </trkpt>
      <trkpt lat="46.54916" lon="4.5449">
        <ele>277.604</ele>
        <time>2020-08-02T10:47:09Z</time>
      </trkpt>
      <trkpt lat="46.54909" lon="4.54485">
        <ele>278.604</ele>
        <time>2020-08-02T10:47:16Z</time>
      </trkpt>
      <trkpt lat="46.54902" lon="4.54481">
        <ele>282.604</ele>
        <time>2020-08-02T10:47:24Z</time>
      </trkpt>
      <trkpt lat="46.54894" lon="4.54479">
        <ele>278.604</ele>
        <time>2020-08-02T10:47:30Z</time>
      </trkpt>
      <trkpt lat="46.54887" lon="4.54481">
        <ele>278.604</ele>
        <time>2020-08-02T10:47:35Z</time>
      </trkpt>
      <trkpt lat="46.5488" lon="4.54485">
        <ele>279.604</ele>
        <time>2020-08-02T10:47:40Z</time>
      </trkpt>
      <trkpt lat="46.54873" lon="4.54486">
        <ele>278.604</ele>
        <time>2020-08-02T10:47:47Z</time>
      </trkpt>
      <trkpt lat="46.54866" lon="4.5448">
        <ele>279.604</ele>
        <time>2020-08-02T10:47:52Z</time>
      </trkpt>
      <trkpt lat="46.54859" lon="4.54474">
        <ele>280.604</ele>
        <time>2020-08-02T10:47:57Z</time>
      </trkpt>
      <trkpt lat="46.54852" lon="4.54468">
        <ele>282.604</ele>
        <time>2020-08-02T10:48:02Z</time>
      </trkpt>
      <trkpt lat="46.54844" lon="4.54464">
        <ele>283.604</ele>
        <time>2020-08-02T10:48:07Z</time>
      </trkpt>
      <trkpt lat="46.54839" lon="4.54457">
        <ele>284.604</ele>
        <time>2020-08-02T10:48:14Z</time>
      </trkpt>
      <trkpt lat="46.54832" lon="4.54453">
        <ele>284.604</ele>
        <time>2020-08-02T10:48:20Z</time>
      </trkpt>
      <trkpt lat="46.54825" lon="4.54446">
        <ele>288.604</ele>
        <time>2020-08-02T10:48:25Z</time>
      </trkpt>
      <trkpt lat="46.54819" lon="4.54442">
        <ele>286.604</ele>
        <time>2020-08-02T10:48:32Z</time>
      </trkpt>
      <trkpt lat="46.54812" lon="4.54437">
        <ele>285.604</ele>
        <time>2020-08-02T10:48:46Z</time>
      </trkpt>
      <trkpt lat="46.54805" lon="4.54431">
        <ele>287.604</ele>
        <time>2020-08-02T10:48:54Z</time>
      </trkpt>
      <trkpt lat="46.54799" lon="4.54425">
        <ele>289.604</ele>
        <time>2020-08-02T10:48:59Z</time>
      </trkpt>
      <trkpt lat="46.54792" lon="4.54416">
        <ele>289.604</ele>
        <time>2020-08-02T10:49:04Z</time>
      </trkpt>
      <trkpt lat="46.54786" lon="4.54409">
        <ele>290.604</ele>
        <time>2020-08-02T10:49:10Z</time>
      </trkpt>
      <trkpt lat="46.54784" lon="4.54399">
        <ele>289.604</ele>
        <time>2020-08-02T10:49:15Z</time>
      </trkpt>
      <trkpt lat="46.54783" lon="4.54389">
        <ele>291.604</ele>
        <time>2020-08-02T10:49:20Z</time>
      </trkpt>
      <trkpt lat="46.54781" lon="4.5438">
        <ele>293.604</ele>
        <time>2020-08-02T10:49:25Z</time>
      </trkpt>
      <trkpt lat="46.5478" lon="4.54369">
        <ele>296.604</ele>
        <time>2020-08-02T10:49:30Z</time>
      </trkpt>
      <trkpt lat="46.54777" lon="4.54359">
        <ele>296.604</ele>
        <time>2020-08-02T10:49:37Z</time>
      </trkpt>
      <trkpt lat="46.54771" lon="4.54351">
        <ele>297.604</ele>
        <time>2020-08-02T10:49:43Z</time>
      </trkpt>
      <trkpt lat="46.54767" lon="4.54344">
        <ele>296.604</ele>
        <time>2020-08-02T10:49:48Z</time>
      </trkpt>
      <trkpt lat="46.54762" lon="4.54336">
        <ele>297.604</ele>
        <time>2020-08-02T10:49:54Z</time>
      </trkpt>
      <trkpt lat="46.54757" lon="4.54327">
        <ele>300.604</ele>
        <time>2020-08-02T10:49:59Z</time>
      </trkpt>
      <trkpt lat="46.54754" lon="4.54318">
        <ele>297.604</ele>
        <time>2020-08-02T10:50:06Z</time>
      </trkpt>
      <trkpt lat="46.54749" lon="4.5431">
        <ele>298.604</ele>
        <time>2020-08-02T10:50:14Z</time>
      </trkpt>
      <trkpt lat="46.54742" lon="4.54305">
        <ele>293.604</ele>
        <time>2020-08-02T10:50:19Z</time>
      </trkpt>
      <trkpt lat="46.54735" lon="4.54301">
        <ele>290.604</ele>
        <time>2020-08-02T10:50:24Z</time>
      </trkpt>
      <trkpt lat="46.54728" lon="4.54303">
        <ele>285.604</ele>
        <time>2020-08-02T10:50:31Z</time>
      </trkpt>
      <trkpt lat="46.54722" lon="4.54298">
        <ele>284.604</ele>
        <time>2020-08-02T10:50:36Z</time>
      </trkpt>
      <trkpt lat="46.54715" lon="4.54294">
        <ele>279.604</ele>
        <time>2020-08-02T10:50:42Z</time>
      </trkpt>
      <trkpt lat="46.54708" lon="4.54294">
        <ele>273.604</ele>
        <time>2020-08-02T10:50:51Z</time>
      </trkpt>
      <trkpt lat="46.547" lon="4.5429">
        <ele>274.604</ele>
        <time>2020-08-02T10:50:56Z</time>
      </trkpt>
      <trkpt lat="46.54694" lon="4.54285">
        <ele>277.604</ele>
        <time>2020-08-02T10:51:01Z</time>
      </trkpt>
      <trkpt lat="46.54686" lon="4.54283">
        <ele>274.604</ele>
        <time>2020-08-02T10:51:06Z</time>
      </trkpt>
      <trkpt lat="46.5468" lon="4.54279">
        <ele>276.603</ele>
        <time>2020-08-02T10:51:11Z</time>
      </trkpt>
      <trkpt lat="46.54673" lon="4.54275">
        <ele>276.603</ele>
        <time>2020-08-02T10:51:16Z</time>
      </trkpt>
      <trkpt lat="46.54663" lon="4.54271">
        <ele>279.603</ele>
        <time>2020-08-02T10:51:21Z</time>
      </trkpt>
      <trkpt lat="46.54656" lon="4.54267">
        <ele>280.603</ele>
        <time>2020-08-02T10:51:28Z</time>
      </trkpt>
      <trkpt lat="46.54649" lon="4.54261">
        <ele>279.603</ele>
        <time>2020-08-02T10:51:33Z</time>
      </trkpt>
      <trkpt lat="46.5464" lon="4.54257">
        <ele>280.603</ele>
        <time>2020-08-02T10:51:38Z</time>
      </trkpt>
      <trkpt lat="46.54635" lon="4.54251">
        <ele>281.603</ele>
        <time>2020-08-02T10:51:44Z</time>
      </trkpt>
      <trkpt lat="46.54628" lon="4.54237">
        <ele>284.603</ele>
        <time>2020-08-02T10:51:49Z</time>
      </trkpt>
      <trkpt lat="46.54621" lon="4.54229">
        <ele>282.603</ele>
        <time>2020-08-02T10:52:00Z</time>
      </trkpt>
      <trkpt lat="46.54615" lon="4.54222">
        <ele>277.603</ele>
        <time>2020-08-02T10:52:07Z</time>
      </trkpt>
      <trkpt lat="46.54608" lon="4.54215">
        <ele>276.603</ele>
        <time>2020-08-02T10:52:12Z</time>
      </trkpt>
      <trkpt lat="46.54603" lon="4.54208">
        <ele>276.603</ele>
        <time>2020-08-02T10:52:17Z</time>
      </trkpt>
      <trkpt lat="46.54599" lon="4.542">
        <ele>273.603</ele>
        <time>2020-08-02T10:52:22Z</time>
      </trkpt>
      <trkpt lat="46.54592" lon="4.54192">
        <ele>273.603</ele>
        <time>2020-08-02T10:52:27Z</time>
      </trkpt>
      <trkpt lat="46.54586" lon="4.54184">
        <ele>273.603</ele>
        <time>2020-08-02T10:52:32Z</time>
      </trkpt>
      <trkpt lat="46.54581" lon="4.54176">
        <ele>272.603</ele>
        <time>2020-08-02T10:52:38Z</time>
      </trkpt>
      <trkpt lat="46.54574" lon="4.54169">
        <ele>273.603</ele>
        <time>2020-08-02T10:52:43Z</time>
      </trkpt>
      <trkpt lat="46.54566" lon="4.5416">
        <ele>272.603</ele>
        <time>2020-08-02T10:52:48Z</time>
      </trkpt>
      <trkpt lat="46.54561" lon="4.54154">
        <ele>273.603</ele>
        <time>2020-08-02T10:52:55Z</time>
      </trkpt>
      <trkpt lat="46.54555" lon="4.54147">
        <ele>271.603</ele>
        <time>2020-08-02T10:53:00Z</time>
      </trkpt>
      <trkpt lat="46.54548" lon="4.5414">
        <ele>270.603</ele>
        <time>2020-08-02T10:53:05Z</time>
      </trkpt>
      <trkpt lat="46.54544" lon="4.54133">
        <ele>270.603</ele>
        <time>2020-08-02T10:53:12Z</time>
      </trkpt>
      <trkpt lat="46.54539" lon="4.54127">
        <ele>270.603</ele>
        <time>2020-08-02T10:53:17Z</time>
      </trkpt>
      <trkpt lat="46.5453" lon="4.5412">
        <ele>269.603</ele>
        <time>2020-08-02T10:53:22Z</time>
      </trkpt>
      <trkpt lat="46.54524" lon="4.54114">
        <ele>267.603</ele>
        <time>2020-08-02T10:53:29Z</time>
      </trkpt>
      <trkpt lat="46.54519" lon="4.54105">
        <ele>266.603</ele>
        <time>2020-08-02T10:53:34Z</time>
      </trkpt>
      <trkpt lat="46.54514" lon="4.54096">
        <ele>266.603</ele>
        <time>2020-08-02T10:53:39Z</time>
      </trkpt>
      <trkpt lat="46.54506" lon="4.54087">
        <ele>267.603</ele>
        <time>2020-08-02T10:53:44Z</time>
      </trkpt>
      <trkpt lat="46.54501" lon="4.5408">
        <ele>265.603</ele>
        <time>2020-08-02T10:53:51Z</time>
      </trkpt>
      <trkpt lat="46.54495" lon="4.54073">
        <ele>261.603</ele>
        <time>2020-08-02T10:53:57Z</time>
      </trkpt>
      <trkpt lat="46.54489" lon="4.54067">
        <ele>262.603</ele>
        <time>2020-08-02T10:54:02Z</time>
      </trkpt>
      <trkpt lat="46.54483" lon="4.54055">
        <ele>261.603</ele>
        <time>2020-08-02T10:54:07Z</time>
      </trkpt>
      <trkpt lat="46.54478" lon="4.54047">
        <ele>260.603</ele>
        <time>2020-08-02T10:54:14Z</time>
      </trkpt>
      <trkpt lat="46.54475" lon="4.54039">
        <ele>257.603</ele>
        <time>2020-08-02T10:54:19Z</time>
      </trkpt>
      <trkpt lat="46.54468" lon="4.54033">
        <ele>257.603</ele>
        <time>2020-08-02T10:54:24Z</time>
      </trkpt>
      <trkpt lat="46.5446" lon="4.54023">
        <ele>255.603</ele>
        <time>2020-08-02T10:54:29Z</time>
      </trkpt>
      <trkpt lat="46.54456" lon="4.54014">
        <ele>253.603</ele>
        <time>2020-08-02T10:54:37Z</time>
      </trkpt>
      <trkpt lat="46.54453" lon="4.54005">
        <ele>253.603</ele>
        <time>2020-08-02T10:54:42Z</time>
      </trkpt>
      <trkpt lat="46.54445" lon="4.53991">
        <ele>255.603</ele>
        <time>2020-08-02T10:54:47Z</time>
      </trkpt>
      <trkpt lat="46.54442" lon="4.53982">
        <ele>252.603</ele>
        <time>2020-08-02T10:54:52Z</time>
      </trkpt>
      <trkpt lat="46.54438" lon="4.53972">
        <ele>253.603</ele>
        <time>2020-08-02T10:54:59Z</time>
      </trkpt>
      <trkpt lat="46.54434" lon="4.53963">
        <ele>251.603</ele>
        <time>2020-08-02T10:55:04Z</time>
      </trkpt>
      <trkpt lat="46.54428" lon="4.53952">
        <ele>253.603</ele>
        <time>2020-08-02T10:55:09Z</time>
      </trkpt>
      <trkpt lat="46.54422" lon="4.53948">
        <ele>251.603</ele>
        <time>2020-08-02T10:55:14Z</time>
      </trkpt>
      <trkpt lat="46.54418" lon="4.5394">
        <ele>248.603</ele>
        <time>2020-08-02T10:55:22Z</time>
      </trkpt>
      <trkpt lat="46.54411" lon="4.53936">
        <ele>246.602</ele>
        <time>2020-08-02T10:55:27Z</time>
      </trkpt>
      <trkpt lat="46.54405" lon="4.53926">
        <ele>245.602</ele>
        <time>2020-08-02T10:55:32Z</time>
      </trkpt>
      <trkpt lat="46.54399" lon="4.5392">
        <ele>245.602</ele>
        <time>2020-08-02T10:55:39Z</time>
      </trkpt>
      <trkpt lat="46.54393" lon="4.53908">
        <ele>246.602</ele>
        <time>2020-08-02T10:55:44Z</time>
      </trkpt>
      <trkpt lat="46.54387" lon="4.53903">
        <ele>245.602</ele>
        <time>2020-08-02T10:55:49Z</time>
      </trkpt>
      <trkpt lat="46.54379" lon="4.53895">
        <ele>246.602</ele>
        <time>2020-08-02T10:55:54Z</time>
      </trkpt>
      <trkpt lat="46.54371" lon="4.53889">
        <ele>247.602</ele>
        <time>2020-08-02T10:55:59Z</time>
      </trkpt>
      <trkpt lat="46.54365" lon="4.53884">
        <ele>246.602</ele>
        <time>2020-08-02T10:56:05Z</time>
      </trkpt>
      <trkpt lat="46.54358" lon="4.53876">
        <ele>246.602</ele>
        <time>2020-08-02T10:56:10Z</time>
      </trkpt>
      <trkpt lat="46.54351" lon="4.53876">
        <ele>247.602</ele>
        <time>2020-08-02T10:56:16Z</time>
      </trkpt>
      <trkpt lat="46.54339" lon="4.53871">
        <ele>246.602</ele>
        <time>2020-08-02T10:56:21Z</time>
      </trkpt>
      <trkpt lat="46.54333" lon="4.53868">
        <ele>244.602</ele>
        <time>2020-08-02T10:56:29Z</time>
      </trkpt>
      <trkpt lat="46.54325" lon="4.53864">
        <ele>245.602</ele>
        <time>2020-08-02T10:56:34Z</time>
      </trkpt>
      <trkpt lat="46.54319" lon="4.53859">
        <ele>245.602</ele>
        <time>2020-08-02T10:56:39Z</time>
      </trkpt>
      <trkpt lat="46.5431" lon="4.53861">
        <ele>241.602</ele>
        <time>2020-08-02T10:56:44Z</time>
      </trkpt>
      <trkpt lat="46.54302" lon="4.5386">
        <ele>240.602</ele>
        <time>2020-08-02T10:56:49Z</time>
      </trkpt>
      <trkpt lat="46.54295" lon="4.53858">
        <ele>239.602</ele>
        <time>2020-08-02T10:56:57Z</time>
      </trkpt>
      <trkpt lat="46.54287" lon="4.53856">
        <ele>239.602</ele>
        <time>2020-08-02T10:57:02Z</time>
      </trkpt>
      <trkpt lat="46.54279" lon="4.53855">
        <ele>238.602</ele>
        <time>2020-08-02T10:57:07Z</time>
      </trkpt>
      <trkpt lat="46.54269" lon="4.53851">
        <ele>238.602</ele>
        <time>2020-08-02T10:57:12Z</time>
      </trkpt>
      <trkpt lat="46.54261" lon="4.53851">
        <ele>239.602</ele>
        <time>2020-08-02T10:57:19Z</time>
      </trkpt>
      <trkpt lat="46.54252" lon="4.53849">
        <ele>240.602</ele>
        <time>2020-08-02T10:57:24Z</time>
      </trkpt>
      <trkpt lat="46.54243" lon="4.53851">
        <ele>240.602</ele>
        <time>2020-08-02T10:57:29Z</time>
      </trkpt>
      <trkpt lat="46.54234" lon="4.53853">
        <ele>240.602</ele>
        <time>2020-08-02T10:57:34Z</time>
      </trkpt>
      <trkpt lat="46.54227" lon="4.5385">
        <ele>240.602</ele>
        <time>2020-08-02T10:57:40Z</time>
      </trkpt>
      <trkpt lat="46.5422" lon="4.53847">
        <ele>239.602</ele>
        <time>2020-08-02T10:57:45Z</time>
      </trkpt>
      <trkpt lat="46.54213" lon="4.5385">
        <ele>229.602</ele>
        <time>2020-08-02T10:57:52Z</time>
      </trkpt>
      <trkpt lat="46.54204" lon="4.53849">
        <ele>231.602</ele>
        <time>2020-08-02T10:57:57Z</time>
      </trkpt>
      <trkpt lat="46.54195" lon="4.53848">
        <ele>232.602</ele>
        <time>2020-08-02T10:58:02Z</time>
      </trkpt>
      <trkpt lat="46.54189" lon="4.53843">
        <ele>231.602</ele>
        <time>2020-08-02T10:58:07Z</time>
      </trkpt>
      <trkpt lat="46.54183" lon="4.53835">
        <ele>231.602</ele>
        <time>2020-08-02T10:58:12Z</time>
      </trkpt>
      <trkpt lat="46.54178" lon="4.53828">
        <ele>230.602</ele>
        <time>2020-08-02T10:58:19Z</time>
      </trkpt>
      <trkpt lat="46.54174" lon="4.53816">
        <ele>230.602</ele>
        <time>2020-08-02T10:58:27Z</time>
      </trkpt>
      <trkpt lat="46.5417" lon="4.53804">
        <ele>232.602</ele>
        <time>2020-08-02T10:58:32Z</time>
      </trkpt>
      <trkpt lat="46.5417" lon="4.53794">
        <ele>233.602</ele>
        <time>2020-08-02T10:58:37Z</time>
      </trkpt>
      <trkpt lat="46.54166" lon="4.53786">
        <ele>235.602</ele>
        <time>2020-08-02T10:58:50Z</time>
      </trkpt>
      <trkpt lat="46.5416" lon="4.53778">
        <ele>235.602</ele>
        <time>2020-08-02T10:58:55Z</time>
      </trkpt>
      <trkpt lat="46.54154" lon="4.53772">
        <ele>234.602</ele>
        <time>2020-08-02T10:59:01Z</time>
      </trkpt>
      <trkpt lat="46.54147" lon="4.53766">
        <ele>236.602</ele>
        <time>2020-08-02T10:59:06Z</time>
      </trkpt>
      <trkpt lat="46.54141" lon="4.53765">
        <ele>235.602</ele>
        <time>2020-08-02T10:59:11Z</time>
      </trkpt>
      <trkpt lat="46.54134" lon="4.53762">
        <ele>233.602</ele>
        <time>2020-08-02T10:59:16Z</time>
      </trkpt>
      <trkpt lat="46.54127" lon="4.53757">
        <ele>233.602</ele>
        <time>2020-08-02T10:59:21Z</time>
      </trkpt>
      <trkpt lat="46.54119" lon="4.53755">
        <ele>232.602</ele>
        <time>2020-08-02T10:59:27Z</time>
      </trkpt>
      <trkpt lat="46.54111" lon="4.53751">
        <ele>234.602</ele>
        <time>2020-08-02T10:59:32Z</time>
      </trkpt>
      <trkpt lat="46.54105" lon="4.53747">
        <ele>235.602</ele>
        <time>2020-08-02T10:59:38Z</time>
      </trkpt>
      <trkpt lat="46.54098" lon="4.53743">
        <ele>235.602</ele>
        <time>2020-08-02T10:59:43Z</time>
      </trkpt>
      <trkpt lat="46.54091" lon="4.53739">
        <ele>235.601</ele>
        <time>2020-08-02T10:59:49Z</time>
      </trkpt>
      <trkpt lat="46.54087" lon="4.53728">
        <ele>233.601</ele>
        <time>2020-08-02T10:59:54Z</time>
      </trkpt>
      <trkpt lat="46.54083" lon="4.53721">
        <ele>230.601</ele>
        <time>2020-08-02T10:59:59Z</time>
      </trkpt>
      <trkpt lat="46.54081" lon="4.53711">
        <ele>233.601</ele>
        <time>2020-08-02T11:00:04Z</time>
      </trkpt>
      <trkpt lat="46.5408" lon="4.53697">
        <ele>235.601</ele>
        <time>2020-08-02T11:00:09Z</time>
      </trkpt>
      <trkpt lat="46.54079" lon="4.53683">
        <ele>239.601</ele>
        <time>2020-08-02T11:00:14Z</time>
      </trkpt>
      <trkpt lat="46.54079" lon="4.53673">
        <ele>237.601</ele>
        <time>2020-08-02T11:00:19Z</time>
      </trkpt>
      <trkpt lat="46.54081" lon="4.53663">
        <ele>235.601</ele>
        <time>2020-08-02T11:00:26Z</time>
      </trkpt>
      <trkpt lat="46.54086" lon="4.53652">
        <ele>234.601</ele>
        <time>2020-08-02T11:00:31Z</time>
      </trkpt>
      <trkpt lat="46.54091" lon="4.53642">
        <ele>231.601</ele>
        <time>2020-08-02T11:00:36Z</time>
      </trkpt>
      <trkpt lat="46.54091" lon="4.5363">
        <ele>231.601</ele>
        <time>2020-08-02T11:00:41Z</time>
      </trkpt>
      <trkpt lat="46.54095" lon="4.5362">
        <ele>229.601</ele>
        <time>2020-08-02T11:00:46Z</time>
      </trkpt>
      <trkpt lat="46.54096" lon="4.53609">
        <ele>232.601</ele>
        <time>2020-08-02T11:00:52Z</time>
      </trkpt>
      <trkpt lat="46.54096" lon="4.536">
        <ele>233.601</ele>
        <time>2020-08-02T11:00:57Z</time>
      </trkpt>
      <trkpt lat="46.54097" lon="4.53588">
        <ele>233.601</ele>
        <time>2020-08-02T11:01:02Z</time>
      </trkpt>
      <trkpt lat="46.54098" lon="4.53578">
        <ele>230.601</ele>
        <time>2020-08-02T11:01:08Z</time>
      </trkpt>
      <trkpt lat="46.54103" lon="4.53569">
        <ele>230.601</ele>
        <time>2020-08-02T11:01:14Z</time>
      </trkpt>
      <trkpt lat="46.54106" lon="4.53558">
        <ele>231.601</ele>
        <time>2020-08-02T11:01:19Z</time>
      </trkpt>
      <trkpt lat="46.54109" lon="4.53547">
        <ele>230.601</ele>
        <time>2020-08-02T11:01:24Z</time>
      </trkpt>
      <trkpt lat="46.54109" lon="4.53536">
        <ele>233.601</ele>
        <time>2020-08-02T11:01:30Z</time>
      </trkpt>
      <trkpt lat="46.54107" lon="4.53527">
        <ele>234.601</ele>
        <time>2020-08-02T11:01:35Z</time>
      </trkpt>
      <trkpt lat="46.54102" lon="4.53516">
        <ele>235.601</ele>
        <time>2020-08-02T11:01:40Z</time>
      </trkpt>
      <trkpt lat="46.541" lon="4.53506">
        <ele>238.601</ele>
        <time>2020-08-02T11:01:45Z</time>
      </trkpt>
      <trkpt lat="46.54099" lon="4.53495">
        <ele>239.601</ele>
        <time>2020-08-02T11:01:53Z</time>
      </trkpt>
      <trkpt lat="46.54094" lon="4.53487">
        <ele>239.601</ele>
        <time>2020-08-02T11:01:59Z</time>
      </trkpt>
      <trkpt lat="46.54091" lon="4.53478">
        <ele>235.601</ele>
        <time>2020-08-02T11:02:05Z</time>
      </trkpt>
      <trkpt lat="46.54088" lon="4.53467">
        <ele>236.601</ele>
        <time>2020-08-02T11:02:11Z</time>
      </trkpt>
      <trkpt lat="46.54081" lon="4.53463">
        <ele>235.601</ele>
        <time>2020-08-02T11:02:17Z</time>
      </trkpt>
      <trkpt lat="46.54076" lon="4.53457">
        <ele>235.601</ele>
        <time>2020-08-02T11:02:22Z</time>
      </trkpt>
      <trkpt lat="46.54068" lon="4.53455">
        <ele>235.601</ele>
        <time>2020-08-02T11:02:27Z</time>
      </trkpt>
      <trkpt lat="46.54061" lon="4.53452">
        <ele>232.601</ele>
        <time>2020-08-02T11:02:32Z</time>
      </trkpt>
      <trkpt lat="46.54058" lon="4.5346">
        <ele>234.601</ele>
        <time>2020-08-02T11:02:43Z</time>
      </trkpt>
      <trkpt lat="46.54056" lon="4.53451">
        <ele>239.601</ele>
        <time>2020-08-02T11:04:03Z</time>
      </trkpt>
      <trkpt lat="46.54049" lon="4.53447">
        <ele>237.601</ele>
        <time>2020-08-02T11:04:12Z</time>
      </trkpt>
      <trkpt lat="46.54042" lon="4.53444">
        <ele>236.601</ele>
        <time>2020-08-02T11:04:17Z</time>
      </trkpt>
      <trkpt lat="46.54035" lon="4.53443">
        <ele>232.601</ele>
        <time>2020-08-02T11:04:23Z</time>
      </trkpt>
      <trkpt lat="46.54028" lon="4.53442">
        <ele>230.601</ele>
        <time>2020-08-02T11:04:29Z</time>
      </trkpt>
      <trkpt lat="46.54022" lon="4.53445">
        <ele>231.601</ele>
        <time>2020-08-02T11:04:35Z</time>
      </trkpt>
      <trkpt lat="46.54014" lon="4.53444">
        <ele>230.601</ele>
        <time>2020-08-02T11:04:42Z</time>
      </trkpt>
      <trkpt lat="46.54005" lon="4.53441">
        <ele>233.601</ele>
        <time>2020-08-02T11:04:47Z</time>
      </trkpt>
      <trkpt lat="46.53998" lon="4.53439">
        <ele>233.601</ele>
        <time>2020-08-02T11:04:52Z</time>
      </trkpt>
      <trkpt lat="46.5399" lon="4.5344">
        <ele>233.601</ele>
        <time>2020-08-02T11:04:57Z</time>
      </trkpt>
      <trkpt lat="46.53982" lon="4.53443">
        <ele>233.601</ele>
        <time>2020-08-02T11:05:05Z</time>
      </trkpt>
      <trkpt lat="46.53975" lon="4.53443">
        <ele>233.601</ele>
        <time>2020-08-02T11:05:10Z</time>
      </trkpt>
      <trkpt lat="46.53967" lon="4.53441">
        <ele>229.601</ele>
        <time>2020-08-02T11:05:18Z</time>
      </trkpt>
      <trkpt lat="46.53956" lon="4.53436">
        <ele>227.601</ele>
        <time>2020-08-02T11:05:23Z</time>
      </trkpt>
      <trkpt lat="46.53949" lon="4.53431">
        <ele>229.601</ele>
        <time>2020-08-02T11:05:29Z</time>
      </trkpt>
      <trkpt lat="46.53943" lon="4.53433">
        <ele>225.601</ele>
        <time>2020-08-02T11:05:35Z</time>
      </trkpt>
      <trkpt lat="46.53936" lon="4.53428">
        <ele>227.601</ele>
        <time>2020-08-02T11:05:40Z</time>
      </trkpt>
      <trkpt lat="46.53927" lon="4.53421">
        <ele>229.601</ele>
        <time>2020-08-02T11:05:46Z</time>
      </trkpt>
      <trkpt lat="46.53918" lon="4.53417">
        <ele>232.601</ele>
        <time>2020-08-02T11:05:51Z</time>
      </trkpt>
      <trkpt lat="46.53912" lon="4.53414">
        <ele>233.601</ele>
        <time>2020-08-02T11:05:56Z</time>
      </trkpt>
      <trkpt lat="46.53904" lon="4.53412">
        <ele>232.601</ele>
        <time>2020-08-02T11:06:02Z</time>
      </trkpt>
      <trkpt lat="46.53898" lon="4.53408">
        <ele>234.601</ele>
        <time>2020-08-02T11:06:07Z</time>
      </trkpt>
      <trkpt lat="46.53891" lon="4.53405">
        <ele>235.601</ele>
        <time>2020-08-02T11:06:12Z</time>
      </trkpt>
      <trkpt lat="46.53884" lon="4.53405">
        <ele>235.601</ele>
        <time>2020-08-02T11:06:18Z</time>
      </trkpt>
      <trkpt lat="46.53877" lon="4.53401">
        <ele>236.601</ele>
        <time>2020-08-02T11:06:23Z</time>
      </trkpt>
      <trkpt lat="46.5387" lon="4.53398">
        <ele>237.601</ele>
        <time>2020-08-02T11:06:29Z</time>
      </trkpt>
      <trkpt lat="46.53862" lon="4.53394">
        <ele>235.601</ele>
        <time>2020-08-02T11:06:34Z</time>
      </trkpt>
      <trkpt lat="46.53855" lon="4.53392">
        <ele>236.601</ele>
        <time>2020-08-02T11:06:40Z</time>
      </trkpt>
      <trkpt lat="46.53848" lon="4.53386">
        <ele>239.601</ele>
        <time>2020-08-02T11:06:45Z</time>
      </trkpt>
      <trkpt lat="46.53841" lon="4.53381">
        <ele>239.601</ele>
        <time>2020-08-02T11:06:53Z</time>
      </trkpt>
      <trkpt lat="46.53833" lon="4.53378">
        <ele>240.601</ele>
        <time>2020-08-02T11:06:58Z</time>
      </trkpt>
      <trkpt lat="46.53826" lon="4.53373">
        <ele>242.6</ele>
        <time>2020-08-02T11:07:03Z</time>
      </trkpt>
      <trkpt lat="46.5382" lon="4.53367">
        <ele>240.6</ele>
        <time>2020-08-02T11:07:08Z</time>
      </trkpt>
      <trkpt lat="46.53811" lon="4.53357">
        <ele>240.6</ele>
        <time>2020-08-02T11:07:13Z</time>
      </trkpt>
      <trkpt lat="46.53805" lon="4.53353">
        <ele>242.6</ele>
        <time>2020-08-02T11:07:19Z</time>
      </trkpt>
      <trkpt lat="46.53798" lon="4.53349">
        <ele>242.6</ele>
        <time>2020-08-02T11:07:26Z</time>
      </trkpt>
      <trkpt lat="46.53791" lon="4.53344">
        <ele>242.6</ele>
        <time>2020-08-02T11:07:33Z</time>
      </trkpt>
      <trkpt lat="46.53786" lon="4.53336">
        <ele>244.6</ele>
        <time>2020-08-02T11:07:38Z</time>
      </trkpt>
      <trkpt lat="46.5378" lon="4.5333">
        <ele>246.6</ele>
        <time>2020-08-02T11:07:43Z</time>
      </trkpt>
      <trkpt lat="46.53771" lon="4.53327">
        <ele>248.6</ele>
        <time>2020-08-02T11:07:48Z</time>
      </trkpt>
      <trkpt lat="46.53764" lon="4.5333">
        <ele>247.6</ele>
        <time>2020-08-02T11:08:14Z</time>
      </trkpt>
      <trkpt lat="46.5377" lon="4.53335">
        <ele>247.6</ele>
        <time>2020-08-02T11:08:44Z</time>
      </trkpt>
      <trkpt lat="46.53774" lon="4.53342">
        <ele>247.6</ele>
        <time>2020-08-02T11:08:49Z</time>
      </trkpt>
      <trkpt lat="46.53775" lon="4.53354">
        <ele>243.6</ele>
        <time>2020-08-02T11:08:55Z</time>
      </trkpt>
      <trkpt lat="46.53778" lon="4.53363">
        <ele>237.6</ele>
        <time>2020-08-02T11:09:04Z</time>
      </trkpt>
      <trkpt lat="46.53783" lon="4.53369">
        <ele>239.6</ele>
        <time>2020-08-02T11:09:21Z</time>
      </trkpt>
    </trkseg>
  </trk>
</gpx>